<?xml version="1.0" encoding="UTF-8" standalone="no" ?>
<gpx xmlns="http://www.topografix.com/GPX/1/1" xmlns:xsi="http://www.w3.org/2001/XMLSchema-instance" xsi:schemaLocation="http://www.topografix.com/GPX/1/1 http://www.topografix.com/GPX/1/1/gpx.xsd" version="1.1" creator="VisuGPX - https://www.visugpx.com">
  <metadata>
    <name>Lacs de Crupillouse</name>
    <desc><![CDATA[Carte IGN 3437OT Champsaur - Vieux Chaillol 
lacs de Crupillouse depuis les Baumes]]></desc>
  </metadata>
  <trk>
    <name><![CDATA[DG-200 DataLog-1 2017-08-29 05:52:26]]></name>
    <trkseg>
      <trkpt lat="44.73861" lon="6.2469">
        <ele>1357</ele>
        <time>2017-08-29T05:52:26Z</time>
      </trkpt>
      <trkpt lat="44.73834" lon="6.24723">
        <ele>1419</ele>
        <time>2017-08-29T05:52:36Z</time>
      </trkpt>
      <trkpt lat="44.73828" lon="6.24721">
        <ele>1426</ele>
        <time>2017-08-29T05:52:46Z</time>
      </trkpt>
      <trkpt lat="44.73829" lon="6.24706">
        <ele>1419</ele>
        <time>2017-08-29T05:52:56Z</time>
      </trkpt>
      <trkpt lat="44.73831" lon="6.2469">
        <ele>1408</ele>
        <time>2017-08-29T05:53:06Z</time>
      </trkpt>
      <trkpt lat="44.73843" lon="6.24691">
        <ele>1395</ele>
        <time>2017-08-29T05:53:16Z</time>
      </trkpt>
      <trkpt lat="44.73852" lon="6.24684">
        <ele>1385</ele>
        <time>2017-08-29T05:53:26Z</time>
      </trkpt>
      <trkpt lat="44.73857" lon="6.24681">
        <ele>1383</ele>
        <time>2017-08-29T05:53:36Z</time>
      </trkpt>
      <trkpt lat="44.73867" lon="6.24672">
        <ele>1372</ele>
        <time>2017-08-29T05:53:46Z</time>
      </trkpt>
      <trkpt lat="44.7387" lon="6.24676">
        <ele>1381</ele>
        <time>2017-08-29T05:53:56Z</time>
      </trkpt>
      <trkpt lat="44.73881" lon="6.24681">
        <ele>1381</ele>
        <time>2017-08-29T05:54:06Z</time>
      </trkpt>
      <trkpt lat="44.73891" lon="6.24683">
        <ele>1377</ele>
        <time>2017-08-29T05:54:16Z</time>
      </trkpt>
      <trkpt lat="44.739" lon="6.24677">
        <ele>1371</ele>
        <time>2017-08-29T05:54:26Z</time>
      </trkpt>
      <trkpt lat="44.7391" lon="6.24672">
        <ele>1362</ele>
        <time>2017-08-29T05:54:36Z</time>
      </trkpt>
      <trkpt lat="44.7392" lon="6.24661">
        <ele>1349</ele>
        <time>2017-08-29T05:54:46Z</time>
      </trkpt>
      <trkpt lat="44.73922" lon="6.24669">
        <ele>1363</ele>
        <time>2017-08-29T05:54:56Z</time>
      </trkpt>
      <trkpt lat="44.73908" lon="6.24687">
        <ele>1395</ele>
        <time>2017-08-29T05:55:06Z</time>
      </trkpt>
      <trkpt lat="44.73896" lon="6.24696">
        <ele>1412</ele>
        <time>2017-08-29T05:55:16Z</time>
      </trkpt>
      <trkpt lat="44.73888" lon="6.24699">
        <ele>1420</ele>
        <time>2017-08-29T05:55:26Z</time>
      </trkpt>
      <trkpt lat="44.73883" lon="6.24692">
        <ele>1419</ele>
        <time>2017-08-29T05:55:36Z</time>
      </trkpt>
      <trkpt lat="44.73876" lon="6.24688">
        <ele>1422</ele>
        <time>2017-08-29T05:55:46Z</time>
      </trkpt>
      <trkpt lat="44.7387" lon="6.24685">
        <ele>1424</ele>
        <time>2017-08-29T05:55:56Z</time>
      </trkpt>
      <trkpt lat="44.7388" lon="6.24682">
        <ele>1421</ele>
        <time>2017-08-29T05:56:06Z</time>
      </trkpt>
      <trkpt lat="44.73896" lon="6.24669">
        <ele>1404</ele>
        <time>2017-08-29T05:56:16Z</time>
      </trkpt>
      <trkpt lat="44.73905" lon="6.24671">
        <ele>1404</ele>
        <time>2017-08-29T05:56:26Z</time>
      </trkpt>
      <trkpt lat="44.73916" lon="6.24662">
        <ele>1392</ele>
        <time>2017-08-29T05:56:36Z</time>
      </trkpt>
      <trkpt lat="44.73916" lon="6.24669">
        <ele>1406</ele>
        <time>2017-08-29T05:56:46Z</time>
      </trkpt>
      <trkpt lat="44.73923" lon="6.24663">
        <ele>1406</ele>
        <time>2017-08-29T05:56:56Z</time>
      </trkpt>
      <trkpt lat="44.73932" lon="6.24668">
        <ele>1408</ele>
        <time>2017-08-29T05:57:06Z</time>
      </trkpt>
      <trkpt lat="44.73941" lon="6.24663">
        <ele>1402</ele>
        <time>2017-08-29T05:57:16Z</time>
      </trkpt>
      <trkpt lat="44.73948" lon="6.24658">
        <ele>1394</ele>
        <time>2017-08-29T05:57:26Z</time>
      </trkpt>
      <trkpt lat="44.73952" lon="6.24663">
        <ele>1403</ele>
        <time>2017-08-29T05:57:36Z</time>
      </trkpt>
      <trkpt lat="44.73962" lon="6.24656">
        <ele>1394</ele>
        <time>2017-08-29T05:57:46Z</time>
      </trkpt>
      <trkpt lat="44.73976" lon="6.24645">
        <ele>1375</ele>
        <time>2017-08-29T05:57:56Z</time>
      </trkpt>
      <trkpt lat="44.73982" lon="6.24646">
        <ele>1378</ele>
        <time>2017-08-29T05:58:06Z</time>
      </trkpt>
      <trkpt lat="44.73985" lon="6.24649">
        <ele>1387</ele>
        <time>2017-08-29T05:58:16Z</time>
      </trkpt>
      <trkpt lat="44.74003" lon="6.24627">
        <ele>1356</ele>
        <time>2017-08-29T05:58:26Z</time>
      </trkpt>
      <trkpt lat="44.7402" lon="6.2462">
        <ele>1333</ele>
        <time>2017-08-29T05:58:36Z</time>
      </trkpt>
      <trkpt lat="44.74026" lon="6.24626">
        <ele>1337</ele>
        <time>2017-08-29T05:58:46Z</time>
      </trkpt>
      <trkpt lat="44.74021" lon="6.24641">
        <ele>1354</ele>
        <time>2017-08-29T05:58:56Z</time>
      </trkpt>
      <trkpt lat="44.74012" lon="6.24645">
        <ele>1367</ele>
        <time>2017-08-29T05:59:06Z</time>
      </trkpt>
      <trkpt lat="44.74002" lon="6.24652">
        <ele>1386</ele>
        <time>2017-08-29T05:59:16Z</time>
      </trkpt>
      <trkpt lat="44.74" lon="6.24659">
        <ele>1399</ele>
        <time>2017-08-29T05:59:26Z</time>
      </trkpt>
      <trkpt lat="44.74009" lon="6.24662">
        <ele>1398</ele>
        <time>2017-08-29T05:59:36Z</time>
      </trkpt>
      <trkpt lat="44.74018" lon="6.24662">
        <ele>1391</ele>
        <time>2017-08-29T05:59:46Z</time>
      </trkpt>
      <trkpt lat="44.74011" lon="6.24661">
        <ele>1398</ele>
        <time>2017-08-29T05:59:56Z</time>
      </trkpt>
      <trkpt lat="44.74007" lon="6.24665">
        <ele>1413</ele>
        <time>2017-08-29T06:00:06Z</time>
      </trkpt>
      <trkpt lat="44.74008" lon="6.24669">
        <ele>1424</ele>
        <time>2017-08-29T06:00:16Z</time>
      </trkpt>
      <trkpt lat="44.74013" lon="6.2468">
        <ele>1432</ele>
        <time>2017-08-29T06:00:26Z</time>
      </trkpt>
      <trkpt lat="44.74024" lon="6.24691">
        <ele>1425</ele>
        <time>2017-08-29T06:00:36Z</time>
      </trkpt>
      <trkpt lat="44.74032" lon="6.24694">
        <ele>1425</ele>
        <time>2017-08-29T06:00:46Z</time>
      </trkpt>
      <trkpt lat="44.74044" lon="6.24678">
        <ele>1411</ele>
        <time>2017-08-29T06:00:56Z</time>
      </trkpt>
      <trkpt lat="44.74045" lon="6.24692">
        <ele>1427</ele>
        <time>2017-08-29T06:01:06Z</time>
      </trkpt>
      <trkpt lat="44.74054" lon="6.24699">
        <ele>1427</ele>
        <time>2017-08-29T06:01:16Z</time>
      </trkpt>
      <trkpt lat="44.74062" lon="6.24701">
        <ele>1425</ele>
        <time>2017-08-29T06:01:26Z</time>
      </trkpt>
      <trkpt lat="44.74067" lon="6.24715">
        <ele>1433</ele>
        <time>2017-08-29T06:01:36Z</time>
      </trkpt>
      <trkpt lat="44.74071" lon="6.24729">
        <ele>1441</ele>
        <time>2017-08-29T06:01:46Z</time>
      </trkpt>
      <trkpt lat="44.74075" lon="6.24739">
        <ele>1445</ele>
        <time>2017-08-29T06:01:56Z</time>
      </trkpt>
      <trkpt lat="44.74075" lon="6.24738">
        <ele>1450</ele>
        <time>2017-08-29T06:02:06Z</time>
      </trkpt>
      <trkpt lat="44.74076" lon="6.24736">
        <ele>1447</ele>
        <time>2017-08-29T06:02:16Z</time>
      </trkpt>
      <trkpt lat="44.74087" lon="6.24732">
        <ele>1435</ele>
        <time>2017-08-29T06:02:26Z</time>
      </trkpt>
      <trkpt lat="44.74106" lon="6.2471">
        <ele>1407</ele>
        <time>2017-08-29T06:02:36Z</time>
      </trkpt>
      <trkpt lat="44.74118" lon="6.24703">
        <ele>1397</ele>
        <time>2017-08-29T06:02:46Z</time>
      </trkpt>
      <trkpt lat="44.74123" lon="6.24695">
        <ele>1398</ele>
        <time>2017-08-29T06:02:56Z</time>
      </trkpt>
      <trkpt lat="44.74124" lon="6.24698">
        <ele>1405</ele>
        <time>2017-08-29T06:03:06Z</time>
      </trkpt>
      <trkpt lat="44.74123" lon="6.24701">
        <ele>1418</ele>
        <time>2017-08-29T06:03:16Z</time>
      </trkpt>
      <trkpt lat="44.74126" lon="6.24718">
        <ele>1429</ele>
        <time>2017-08-29T06:03:26Z</time>
      </trkpt>
      <trkpt lat="44.74141" lon="6.24714">
        <ele>1417</ele>
        <time>2017-08-29T06:03:36Z</time>
      </trkpt>
      <trkpt lat="44.74148" lon="6.24718">
        <ele>1420</ele>
        <time>2017-08-29T06:03:46Z</time>
      </trkpt>
      <trkpt lat="44.74157" lon="6.24722">
        <ele>1417</ele>
        <time>2017-08-29T06:03:56Z</time>
      </trkpt>
      <trkpt lat="44.74165" lon="6.2472">
        <ele>1413</ele>
        <time>2017-08-29T06:04:06Z</time>
      </trkpt>
      <trkpt lat="44.74168" lon="6.24724">
        <ele>1421</ele>
        <time>2017-08-29T06:04:16Z</time>
      </trkpt>
      <trkpt lat="44.74175" lon="6.24722">
        <ele>1421</ele>
        <time>2017-08-29T06:04:26Z</time>
      </trkpt>
      <trkpt lat="44.74189" lon="6.24713">
        <ele>1407</ele>
        <time>2017-08-29T06:04:36Z</time>
      </trkpt>
      <trkpt lat="44.74189" lon="6.24723">
        <ele>1421</ele>
        <time>2017-08-29T06:04:46Z</time>
      </trkpt>
      <trkpt lat="44.74191" lon="6.2473">
        <ele>1435</ele>
        <time>2017-08-29T06:04:56Z</time>
      </trkpt>
      <trkpt lat="44.74196" lon="6.24732">
        <ele>1442</ele>
        <time>2017-08-29T06:05:06Z</time>
      </trkpt>
      <trkpt lat="44.74205" lon="6.24734">
        <ele>1437</ele>
        <time>2017-08-29T06:05:16Z</time>
      </trkpt>
      <trkpt lat="44.7421" lon="6.24742">
        <ele>1445</ele>
        <time>2017-08-29T06:05:26Z</time>
      </trkpt>
      <trkpt lat="44.74233" lon="6.24707">
        <ele>1407</ele>
        <time>2017-08-29T06:05:36Z</time>
      </trkpt>
      <trkpt lat="44.7424" lon="6.2471">
        <ele>1411</ele>
        <time>2017-08-29T06:05:46Z</time>
      </trkpt>
      <trkpt lat="44.74246" lon="6.24709">
        <ele>1411</ele>
        <time>2017-08-29T06:05:56Z</time>
      </trkpt>
      <trkpt lat="44.74258" lon="6.24697">
        <ele>1403</ele>
        <time>2017-08-29T06:06:06Z</time>
      </trkpt>
      <trkpt lat="44.74259" lon="6.24703">
        <ele>1411</ele>
        <time>2017-08-29T06:06:16Z</time>
      </trkpt>
      <trkpt lat="44.74258" lon="6.2471">
        <ele>1423</ele>
        <time>2017-08-29T06:06:26Z</time>
      </trkpt>
      <trkpt lat="44.74259" lon="6.24719">
        <ele>1434</ele>
        <time>2017-08-29T06:06:36Z</time>
      </trkpt>
      <trkpt lat="44.74258" lon="6.24732">
        <ele>1457</ele>
        <time>2017-08-29T06:06:46Z</time>
      </trkpt>
      <trkpt lat="44.74257" lon="6.2475">
        <ele>1481</ele>
        <time>2017-08-29T06:06:56Z</time>
      </trkpt>
      <trkpt lat="44.74258" lon="6.24755">
        <ele>1494</ele>
        <time>2017-08-29T06:07:06Z</time>
      </trkpt>
      <trkpt lat="44.74273" lon="6.24738">
        <ele>1477</ele>
        <time>2017-08-29T06:07:16Z</time>
      </trkpt>
      <trkpt lat="44.74286" lon="6.24729">
        <ele>1463</ele>
        <time>2017-08-29T06:07:26Z</time>
      </trkpt>
      <trkpt lat="44.74297" lon="6.24717">
        <ele>1451</ele>
        <time>2017-08-29T06:07:36Z</time>
      </trkpt>
      <trkpt lat="44.74305" lon="6.2471">
        <ele>1441</ele>
        <time>2017-08-29T06:07:46Z</time>
      </trkpt>
      <trkpt lat="44.74294" lon="6.24729">
        <ele>1472</ele>
        <time>2017-08-29T06:07:56Z</time>
      </trkpt>
      <trkpt lat="44.74296" lon="6.2473">
        <ele>1482</ele>
        <time>2017-08-29T06:08:06Z</time>
      </trkpt>
      <trkpt lat="44.74297" lon="6.24734">
        <ele>1489</ele>
        <time>2017-08-29T06:08:16Z</time>
      </trkpt>
      <trkpt lat="44.74302" lon="6.24734">
        <ele>1489</ele>
        <time>2017-08-29T06:08:26Z</time>
      </trkpt>
      <trkpt lat="44.74307" lon="6.24729">
        <ele>1484</ele>
        <time>2017-08-29T06:08:36Z</time>
      </trkpt>
      <trkpt lat="44.74308" lon="6.24728">
        <ele>1480</ele>
        <time>2017-08-29T06:08:46Z</time>
      </trkpt>
      <trkpt lat="44.7431" lon="6.24729">
        <ele>1479</ele>
        <time>2017-08-29T06:08:56Z</time>
      </trkpt>
      <trkpt lat="44.74311" lon="6.24727">
        <ele>1477</ele>
        <time>2017-08-29T06:09:05Z</time>
      </trkpt>
      <trkpt lat="44.74311" lon="6.24727">
        <ele>1477</ele>
        <time>2017-08-29T06:09:16Z</time>
      </trkpt>
      <trkpt lat="44.74311" lon="6.24727">
        <ele>1477</ele>
        <time>2017-08-29T06:09:26Z</time>
      </trkpt>
      <trkpt lat="44.74311" lon="6.24727">
        <ele>1477</ele>
        <time>2017-08-29T06:09:35Z</time>
      </trkpt>
      <trkpt lat="44.74311" lon="6.24727">
        <ele>1477</ele>
        <time>2017-08-29T06:09:46Z</time>
      </trkpt>
      <trkpt lat="44.74311" lon="6.24727">
        <ele>1477</ele>
        <time>2017-08-29T06:09:56Z</time>
      </trkpt>
      <trkpt lat="44.74311" lon="6.24727">
        <ele>1477</ele>
        <time>2017-08-29T06:10:05Z</time>
      </trkpt>
      <trkpt lat="44.74311" lon="6.24727">
        <ele>1477</ele>
        <time>2017-08-29T06:10:16Z</time>
      </trkpt>
      <trkpt lat="44.74311" lon="6.24727">
        <ele>1477</ele>
        <time>2017-08-29T06:10:26Z</time>
      </trkpt>
      <trkpt lat="44.74311" lon="6.24727">
        <ele>1477</ele>
        <time>2017-08-29T06:10:35Z</time>
      </trkpt>
      <trkpt lat="44.74311" lon="6.24727">
        <ele>1477</ele>
        <time>2017-08-29T06:10:46Z</time>
      </trkpt>
      <trkpt lat="44.74311" lon="6.24727">
        <ele>1477</ele>
        <time>2017-08-29T06:10:56Z</time>
      </trkpt>
      <trkpt lat="44.74311" lon="6.24727">
        <ele>1477</ele>
        <time>2017-08-29T06:11:05Z</time>
      </trkpt>
      <trkpt lat="44.74311" lon="6.24727">
        <ele>1477</ele>
        <time>2017-08-29T06:11:16Z</time>
      </trkpt>
      <trkpt lat="44.74311" lon="6.24727">
        <ele>1477</ele>
        <time>2017-08-29T06:11:26Z</time>
      </trkpt>
      <trkpt lat="44.74311" lon="6.24727">
        <ele>1477</ele>
        <time>2017-08-29T06:11:35Z</time>
      </trkpt>
      <trkpt lat="44.74311" lon="6.24727">
        <ele>1477</ele>
        <time>2017-08-29T06:11:46Z</time>
      </trkpt>
      <trkpt lat="44.74311" lon="6.24727">
        <ele>1477</ele>
        <time>2017-08-29T06:11:56Z</time>
      </trkpt>
      <trkpt lat="44.74311" lon="6.24727">
        <ele>1477</ele>
        <time>2017-08-29T06:12:05Z</time>
      </trkpt>
      <trkpt lat="44.74311" lon="6.24727">
        <ele>1477</ele>
        <time>2017-08-29T06:12:16Z</time>
      </trkpt>
      <trkpt lat="44.74311" lon="6.24727">
        <ele>1477</ele>
        <time>2017-08-29T06:12:26Z</time>
      </trkpt>
      <trkpt lat="44.74349" lon="6.24724">
        <ele>1480</ele>
        <time>2017-08-29T06:12:35Z</time>
      </trkpt>
      <trkpt lat="44.74349" lon="6.24724">
        <ele>1480</ele>
        <time>2017-08-29T06:12:46Z</time>
      </trkpt>
      <trkpt lat="44.74349" lon="6.24724">
        <ele>1480</ele>
        <time>2017-08-29T06:12:56Z</time>
      </trkpt>
      <trkpt lat="44.74349" lon="6.24724">
        <ele>1480</ele>
        <time>2017-08-29T06:13:05Z</time>
      </trkpt>
      <trkpt lat="44.74349" lon="6.24724">
        <ele>1480</ele>
        <time>2017-08-29T06:13:16Z</time>
      </trkpt>
      <trkpt lat="44.74387" lon="6.24735">
        <ele>1486</ele>
        <time>2017-08-29T06:13:26Z</time>
      </trkpt>
      <trkpt lat="44.74387" lon="6.24735">
        <ele>1486</ele>
        <time>2017-08-29T06:13:35Z</time>
      </trkpt>
      <trkpt lat="44.74387" lon="6.24735">
        <ele>1486</ele>
        <time>2017-08-29T06:13:46Z</time>
      </trkpt>
      <trkpt lat="44.74387" lon="6.24735">
        <ele>1486</ele>
        <time>2017-08-29T06:13:56Z</time>
      </trkpt>
      <trkpt lat="44.74412" lon="6.24768">
        <ele>1505</ele>
        <time>2017-08-29T06:14:05Z</time>
      </trkpt>
      <trkpt lat="44.74412" lon="6.24768">
        <ele>1505</ele>
        <time>2017-08-29T06:14:16Z</time>
      </trkpt>
      <trkpt lat="44.74412" lon="6.24768">
        <ele>1505</ele>
        <time>2017-08-29T06:14:26Z</time>
      </trkpt>
      <trkpt lat="44.74412" lon="6.24768">
        <ele>1505</ele>
        <time>2017-08-29T06:14:35Z</time>
      </trkpt>
      <trkpt lat="44.7445" lon="6.24773">
        <ele>1497</ele>
        <time>2017-08-29T06:14:46Z</time>
      </trkpt>
      <trkpt lat="44.7445" lon="6.24773">
        <ele>1497</ele>
        <time>2017-08-29T06:14:56Z</time>
      </trkpt>
      <trkpt lat="44.7445" lon="6.24773">
        <ele>1497</ele>
        <time>2017-08-29T06:15:05Z</time>
      </trkpt>
      <trkpt lat="44.7445" lon="6.24773">
        <ele>1497</ele>
        <time>2017-08-29T06:15:16Z</time>
      </trkpt>
      <trkpt lat="44.7445" lon="6.24773">
        <ele>1497</ele>
        <time>2017-08-29T06:15:26Z</time>
      </trkpt>
      <trkpt lat="44.74487" lon="6.24789">
        <ele>1499</ele>
        <time>2017-08-29T06:15:35Z</time>
      </trkpt>
      <trkpt lat="44.74487" lon="6.24789">
        <ele>1499</ele>
        <time>2017-08-29T06:15:46Z</time>
      </trkpt>
      <trkpt lat="44.74487" lon="6.24789">
        <ele>1499</ele>
        <time>2017-08-29T06:15:56Z</time>
      </trkpt>
      <trkpt lat="44.74487" lon="6.24789">
        <ele>1499</ele>
        <time>2017-08-29T06:16:05Z</time>
      </trkpt>
      <trkpt lat="44.74487" lon="6.24789">
        <ele>1499</ele>
        <time>2017-08-29T06:16:16Z</time>
      </trkpt>
      <trkpt lat="44.74487" lon="6.24789">
        <ele>1499</ele>
        <time>2017-08-29T06:16:26Z</time>
      </trkpt>
      <trkpt lat="44.74523" lon="6.24806">
        <ele>1499</ele>
        <time>2017-08-29T06:16:35Z</time>
      </trkpt>
      <trkpt lat="44.74523" lon="6.24806">
        <ele>1499</ele>
        <time>2017-08-29T06:16:46Z</time>
      </trkpt>
      <trkpt lat="44.74523" lon="6.24806">
        <ele>1499</ele>
        <time>2017-08-29T06:16:56Z</time>
      </trkpt>
      <trkpt lat="44.74523" lon="6.24806">
        <ele>1499</ele>
        <time>2017-08-29T06:17:05Z</time>
      </trkpt>
      <trkpt lat="44.74523" lon="6.24806">
        <ele>1499</ele>
        <time>2017-08-29T06:17:16Z</time>
      </trkpt>
      <trkpt lat="44.7456" lon="6.24819">
        <ele>1501</ele>
        <time>2017-08-29T06:17:26Z</time>
      </trkpt>
      <trkpt lat="44.7456" lon="6.24819">
        <ele>1501</ele>
        <time>2017-08-29T06:17:35Z</time>
      </trkpt>
      <trkpt lat="44.7456" lon="6.24819">
        <ele>1501</ele>
        <time>2017-08-29T06:17:46Z</time>
      </trkpt>
      <trkpt lat="44.7456" lon="6.24819">
        <ele>1501</ele>
        <time>2017-08-29T06:17:56Z</time>
      </trkpt>
      <trkpt lat="44.7456" lon="6.24819">
        <ele>1501</ele>
        <time>2017-08-29T06:18:06Z</time>
      </trkpt>
      <trkpt lat="44.74595" lon="6.24838">
        <ele>1505</ele>
        <time>2017-08-29T06:18:16Z</time>
      </trkpt>
      <trkpt lat="44.74595" lon="6.24838">
        <ele>1505</ele>
        <time>2017-08-29T06:18:26Z</time>
      </trkpt>
      <trkpt lat="44.74595" lon="6.24838">
        <ele>1505</ele>
        <time>2017-08-29T06:18:35Z</time>
      </trkpt>
      <trkpt lat="44.74595" lon="6.24838">
        <ele>1505</ele>
        <time>2017-08-29T06:18:46Z</time>
      </trkpt>
      <trkpt lat="44.74595" lon="6.24838">
        <ele>1505</ele>
        <time>2017-08-29T06:18:56Z</time>
      </trkpt>
      <trkpt lat="44.74633" lon="6.24842">
        <ele>1507</ele>
        <time>2017-08-29T06:19:05Z</time>
      </trkpt>
      <trkpt lat="44.74633" lon="6.24842">
        <ele>1507</ele>
        <time>2017-08-29T06:19:16Z</time>
      </trkpt>
      <trkpt lat="44.74633" lon="6.24842">
        <ele>1507</ele>
        <time>2017-08-29T06:19:26Z</time>
      </trkpt>
      <trkpt lat="44.74633" lon="6.24842">
        <ele>1507</ele>
        <time>2017-08-29T06:19:35Z</time>
      </trkpt>
      <trkpt lat="44.7467" lon="6.24845">
        <ele>1513</ele>
        <time>2017-08-29T06:19:46Z</time>
      </trkpt>
      <trkpt lat="44.74671" lon="6.24844">
        <ele>1513</ele>
        <time>2017-08-29T06:19:56Z</time>
      </trkpt>
      <trkpt lat="44.74671" lon="6.24844">
        <ele>1513</ele>
        <time>2017-08-29T06:20:05Z</time>
      </trkpt>
      <trkpt lat="44.74671" lon="6.24844">
        <ele>1513</ele>
        <time>2017-08-29T06:20:16Z</time>
      </trkpt>
      <trkpt lat="44.74671" lon="6.24844">
        <ele>1513</ele>
        <time>2017-08-29T06:20:26Z</time>
      </trkpt>
      <trkpt lat="44.74709" lon="6.24835">
        <ele>1511</ele>
        <time>2017-08-29T06:20:35Z</time>
      </trkpt>
      <trkpt lat="44.74709" lon="6.24835">
        <ele>1511</ele>
        <time>2017-08-29T06:20:46Z</time>
      </trkpt>
      <trkpt lat="44.74709" lon="6.24835">
        <ele>1511</ele>
        <time>2017-08-29T06:20:56Z</time>
      </trkpt>
      <trkpt lat="44.74709" lon="6.24835">
        <ele>1511</ele>
        <time>2017-08-29T06:21:05Z</time>
      </trkpt>
      <trkpt lat="44.74745" lon="6.24829">
        <ele>1512</ele>
        <time>2017-08-29T06:21:16Z</time>
      </trkpt>
      <trkpt lat="44.74748" lon="6.2483">
        <ele>1512</ele>
        <time>2017-08-29T06:21:26Z</time>
      </trkpt>
      <trkpt lat="44.74748" lon="6.2483">
        <ele>1512</ele>
        <time>2017-08-29T06:21:35Z</time>
      </trkpt>
      <trkpt lat="44.74748" lon="6.2483">
        <ele>1512</ele>
        <time>2017-08-29T06:21:46Z</time>
      </trkpt>
      <trkpt lat="44.74748" lon="6.2483">
        <ele>1512</ele>
        <time>2017-08-29T06:21:56Z</time>
      </trkpt>
      <trkpt lat="44.74748" lon="6.2483">
        <ele>1512</ele>
        <time>2017-08-29T06:22:05Z</time>
      </trkpt>
      <trkpt lat="44.74784" lon="6.24843">
        <ele>1519</ele>
        <time>2017-08-29T06:22:16Z</time>
      </trkpt>
      <trkpt lat="44.74784" lon="6.24843">
        <ele>1519</ele>
        <time>2017-08-29T06:22:26Z</time>
      </trkpt>
      <trkpt lat="44.74784" lon="6.24843">
        <ele>1519</ele>
        <time>2017-08-29T06:22:35Z</time>
      </trkpt>
      <trkpt lat="44.74784" lon="6.24843">
        <ele>1519</ele>
        <time>2017-08-29T06:22:46Z</time>
      </trkpt>
      <trkpt lat="44.74784" lon="6.24843">
        <ele>1519</ele>
        <time>2017-08-29T06:22:56Z</time>
      </trkpt>
      <trkpt lat="44.74784" lon="6.24843">
        <ele>1519</ele>
        <time>2017-08-29T06:23:05Z</time>
      </trkpt>
      <trkpt lat="44.74784" lon="6.24843">
        <ele>1519</ele>
        <time>2017-08-29T06:23:16Z</time>
      </trkpt>
      <trkpt lat="44.74784" lon="6.24843">
        <ele>1519</ele>
        <time>2017-08-29T06:23:26Z</time>
      </trkpt>
      <trkpt lat="44.74784" lon="6.24843">
        <ele>1519</ele>
        <time>2017-08-29T06:23:35Z</time>
      </trkpt>
      <trkpt lat="44.74784" lon="6.24843">
        <ele>1519</ele>
        <time>2017-08-29T06:23:46Z</time>
      </trkpt>
      <trkpt lat="44.7482" lon="6.24846">
        <ele>1535</ele>
        <time>2017-08-29T06:23:56Z</time>
      </trkpt>
      <trkpt lat="44.7482" lon="6.24846">
        <ele>1535</ele>
        <time>2017-08-29T06:24:05Z</time>
      </trkpt>
      <trkpt lat="44.7482" lon="6.24846">
        <ele>1535</ele>
        <time>2017-08-29T06:24:16Z</time>
      </trkpt>
      <trkpt lat="44.7482" lon="6.24846">
        <ele>1535</ele>
        <time>2017-08-29T06:24:26Z</time>
      </trkpt>
      <trkpt lat="44.7482" lon="6.24846">
        <ele>1535</ele>
        <time>2017-08-29T06:24:35Z</time>
      </trkpt>
      <trkpt lat="44.7482" lon="6.24846">
        <ele>1535</ele>
        <time>2017-08-29T06:24:46Z</time>
      </trkpt>
      <trkpt lat="44.7482" lon="6.24846">
        <ele>1535</ele>
        <time>2017-08-29T06:24:56Z</time>
      </trkpt>
      <trkpt lat="44.7482" lon="6.24846">
        <ele>1535</ele>
        <time>2017-08-29T06:25:05Z</time>
      </trkpt>
      <trkpt lat="44.7482" lon="6.24846">
        <ele>1535</ele>
        <time>2017-08-29T06:25:16Z</time>
      </trkpt>
      <trkpt lat="44.7482" lon="6.24846">
        <ele>1535</ele>
        <time>2017-08-29T06:25:26Z</time>
      </trkpt>
      <trkpt lat="44.74853" lon="6.24866">
        <ele>1545</ele>
        <time>2017-08-29T06:25:35Z</time>
      </trkpt>
      <trkpt lat="44.74853" lon="6.24866">
        <ele>1545</ele>
        <time>2017-08-29T06:25:46Z</time>
      </trkpt>
      <trkpt lat="44.74853" lon="6.24866">
        <ele>1545</ele>
        <time>2017-08-29T06:25:56Z</time>
      </trkpt>
      <trkpt lat="44.74853" lon="6.24866">
        <ele>1545</ele>
        <time>2017-08-29T06:26:05Z</time>
      </trkpt>
      <trkpt lat="44.74853" lon="6.24866">
        <ele>1545</ele>
        <time>2017-08-29T06:26:16Z</time>
      </trkpt>
      <trkpt lat="44.74853" lon="6.24866">
        <ele>1545</ele>
        <time>2017-08-29T06:26:26Z</time>
      </trkpt>
      <trkpt lat="44.74853" lon="6.24866">
        <ele>1545</ele>
        <time>2017-08-29T06:26:35Z</time>
      </trkpt>
      <trkpt lat="44.74853" lon="6.24866">
        <ele>1545</ele>
        <time>2017-08-29T06:26:46Z</time>
      </trkpt>
      <trkpt lat="44.74853" lon="6.24866">
        <ele>1545</ele>
        <time>2017-08-29T06:26:56Z</time>
      </trkpt>
      <trkpt lat="44.74853" lon="6.24866">
        <ele>1545</ele>
        <time>2017-08-29T06:27:05Z</time>
      </trkpt>
      <trkpt lat="44.74886" lon="6.24884">
        <ele>1560</ele>
        <time>2017-08-29T06:27:16Z</time>
      </trkpt>
      <trkpt lat="44.74886" lon="6.24884">
        <ele>1560</ele>
        <time>2017-08-29T06:27:26Z</time>
      </trkpt>
      <trkpt lat="44.74886" lon="6.24884">
        <ele>1560</ele>
        <time>2017-08-29T06:27:35Z</time>
      </trkpt>
      <trkpt lat="44.74886" lon="6.24884">
        <ele>1560</ele>
        <time>2017-08-29T06:27:46Z</time>
      </trkpt>
      <trkpt lat="44.74886" lon="6.24884">
        <ele>1560</ele>
        <time>2017-08-29T06:27:56Z</time>
      </trkpt>
      <trkpt lat="44.74886" lon="6.24884">
        <ele>1560</ele>
        <time>2017-08-29T06:28:05Z</time>
      </trkpt>
      <trkpt lat="44.74886" lon="6.24884">
        <ele>1560</ele>
        <time>2017-08-29T06:28:16Z</time>
      </trkpt>
      <trkpt lat="44.74886" lon="6.24884">
        <ele>1560</ele>
        <time>2017-08-29T06:28:26Z</time>
      </trkpt>
      <trkpt lat="44.74886" lon="6.24884">
        <ele>1560</ele>
        <time>2017-08-29T06:28:35Z</time>
      </trkpt>
      <trkpt lat="44.74886" lon="6.24884">
        <ele>1560</ele>
        <time>2017-08-29T06:28:46Z</time>
      </trkpt>
      <trkpt lat="44.74886" lon="6.24884">
        <ele>1560</ele>
        <time>2017-08-29T06:28:56Z</time>
      </trkpt>
      <trkpt lat="44.74886" lon="6.24884">
        <ele>1560</ele>
        <time>2017-08-29T06:29:05Z</time>
      </trkpt>
      <trkpt lat="44.74886" lon="6.24884">
        <ele>1560</ele>
        <time>2017-08-29T06:29:16Z</time>
      </trkpt>
      <trkpt lat="44.74922" lon="6.24877">
        <ele>1571</ele>
        <time>2017-08-29T06:29:26Z</time>
      </trkpt>
      <trkpt lat="44.74922" lon="6.24877">
        <ele>1571</ele>
        <time>2017-08-29T06:29:35Z</time>
      </trkpt>
      <trkpt lat="44.74922" lon="6.24877">
        <ele>1571</ele>
        <time>2017-08-29T06:29:46Z</time>
      </trkpt>
      <trkpt lat="44.74922" lon="6.24877">
        <ele>1571</ele>
        <time>2017-08-29T06:29:56Z</time>
      </trkpt>
      <trkpt lat="44.74922" lon="6.24877">
        <ele>1571</ele>
        <time>2017-08-29T06:30:05Z</time>
      </trkpt>
      <trkpt lat="44.74922" lon="6.24877">
        <ele>1571</ele>
        <time>2017-08-29T06:30:16Z</time>
      </trkpt>
      <trkpt lat="44.74956" lon="6.24897">
        <ele>1580</ele>
        <time>2017-08-29T06:30:26Z</time>
      </trkpt>
      <trkpt lat="44.74956" lon="6.24897">
        <ele>1579</ele>
        <time>2017-08-29T06:30:35Z</time>
      </trkpt>
      <trkpt lat="44.74956" lon="6.24897">
        <ele>1579</ele>
        <time>2017-08-29T06:30:46Z</time>
      </trkpt>
      <trkpt lat="44.74956" lon="6.24897">
        <ele>1579</ele>
        <time>2017-08-29T06:30:56Z</time>
      </trkpt>
      <trkpt lat="44.74956" lon="6.24897">
        <ele>1579</ele>
        <time>2017-08-29T06:31:05Z</time>
      </trkpt>
      <trkpt lat="44.74956" lon="6.24897">
        <ele>1579</ele>
        <time>2017-08-29T06:31:16Z</time>
      </trkpt>
      <trkpt lat="44.74956" lon="6.24897">
        <ele>1579</ele>
        <time>2017-08-29T06:31:26Z</time>
      </trkpt>
      <trkpt lat="44.74956" lon="6.24897">
        <ele>1579</ele>
        <time>2017-08-29T06:31:35Z</time>
      </trkpt>
      <trkpt lat="44.74956" lon="6.24897">
        <ele>1579</ele>
        <time>2017-08-29T06:31:46Z</time>
      </trkpt>
      <trkpt lat="44.74956" lon="6.24897">
        <ele>1579</ele>
        <time>2017-08-29T06:31:56Z</time>
      </trkpt>
      <trkpt lat="44.74956" lon="6.24897">
        <ele>1579</ele>
        <time>2017-08-29T06:32:05Z</time>
      </trkpt>
      <trkpt lat="44.74956" lon="6.24897">
        <ele>1579</ele>
        <time>2017-08-29T06:32:16Z</time>
      </trkpt>
      <trkpt lat="44.74956" lon="6.24897">
        <ele>1579</ele>
        <time>2017-08-29T06:32:26Z</time>
      </trkpt>
      <trkpt lat="44.74956" lon="6.24897">
        <ele>1579</ele>
        <time>2017-08-29T06:32:35Z</time>
      </trkpt>
      <trkpt lat="44.74989" lon="6.24897">
        <ele>1598</ele>
        <time>2017-08-29T06:32:46Z</time>
      </trkpt>
      <trkpt lat="44.74991" lon="6.24899">
        <ele>1599</ele>
        <time>2017-08-29T06:32:56Z</time>
      </trkpt>
      <trkpt lat="44.74991" lon="6.24899">
        <ele>1599</ele>
        <time>2017-08-29T06:33:05Z</time>
      </trkpt>
      <trkpt lat="44.74991" lon="6.24899">
        <ele>1599</ele>
        <time>2017-08-29T06:33:16Z</time>
      </trkpt>
      <trkpt lat="44.74991" lon="6.24899">
        <ele>1599</ele>
        <time>2017-08-29T06:33:26Z</time>
      </trkpt>
      <trkpt lat="44.74991" lon="6.24899">
        <ele>1599</ele>
        <time>2017-08-29T06:33:35Z</time>
      </trkpt>
      <trkpt lat="44.74991" lon="6.24899">
        <ele>1599</ele>
        <time>2017-08-29T06:33:46Z</time>
      </trkpt>
      <trkpt lat="44.75026" lon="6.24917">
        <ele>1607</ele>
        <time>2017-08-29T06:33:56Z</time>
      </trkpt>
      <trkpt lat="44.75026" lon="6.24917">
        <ele>1607</ele>
        <time>2017-08-29T06:34:05Z</time>
      </trkpt>
      <trkpt lat="44.75026" lon="6.24917">
        <ele>1607</ele>
        <time>2017-08-29T06:34:16Z</time>
      </trkpt>
      <trkpt lat="44.75026" lon="6.24917">
        <ele>1607</ele>
        <time>2017-08-29T06:34:26Z</time>
      </trkpt>
      <trkpt lat="44.75026" lon="6.24917">
        <ele>1607</ele>
        <time>2017-08-29T06:34:35Z</time>
      </trkpt>
      <trkpt lat="44.75026" lon="6.24917">
        <ele>1607</ele>
        <time>2017-08-29T06:34:46Z</time>
      </trkpt>
      <trkpt lat="44.75026" lon="6.24917">
        <ele>1607</ele>
        <time>2017-08-29T06:34:56Z</time>
      </trkpt>
      <trkpt lat="44.75026" lon="6.24917">
        <ele>1607</ele>
        <time>2017-08-29T06:35:05Z</time>
      </trkpt>
      <trkpt lat="44.75026" lon="6.24917">
        <ele>1607</ele>
        <time>2017-08-29T06:35:16Z</time>
      </trkpt>
      <trkpt lat="44.75026" lon="6.24917">
        <ele>1607</ele>
        <time>2017-08-29T06:35:26Z</time>
      </trkpt>
      <trkpt lat="44.75026" lon="6.24917">
        <ele>1607</ele>
        <time>2017-08-29T06:35:35Z</time>
      </trkpt>
      <trkpt lat="44.75026" lon="6.24917">
        <ele>1607</ele>
        <time>2017-08-29T06:35:46Z</time>
      </trkpt>
      <trkpt lat="44.75026" lon="6.24917">
        <ele>1607</ele>
        <time>2017-08-29T06:35:56Z</time>
      </trkpt>
      <trkpt lat="44.75026" lon="6.24917">
        <ele>1607</ele>
        <time>2017-08-29T06:36:05Z</time>
      </trkpt>
      <trkpt lat="44.7506" lon="6.24924">
        <ele>1626</ele>
        <time>2017-08-29T06:36:16Z</time>
      </trkpt>
      <trkpt lat="44.7506" lon="6.24924">
        <ele>1626</ele>
        <time>2017-08-29T06:36:26Z</time>
      </trkpt>
      <trkpt lat="44.7506" lon="6.24924">
        <ele>1626</ele>
        <time>2017-08-29T06:36:35Z</time>
      </trkpt>
      <trkpt lat="44.7506" lon="6.24924">
        <ele>1626</ele>
        <time>2017-08-29T06:36:46Z</time>
      </trkpt>
      <trkpt lat="44.7506" lon="6.24924">
        <ele>1626</ele>
        <time>2017-08-29T06:36:56Z</time>
      </trkpt>
      <trkpt lat="44.7506" lon="6.24924">
        <ele>1626</ele>
        <time>2017-08-29T06:37:05Z</time>
      </trkpt>
      <trkpt lat="44.75096" lon="6.24941">
        <ele>1631</ele>
        <time>2017-08-29T06:37:16Z</time>
      </trkpt>
      <trkpt lat="44.75096" lon="6.24941">
        <ele>1631</ele>
        <time>2017-08-29T06:37:26Z</time>
      </trkpt>
      <trkpt lat="44.75096" lon="6.24941">
        <ele>1631</ele>
        <time>2017-08-29T06:37:35Z</time>
      </trkpt>
      <trkpt lat="44.75096" lon="6.24941">
        <ele>1631</ele>
        <time>2017-08-29T06:37:46Z</time>
      </trkpt>
      <trkpt lat="44.75096" lon="6.24941">
        <ele>1631</ele>
        <time>2017-08-29T06:37:56Z</time>
      </trkpt>
      <trkpt lat="44.75096" lon="6.24941">
        <ele>1631</ele>
        <time>2017-08-29T06:38:05Z</time>
      </trkpt>
      <trkpt lat="44.75132" lon="6.24927">
        <ele>1636</ele>
        <time>2017-08-29T06:38:16Z</time>
      </trkpt>
      <trkpt lat="44.75132" lon="6.24927">
        <ele>1636</ele>
        <time>2017-08-29T06:38:26Z</time>
      </trkpt>
      <trkpt lat="44.75132" lon="6.24927">
        <ele>1636</ele>
        <time>2017-08-29T06:38:35Z</time>
      </trkpt>
      <trkpt lat="44.75132" lon="6.24927">
        <ele>1636</ele>
        <time>2017-08-29T06:38:46Z</time>
      </trkpt>
      <trkpt lat="44.75132" lon="6.24927">
        <ele>1636</ele>
        <time>2017-08-29T06:38:56Z</time>
      </trkpt>
      <trkpt lat="44.75132" lon="6.24927">
        <ele>1636</ele>
        <time>2017-08-29T06:39:05Z</time>
      </trkpt>
      <trkpt lat="44.7517" lon="6.24936">
        <ele>1643</ele>
        <time>2017-08-29T06:39:16Z</time>
      </trkpt>
      <trkpt lat="44.7517" lon="6.24936">
        <ele>1643</ele>
        <time>2017-08-29T06:39:26Z</time>
      </trkpt>
      <trkpt lat="44.7517" lon="6.24936">
        <ele>1643</ele>
        <time>2017-08-29T06:39:35Z</time>
      </trkpt>
      <trkpt lat="44.7517" lon="6.24936">
        <ele>1643</ele>
        <time>2017-08-29T06:39:46Z</time>
      </trkpt>
      <trkpt lat="44.7517" lon="6.24936">
        <ele>1643</ele>
        <time>2017-08-29T06:39:56Z</time>
      </trkpt>
      <trkpt lat="44.75206" lon="6.24921">
        <ele>1646</ele>
        <time>2017-08-29T06:40:05Z</time>
      </trkpt>
      <trkpt lat="44.75206" lon="6.24921">
        <ele>1646</ele>
        <time>2017-08-29T06:40:16Z</time>
      </trkpt>
      <trkpt lat="44.75206" lon="6.24921">
        <ele>1646</ele>
        <time>2017-08-29T06:40:26Z</time>
      </trkpt>
      <trkpt lat="44.75206" lon="6.24921">
        <ele>1646</ele>
        <time>2017-08-29T06:40:35Z</time>
      </trkpt>
      <trkpt lat="44.75206" lon="6.24921">
        <ele>1646</ele>
        <time>2017-08-29T06:40:46Z</time>
      </trkpt>
      <trkpt lat="44.75206" lon="6.24921">
        <ele>1646</ele>
        <time>2017-08-29T06:40:56Z</time>
      </trkpt>
      <trkpt lat="44.75243" lon="6.24925">
        <ele>1652</ele>
        <time>2017-08-29T06:41:05Z</time>
      </trkpt>
      <trkpt lat="44.75244" lon="6.24926">
        <ele>1652</ele>
        <time>2017-08-29T06:41:16Z</time>
      </trkpt>
      <trkpt lat="44.75244" lon="6.24926">
        <ele>1652</ele>
        <time>2017-08-29T06:41:26Z</time>
      </trkpt>
      <trkpt lat="44.75244" lon="6.24926">
        <ele>1652</ele>
        <time>2017-08-29T06:41:35Z</time>
      </trkpt>
      <trkpt lat="44.75244" lon="6.24926">
        <ele>1652</ele>
        <time>2017-08-29T06:41:46Z</time>
      </trkpt>
      <trkpt lat="44.75244" lon="6.24926">
        <ele>1652</ele>
        <time>2017-08-29T06:41:56Z</time>
      </trkpt>
      <trkpt lat="44.75244" lon="6.24926">
        <ele>1652</ele>
        <time>2017-08-29T06:42:05Z</time>
      </trkpt>
      <trkpt lat="44.75244" lon="6.24926">
        <ele>1652</ele>
        <time>2017-08-29T06:42:16Z</time>
      </trkpt>
      <trkpt lat="44.75244" lon="6.24926">
        <ele>1652</ele>
        <time>2017-08-29T06:42:26Z</time>
      </trkpt>
      <trkpt lat="44.75244" lon="6.24926">
        <ele>1652</ele>
        <time>2017-08-29T06:42:35Z</time>
      </trkpt>
      <trkpt lat="44.75244" lon="6.24926">
        <ele>1652</ele>
        <time>2017-08-29T06:42:46Z</time>
      </trkpt>
      <trkpt lat="44.75244" lon="6.24926">
        <ele>1652</ele>
        <time>2017-08-29T06:42:56Z</time>
      </trkpt>
      <trkpt lat="44.75244" lon="6.24926">
        <ele>1652</ele>
        <time>2017-08-29T06:43:05Z</time>
      </trkpt>
      <trkpt lat="44.75244" lon="6.24926">
        <ele>1652</ele>
        <time>2017-08-29T06:43:16Z</time>
      </trkpt>
      <trkpt lat="44.75244" lon="6.24926">
        <ele>1652</ele>
        <time>2017-08-29T06:43:26Z</time>
      </trkpt>
      <trkpt lat="44.75244" lon="6.24926">
        <ele>1652</ele>
        <time>2017-08-29T06:43:35Z</time>
      </trkpt>
      <trkpt lat="44.75244" lon="6.24926">
        <ele>1652</ele>
        <time>2017-08-29T06:43:46Z</time>
      </trkpt>
      <trkpt lat="44.75244" lon="6.24926">
        <ele>1652</ele>
        <time>2017-08-29T06:43:56Z</time>
      </trkpt>
      <trkpt lat="44.75244" lon="6.24926">
        <ele>1652</ele>
        <time>2017-08-29T06:44:05Z</time>
      </trkpt>
      <trkpt lat="44.75244" lon="6.24926">
        <ele>1652</ele>
        <time>2017-08-29T06:44:16Z</time>
      </trkpt>
      <trkpt lat="44.75244" lon="6.24926">
        <ele>1652</ele>
        <time>2017-08-29T06:44:26Z</time>
      </trkpt>
      <trkpt lat="44.75244" lon="6.24926">
        <ele>1652</ele>
        <time>2017-08-29T06:44:35Z</time>
      </trkpt>
      <trkpt lat="44.75244" lon="6.24926">
        <ele>1652</ele>
        <time>2017-08-29T06:44:46Z</time>
      </trkpt>
      <trkpt lat="44.75244" lon="6.24926">
        <ele>1652</ele>
        <time>2017-08-29T06:44:56Z</time>
      </trkpt>
      <trkpt lat="44.75244" lon="6.24926">
        <ele>1652</ele>
        <time>2017-08-29T06:45:05Z</time>
      </trkpt>
      <trkpt lat="44.75244" lon="6.24926">
        <ele>1652</ele>
        <time>2017-08-29T06:45:16Z</time>
      </trkpt>
      <trkpt lat="44.75244" lon="6.24926">
        <ele>1652</ele>
        <time>2017-08-29T06:45:26Z</time>
      </trkpt>
      <trkpt lat="44.75244" lon="6.24926">
        <ele>1652</ele>
        <time>2017-08-29T06:45:35Z</time>
      </trkpt>
      <trkpt lat="44.75244" lon="6.24926">
        <ele>1652</ele>
        <time>2017-08-29T06:45:46Z</time>
      </trkpt>
      <trkpt lat="44.75244" lon="6.24926">
        <ele>1652</ele>
        <time>2017-08-29T06:45:56Z</time>
      </trkpt>
      <trkpt lat="44.75244" lon="6.24926">
        <ele>1652</ele>
        <time>2017-08-29T06:46:05Z</time>
      </trkpt>
      <trkpt lat="44.75244" lon="6.24926">
        <ele>1652</ele>
        <time>2017-08-29T06:46:16Z</time>
      </trkpt>
      <trkpt lat="44.75244" lon="6.24926">
        <ele>1652</ele>
        <time>2017-08-29T06:46:26Z</time>
      </trkpt>
      <trkpt lat="44.75244" lon="6.24926">
        <ele>1652</ele>
        <time>2017-08-29T06:46:35Z</time>
      </trkpt>
      <trkpt lat="44.75244" lon="6.24926">
        <ele>1652</ele>
        <time>2017-08-29T06:46:46Z</time>
      </trkpt>
      <trkpt lat="44.75244" lon="6.24926">
        <ele>1652</ele>
        <time>2017-08-29T06:46:56Z</time>
      </trkpt>
      <trkpt lat="44.75244" lon="6.24926">
        <ele>1652</ele>
        <time>2017-08-29T06:47:05Z</time>
      </trkpt>
      <trkpt lat="44.75244" lon="6.24926">
        <ele>1652</ele>
        <time>2017-08-29T06:47:16Z</time>
      </trkpt>
      <trkpt lat="44.75244" lon="6.24926">
        <ele>1652</ele>
        <time>2017-08-29T06:47:26Z</time>
      </trkpt>
      <trkpt lat="44.75244" lon="6.24926">
        <ele>1652</ele>
        <time>2017-08-29T06:47:35Z</time>
      </trkpt>
      <trkpt lat="44.75244" lon="6.24926">
        <ele>1652</ele>
        <time>2017-08-29T06:47:46Z</time>
      </trkpt>
      <trkpt lat="44.75244" lon="6.24926">
        <ele>1652</ele>
        <time>2017-08-29T06:47:56Z</time>
      </trkpt>
      <trkpt lat="44.75244" lon="6.24926">
        <ele>1652</ele>
        <time>2017-08-29T06:48:05Z</time>
      </trkpt>
      <trkpt lat="44.75244" lon="6.24926">
        <ele>1652</ele>
        <time>2017-08-29T06:48:16Z</time>
      </trkpt>
      <trkpt lat="44.75244" lon="6.24926">
        <ele>1652</ele>
        <time>2017-08-29T06:48:26Z</time>
      </trkpt>
      <trkpt lat="44.75244" lon="6.24926">
        <ele>1652</ele>
        <time>2017-08-29T06:48:35Z</time>
      </trkpt>
      <trkpt lat="44.75244" lon="6.24926">
        <ele>1652</ele>
        <time>2017-08-29T06:48:46Z</time>
      </trkpt>
      <trkpt lat="44.75244" lon="6.24926">
        <ele>1652</ele>
        <time>2017-08-29T06:48:56Z</time>
      </trkpt>
      <trkpt lat="44.75244" lon="6.24926">
        <ele>1652</ele>
        <time>2017-08-29T06:49:05Z</time>
      </trkpt>
      <trkpt lat="44.75244" lon="6.24926">
        <ele>1652</ele>
        <time>2017-08-29T06:49:16Z</time>
      </trkpt>
      <trkpt lat="44.75244" lon="6.24926">
        <ele>1652</ele>
        <time>2017-08-29T06:49:26Z</time>
      </trkpt>
      <trkpt lat="44.75244" lon="6.24926">
        <ele>1652</ele>
        <time>2017-08-29T06:49:35Z</time>
      </trkpt>
      <trkpt lat="44.75244" lon="6.24926">
        <ele>1652</ele>
        <time>2017-08-29T06:49:46Z</time>
      </trkpt>
      <trkpt lat="44.75244" lon="6.24926">
        <ele>1652</ele>
        <time>2017-08-29T06:49:56Z</time>
      </trkpt>
      <trkpt lat="44.75244" lon="6.24926">
        <ele>1652</ele>
        <time>2017-08-29T06:50:05Z</time>
      </trkpt>
      <trkpt lat="44.75244" lon="6.24926">
        <ele>1652</ele>
        <time>2017-08-29T06:50:16Z</time>
      </trkpt>
      <trkpt lat="44.75244" lon="6.24926">
        <ele>1652</ele>
        <time>2017-08-29T06:50:26Z</time>
      </trkpt>
      <trkpt lat="44.75244" lon="6.24926">
        <ele>1652</ele>
        <time>2017-08-29T06:50:35Z</time>
      </trkpt>
      <trkpt lat="44.75244" lon="6.24926">
        <ele>1652</ele>
        <time>2017-08-29T06:50:46Z</time>
      </trkpt>
      <trkpt lat="44.75244" lon="6.24926">
        <ele>1652</ele>
        <time>2017-08-29T06:50:56Z</time>
      </trkpt>
      <trkpt lat="44.75244" lon="6.24926">
        <ele>1652</ele>
        <time>2017-08-29T06:51:05Z</time>
      </trkpt>
      <trkpt lat="44.75244" lon="6.24926">
        <ele>1652</ele>
        <time>2017-08-29T06:51:16Z</time>
      </trkpt>
      <trkpt lat="44.75244" lon="6.24926">
        <ele>1652</ele>
        <time>2017-08-29T06:51:26Z</time>
      </trkpt>
      <trkpt lat="44.75261" lon="6.24886">
        <ele>1671</ele>
        <time>2017-08-29T06:51:35Z</time>
      </trkpt>
      <trkpt lat="44.75261" lon="6.24886">
        <ele>1671</ele>
        <time>2017-08-29T06:51:46Z</time>
      </trkpt>
      <trkpt lat="44.75261" lon="6.24886">
        <ele>1671</ele>
        <time>2017-08-29T06:51:56Z</time>
      </trkpt>
      <trkpt lat="44.75261" lon="6.24886">
        <ele>1671</ele>
        <time>2017-08-29T06:52:05Z</time>
      </trkpt>
      <trkpt lat="44.75261" lon="6.24886">
        <ele>1671</ele>
        <time>2017-08-29T06:52:16Z</time>
      </trkpt>
      <trkpt lat="44.75261" lon="6.24886">
        <ele>1671</ele>
        <time>2017-08-29T06:52:26Z</time>
      </trkpt>
      <trkpt lat="44.75299" lon="6.24891">
        <ele>1677</ele>
        <time>2017-08-29T06:52:35Z</time>
      </trkpt>
      <trkpt lat="44.75299" lon="6.24891">
        <ele>1677</ele>
        <time>2017-08-29T06:52:46Z</time>
      </trkpt>
      <trkpt lat="44.75299" lon="6.24891">
        <ele>1677</ele>
        <time>2017-08-29T06:52:56Z</time>
      </trkpt>
      <trkpt lat="44.75299" lon="6.24891">
        <ele>1677</ele>
        <time>2017-08-29T06:53:05Z</time>
      </trkpt>
      <trkpt lat="44.75299" lon="6.24891">
        <ele>1677</ele>
        <time>2017-08-29T06:53:16Z</time>
      </trkpt>
      <trkpt lat="44.75299" lon="6.24891">
        <ele>1677</ele>
        <time>2017-08-29T06:53:26Z</time>
      </trkpt>
      <trkpt lat="44.75274" lon="6.24851">
        <ele>1684</ele>
        <time>2017-08-29T06:53:35Z</time>
      </trkpt>
      <trkpt lat="44.75274" lon="6.24851">
        <ele>1684</ele>
        <time>2017-08-29T06:53:46Z</time>
      </trkpt>
      <trkpt lat="44.75274" lon="6.24851">
        <ele>1684</ele>
        <time>2017-08-29T06:53:56Z</time>
      </trkpt>
      <trkpt lat="44.75274" lon="6.24851">
        <ele>1684</ele>
        <time>2017-08-29T06:54:05Z</time>
      </trkpt>
      <trkpt lat="44.75274" lon="6.24851">
        <ele>1684</ele>
        <time>2017-08-29T06:54:16Z</time>
      </trkpt>
      <trkpt lat="44.75274" lon="6.24851">
        <ele>1684</ele>
        <time>2017-08-29T06:54:26Z</time>
      </trkpt>
      <trkpt lat="44.75274" lon="6.24851">
        <ele>1684</ele>
        <time>2017-08-29T06:54:35Z</time>
      </trkpt>
      <trkpt lat="44.75274" lon="6.24851">
        <ele>1684</ele>
        <time>2017-08-29T06:54:46Z</time>
      </trkpt>
      <trkpt lat="44.75274" lon="6.24851">
        <ele>1684</ele>
        <time>2017-08-29T06:54:56Z</time>
      </trkpt>
      <trkpt lat="44.75274" lon="6.24851">
        <ele>1684</ele>
        <time>2017-08-29T06:55:05Z</time>
      </trkpt>
      <trkpt lat="44.75274" lon="6.24851">
        <ele>1684</ele>
        <time>2017-08-29T06:55:16Z</time>
      </trkpt>
      <trkpt lat="44.75274" lon="6.24851">
        <ele>1684</ele>
        <time>2017-08-29T06:55:26Z</time>
      </trkpt>
      <trkpt lat="44.75274" lon="6.24851">
        <ele>1684</ele>
        <time>2017-08-29T06:55:35Z</time>
      </trkpt>
      <trkpt lat="44.75274" lon="6.24851">
        <ele>1684</ele>
        <time>2017-08-29T06:55:46Z</time>
      </trkpt>
      <trkpt lat="44.75301" lon="6.24828">
        <ele>1704</ele>
        <time>2017-08-29T06:55:56Z</time>
      </trkpt>
      <trkpt lat="44.75303" lon="6.24828">
        <ele>1705</ele>
        <time>2017-08-29T06:56:05Z</time>
      </trkpt>
      <trkpt lat="44.75303" lon="6.24828">
        <ele>1705</ele>
        <time>2017-08-29T06:56:16Z</time>
      </trkpt>
      <trkpt lat="44.75303" lon="6.24828">
        <ele>1705</ele>
        <time>2017-08-29T06:56:26Z</time>
      </trkpt>
      <trkpt lat="44.75303" lon="6.24828">
        <ele>1705</ele>
        <time>2017-08-29T06:56:35Z</time>
      </trkpt>
      <trkpt lat="44.75303" lon="6.24828">
        <ele>1705</ele>
        <time>2017-08-29T06:56:46Z</time>
      </trkpt>
      <trkpt lat="44.75303" lon="6.24828">
        <ele>1705</ele>
        <time>2017-08-29T06:56:56Z</time>
      </trkpt>
      <trkpt lat="44.75303" lon="6.24828">
        <ele>1705</ele>
        <time>2017-08-29T06:57:05Z</time>
      </trkpt>
      <trkpt lat="44.75303" lon="6.24828">
        <ele>1705</ele>
        <time>2017-08-29T06:57:16Z</time>
      </trkpt>
      <trkpt lat="44.75303" lon="6.24828">
        <ele>1705</ele>
        <time>2017-08-29T06:57:26Z</time>
      </trkpt>
      <trkpt lat="44.75303" lon="6.24828">
        <ele>1705</ele>
        <time>2017-08-29T06:57:35Z</time>
      </trkpt>
      <trkpt lat="44.75303" lon="6.24828">
        <ele>1705</ele>
        <time>2017-08-29T06:57:46Z</time>
      </trkpt>
      <trkpt lat="44.75303" lon="6.24828">
        <ele>1705</ele>
        <time>2017-08-29T06:57:56Z</time>
      </trkpt>
      <trkpt lat="44.75303" lon="6.24828">
        <ele>1705</ele>
        <time>2017-08-29T06:58:05Z</time>
      </trkpt>
      <trkpt lat="44.75303" lon="6.24828">
        <ele>1705</ele>
        <time>2017-08-29T06:58:16Z</time>
      </trkpt>
      <trkpt lat="44.75303" lon="6.24828">
        <ele>1705</ele>
        <time>2017-08-29T06:58:26Z</time>
      </trkpt>
      <trkpt lat="44.75331" lon="6.24806">
        <ele>1725</ele>
        <time>2017-08-29T06:58:35Z</time>
      </trkpt>
      <trkpt lat="44.75331" lon="6.24806">
        <ele>1725</ele>
        <time>2017-08-29T06:58:46Z</time>
      </trkpt>
      <trkpt lat="44.75331" lon="6.24806">
        <ele>1725</ele>
        <time>2017-08-29T06:58:56Z</time>
      </trkpt>
      <trkpt lat="44.75331" lon="6.24806">
        <ele>1725</ele>
        <time>2017-08-29T06:59:05Z</time>
      </trkpt>
      <trkpt lat="44.75331" lon="6.24806">
        <ele>1725</ele>
        <time>2017-08-29T06:59:16Z</time>
      </trkpt>
      <trkpt lat="44.75331" lon="6.24806">
        <ele>1725</ele>
        <time>2017-08-29T06:59:26Z</time>
      </trkpt>
      <trkpt lat="44.75333" lon="6.24804">
        <ele>1723</ele>
        <time>2017-08-29T06:59:35Z</time>
      </trkpt>
      <trkpt lat="44.75333" lon="6.24804">
        <ele>1723</ele>
        <time>2017-08-29T06:59:46Z</time>
      </trkpt>
      <trkpt lat="44.75333" lon="6.24804">
        <ele>1723</ele>
        <time>2017-08-29T06:59:56Z</time>
      </trkpt>
      <trkpt lat="44.75333" lon="6.24804">
        <ele>1723</ele>
        <time>2017-08-29T07:00:05Z</time>
      </trkpt>
      <trkpt lat="44.75333" lon="6.24804">
        <ele>1723</ele>
        <time>2017-08-29T07:00:16Z</time>
      </trkpt>
      <trkpt lat="44.75333" lon="6.24804">
        <ele>1723</ele>
        <time>2017-08-29T07:00:26Z</time>
      </trkpt>
      <trkpt lat="44.75333" lon="6.24804">
        <ele>1723</ele>
        <time>2017-08-29T07:00:35Z</time>
      </trkpt>
      <trkpt lat="44.75333" lon="6.24804">
        <ele>1723</ele>
        <time>2017-08-29T07:00:46Z</time>
      </trkpt>
      <trkpt lat="44.75333" lon="6.24804">
        <ele>1723</ele>
        <time>2017-08-29T07:00:56Z</time>
      </trkpt>
      <trkpt lat="44.75333" lon="6.24804">
        <ele>1723</ele>
        <time>2017-08-29T07:01:05Z</time>
      </trkpt>
      <trkpt lat="44.75333" lon="6.24804">
        <ele>1723</ele>
        <time>2017-08-29T07:01:16Z</time>
      </trkpt>
      <trkpt lat="44.75333" lon="6.24804">
        <ele>1723</ele>
        <time>2017-08-29T07:01:26Z</time>
      </trkpt>
      <trkpt lat="44.75333" lon="6.24804">
        <ele>1723</ele>
        <time>2017-08-29T07:01:35Z</time>
      </trkpt>
      <trkpt lat="44.75333" lon="6.24804">
        <ele>1723</ele>
        <time>2017-08-29T07:01:46Z</time>
      </trkpt>
      <trkpt lat="44.75333" lon="6.24804">
        <ele>1723</ele>
        <time>2017-08-29T07:01:56Z</time>
      </trkpt>
      <trkpt lat="44.75352" lon="6.24764">
        <ele>1739</ele>
        <time>2017-08-29T07:02:05Z</time>
      </trkpt>
      <trkpt lat="44.75353" lon="6.24764">
        <ele>1739</ele>
        <time>2017-08-29T07:02:16Z</time>
      </trkpt>
      <trkpt lat="44.75353" lon="6.24764">
        <ele>1739</ele>
        <time>2017-08-29T07:02:26Z</time>
      </trkpt>
      <trkpt lat="44.75353" lon="6.24764">
        <ele>1739</ele>
        <time>2017-08-29T07:02:35Z</time>
      </trkpt>
      <trkpt lat="44.75353" lon="6.24764">
        <ele>1739</ele>
        <time>2017-08-29T07:02:46Z</time>
      </trkpt>
      <trkpt lat="44.75353" lon="6.24764">
        <ele>1739</ele>
        <time>2017-08-29T07:02:56Z</time>
      </trkpt>
      <trkpt lat="44.75353" lon="6.24764">
        <ele>1739</ele>
        <time>2017-08-29T07:03:05Z</time>
      </trkpt>
      <trkpt lat="44.75353" lon="6.24764">
        <ele>1739</ele>
        <time>2017-08-29T07:03:16Z</time>
      </trkpt>
      <trkpt lat="44.75353" lon="6.24764">
        <ele>1739</ele>
        <time>2017-08-29T07:03:26Z</time>
      </trkpt>
      <trkpt lat="44.7532" lon="6.24738">
        <ele>1745</ele>
        <time>2017-08-29T07:03:35Z</time>
      </trkpt>
      <trkpt lat="44.7532" lon="6.24738">
        <ele>1745</ele>
        <time>2017-08-29T07:03:46Z</time>
      </trkpt>
      <trkpt lat="44.7532" lon="6.24738">
        <ele>1745</ele>
        <time>2017-08-29T07:03:56Z</time>
      </trkpt>
      <trkpt lat="44.7532" lon="6.24738">
        <ele>1745</ele>
        <time>2017-08-29T07:04:05Z</time>
      </trkpt>
      <trkpt lat="44.7532" lon="6.24738">
        <ele>1745</ele>
        <time>2017-08-29T07:04:16Z</time>
      </trkpt>
      <trkpt lat="44.7532" lon="6.24738">
        <ele>1745</ele>
        <time>2017-08-29T07:04:26Z</time>
      </trkpt>
      <trkpt lat="44.75357" lon="6.24733">
        <ele>1750</ele>
        <time>2017-08-29T07:04:35Z</time>
      </trkpt>
      <trkpt lat="44.75357" lon="6.24733">
        <ele>1750</ele>
        <time>2017-08-29T07:04:46Z</time>
      </trkpt>
      <trkpt lat="44.75357" lon="6.24733">
        <ele>1750</ele>
        <time>2017-08-29T07:04:56Z</time>
      </trkpt>
      <trkpt lat="44.75357" lon="6.24733">
        <ele>1750</ele>
        <time>2017-08-29T07:05:05Z</time>
      </trkpt>
      <trkpt lat="44.75357" lon="6.24733">
        <ele>1750</ele>
        <time>2017-08-29T07:05:16Z</time>
      </trkpt>
      <trkpt lat="44.75357" lon="6.24733">
        <ele>1750</ele>
        <time>2017-08-29T07:05:26Z</time>
      </trkpt>
      <trkpt lat="44.75357" lon="6.24733">
        <ele>1750</ele>
        <time>2017-08-29T07:05:35Z</time>
      </trkpt>
      <trkpt lat="44.75357" lon="6.24733">
        <ele>1750</ele>
        <time>2017-08-29T07:05:46Z</time>
      </trkpt>
      <trkpt lat="44.75357" lon="6.24733">
        <ele>1750</ele>
        <time>2017-08-29T07:05:56Z</time>
      </trkpt>
      <trkpt lat="44.75357" lon="6.24733">
        <ele>1750</ele>
        <time>2017-08-29T07:06:05Z</time>
      </trkpt>
      <trkpt lat="44.75357" lon="6.24733">
        <ele>1750</ele>
        <time>2017-08-29T07:06:16Z</time>
      </trkpt>
      <trkpt lat="44.75357" lon="6.24733">
        <ele>1750</ele>
        <time>2017-08-29T07:06:26Z</time>
      </trkpt>
      <trkpt lat="44.75383" lon="6.24703">
        <ele>1765</ele>
        <time>2017-08-29T07:06:35Z</time>
      </trkpt>
      <trkpt lat="44.75385" lon="6.24701">
        <ele>1766</ele>
        <time>2017-08-29T07:06:46Z</time>
      </trkpt>
      <trkpt lat="44.75385" lon="6.24701">
        <ele>1766</ele>
        <time>2017-08-29T07:06:56Z</time>
      </trkpt>
      <trkpt lat="44.75385" lon="6.24701">
        <ele>1766</ele>
        <time>2017-08-29T07:07:05Z</time>
      </trkpt>
      <trkpt lat="44.75385" lon="6.24701">
        <ele>1766</ele>
        <time>2017-08-29T07:07:16Z</time>
      </trkpt>
      <trkpt lat="44.75385" lon="6.24701">
        <ele>1766</ele>
        <time>2017-08-29T07:07:26Z</time>
      </trkpt>
      <trkpt lat="44.75385" lon="6.24701">
        <ele>1766</ele>
        <time>2017-08-29T07:07:35Z</time>
      </trkpt>
      <trkpt lat="44.75385" lon="6.24701">
        <ele>1766</ele>
        <time>2017-08-29T07:07:46Z</time>
      </trkpt>
      <trkpt lat="44.75385" lon="6.24701">
        <ele>1766</ele>
        <time>2017-08-29T07:07:56Z</time>
      </trkpt>
      <trkpt lat="44.75385" lon="6.24701">
        <ele>1766</ele>
        <time>2017-08-29T07:08:05Z</time>
      </trkpt>
      <trkpt lat="44.75385" lon="6.24701">
        <ele>1766</ele>
        <time>2017-08-29T07:08:16Z</time>
      </trkpt>
      <trkpt lat="44.75385" lon="6.24701">
        <ele>1766</ele>
        <time>2017-08-29T07:08:26Z</time>
      </trkpt>
      <trkpt lat="44.75385" lon="6.24701">
        <ele>1766</ele>
        <time>2017-08-29T07:08:35Z</time>
      </trkpt>
      <trkpt lat="44.75385" lon="6.24701">
        <ele>1766</ele>
        <time>2017-08-29T07:08:46Z</time>
      </trkpt>
      <trkpt lat="44.75385" lon="6.24701">
        <ele>1766</ele>
        <time>2017-08-29T07:08:56Z</time>
      </trkpt>
      <trkpt lat="44.75385" lon="6.24701">
        <ele>1766</ele>
        <time>2017-08-29T07:09:05Z</time>
      </trkpt>
      <trkpt lat="44.75388" lon="6.24658">
        <ele>1788</ele>
        <time>2017-08-29T07:09:16Z</time>
      </trkpt>
      <trkpt lat="44.75389" lon="6.24657">
        <ele>1788</ele>
        <time>2017-08-29T07:09:26Z</time>
      </trkpt>
      <trkpt lat="44.75389" lon="6.24657">
        <ele>1788</ele>
        <time>2017-08-29T07:09:35Z</time>
      </trkpt>
      <trkpt lat="44.75389" lon="6.24657">
        <ele>1788</ele>
        <time>2017-08-29T07:09:46Z</time>
      </trkpt>
      <trkpt lat="44.75389" lon="6.24657">
        <ele>1788</ele>
        <time>2017-08-29T07:09:56Z</time>
      </trkpt>
      <trkpt lat="44.75389" lon="6.24657">
        <ele>1788</ele>
        <time>2017-08-29T07:10:05Z</time>
      </trkpt>
      <trkpt lat="44.75389" lon="6.24657">
        <ele>1788</ele>
        <time>2017-08-29T07:10:16Z</time>
      </trkpt>
      <trkpt lat="44.75389" lon="6.24657">
        <ele>1788</ele>
        <time>2017-08-29T07:10:26Z</time>
      </trkpt>
      <trkpt lat="44.75389" lon="6.24657">
        <ele>1788</ele>
        <time>2017-08-29T07:10:35Z</time>
      </trkpt>
      <trkpt lat="44.75389" lon="6.24657">
        <ele>1788</ele>
        <time>2017-08-29T07:10:46Z</time>
      </trkpt>
      <trkpt lat="44.75389" lon="6.24657">
        <ele>1788</ele>
        <time>2017-08-29T07:10:56Z</time>
      </trkpt>
      <trkpt lat="44.75389" lon="6.24657">
        <ele>1788</ele>
        <time>2017-08-29T07:11:05Z</time>
      </trkpt>
      <trkpt lat="44.75389" lon="6.24657">
        <ele>1788</ele>
        <time>2017-08-29T07:11:16Z</time>
      </trkpt>
      <trkpt lat="44.75389" lon="6.24657">
        <ele>1788</ele>
        <time>2017-08-29T07:11:26Z</time>
      </trkpt>
      <trkpt lat="44.75389" lon="6.24657">
        <ele>1788</ele>
        <time>2017-08-29T07:11:35Z</time>
      </trkpt>
      <trkpt lat="44.75389" lon="6.24657">
        <ele>1788</ele>
        <time>2017-08-29T07:11:46Z</time>
      </trkpt>
      <trkpt lat="44.7536" lon="6.24636">
        <ele>1809</ele>
        <time>2017-08-29T07:11:56Z</time>
      </trkpt>
      <trkpt lat="44.7536" lon="6.24636">
        <ele>1809</ele>
        <time>2017-08-29T07:12:05Z</time>
      </trkpt>
      <trkpt lat="44.7536" lon="6.24636">
        <ele>1809</ele>
        <time>2017-08-29T07:12:16Z</time>
      </trkpt>
      <trkpt lat="44.7536" lon="6.24636">
        <ele>1809</ele>
        <time>2017-08-29T07:12:26Z</time>
      </trkpt>
      <trkpt lat="44.7536" lon="6.24636">
        <ele>1809</ele>
        <time>2017-08-29T07:12:35Z</time>
      </trkpt>
      <trkpt lat="44.7536" lon="6.24636">
        <ele>1809</ele>
        <time>2017-08-29T07:12:46Z</time>
      </trkpt>
      <trkpt lat="44.7536" lon="6.24636">
        <ele>1809</ele>
        <time>2017-08-29T07:12:56Z</time>
      </trkpt>
      <trkpt lat="44.7536" lon="6.24636">
        <ele>1809</ele>
        <time>2017-08-29T07:13:05Z</time>
      </trkpt>
      <trkpt lat="44.7536" lon="6.24636">
        <ele>1809</ele>
        <time>2017-08-29T07:13:16Z</time>
      </trkpt>
      <trkpt lat="44.7536" lon="6.24636">
        <ele>1809</ele>
        <time>2017-08-29T07:13:26Z</time>
      </trkpt>
      <trkpt lat="44.7536" lon="6.24636">
        <ele>1809</ele>
        <time>2017-08-29T07:13:35Z</time>
      </trkpt>
      <trkpt lat="44.7536" lon="6.24636">
        <ele>1809</ele>
        <time>2017-08-29T07:13:46Z</time>
      </trkpt>
      <trkpt lat="44.7536" lon="6.24636">
        <ele>1809</ele>
        <time>2017-08-29T07:13:56Z</time>
      </trkpt>
      <trkpt lat="44.7536" lon="6.24636">
        <ele>1809</ele>
        <time>2017-08-29T07:14:05Z</time>
      </trkpt>
      <trkpt lat="44.7536" lon="6.24636">
        <ele>1809</ele>
        <time>2017-08-29T07:14:16Z</time>
      </trkpt>
      <trkpt lat="44.7536" lon="6.24636">
        <ele>1809</ele>
        <time>2017-08-29T07:14:26Z</time>
      </trkpt>
      <trkpt lat="44.7536" lon="6.24636">
        <ele>1809</ele>
        <time>2017-08-29T07:14:35Z</time>
      </trkpt>
      <trkpt lat="44.75362" lon="6.24593">
        <ele>1833</ele>
        <time>2017-08-29T07:14:46Z</time>
      </trkpt>
      <trkpt lat="44.75362" lon="6.24593">
        <ele>1833</ele>
        <time>2017-08-29T07:14:56Z</time>
      </trkpt>
      <trkpt lat="44.75362" lon="6.24593">
        <ele>1833</ele>
        <time>2017-08-29T07:15:05Z</time>
      </trkpt>
      <trkpt lat="44.75362" lon="6.24593">
        <ele>1833</ele>
        <time>2017-08-29T07:15:16Z</time>
      </trkpt>
      <trkpt lat="44.75362" lon="6.24593">
        <ele>1833</ele>
        <time>2017-08-29T07:15:26Z</time>
      </trkpt>
      <trkpt lat="44.75362" lon="6.24593">
        <ele>1833</ele>
        <time>2017-08-29T07:15:35Z</time>
      </trkpt>
      <trkpt lat="44.75362" lon="6.24593">
        <ele>1833</ele>
        <time>2017-08-29T07:15:46Z</time>
      </trkpt>
      <trkpt lat="44.75362" lon="6.24593">
        <ele>1833</ele>
        <time>2017-08-29T07:15:56Z</time>
      </trkpt>
      <trkpt lat="44.75362" lon="6.24593">
        <ele>1833</ele>
        <time>2017-08-29T07:16:05Z</time>
      </trkpt>
      <trkpt lat="44.75362" lon="6.24593">
        <ele>1833</ele>
        <time>2017-08-29T07:16:16Z</time>
      </trkpt>
      <trkpt lat="44.75326" lon="6.24599">
        <ele>1845</ele>
        <time>2017-08-29T07:16:26Z</time>
      </trkpt>
      <trkpt lat="44.75326" lon="6.24599">
        <ele>1845</ele>
        <time>2017-08-29T07:16:35Z</time>
      </trkpt>
      <trkpt lat="44.75326" lon="6.24599">
        <ele>1845</ele>
        <time>2017-08-29T07:16:46Z</time>
      </trkpt>
      <trkpt lat="44.75326" lon="6.24599">
        <ele>1845</ele>
        <time>2017-08-29T07:16:56Z</time>
      </trkpt>
      <trkpt lat="44.75326" lon="6.24599">
        <ele>1845</ele>
        <time>2017-08-29T07:17:05Z</time>
      </trkpt>
      <trkpt lat="44.75326" lon="6.24599">
        <ele>1845</ele>
        <time>2017-08-29T07:17:16Z</time>
      </trkpt>
      <trkpt lat="44.75289" lon="6.24614">
        <ele>1852</ele>
        <time>2017-08-29T07:17:26Z</time>
      </trkpt>
      <trkpt lat="44.75289" lon="6.24614">
        <ele>1852</ele>
        <time>2017-08-29T07:17:35Z</time>
      </trkpt>
      <trkpt lat="44.75289" lon="6.24614">
        <ele>1852</ele>
        <time>2017-08-29T07:17:46Z</time>
      </trkpt>
      <trkpt lat="44.75289" lon="6.24614">
        <ele>1852</ele>
        <time>2017-08-29T07:17:56Z</time>
      </trkpt>
      <trkpt lat="44.75289" lon="6.24614">
        <ele>1852</ele>
        <time>2017-08-29T07:18:05Z</time>
      </trkpt>
      <trkpt lat="44.75255" lon="6.24636">
        <ele>1856</ele>
        <time>2017-08-29T07:18:16Z</time>
      </trkpt>
      <trkpt lat="44.75254" lon="6.24636">
        <ele>1856</ele>
        <time>2017-08-29T07:18:26Z</time>
      </trkpt>
      <trkpt lat="44.75254" lon="6.24636">
        <ele>1856</ele>
        <time>2017-08-29T07:18:35Z</time>
      </trkpt>
      <trkpt lat="44.75254" lon="6.24636">
        <ele>1856</ele>
        <time>2017-08-29T07:18:46Z</time>
      </trkpt>
      <trkpt lat="44.75254" lon="6.24636">
        <ele>1856</ele>
        <time>2017-08-29T07:18:56Z</time>
      </trkpt>
      <trkpt lat="44.75254" lon="6.24636">
        <ele>1856</ele>
        <time>2017-08-29T07:19:05Z</time>
      </trkpt>
      <trkpt lat="44.75254" lon="6.24636">
        <ele>1856</ele>
        <time>2017-08-29T07:19:16Z</time>
      </trkpt>
      <trkpt lat="44.75254" lon="6.24636">
        <ele>1856</ele>
        <time>2017-08-29T07:19:26Z</time>
      </trkpt>
      <trkpt lat="44.75254" lon="6.24636">
        <ele>1856</ele>
        <time>2017-08-29T07:19:35Z</time>
      </trkpt>
      <trkpt lat="44.75254" lon="6.24636">
        <ele>1856</ele>
        <time>2017-08-29T07:19:46Z</time>
      </trkpt>
      <trkpt lat="44.75254" lon="6.24636">
        <ele>1856</ele>
        <time>2017-08-29T07:19:56Z</time>
      </trkpt>
      <trkpt lat="44.75218" lon="6.24636">
        <ele>1869</ele>
        <time>2017-08-29T07:20:05Z</time>
      </trkpt>
      <trkpt lat="44.75218" lon="6.24636">
        <ele>1869</ele>
        <time>2017-08-29T07:20:16Z</time>
      </trkpt>
      <trkpt lat="44.75218" lon="6.24636">
        <ele>1869</ele>
        <time>2017-08-29T07:20:26Z</time>
      </trkpt>
      <trkpt lat="44.75218" lon="6.24636">
        <ele>1869</ele>
        <time>2017-08-29T07:20:35Z</time>
      </trkpt>
      <trkpt lat="44.75218" lon="6.24636">
        <ele>1869</ele>
        <time>2017-08-29T07:20:46Z</time>
      </trkpt>
      <trkpt lat="44.75218" lon="6.24636">
        <ele>1869</ele>
        <time>2017-08-29T07:20:56Z</time>
      </trkpt>
      <trkpt lat="44.75218" lon="6.24636">
        <ele>1869</ele>
        <time>2017-08-29T07:21:05Z</time>
      </trkpt>
      <trkpt lat="44.75218" lon="6.24636">
        <ele>1869</ele>
        <time>2017-08-29T07:21:16Z</time>
      </trkpt>
      <trkpt lat="44.75218" lon="6.24636">
        <ele>1869</ele>
        <time>2017-08-29T07:21:26Z</time>
      </trkpt>
      <trkpt lat="44.75218" lon="6.24636">
        <ele>1869</ele>
        <time>2017-08-29T07:21:35Z</time>
      </trkpt>
      <trkpt lat="44.75218" lon="6.24636">
        <ele>1869</ele>
        <time>2017-08-29T07:21:46Z</time>
      </trkpt>
      <trkpt lat="44.75218" lon="6.24636">
        <ele>1869</ele>
        <time>2017-08-29T07:21:56Z</time>
      </trkpt>
      <trkpt lat="44.75218" lon="6.24636">
        <ele>1869</ele>
        <time>2017-08-29T07:22:05Z</time>
      </trkpt>
      <trkpt lat="44.75218" lon="6.24636">
        <ele>1869</ele>
        <time>2017-08-29T07:22:16Z</time>
      </trkpt>
      <trkpt lat="44.75218" lon="6.24636">
        <ele>1869</ele>
        <time>2017-08-29T07:22:26Z</time>
      </trkpt>
      <trkpt lat="44.75218" lon="6.24636">
        <ele>1869</ele>
        <time>2017-08-29T07:22:35Z</time>
      </trkpt>
      <trkpt lat="44.75218" lon="6.24636">
        <ele>1869</ele>
        <time>2017-08-29T07:22:46Z</time>
      </trkpt>
      <trkpt lat="44.75214" lon="6.24591">
        <ele>1888</ele>
        <time>2017-08-29T07:22:56Z</time>
      </trkpt>
      <trkpt lat="44.75213" lon="6.24589">
        <ele>1889</ele>
        <time>2017-08-29T07:23:05Z</time>
      </trkpt>
      <trkpt lat="44.75213" lon="6.24589">
        <ele>1889</ele>
        <time>2017-08-29T07:23:16Z</time>
      </trkpt>
      <trkpt lat="44.75213" lon="6.24589">
        <ele>1889</ele>
        <time>2017-08-29T07:23:26Z</time>
      </trkpt>
      <trkpt lat="44.75213" lon="6.24589">
        <ele>1889</ele>
        <time>2017-08-29T07:23:35Z</time>
      </trkpt>
      <trkpt lat="44.75213" lon="6.24589">
        <ele>1889</ele>
        <time>2017-08-29T07:23:46Z</time>
      </trkpt>
      <trkpt lat="44.75213" lon="6.24589">
        <ele>1889</ele>
        <time>2017-08-29T07:23:56Z</time>
      </trkpt>
      <trkpt lat="44.75213" lon="6.24589">
        <ele>1889</ele>
        <time>2017-08-29T07:24:05Z</time>
      </trkpt>
      <trkpt lat="44.75213" lon="6.24589">
        <ele>1889</ele>
        <time>2017-08-29T07:24:16Z</time>
      </trkpt>
      <trkpt lat="44.75213" lon="6.24589">
        <ele>1889</ele>
        <time>2017-08-29T07:24:26Z</time>
      </trkpt>
      <trkpt lat="44.75213" lon="6.24589">
        <ele>1889</ele>
        <time>2017-08-29T07:24:35Z</time>
      </trkpt>
      <trkpt lat="44.75213" lon="6.24589">
        <ele>1889</ele>
        <time>2017-08-29T07:24:46Z</time>
      </trkpt>
      <trkpt lat="44.75213" lon="6.24589">
        <ele>1889</ele>
        <time>2017-08-29T07:24:56Z</time>
      </trkpt>
      <trkpt lat="44.75213" lon="6.24589">
        <ele>1889</ele>
        <time>2017-08-29T07:25:05Z</time>
      </trkpt>
      <trkpt lat="44.75213" lon="6.24589">
        <ele>1889</ele>
        <time>2017-08-29T07:25:16Z</time>
      </trkpt>
      <trkpt lat="44.75245" lon="6.24576">
        <ele>1908</ele>
        <time>2017-08-29T07:25:26Z</time>
      </trkpt>
      <trkpt lat="44.75245" lon="6.24576">
        <ele>1908</ele>
        <time>2017-08-29T07:25:35Z</time>
      </trkpt>
      <trkpt lat="44.75245" lon="6.24576">
        <ele>1908</ele>
        <time>2017-08-29T07:25:46Z</time>
      </trkpt>
      <trkpt lat="44.75245" lon="6.24576">
        <ele>1908</ele>
        <time>2017-08-29T07:25:56Z</time>
      </trkpt>
      <trkpt lat="44.75245" lon="6.24576">
        <ele>1908</ele>
        <time>2017-08-29T07:26:05Z</time>
      </trkpt>
      <trkpt lat="44.75245" lon="6.24576">
        <ele>1908</ele>
        <time>2017-08-29T07:26:16Z</time>
      </trkpt>
      <trkpt lat="44.75245" lon="6.24576">
        <ele>1908</ele>
        <time>2017-08-29T07:26:26Z</time>
      </trkpt>
      <trkpt lat="44.75279" lon="6.24553">
        <ele>1916</ele>
        <time>2017-08-29T07:26:35Z</time>
      </trkpt>
      <trkpt lat="44.75279" lon="6.24553">
        <ele>1916</ele>
        <time>2017-08-29T07:26:46Z</time>
      </trkpt>
      <trkpt lat="44.75279" lon="6.24553">
        <ele>1916</ele>
        <time>2017-08-29T07:26:56Z</time>
      </trkpt>
      <trkpt lat="44.75279" lon="6.24553">
        <ele>1916</ele>
        <time>2017-08-29T07:27:05Z</time>
      </trkpt>
      <trkpt lat="44.75279" lon="6.24553">
        <ele>1916</ele>
        <time>2017-08-29T07:27:16Z</time>
      </trkpt>
      <trkpt lat="44.75314" lon="6.24531">
        <ele>1919</ele>
        <time>2017-08-29T07:27:26Z</time>
      </trkpt>
      <trkpt lat="44.75315" lon="6.2453">
        <ele>1920</ele>
        <time>2017-08-29T07:27:35Z</time>
      </trkpt>
      <trkpt lat="44.75315" lon="6.2453">
        <ele>1920</ele>
        <time>2017-08-29T07:27:46Z</time>
      </trkpt>
      <trkpt lat="44.75315" lon="6.2453">
        <ele>1920</ele>
        <time>2017-08-29T07:27:56Z</time>
      </trkpt>
      <trkpt lat="44.75315" lon="6.2453">
        <ele>1920</ele>
        <time>2017-08-29T07:28:05Z</time>
      </trkpt>
      <trkpt lat="44.75315" lon="6.2453">
        <ele>1920</ele>
        <time>2017-08-29T07:28:16Z</time>
      </trkpt>
      <trkpt lat="44.75315" lon="6.2453">
        <ele>1920</ele>
        <time>2017-08-29T07:28:26Z</time>
      </trkpt>
      <trkpt lat="44.75346" lon="6.24503">
        <ele>1921</ele>
        <time>2017-08-29T07:28:35Z</time>
      </trkpt>
      <trkpt lat="44.75346" lon="6.24503">
        <ele>1921</ele>
        <time>2017-08-29T07:28:46Z</time>
      </trkpt>
      <trkpt lat="44.75346" lon="6.24503">
        <ele>1921</ele>
        <time>2017-08-29T07:28:56Z</time>
      </trkpt>
      <trkpt lat="44.75346" lon="6.24503">
        <ele>1921</ele>
        <time>2017-08-29T07:29:05Z</time>
      </trkpt>
      <trkpt lat="44.75346" lon="6.24503">
        <ele>1921</ele>
        <time>2017-08-29T07:29:16Z</time>
      </trkpt>
      <trkpt lat="44.75346" lon="6.24503">
        <ele>1921</ele>
        <time>2017-08-29T07:29:26Z</time>
      </trkpt>
      <trkpt lat="44.75346" lon="6.24503">
        <ele>1921</ele>
        <time>2017-08-29T07:29:35Z</time>
      </trkpt>
      <trkpt lat="44.75383" lon="6.24489">
        <ele>1924</ele>
        <time>2017-08-29T07:29:46Z</time>
      </trkpt>
      <trkpt lat="44.75383" lon="6.24489">
        <ele>1924</ele>
        <time>2017-08-29T07:29:56Z</time>
      </trkpt>
      <trkpt lat="44.75383" lon="6.24489">
        <ele>1924</ele>
        <time>2017-08-29T07:30:05Z</time>
      </trkpt>
      <trkpt lat="44.75383" lon="6.24489">
        <ele>1924</ele>
        <time>2017-08-29T07:30:16Z</time>
      </trkpt>
      <trkpt lat="44.75383" lon="6.24489">
        <ele>1924</ele>
        <time>2017-08-29T07:30:26Z</time>
      </trkpt>
      <trkpt lat="44.75419" lon="6.2447">
        <ele>1927</ele>
        <time>2017-08-29T07:30:35Z</time>
      </trkpt>
      <trkpt lat="44.75419" lon="6.2447">
        <ele>1927</ele>
        <time>2017-08-29T07:30:46Z</time>
      </trkpt>
      <trkpt lat="44.75419" lon="6.2447">
        <ele>1927</ele>
        <time>2017-08-29T07:30:56Z</time>
      </trkpt>
      <trkpt lat="44.75419" lon="6.2447">
        <ele>1927</ele>
        <time>2017-08-29T07:31:05Z</time>
      </trkpt>
      <trkpt lat="44.75419" lon="6.2447">
        <ele>1927</ele>
        <time>2017-08-29T07:31:16Z</time>
      </trkpt>
      <trkpt lat="44.75419" lon="6.2447">
        <ele>1927</ele>
        <time>2017-08-29T07:31:26Z</time>
      </trkpt>
      <trkpt lat="44.75457" lon="6.24463">
        <ele>1931</ele>
        <time>2017-08-29T07:31:35Z</time>
      </trkpt>
      <trkpt lat="44.75457" lon="6.24463">
        <ele>1931</ele>
        <time>2017-08-29T07:31:46Z</time>
      </trkpt>
      <trkpt lat="44.75457" lon="6.24463">
        <ele>1931</ele>
        <time>2017-08-29T07:31:56Z</time>
      </trkpt>
      <trkpt lat="44.75457" lon="6.24463">
        <ele>1931</ele>
        <time>2017-08-29T07:32:05Z</time>
      </trkpt>
      <trkpt lat="44.75457" lon="6.24463">
        <ele>1931</ele>
        <time>2017-08-29T07:32:16Z</time>
      </trkpt>
      <trkpt lat="44.75493" lon="6.24454">
        <ele>1930</ele>
        <time>2017-08-29T07:32:26Z</time>
      </trkpt>
      <trkpt lat="44.75493" lon="6.24454">
        <ele>1930</ele>
        <time>2017-08-29T07:32:35Z</time>
      </trkpt>
      <trkpt lat="44.75493" lon="6.24454">
        <ele>1930</ele>
        <time>2017-08-29T07:32:46Z</time>
      </trkpt>
      <trkpt lat="44.75493" lon="6.24454">
        <ele>1930</ele>
        <time>2017-08-29T07:32:56Z</time>
      </trkpt>
      <trkpt lat="44.75493" lon="6.24454">
        <ele>1930</ele>
        <time>2017-08-29T07:33:05Z</time>
      </trkpt>
      <trkpt lat="44.75493" lon="6.24454">
        <ele>1930</ele>
        <time>2017-08-29T07:33:16Z</time>
      </trkpt>
      <trkpt lat="44.75531" lon="6.24467">
        <ele>1937</ele>
        <time>2017-08-29T07:33:26Z</time>
      </trkpt>
      <trkpt lat="44.75531" lon="6.24467">
        <ele>1937</ele>
        <time>2017-08-29T07:33:35Z</time>
      </trkpt>
      <trkpt lat="44.75531" lon="6.24467">
        <ele>1937</ele>
        <time>2017-08-29T07:33:46Z</time>
      </trkpt>
      <trkpt lat="44.75531" lon="6.24467">
        <ele>1937</ele>
        <time>2017-08-29T07:33:56Z</time>
      </trkpt>
      <trkpt lat="44.75531" lon="6.24467">
        <ele>1937</ele>
        <time>2017-08-29T07:34:05Z</time>
      </trkpt>
      <trkpt lat="44.75531" lon="6.24467">
        <ele>1937</ele>
        <time>2017-08-29T07:34:16Z</time>
      </trkpt>
      <trkpt lat="44.75567" lon="6.2448">
        <ele>1943</ele>
        <time>2017-08-29T07:34:26Z</time>
      </trkpt>
      <trkpt lat="44.75567" lon="6.2448">
        <ele>1943</ele>
        <time>2017-08-29T07:34:35Z</time>
      </trkpt>
      <trkpt lat="44.75567" lon="6.2448">
        <ele>1943</ele>
        <time>2017-08-29T07:34:46Z</time>
      </trkpt>
      <trkpt lat="44.75567" lon="6.2448">
        <ele>1943</ele>
        <time>2017-08-29T07:34:56Z</time>
      </trkpt>
      <trkpt lat="44.75567" lon="6.2448">
        <ele>1943</ele>
        <time>2017-08-29T07:35:05Z</time>
      </trkpt>
      <trkpt lat="44.75567" lon="6.2448">
        <ele>1943</ele>
        <time>2017-08-29T07:35:16Z</time>
      </trkpt>
      <trkpt lat="44.75567" lon="6.2448">
        <ele>1943</ele>
        <time>2017-08-29T07:35:26Z</time>
      </trkpt>
      <trkpt lat="44.75567" lon="6.2448">
        <ele>1943</ele>
        <time>2017-08-29T07:35:35Z</time>
      </trkpt>
      <trkpt lat="44.75567" lon="6.2448">
        <ele>1943</ele>
        <time>2017-08-29T07:35:46Z</time>
      </trkpt>
      <trkpt lat="44.75598" lon="6.24506">
        <ele>1952</ele>
        <time>2017-08-29T07:35:56Z</time>
      </trkpt>
      <trkpt lat="44.75599" lon="6.24506">
        <ele>1952</ele>
        <time>2017-08-29T07:36:05Z</time>
      </trkpt>
      <trkpt lat="44.75599" lon="6.24506">
        <ele>1952</ele>
        <time>2017-08-29T07:36:16Z</time>
      </trkpt>
      <trkpt lat="44.75599" lon="6.24506">
        <ele>1952</ele>
        <time>2017-08-29T07:36:26Z</time>
      </trkpt>
      <trkpt lat="44.75599" lon="6.24506">
        <ele>1952</ele>
        <time>2017-08-29T07:36:35Z</time>
      </trkpt>
      <trkpt lat="44.75599" lon="6.24506">
        <ele>1952</ele>
        <time>2017-08-29T07:36:46Z</time>
      </trkpt>
      <trkpt lat="44.75599" lon="6.24506">
        <ele>1952</ele>
        <time>2017-08-29T07:36:56Z</time>
      </trkpt>
      <trkpt lat="44.75599" lon="6.24506">
        <ele>1952</ele>
        <time>2017-08-29T07:37:05Z</time>
      </trkpt>
      <trkpt lat="44.75599" lon="6.24506">
        <ele>1952</ele>
        <time>2017-08-29T07:37:16Z</time>
      </trkpt>
      <trkpt lat="44.75599" lon="6.24506">
        <ele>1952</ele>
        <time>2017-08-29T07:37:26Z</time>
      </trkpt>
      <trkpt lat="44.75599" lon="6.24506">
        <ele>1952</ele>
        <time>2017-08-29T07:37:35Z</time>
      </trkpt>
      <trkpt lat="44.75599" lon="6.24506">
        <ele>1952</ele>
        <time>2017-08-29T07:37:46Z</time>
      </trkpt>
      <trkpt lat="44.75599" lon="6.24506">
        <ele>1952</ele>
        <time>2017-08-29T07:37:56Z</time>
      </trkpt>
      <trkpt lat="44.75599" lon="6.24506">
        <ele>1952</ele>
        <time>2017-08-29T07:38:05Z</time>
      </trkpt>
      <trkpt lat="44.75629" lon="6.24482">
        <ele>1965</ele>
        <time>2017-08-29T07:38:16Z</time>
      </trkpt>
      <trkpt lat="44.7563" lon="6.24481">
        <ele>1965</ele>
        <time>2017-08-29T07:38:26Z</time>
      </trkpt>
      <trkpt lat="44.7563" lon="6.24481">
        <ele>1965</ele>
        <time>2017-08-29T07:38:35Z</time>
      </trkpt>
      <trkpt lat="44.7563" lon="6.24481">
        <ele>1965</ele>
        <time>2017-08-29T07:38:46Z</time>
      </trkpt>
      <trkpt lat="44.7563" lon="6.24481">
        <ele>1965</ele>
        <time>2017-08-29T07:38:56Z</time>
      </trkpt>
      <trkpt lat="44.7563" lon="6.24481">
        <ele>1965</ele>
        <time>2017-08-29T07:39:05Z</time>
      </trkpt>
      <trkpt lat="44.7563" lon="6.24481">
        <ele>1965</ele>
        <time>2017-08-29T07:39:16Z</time>
      </trkpt>
      <trkpt lat="44.7563" lon="6.24481">
        <ele>1965</ele>
        <time>2017-08-29T07:39:26Z</time>
      </trkpt>
      <trkpt lat="44.7563" lon="6.24481">
        <ele>1965</ele>
        <time>2017-08-29T07:39:35Z</time>
      </trkpt>
      <trkpt lat="44.7563" lon="6.24481">
        <ele>1965</ele>
        <time>2017-08-29T07:39:46Z</time>
      </trkpt>
      <trkpt lat="44.7563" lon="6.24481">
        <ele>1965</ele>
        <time>2017-08-29T07:39:56Z</time>
      </trkpt>
      <trkpt lat="44.7563" lon="6.24481">
        <ele>1965</ele>
        <time>2017-08-29T07:40:05Z</time>
      </trkpt>
      <trkpt lat="44.7563" lon="6.24481">
        <ele>1965</ele>
        <time>2017-08-29T07:40:16Z</time>
      </trkpt>
      <trkpt lat="44.7563" lon="6.24481">
        <ele>1965</ele>
        <time>2017-08-29T07:40:26Z</time>
      </trkpt>
      <trkpt lat="44.7563" lon="6.24481">
        <ele>1965</ele>
        <time>2017-08-29T07:40:35Z</time>
      </trkpt>
      <trkpt lat="44.7563" lon="6.24481">
        <ele>1965</ele>
        <time>2017-08-29T07:40:46Z</time>
      </trkpt>
      <trkpt lat="44.7563" lon="6.24481">
        <ele>1965</ele>
        <time>2017-08-29T07:40:56Z</time>
      </trkpt>
      <trkpt lat="44.7563" lon="6.24481">
        <ele>1965</ele>
        <time>2017-08-29T07:41:05Z</time>
      </trkpt>
      <trkpt lat="44.7563" lon="6.24481">
        <ele>1965</ele>
        <time>2017-08-29T07:41:16Z</time>
      </trkpt>
      <trkpt lat="44.75622" lon="6.24436">
        <ele>1985</ele>
        <time>2017-08-29T07:41:26Z</time>
      </trkpt>
      <trkpt lat="44.75622" lon="6.24436">
        <ele>1985</ele>
        <time>2017-08-29T07:41:35Z</time>
      </trkpt>
      <trkpt lat="44.75622" lon="6.24436">
        <ele>1985</ele>
        <time>2017-08-29T07:41:46Z</time>
      </trkpt>
      <trkpt lat="44.75622" lon="6.24436">
        <ele>1985</ele>
        <time>2017-08-29T07:41:56Z</time>
      </trkpt>
      <trkpt lat="44.75622" lon="6.24436">
        <ele>1985</ele>
        <time>2017-08-29T07:42:05Z</time>
      </trkpt>
      <trkpt lat="44.75622" lon="6.24436">
        <ele>1985</ele>
        <time>2017-08-29T07:42:16Z</time>
      </trkpt>
      <trkpt lat="44.75622" lon="6.24436">
        <ele>1985</ele>
        <time>2017-08-29T07:42:26Z</time>
      </trkpt>
      <trkpt lat="44.75622" lon="6.24436">
        <ele>1985</ele>
        <time>2017-08-29T07:42:35Z</time>
      </trkpt>
      <trkpt lat="44.75622" lon="6.24436">
        <ele>1985</ele>
        <time>2017-08-29T07:42:46Z</time>
      </trkpt>
      <trkpt lat="44.75622" lon="6.24436">
        <ele>1985</ele>
        <time>2017-08-29T07:42:56Z</time>
      </trkpt>
      <trkpt lat="44.75622" lon="6.24436">
        <ele>1985</ele>
        <time>2017-08-29T07:43:05Z</time>
      </trkpt>
      <trkpt lat="44.75622" lon="6.24436">
        <ele>1985</ele>
        <time>2017-08-29T07:43:16Z</time>
      </trkpt>
      <trkpt lat="44.75622" lon="6.24436">
        <ele>1985</ele>
        <time>2017-08-29T07:43:26Z</time>
      </trkpt>
      <trkpt lat="44.75622" lon="6.24436">
        <ele>1985</ele>
        <time>2017-08-29T07:43:35Z</time>
      </trkpt>
      <trkpt lat="44.75622" lon="6.24436">
        <ele>1985</ele>
        <time>2017-08-29T07:43:46Z</time>
      </trkpt>
      <trkpt lat="44.75622" lon="6.24436">
        <ele>1985</ele>
        <time>2017-08-29T07:43:56Z</time>
      </trkpt>
      <trkpt lat="44.75622" lon="6.24436">
        <ele>1985</ele>
        <time>2017-08-29T07:44:05Z</time>
      </trkpt>
      <trkpt lat="44.75622" lon="6.24436">
        <ele>1985</ele>
        <time>2017-08-29T07:44:16Z</time>
      </trkpt>
      <trkpt lat="44.75622" lon="6.24436">
        <ele>1985</ele>
        <time>2017-08-29T07:44:26Z</time>
      </trkpt>
      <trkpt lat="44.75622" lon="6.24436">
        <ele>1985</ele>
        <time>2017-08-29T07:44:35Z</time>
      </trkpt>
      <trkpt lat="44.75646" lon="6.24406">
        <ele>2005</ele>
        <time>2017-08-29T07:44:46Z</time>
      </trkpt>
      <trkpt lat="44.75646" lon="6.24406">
        <ele>2005</ele>
        <time>2017-08-29T07:44:56Z</time>
      </trkpt>
      <trkpt lat="44.75646" lon="6.24406">
        <ele>2005</ele>
        <time>2017-08-29T07:45:05Z</time>
      </trkpt>
      <trkpt lat="44.75646" lon="6.24406">
        <ele>2005</ele>
        <time>2017-08-29T07:45:16Z</time>
      </trkpt>
      <trkpt lat="44.75646" lon="6.24406">
        <ele>2005</ele>
        <time>2017-08-29T07:45:26Z</time>
      </trkpt>
      <trkpt lat="44.75646" lon="6.24406">
        <ele>2005</ele>
        <time>2017-08-29T07:45:35Z</time>
      </trkpt>
      <trkpt lat="44.75646" lon="6.24406">
        <ele>2005</ele>
        <time>2017-08-29T07:45:46Z</time>
      </trkpt>
      <trkpt lat="44.75646" lon="6.24406">
        <ele>2005</ele>
        <time>2017-08-29T07:45:56Z</time>
      </trkpt>
      <trkpt lat="44.75646" lon="6.24406">
        <ele>2005</ele>
        <time>2017-08-29T07:46:05Z</time>
      </trkpt>
      <trkpt lat="44.75646" lon="6.24406">
        <ele>2005</ele>
        <time>2017-08-29T07:46:16Z</time>
      </trkpt>
      <trkpt lat="44.75646" lon="6.24406">
        <ele>2005</ele>
        <time>2017-08-29T07:46:26Z</time>
      </trkpt>
      <trkpt lat="44.75646" lon="6.24406">
        <ele>2005</ele>
        <time>2017-08-29T07:46:35Z</time>
      </trkpt>
      <trkpt lat="44.7562" lon="6.24372">
        <ele>2020</ele>
        <time>2017-08-29T07:46:46Z</time>
      </trkpt>
      <trkpt lat="44.7562" lon="6.24372">
        <ele>2020</ele>
        <time>2017-08-29T07:46:56Z</time>
      </trkpt>
      <trkpt lat="44.7562" lon="6.24372">
        <ele>2020</ele>
        <time>2017-08-29T07:47:05Z</time>
      </trkpt>
      <trkpt lat="44.7562" lon="6.24372">
        <ele>2020</ele>
        <time>2017-08-29T07:47:16Z</time>
      </trkpt>
      <trkpt lat="44.7562" lon="6.24372">
        <ele>2020</ele>
        <time>2017-08-29T07:47:26Z</time>
      </trkpt>
      <trkpt lat="44.7562" lon="6.24372">
        <ele>2020</ele>
        <time>2017-08-29T07:47:35Z</time>
      </trkpt>
      <trkpt lat="44.7562" lon="6.24372">
        <ele>2020</ele>
        <time>2017-08-29T07:47:46Z</time>
      </trkpt>
      <trkpt lat="44.7562" lon="6.24372">
        <ele>2020</ele>
        <time>2017-08-29T07:47:56Z</time>
      </trkpt>
      <trkpt lat="44.7562" lon="6.24372">
        <ele>2020</ele>
        <time>2017-08-29T07:48:05Z</time>
      </trkpt>
      <trkpt lat="44.7562" lon="6.24372">
        <ele>2020</ele>
        <time>2017-08-29T07:48:16Z</time>
      </trkpt>
      <trkpt lat="44.7562" lon="6.24372">
        <ele>2020</ele>
        <time>2017-08-29T07:48:26Z</time>
      </trkpt>
      <trkpt lat="44.7562" lon="6.24372">
        <ele>2020</ele>
        <time>2017-08-29T07:48:35Z</time>
      </trkpt>
      <trkpt lat="44.7562" lon="6.24372">
        <ele>2020</ele>
        <time>2017-08-29T07:48:46Z</time>
      </trkpt>
      <trkpt lat="44.7562" lon="6.24372">
        <ele>2020</ele>
        <time>2017-08-29T07:48:56Z</time>
      </trkpt>
      <trkpt lat="44.7562" lon="6.24372">
        <ele>2020</ele>
        <time>2017-08-29T07:49:05Z</time>
      </trkpt>
      <trkpt lat="44.7562" lon="6.24372">
        <ele>2020</ele>
        <time>2017-08-29T07:49:16Z</time>
      </trkpt>
      <trkpt lat="44.7562" lon="6.24372">
        <ele>2020</ele>
        <time>2017-08-29T07:49:26Z</time>
      </trkpt>
      <trkpt lat="44.7562" lon="6.24372">
        <ele>2020</ele>
        <time>2017-08-29T07:49:35Z</time>
      </trkpt>
      <trkpt lat="44.7562" lon="6.24372">
        <ele>2020</ele>
        <time>2017-08-29T07:49:46Z</time>
      </trkpt>
      <trkpt lat="44.7562" lon="6.24372">
        <ele>2020</ele>
        <time>2017-08-29T07:49:56Z</time>
      </trkpt>
      <trkpt lat="44.7562" lon="6.24372">
        <ele>2020</ele>
        <time>2017-08-29T07:50:05Z</time>
      </trkpt>
      <trkpt lat="44.75639" lon="6.24348">
        <ele>2050</ele>
        <time>2017-08-29T07:50:16Z</time>
      </trkpt>
      <trkpt lat="44.75639" lon="6.24348">
        <ele>2050</ele>
        <time>2017-08-29T07:50:26Z</time>
      </trkpt>
      <trkpt lat="44.75639" lon="6.24348">
        <ele>2050</ele>
        <time>2017-08-29T07:50:35Z</time>
      </trkpt>
      <trkpt lat="44.75639" lon="6.24348">
        <ele>2050</ele>
        <time>2017-08-29T07:50:46Z</time>
      </trkpt>
      <trkpt lat="44.75639" lon="6.24348">
        <ele>2050</ele>
        <time>2017-08-29T07:50:56Z</time>
      </trkpt>
      <trkpt lat="44.75639" lon="6.24348">
        <ele>2050</ele>
        <time>2017-08-29T07:51:05Z</time>
      </trkpt>
      <trkpt lat="44.75639" lon="6.24348">
        <ele>2050</ele>
        <time>2017-08-29T07:51:16Z</time>
      </trkpt>
      <trkpt lat="44.75639" lon="6.24348">
        <ele>2050</ele>
        <time>2017-08-29T07:51:26Z</time>
      </trkpt>
      <trkpt lat="44.75639" lon="6.24348">
        <ele>2050</ele>
        <time>2017-08-29T07:51:35Z</time>
      </trkpt>
      <trkpt lat="44.75676" lon="6.24336">
        <ele>2055</ele>
        <time>2017-08-29T07:51:46Z</time>
      </trkpt>
      <trkpt lat="44.75676" lon="6.24336">
        <ele>2055</ele>
        <time>2017-08-29T07:51:56Z</time>
      </trkpt>
      <trkpt lat="44.75676" lon="6.24336">
        <ele>2055</ele>
        <time>2017-08-29T07:52:05Z</time>
      </trkpt>
      <trkpt lat="44.75676" lon="6.24336">
        <ele>2055</ele>
        <time>2017-08-29T07:52:16Z</time>
      </trkpt>
      <trkpt lat="44.75676" lon="6.24336">
        <ele>2055</ele>
        <time>2017-08-29T07:52:26Z</time>
      </trkpt>
      <trkpt lat="44.75676" lon="6.24336">
        <ele>2055</ele>
        <time>2017-08-29T07:52:35Z</time>
      </trkpt>
      <trkpt lat="44.75676" lon="6.24336">
        <ele>2055</ele>
        <time>2017-08-29T07:52:46Z</time>
      </trkpt>
      <trkpt lat="44.75676" lon="6.24336">
        <ele>2055</ele>
        <time>2017-08-29T07:52:56Z</time>
      </trkpt>
      <trkpt lat="44.7571" lon="6.24348">
        <ele>2068</ele>
        <time>2017-08-29T07:53:05Z</time>
      </trkpt>
      <trkpt lat="44.7571" lon="6.24348">
        <ele>2068</ele>
        <time>2017-08-29T07:53:16Z</time>
      </trkpt>
      <trkpt lat="44.7571" lon="6.24348">
        <ele>2068</ele>
        <time>2017-08-29T07:53:26Z</time>
      </trkpt>
      <trkpt lat="44.7571" lon="6.24348">
        <ele>2068</ele>
        <time>2017-08-29T07:53:35Z</time>
      </trkpt>
      <trkpt lat="44.7571" lon="6.24348">
        <ele>2068</ele>
        <time>2017-08-29T07:53:46Z</time>
      </trkpt>
      <trkpt lat="44.7571" lon="6.24348">
        <ele>2068</ele>
        <time>2017-08-29T07:53:56Z</time>
      </trkpt>
      <trkpt lat="44.7571" lon="6.24348">
        <ele>2068</ele>
        <time>2017-08-29T07:54:05Z</time>
      </trkpt>
      <trkpt lat="44.7571" lon="6.24348">
        <ele>2068</ele>
        <time>2017-08-29T07:54:16Z</time>
      </trkpt>
      <trkpt lat="44.7571" lon="6.24348">
        <ele>2068</ele>
        <time>2017-08-29T07:54:26Z</time>
      </trkpt>
      <trkpt lat="44.7571" lon="6.24348">
        <ele>2068</ele>
        <time>2017-08-29T07:54:35Z</time>
      </trkpt>
      <trkpt lat="44.7571" lon="6.24348">
        <ele>2068</ele>
        <time>2017-08-29T07:54:46Z</time>
      </trkpt>
      <trkpt lat="44.7571" lon="6.24348">
        <ele>2068</ele>
        <time>2017-08-29T07:54:56Z</time>
      </trkpt>
      <trkpt lat="44.7571" lon="6.24348">
        <ele>2068</ele>
        <time>2017-08-29T07:55:05Z</time>
      </trkpt>
      <trkpt lat="44.7571" lon="6.24348">
        <ele>2068</ele>
        <time>2017-08-29T07:55:16Z</time>
      </trkpt>
      <trkpt lat="44.7571" lon="6.24348">
        <ele>2068</ele>
        <time>2017-08-29T07:55:26Z</time>
      </trkpt>
      <trkpt lat="44.7571" lon="6.24348">
        <ele>2068</ele>
        <time>2017-08-29T07:55:35Z</time>
      </trkpt>
      <trkpt lat="44.7571" lon="6.24348">
        <ele>2068</ele>
        <time>2017-08-29T07:55:46Z</time>
      </trkpt>
      <trkpt lat="44.7571" lon="6.24348">
        <ele>2068</ele>
        <time>2017-08-29T07:55:56Z</time>
      </trkpt>
      <trkpt lat="44.7571" lon="6.24348">
        <ele>2068</ele>
        <time>2017-08-29T07:56:05Z</time>
      </trkpt>
      <trkpt lat="44.7571" lon="6.24348">
        <ele>2068</ele>
        <time>2017-08-29T07:56:16Z</time>
      </trkpt>
      <trkpt lat="44.7571" lon="6.24348">
        <ele>2068</ele>
        <time>2017-08-29T07:56:26Z</time>
      </trkpt>
      <trkpt lat="44.7571" lon="6.24348">
        <ele>2068</ele>
        <time>2017-08-29T07:56:35Z</time>
      </trkpt>
      <trkpt lat="44.7571" lon="6.24348">
        <ele>2068</ele>
        <time>2017-08-29T07:56:46Z</time>
      </trkpt>
      <trkpt lat="44.7571" lon="6.24348">
        <ele>2068</ele>
        <time>2017-08-29T07:56:56Z</time>
      </trkpt>
      <trkpt lat="44.7571" lon="6.24348">
        <ele>2068</ele>
        <time>2017-08-29T07:57:05Z</time>
      </trkpt>
      <trkpt lat="44.7571" lon="6.24348">
        <ele>2068</ele>
        <time>2017-08-29T07:57:16Z</time>
      </trkpt>
      <trkpt lat="44.7571" lon="6.24348">
        <ele>2068</ele>
        <time>2017-08-29T07:57:26Z</time>
      </trkpt>
      <trkpt lat="44.7571" lon="6.24348">
        <ele>2068</ele>
        <time>2017-08-29T07:57:35Z</time>
      </trkpt>
      <trkpt lat="44.7571" lon="6.24348">
        <ele>2068</ele>
        <time>2017-08-29T07:57:46Z</time>
      </trkpt>
      <trkpt lat="44.7571" lon="6.24348">
        <ele>2068</ele>
        <time>2017-08-29T07:57:56Z</time>
      </trkpt>
      <trkpt lat="44.7571" lon="6.24348">
        <ele>2068</ele>
        <time>2017-08-29T07:58:05Z</time>
      </trkpt>
      <trkpt lat="44.7571" lon="6.24348">
        <ele>2068</ele>
        <time>2017-08-29T07:58:16Z</time>
      </trkpt>
      <trkpt lat="44.7571" lon="6.24348">
        <ele>2068</ele>
        <time>2017-08-29T07:58:26Z</time>
      </trkpt>
      <trkpt lat="44.7571" lon="6.24348">
        <ele>2068</ele>
        <time>2017-08-29T07:58:35Z</time>
      </trkpt>
      <trkpt lat="44.7571" lon="6.24348">
        <ele>2068</ele>
        <time>2017-08-29T07:58:46Z</time>
      </trkpt>
      <trkpt lat="44.7571" lon="6.24348">
        <ele>2068</ele>
        <time>2017-08-29T07:58:56Z</time>
      </trkpt>
      <trkpt lat="44.7571" lon="6.24348">
        <ele>2068</ele>
        <time>2017-08-29T07:59:05Z</time>
      </trkpt>
      <trkpt lat="44.7571" lon="6.24348">
        <ele>2068</ele>
        <time>2017-08-29T07:59:16Z</time>
      </trkpt>
      <trkpt lat="44.7571" lon="6.24348">
        <ele>2068</ele>
        <time>2017-08-29T07:59:26Z</time>
      </trkpt>
      <trkpt lat="44.7571" lon="6.24348">
        <ele>2068</ele>
        <time>2017-08-29T07:59:35Z</time>
      </trkpt>
      <trkpt lat="44.7571" lon="6.24348">
        <ele>2068</ele>
        <time>2017-08-29T07:59:46Z</time>
      </trkpt>
      <trkpt lat="44.75711" lon="6.24332">
        <ele>2023</ele>
        <time>2017-08-29T07:59:56Z</time>
      </trkpt>
      <trkpt lat="44.75711" lon="6.24332">
        <ele>2023</ele>
        <time>2017-08-29T08:00:05Z</time>
      </trkpt>
      <trkpt lat="44.75713" lon="6.24304">
        <ele>1989</ele>
        <time>2017-08-29T08:00:16Z</time>
      </trkpt>
      <trkpt lat="44.75711" lon="6.24304">
        <ele>1989</ele>
        <time>2017-08-29T08:00:26Z</time>
      </trkpt>
      <trkpt lat="44.75711" lon="6.24304">
        <ele>1989</ele>
        <time>2017-08-29T08:00:35Z</time>
      </trkpt>
      <trkpt lat="44.75711" lon="6.24304">
        <ele>1989</ele>
        <time>2017-08-29T08:00:46Z</time>
      </trkpt>
      <trkpt lat="44.75711" lon="6.24304">
        <ele>1989</ele>
        <time>2017-08-29T08:00:56Z</time>
      </trkpt>
      <trkpt lat="44.75711" lon="6.24304">
        <ele>1989</ele>
        <time>2017-08-29T08:01:05Z</time>
      </trkpt>
      <trkpt lat="44.75711" lon="6.24304">
        <ele>1989</ele>
        <time>2017-08-29T08:01:16Z</time>
      </trkpt>
      <trkpt lat="44.75706" lon="6.24307">
        <ele>2032</ele>
        <time>2017-08-29T08:01:26Z</time>
      </trkpt>
      <trkpt lat="44.75706" lon="6.24309">
        <ele>2039</ele>
        <time>2017-08-29T08:01:35Z</time>
      </trkpt>
      <trkpt lat="44.75707" lon="6.24332">
        <ele>2086</ele>
        <time>2017-08-29T08:01:46Z</time>
      </trkpt>
      <trkpt lat="44.75707" lon="6.24332">
        <ele>2086</ele>
        <time>2017-08-29T08:01:56Z</time>
      </trkpt>
      <trkpt lat="44.75707" lon="6.24332">
        <ele>2086</ele>
        <time>2017-08-29T08:02:05Z</time>
      </trkpt>
      <trkpt lat="44.75707" lon="6.24332">
        <ele>2086</ele>
        <time>2017-08-29T08:02:16Z</time>
      </trkpt>
      <trkpt lat="44.75707" lon="6.24332">
        <ele>2086</ele>
        <time>2017-08-29T08:02:26Z</time>
      </trkpt>
      <trkpt lat="44.75707" lon="6.24332">
        <ele>2086</ele>
        <time>2017-08-29T08:02:35Z</time>
      </trkpt>
      <trkpt lat="44.75707" lon="6.24332">
        <ele>2086</ele>
        <time>2017-08-29T08:02:46Z</time>
      </trkpt>
      <trkpt lat="44.75707" lon="6.24332">
        <ele>2086</ele>
        <time>2017-08-29T08:02:56Z</time>
      </trkpt>
      <trkpt lat="44.75707" lon="6.24332">
        <ele>2086</ele>
        <time>2017-08-29T08:03:05Z</time>
      </trkpt>
      <trkpt lat="44.75707" lon="6.24332">
        <ele>2086</ele>
        <time>2017-08-29T08:03:16Z</time>
      </trkpt>
      <trkpt lat="44.75707" lon="6.24332">
        <ele>2086</ele>
        <time>2017-08-29T08:03:26Z</time>
      </trkpt>
      <trkpt lat="44.75707" lon="6.24332">
        <ele>2086</ele>
        <time>2017-08-29T08:03:35Z</time>
      </trkpt>
      <trkpt lat="44.75707" lon="6.24332">
        <ele>2086</ele>
        <time>2017-08-29T08:03:46Z</time>
      </trkpt>
      <trkpt lat="44.75707" lon="6.24332">
        <ele>2086</ele>
        <time>2017-08-29T08:03:56Z</time>
      </trkpt>
      <trkpt lat="44.75707" lon="6.24332">
        <ele>2086</ele>
        <time>2017-08-29T08:04:05Z</time>
      </trkpt>
      <trkpt lat="44.75707" lon="6.24332">
        <ele>2086</ele>
        <time>2017-08-29T08:04:16Z</time>
      </trkpt>
      <trkpt lat="44.75739" lon="6.24344">
        <ele>2104</ele>
        <time>2017-08-29T08:04:26Z</time>
      </trkpt>
      <trkpt lat="44.75739" lon="6.24344">
        <ele>2104</ele>
        <time>2017-08-29T08:04:35Z</time>
      </trkpt>
      <trkpt lat="44.75739" lon="6.24344">
        <ele>2104</ele>
        <time>2017-08-29T08:04:46Z</time>
      </trkpt>
      <trkpt lat="44.75739" lon="6.24344">
        <ele>2104</ele>
        <time>2017-08-29T08:04:56Z</time>
      </trkpt>
      <trkpt lat="44.75739" lon="6.24344">
        <ele>2104</ele>
        <time>2017-08-29T08:05:05Z</time>
      </trkpt>
      <trkpt lat="44.75739" lon="6.24344">
        <ele>2104</ele>
        <time>2017-08-29T08:05:16Z</time>
      </trkpt>
      <trkpt lat="44.75739" lon="6.24344">
        <ele>2104</ele>
        <time>2017-08-29T08:05:26Z</time>
      </trkpt>
      <trkpt lat="44.75739" lon="6.24344">
        <ele>2104</ele>
        <time>2017-08-29T08:05:35Z</time>
      </trkpt>
      <trkpt lat="44.75739" lon="6.24344">
        <ele>2104</ele>
        <time>2017-08-29T08:05:46Z</time>
      </trkpt>
      <trkpt lat="44.75739" lon="6.24344">
        <ele>2104</ele>
        <time>2017-08-29T08:05:56Z</time>
      </trkpt>
      <trkpt lat="44.75739" lon="6.24344">
        <ele>2104</ele>
        <time>2017-08-29T08:06:05Z</time>
      </trkpt>
      <trkpt lat="44.75775" lon="6.2436">
        <ele>2110</ele>
        <time>2017-08-29T08:06:16Z</time>
      </trkpt>
      <trkpt lat="44.75775" lon="6.2436">
        <ele>2110</ele>
        <time>2017-08-29T08:06:26Z</time>
      </trkpt>
      <trkpt lat="44.75775" lon="6.2436">
        <ele>2110</ele>
        <time>2017-08-29T08:06:35Z</time>
      </trkpt>
      <trkpt lat="44.75775" lon="6.2436">
        <ele>2110</ele>
        <time>2017-08-29T08:06:46Z</time>
      </trkpt>
      <trkpt lat="44.75775" lon="6.2436">
        <ele>2110</ele>
        <time>2017-08-29T08:06:56Z</time>
      </trkpt>
      <trkpt lat="44.75775" lon="6.2436">
        <ele>2110</ele>
        <time>2017-08-29T08:07:05Z</time>
      </trkpt>
      <trkpt lat="44.75775" lon="6.2436">
        <ele>2110</ele>
        <time>2017-08-29T08:07:16Z</time>
      </trkpt>
      <trkpt lat="44.75775" lon="6.2436">
        <ele>2110</ele>
        <time>2017-08-29T08:07:26Z</time>
      </trkpt>
      <trkpt lat="44.75801" lon="6.24399">
        <ele>2111</ele>
        <time>2017-08-29T08:07:35Z</time>
      </trkpt>
      <trkpt lat="44.75801" lon="6.24399">
        <ele>2111</ele>
        <time>2017-08-29T08:07:46Z</time>
      </trkpt>
      <trkpt lat="44.75801" lon="6.24399">
        <ele>2111</ele>
        <time>2017-08-29T08:07:56Z</time>
      </trkpt>
      <trkpt lat="44.75801" lon="6.24399">
        <ele>2111</ele>
        <time>2017-08-29T08:08:05Z</time>
      </trkpt>
      <trkpt lat="44.75801" lon="6.24399">
        <ele>2111</ele>
        <time>2017-08-29T08:08:16Z</time>
      </trkpt>
      <trkpt lat="44.75801" lon="6.24399">
        <ele>2111</ele>
        <time>2017-08-29T08:08:26Z</time>
      </trkpt>
      <trkpt lat="44.75801" lon="6.24399">
        <ele>2111</ele>
        <time>2017-08-29T08:08:35Z</time>
      </trkpt>
      <trkpt lat="44.75801" lon="6.24399">
        <ele>2111</ele>
        <time>2017-08-29T08:08:46Z</time>
      </trkpt>
      <trkpt lat="44.75801" lon="6.24399">
        <ele>2111</ele>
        <time>2017-08-29T08:08:56Z</time>
      </trkpt>
      <trkpt lat="44.75801" lon="6.24399">
        <ele>2111</ele>
        <time>2017-08-29T08:09:05Z</time>
      </trkpt>
      <trkpt lat="44.75801" lon="6.24399">
        <ele>2111</ele>
        <time>2017-08-29T08:09:16Z</time>
      </trkpt>
      <trkpt lat="44.75801" lon="6.24399">
        <ele>2111</ele>
        <time>2017-08-29T08:09:26Z</time>
      </trkpt>
      <trkpt lat="44.75801" lon="6.24399">
        <ele>2111</ele>
        <time>2017-08-29T08:09:35Z</time>
      </trkpt>
      <trkpt lat="44.75801" lon="6.24399">
        <ele>2111</ele>
        <time>2017-08-29T08:09:46Z</time>
      </trkpt>
      <trkpt lat="44.75833" lon="6.2437">
        <ele>2115</ele>
        <time>2017-08-29T08:09:56Z</time>
      </trkpt>
      <trkpt lat="44.75833" lon="6.2437">
        <ele>2115</ele>
        <time>2017-08-29T08:10:05Z</time>
      </trkpt>
      <trkpt lat="44.75833" lon="6.2437">
        <ele>2115</ele>
        <time>2017-08-29T08:10:16Z</time>
      </trkpt>
      <trkpt lat="44.75833" lon="6.2437">
        <ele>2115</ele>
        <time>2017-08-29T08:10:26Z</time>
      </trkpt>
      <trkpt lat="44.75833" lon="6.2437">
        <ele>2115</ele>
        <time>2017-08-29T08:10:35Z</time>
      </trkpt>
      <trkpt lat="44.75833" lon="6.2437">
        <ele>2115</ele>
        <time>2017-08-29T08:10:46Z</time>
      </trkpt>
      <trkpt lat="44.75833" lon="6.2437">
        <ele>2115</ele>
        <time>2017-08-29T08:10:56Z</time>
      </trkpt>
      <trkpt lat="44.75833" lon="6.2437">
        <ele>2115</ele>
        <time>2017-08-29T08:11:05Z</time>
      </trkpt>
      <trkpt lat="44.75833" lon="6.2437">
        <ele>2115</ele>
        <time>2017-08-29T08:11:16Z</time>
      </trkpt>
      <trkpt lat="44.75833" lon="6.2437">
        <ele>2115</ele>
        <time>2017-08-29T08:11:26Z</time>
      </trkpt>
      <trkpt lat="44.75833" lon="6.2437">
        <ele>2115</ele>
        <time>2017-08-29T08:11:35Z</time>
      </trkpt>
      <trkpt lat="44.75833" lon="6.2437">
        <ele>2115</ele>
        <time>2017-08-29T08:11:46Z</time>
      </trkpt>
      <trkpt lat="44.75833" lon="6.2437">
        <ele>2115</ele>
        <time>2017-08-29T08:11:56Z</time>
      </trkpt>
      <trkpt lat="44.75833" lon="6.2437">
        <ele>2115</ele>
        <time>2017-08-29T08:12:05Z</time>
      </trkpt>
      <trkpt lat="44.75833" lon="6.2437">
        <ele>2115</ele>
        <time>2017-08-29T08:12:16Z</time>
      </trkpt>
      <trkpt lat="44.75865" lon="6.24373">
        <ele>2134</ele>
        <time>2017-08-29T08:12:26Z</time>
      </trkpt>
      <trkpt lat="44.75866" lon="6.24375">
        <ele>2134</ele>
        <time>2017-08-29T08:12:35Z</time>
      </trkpt>
      <trkpt lat="44.75866" lon="6.24375">
        <ele>2134</ele>
        <time>2017-08-29T08:12:46Z</time>
      </trkpt>
      <trkpt lat="44.75866" lon="6.24375">
        <ele>2134</ele>
        <time>2017-08-29T08:12:56Z</time>
      </trkpt>
      <trkpt lat="44.75866" lon="6.24375">
        <ele>2134</ele>
        <time>2017-08-29T08:13:05Z</time>
      </trkpt>
      <trkpt lat="44.75866" lon="6.24375">
        <ele>2134</ele>
        <time>2017-08-29T08:13:16Z</time>
      </trkpt>
      <trkpt lat="44.75866" lon="6.24375">
        <ele>2134</ele>
        <time>2017-08-29T08:13:26Z</time>
      </trkpt>
      <trkpt lat="44.75866" lon="6.24375">
        <ele>2134</ele>
        <time>2017-08-29T08:13:35Z</time>
      </trkpt>
      <trkpt lat="44.75866" lon="6.24375">
        <ele>2134</ele>
        <time>2017-08-29T08:13:46Z</time>
      </trkpt>
      <trkpt lat="44.75866" lon="6.24375">
        <ele>2134</ele>
        <time>2017-08-29T08:13:56Z</time>
      </trkpt>
      <trkpt lat="44.75866" lon="6.24375">
        <ele>2134</ele>
        <time>2017-08-29T08:14:05Z</time>
      </trkpt>
      <trkpt lat="44.75866" lon="6.24375">
        <ele>2134</ele>
        <time>2017-08-29T08:14:16Z</time>
      </trkpt>
      <trkpt lat="44.75875" lon="6.24327">
        <ele>2145</ele>
        <time>2017-08-29T08:14:26Z</time>
      </trkpt>
      <trkpt lat="44.75876" lon="6.24327">
        <ele>2145</ele>
        <time>2017-08-29T08:14:35Z</time>
      </trkpt>
      <trkpt lat="44.75876" lon="6.24327">
        <ele>2145</ele>
        <time>2017-08-29T08:14:46Z</time>
      </trkpt>
      <trkpt lat="44.75876" lon="6.24327">
        <ele>2145</ele>
        <time>2017-08-29T08:14:56Z</time>
      </trkpt>
      <trkpt lat="44.75876" lon="6.24327">
        <ele>2145</ele>
        <time>2017-08-29T08:15:05Z</time>
      </trkpt>
      <trkpt lat="44.75876" lon="6.24327">
        <ele>2145</ele>
        <time>2017-08-29T08:15:16Z</time>
      </trkpt>
      <trkpt lat="44.75876" lon="6.24327">
        <ele>2145</ele>
        <time>2017-08-29T08:15:26Z</time>
      </trkpt>
      <trkpt lat="44.75876" lon="6.24327">
        <ele>2145</ele>
        <time>2017-08-29T08:15:35Z</time>
      </trkpt>
      <trkpt lat="44.75876" lon="6.24327">
        <ele>2145</ele>
        <time>2017-08-29T08:15:46Z</time>
      </trkpt>
      <trkpt lat="44.75876" lon="6.24327">
        <ele>2145</ele>
        <time>2017-08-29T08:15:56Z</time>
      </trkpt>
      <trkpt lat="44.75876" lon="6.24327">
        <ele>2145</ele>
        <time>2017-08-29T08:16:05Z</time>
      </trkpt>
      <trkpt lat="44.75876" lon="6.24327">
        <ele>2145</ele>
        <time>2017-08-29T08:16:16Z</time>
      </trkpt>
      <trkpt lat="44.75876" lon="6.24327">
        <ele>2145</ele>
        <time>2017-08-29T08:16:26Z</time>
      </trkpt>
      <trkpt lat="44.75876" lon="6.24327">
        <ele>2145</ele>
        <time>2017-08-29T08:16:35Z</time>
      </trkpt>
      <trkpt lat="44.75902" lon="6.24359">
        <ele>2161</ele>
        <time>2017-08-29T08:16:46Z</time>
      </trkpt>
      <trkpt lat="44.75902" lon="6.24359">
        <ele>2161</ele>
        <time>2017-08-29T08:16:56Z</time>
      </trkpt>
      <trkpt lat="44.75902" lon="6.24359">
        <ele>2161</ele>
        <time>2017-08-29T08:17:05Z</time>
      </trkpt>
      <trkpt lat="44.75902" lon="6.24359">
        <ele>2161</ele>
        <time>2017-08-29T08:17:16Z</time>
      </trkpt>
      <trkpt lat="44.75902" lon="6.24359">
        <ele>2161</ele>
        <time>2017-08-29T08:17:26Z</time>
      </trkpt>
      <trkpt lat="44.75902" lon="6.24359">
        <ele>2161</ele>
        <time>2017-08-29T08:17:35Z</time>
      </trkpt>
      <trkpt lat="44.75902" lon="6.24359">
        <ele>2161</ele>
        <time>2017-08-29T08:17:46Z</time>
      </trkpt>
      <trkpt lat="44.75923" lon="6.24402">
        <ele>2171</ele>
        <time>2017-08-29T08:17:56Z</time>
      </trkpt>
      <trkpt lat="44.75923" lon="6.24402">
        <ele>2171</ele>
        <time>2017-08-29T08:18:05Z</time>
      </trkpt>
      <trkpt lat="44.75923" lon="6.24402">
        <ele>2171</ele>
        <time>2017-08-29T08:18:16Z</time>
      </trkpt>
      <trkpt lat="44.75923" lon="6.24402">
        <ele>2171</ele>
        <time>2017-08-29T08:18:26Z</time>
      </trkpt>
      <trkpt lat="44.75923" lon="6.24402">
        <ele>2171</ele>
        <time>2017-08-29T08:18:35Z</time>
      </trkpt>
      <trkpt lat="44.75923" lon="6.24402">
        <ele>2171</ele>
        <time>2017-08-29T08:18:46Z</time>
      </trkpt>
      <trkpt lat="44.75923" lon="6.24402">
        <ele>2171</ele>
        <time>2017-08-29T08:18:56Z</time>
      </trkpt>
      <trkpt lat="44.75923" lon="6.24402">
        <ele>2171</ele>
        <time>2017-08-29T08:19:05Z</time>
      </trkpt>
      <trkpt lat="44.75923" lon="6.24402">
        <ele>2171</ele>
        <time>2017-08-29T08:19:16Z</time>
      </trkpt>
      <trkpt lat="44.75923" lon="6.24402">
        <ele>2171</ele>
        <time>2017-08-29T08:19:26Z</time>
      </trkpt>
      <trkpt lat="44.75923" lon="6.24402">
        <ele>2171</ele>
        <time>2017-08-29T08:19:35Z</time>
      </trkpt>
      <trkpt lat="44.75952" lon="6.24433">
        <ele>2183</ele>
        <time>2017-08-29T08:19:46Z</time>
      </trkpt>
      <trkpt lat="44.75952" lon="6.24433">
        <ele>2183</ele>
        <time>2017-08-29T08:19:56Z</time>
      </trkpt>
      <trkpt lat="44.75952" lon="6.24433">
        <ele>2183</ele>
        <time>2017-08-29T08:20:05Z</time>
      </trkpt>
      <trkpt lat="44.75952" lon="6.24433">
        <ele>2183</ele>
        <time>2017-08-29T08:20:16Z</time>
      </trkpt>
      <trkpt lat="44.75952" lon="6.24433">
        <ele>2183</ele>
        <time>2017-08-29T08:20:26Z</time>
      </trkpt>
      <trkpt lat="44.75952" lon="6.24433">
        <ele>2183</ele>
        <time>2017-08-29T08:20:35Z</time>
      </trkpt>
      <trkpt lat="44.75952" lon="6.24433">
        <ele>2183</ele>
        <time>2017-08-29T08:20:46Z</time>
      </trkpt>
      <trkpt lat="44.75952" lon="6.24433">
        <ele>2183</ele>
        <time>2017-08-29T08:20:56Z</time>
      </trkpt>
      <trkpt lat="44.75952" lon="6.24433">
        <ele>2183</ele>
        <time>2017-08-29T08:21:05Z</time>
      </trkpt>
      <trkpt lat="44.75952" lon="6.24433">
        <ele>2183</ele>
        <time>2017-08-29T08:21:16Z</time>
      </trkpt>
      <trkpt lat="44.75952" lon="6.24433">
        <ele>2183</ele>
        <time>2017-08-29T08:21:26Z</time>
      </trkpt>
      <trkpt lat="44.75952" lon="6.24433">
        <ele>2183</ele>
        <time>2017-08-29T08:21:35Z</time>
      </trkpt>
      <trkpt lat="44.75952" lon="6.24433">
        <ele>2183</ele>
        <time>2017-08-29T08:21:46Z</time>
      </trkpt>
      <trkpt lat="44.7599" lon="6.24442">
        <ele>2187</ele>
        <time>2017-08-29T08:21:56Z</time>
      </trkpt>
      <trkpt lat="44.7599" lon="6.24442">
        <ele>2187</ele>
        <time>2017-08-29T08:22:05Z</time>
      </trkpt>
      <trkpt lat="44.7599" lon="6.24442">
        <ele>2187</ele>
        <time>2017-08-29T08:22:16Z</time>
      </trkpt>
      <trkpt lat="44.7599" lon="6.24442">
        <ele>2187</ele>
        <time>2017-08-29T08:22:26Z</time>
      </trkpt>
      <trkpt lat="44.7599" lon="6.24442">
        <ele>2187</ele>
        <time>2017-08-29T08:22:35Z</time>
      </trkpt>
      <trkpt lat="44.7599" lon="6.24442">
        <ele>2187</ele>
        <time>2017-08-29T08:22:46Z</time>
      </trkpt>
      <trkpt lat="44.7602" lon="6.24464">
        <ele>2199</ele>
        <time>2017-08-29T08:22:56Z</time>
      </trkpt>
      <trkpt lat="44.76022" lon="6.24464">
        <ele>2199</ele>
        <time>2017-08-29T08:23:05Z</time>
      </trkpt>
      <trkpt lat="44.76022" lon="6.24464">
        <ele>2199</ele>
        <time>2017-08-29T08:23:16Z</time>
      </trkpt>
      <trkpt lat="44.76022" lon="6.24464">
        <ele>2199</ele>
        <time>2017-08-29T08:23:26Z</time>
      </trkpt>
      <trkpt lat="44.76022" lon="6.24464">
        <ele>2199</ele>
        <time>2017-08-29T08:23:35Z</time>
      </trkpt>
      <trkpt lat="44.76022" lon="6.24464">
        <ele>2199</ele>
        <time>2017-08-29T08:23:46Z</time>
      </trkpt>
      <trkpt lat="44.76022" lon="6.24464">
        <ele>2199</ele>
        <time>2017-08-29T08:23:56Z</time>
      </trkpt>
      <trkpt lat="44.76022" lon="6.24464">
        <ele>2199</ele>
        <time>2017-08-29T08:24:05Z</time>
      </trkpt>
      <trkpt lat="44.76022" lon="6.24464">
        <ele>2199</ele>
        <time>2017-08-29T08:24:16Z</time>
      </trkpt>
      <trkpt lat="44.76022" lon="6.24464">
        <ele>2199</ele>
        <time>2017-08-29T08:24:26Z</time>
      </trkpt>
      <trkpt lat="44.76022" lon="6.24464">
        <ele>2199</ele>
        <time>2017-08-29T08:24:35Z</time>
      </trkpt>
      <trkpt lat="44.76022" lon="6.24464">
        <ele>2199</ele>
        <time>2017-08-29T08:24:46Z</time>
      </trkpt>
      <trkpt lat="44.76022" lon="6.24464">
        <ele>2199</ele>
        <time>2017-08-29T08:24:56Z</time>
      </trkpt>
      <trkpt lat="44.76055" lon="6.2447">
        <ele>2218</ele>
        <time>2017-08-29T08:25:05Z</time>
      </trkpt>
      <trkpt lat="44.76055" lon="6.2447">
        <ele>2218</ele>
        <time>2017-08-29T08:25:16Z</time>
      </trkpt>
      <trkpt lat="44.76055" lon="6.2447">
        <ele>2218</ele>
        <time>2017-08-29T08:25:26Z</time>
      </trkpt>
      <trkpt lat="44.76055" lon="6.2447">
        <ele>2218</ele>
        <time>2017-08-29T08:25:35Z</time>
      </trkpt>
      <trkpt lat="44.76055" lon="6.2447">
        <ele>2218</ele>
        <time>2017-08-29T08:25:46Z</time>
      </trkpt>
      <trkpt lat="44.76055" lon="6.2447">
        <ele>2218</ele>
        <time>2017-08-29T08:25:56Z</time>
      </trkpt>
      <trkpt lat="44.76055" lon="6.2447">
        <ele>2218</ele>
        <time>2017-08-29T08:26:05Z</time>
      </trkpt>
      <trkpt lat="44.76083" lon="6.24507">
        <ele>2224</ele>
        <time>2017-08-29T08:26:16Z</time>
      </trkpt>
      <trkpt lat="44.76083" lon="6.24507">
        <ele>2224</ele>
        <time>2017-08-29T08:26:26Z</time>
      </trkpt>
      <trkpt lat="44.76083" lon="6.24507">
        <ele>2224</ele>
        <time>2017-08-29T08:26:35Z</time>
      </trkpt>
      <trkpt lat="44.76083" lon="6.24507">
        <ele>2224</ele>
        <time>2017-08-29T08:26:46Z</time>
      </trkpt>
      <trkpt lat="44.76083" lon="6.24507">
        <ele>2224</ele>
        <time>2017-08-29T08:26:56Z</time>
      </trkpt>
      <trkpt lat="44.76115" lon="6.24528">
        <ele>2230</ele>
        <time>2017-08-29T08:27:05Z</time>
      </trkpt>
      <trkpt lat="44.76117" lon="6.24528">
        <ele>2230</ele>
        <time>2017-08-29T08:27:16Z</time>
      </trkpt>
      <trkpt lat="44.76117" lon="6.24528">
        <ele>2230</ele>
        <time>2017-08-29T08:27:26Z</time>
      </trkpt>
      <trkpt lat="44.76117" lon="6.24528">
        <ele>2230</ele>
        <time>2017-08-29T08:27:35Z</time>
      </trkpt>
      <trkpt lat="44.76117" lon="6.24528">
        <ele>2230</ele>
        <time>2017-08-29T08:27:46Z</time>
      </trkpt>
      <trkpt lat="44.76117" lon="6.24528">
        <ele>2230</ele>
        <time>2017-08-29T08:27:56Z</time>
      </trkpt>
      <trkpt lat="44.76117" lon="6.24528">
        <ele>2230</ele>
        <time>2017-08-29T08:28:05Z</time>
      </trkpt>
      <trkpt lat="44.76153" lon="6.24544">
        <ele>2237</ele>
        <time>2017-08-29T08:28:16Z</time>
      </trkpt>
      <trkpt lat="44.76153" lon="6.24544">
        <ele>2237</ele>
        <time>2017-08-29T08:28:26Z</time>
      </trkpt>
      <trkpt lat="44.76153" lon="6.24544">
        <ele>2237</ele>
        <time>2017-08-29T08:28:35Z</time>
      </trkpt>
      <trkpt lat="44.76153" lon="6.24544">
        <ele>2237</ele>
        <time>2017-08-29T08:28:46Z</time>
      </trkpt>
      <trkpt lat="44.76153" lon="6.24544">
        <ele>2237</ele>
        <time>2017-08-29T08:28:56Z</time>
      </trkpt>
      <trkpt lat="44.76153" lon="6.24544">
        <ele>2237</ele>
        <time>2017-08-29T08:29:05Z</time>
      </trkpt>
      <trkpt lat="44.76188" lon="6.24561">
        <ele>2244</ele>
        <time>2017-08-29T08:29:16Z</time>
      </trkpt>
      <trkpt lat="44.76188" lon="6.24561">
        <ele>2244</ele>
        <time>2017-08-29T08:29:26Z</time>
      </trkpt>
      <trkpt lat="44.76188" lon="6.24561">
        <ele>2244</ele>
        <time>2017-08-29T08:29:35Z</time>
      </trkpt>
      <trkpt lat="44.76188" lon="6.24561">
        <ele>2244</ele>
        <time>2017-08-29T08:29:46Z</time>
      </trkpt>
      <trkpt lat="44.76188" lon="6.24561">
        <ele>2244</ele>
        <time>2017-08-29T08:29:56Z</time>
      </trkpt>
      <trkpt lat="44.76188" lon="6.24561">
        <ele>2244</ele>
        <time>2017-08-29T08:30:05Z</time>
      </trkpt>
      <trkpt lat="44.76221" lon="6.24585">
        <ele>2251</ele>
        <time>2017-08-29T08:30:16Z</time>
      </trkpt>
      <trkpt lat="44.76221" lon="6.24585">
        <ele>2251</ele>
        <time>2017-08-29T08:30:26Z</time>
      </trkpt>
      <trkpt lat="44.76221" lon="6.24585">
        <ele>2251</ele>
        <time>2017-08-29T08:30:35Z</time>
      </trkpt>
      <trkpt lat="44.76221" lon="6.24585">
        <ele>2251</ele>
        <time>2017-08-29T08:30:46Z</time>
      </trkpt>
      <trkpt lat="44.76221" lon="6.24585">
        <ele>2251</ele>
        <time>2017-08-29T08:30:56Z</time>
      </trkpt>
      <trkpt lat="44.76221" lon="6.24585">
        <ele>2251</ele>
        <time>2017-08-29T08:31:05Z</time>
      </trkpt>
      <trkpt lat="44.76221" lon="6.24585">
        <ele>2251</ele>
        <time>2017-08-29T08:31:16Z</time>
      </trkpt>
      <trkpt lat="44.76221" lon="6.24585">
        <ele>2251</ele>
        <time>2017-08-29T08:31:26Z</time>
      </trkpt>
      <trkpt lat="44.76248" lon="6.2462">
        <ele>2263</ele>
        <time>2017-08-29T08:31:35Z</time>
      </trkpt>
      <trkpt lat="44.76248" lon="6.2462">
        <ele>2263</ele>
        <time>2017-08-29T08:31:46Z</time>
      </trkpt>
      <trkpt lat="44.76248" lon="6.2462">
        <ele>2263</ele>
        <time>2017-08-29T08:31:56Z</time>
      </trkpt>
      <trkpt lat="44.76248" lon="6.2462">
        <ele>2263</ele>
        <time>2017-08-29T08:32:05Z</time>
      </trkpt>
      <trkpt lat="44.76248" lon="6.2462">
        <ele>2263</ele>
        <time>2017-08-29T08:32:16Z</time>
      </trkpt>
      <trkpt lat="44.76248" lon="6.2462">
        <ele>2263</ele>
        <time>2017-08-29T08:32:26Z</time>
      </trkpt>
      <trkpt lat="44.76248" lon="6.2462">
        <ele>2263</ele>
        <time>2017-08-29T08:32:35Z</time>
      </trkpt>
      <trkpt lat="44.76248" lon="6.2462">
        <ele>2263</ele>
        <time>2017-08-29T08:32:46Z</time>
      </trkpt>
      <trkpt lat="44.76248" lon="6.2462">
        <ele>2263</ele>
        <time>2017-08-29T08:32:56Z</time>
      </trkpt>
      <trkpt lat="44.76248" lon="6.2462">
        <ele>2263</ele>
        <time>2017-08-29T08:33:05Z</time>
      </trkpt>
      <trkpt lat="44.76248" lon="6.2462">
        <ele>2263</ele>
        <time>2017-08-29T08:33:16Z</time>
      </trkpt>
      <trkpt lat="44.76248" lon="6.2462">
        <ele>2263</ele>
        <time>2017-08-29T08:33:26Z</time>
      </trkpt>
      <trkpt lat="44.76248" lon="6.2462">
        <ele>2263</ele>
        <time>2017-08-29T08:33:35Z</time>
      </trkpt>
      <trkpt lat="44.76248" lon="6.2462">
        <ele>2263</ele>
        <time>2017-08-29T08:33:46Z</time>
      </trkpt>
      <trkpt lat="44.76248" lon="6.2462">
        <ele>2263</ele>
        <time>2017-08-29T08:33:56Z</time>
      </trkpt>
      <trkpt lat="44.76248" lon="6.2462">
        <ele>2263</ele>
        <time>2017-08-29T08:34:05Z</time>
      </trkpt>
      <trkpt lat="44.76248" lon="6.2462">
        <ele>2263</ele>
        <time>2017-08-29T08:34:16Z</time>
      </trkpt>
      <trkpt lat="44.76248" lon="6.2462">
        <ele>2263</ele>
        <time>2017-08-29T08:34:26Z</time>
      </trkpt>
      <trkpt lat="44.76248" lon="6.2462">
        <ele>2263</ele>
        <time>2017-08-29T08:34:35Z</time>
      </trkpt>
      <trkpt lat="44.76281" lon="6.24647">
        <ele>2265</ele>
        <time>2017-08-29T08:34:46Z</time>
      </trkpt>
      <trkpt lat="44.76281" lon="6.24647">
        <ele>2265</ele>
        <time>2017-08-29T08:34:56Z</time>
      </trkpt>
      <trkpt lat="44.76281" lon="6.24647">
        <ele>2265</ele>
        <time>2017-08-29T08:35:05Z</time>
      </trkpt>
      <trkpt lat="44.76281" lon="6.24647">
        <ele>2265</ele>
        <time>2017-08-29T08:35:16Z</time>
      </trkpt>
      <trkpt lat="44.76281" lon="6.24647">
        <ele>2265</ele>
        <time>2017-08-29T08:35:26Z</time>
      </trkpt>
      <trkpt lat="44.76281" lon="6.24647">
        <ele>2265</ele>
        <time>2017-08-29T08:35:35Z</time>
      </trkpt>
      <trkpt lat="44.76314" lon="6.24671">
        <ele>2274</ele>
        <time>2017-08-29T08:35:46Z</time>
      </trkpt>
      <trkpt lat="44.76314" lon="6.24671">
        <ele>2274</ele>
        <time>2017-08-29T08:35:56Z</time>
      </trkpt>
      <trkpt lat="44.76314" lon="6.24671">
        <ele>2274</ele>
        <time>2017-08-29T08:36:05Z</time>
      </trkpt>
      <trkpt lat="44.76314" lon="6.24671">
        <ele>2274</ele>
        <time>2017-08-29T08:36:16Z</time>
      </trkpt>
      <trkpt lat="44.76314" lon="6.24671">
        <ele>2274</ele>
        <time>2017-08-29T08:36:26Z</time>
      </trkpt>
      <trkpt lat="44.76314" lon="6.24671">
        <ele>2274</ele>
        <time>2017-08-29T08:36:35Z</time>
      </trkpt>
      <trkpt lat="44.76314" lon="6.24671">
        <ele>2274</ele>
        <time>2017-08-29T08:36:46Z</time>
      </trkpt>
      <trkpt lat="44.76347" lon="6.24692">
        <ele>2284</ele>
        <time>2017-08-29T08:36:56Z</time>
      </trkpt>
      <trkpt lat="44.76347" lon="6.24692">
        <ele>2284</ele>
        <time>2017-08-29T08:37:05Z</time>
      </trkpt>
      <trkpt lat="44.76347" lon="6.24692">
        <ele>2284</ele>
        <time>2017-08-29T08:37:16Z</time>
      </trkpt>
      <trkpt lat="44.76347" lon="6.24692">
        <ele>2284</ele>
        <time>2017-08-29T08:37:26Z</time>
      </trkpt>
      <trkpt lat="44.76347" lon="6.24692">
        <ele>2284</ele>
        <time>2017-08-29T08:37:35Z</time>
      </trkpt>
      <trkpt lat="44.76347" lon="6.24692">
        <ele>2284</ele>
        <time>2017-08-29T08:37:46Z</time>
      </trkpt>
      <trkpt lat="44.76347" lon="6.24692">
        <ele>2284</ele>
        <time>2017-08-29T08:37:56Z</time>
      </trkpt>
      <trkpt lat="44.76347" lon="6.24692">
        <ele>2284</ele>
        <time>2017-08-29T08:38:05Z</time>
      </trkpt>
      <trkpt lat="44.76347" lon="6.24692">
        <ele>2284</ele>
        <time>2017-08-29T08:38:16Z</time>
      </trkpt>
      <trkpt lat="44.76347" lon="6.24692">
        <ele>2284</ele>
        <time>2017-08-29T08:38:26Z</time>
      </trkpt>
      <trkpt lat="44.76347" lon="6.24692">
        <ele>2284</ele>
        <time>2017-08-29T08:38:35Z</time>
      </trkpt>
      <trkpt lat="44.76347" lon="6.24692">
        <ele>2284</ele>
        <time>2017-08-29T08:38:46Z</time>
      </trkpt>
      <trkpt lat="44.76347" lon="6.24692">
        <ele>2284</ele>
        <time>2017-08-29T08:38:56Z</time>
      </trkpt>
      <trkpt lat="44.76347" lon="6.24692">
        <ele>2284</ele>
        <time>2017-08-29T08:39:05Z</time>
      </trkpt>
      <trkpt lat="44.76347" lon="6.24692">
        <ele>2284</ele>
        <time>2017-08-29T08:39:16Z</time>
      </trkpt>
      <trkpt lat="44.76347" lon="6.24692">
        <ele>2284</ele>
        <time>2017-08-29T08:39:26Z</time>
      </trkpt>
      <trkpt lat="44.76367" lon="6.24734">
        <ele>2288</ele>
        <time>2017-08-29T08:39:35Z</time>
      </trkpt>
      <trkpt lat="44.76368" lon="6.24735">
        <ele>2288</ele>
        <time>2017-08-29T08:39:46Z</time>
      </trkpt>
      <trkpt lat="44.76368" lon="6.24735">
        <ele>2288</ele>
        <time>2017-08-29T08:39:56Z</time>
      </trkpt>
      <trkpt lat="44.76368" lon="6.24735">
        <ele>2288</ele>
        <time>2017-08-29T08:40:05Z</time>
      </trkpt>
      <trkpt lat="44.76368" lon="6.24735">
        <ele>2288</ele>
        <time>2017-08-29T08:40:16Z</time>
      </trkpt>
      <trkpt lat="44.76368" lon="6.24735">
        <ele>2288</ele>
        <time>2017-08-29T08:40:26Z</time>
      </trkpt>
      <trkpt lat="44.76368" lon="6.24735">
        <ele>2288</ele>
        <time>2017-08-29T08:40:35Z</time>
      </trkpt>
      <trkpt lat="44.76368" lon="6.24735">
        <ele>2288</ele>
        <time>2017-08-29T08:40:46Z</time>
      </trkpt>
      <trkpt lat="44.76368" lon="6.24735">
        <ele>2288</ele>
        <time>2017-08-29T08:40:56Z</time>
      </trkpt>
      <trkpt lat="44.76368" lon="6.24735">
        <ele>2288</ele>
        <time>2017-08-29T08:41:05Z</time>
      </trkpt>
      <trkpt lat="44.76368" lon="6.24735">
        <ele>2288</ele>
        <time>2017-08-29T08:41:16Z</time>
      </trkpt>
      <trkpt lat="44.76368" lon="6.24735">
        <ele>2288</ele>
        <time>2017-08-29T08:41:26Z</time>
      </trkpt>
      <trkpt lat="44.76368" lon="6.24735">
        <ele>2288</ele>
        <time>2017-08-29T08:41:35Z</time>
      </trkpt>
      <trkpt lat="44.76368" lon="6.24735">
        <ele>2288</ele>
        <time>2017-08-29T08:41:46Z</time>
      </trkpt>
      <trkpt lat="44.76405" lon="6.24739">
        <ele>2303</ele>
        <time>2017-08-29T08:41:56Z</time>
      </trkpt>
      <trkpt lat="44.76405" lon="6.24739">
        <ele>2303</ele>
        <time>2017-08-29T08:42:05Z</time>
      </trkpt>
      <trkpt lat="44.76405" lon="6.24739">
        <ele>2303</ele>
        <time>2017-08-29T08:42:16Z</time>
      </trkpt>
      <trkpt lat="44.76405" lon="6.24739">
        <ele>2303</ele>
        <time>2017-08-29T08:42:26Z</time>
      </trkpt>
      <trkpt lat="44.76405" lon="6.24739">
        <ele>2303</ele>
        <time>2017-08-29T08:42:35Z</time>
      </trkpt>
      <trkpt lat="44.76405" lon="6.24739">
        <ele>2303</ele>
        <time>2017-08-29T08:42:46Z</time>
      </trkpt>
      <trkpt lat="44.76405" lon="6.24739">
        <ele>2303</ele>
        <time>2017-08-29T08:42:56Z</time>
      </trkpt>
      <trkpt lat="44.76405" lon="6.24739">
        <ele>2303</ele>
        <time>2017-08-29T08:43:05Z</time>
      </trkpt>
      <trkpt lat="44.76405" lon="6.24739">
        <ele>2303</ele>
        <time>2017-08-29T08:43:16Z</time>
      </trkpt>
      <trkpt lat="44.76405" lon="6.24739">
        <ele>2303</ele>
        <time>2017-08-29T08:43:26Z</time>
      </trkpt>
      <trkpt lat="44.76405" lon="6.24739">
        <ele>2303</ele>
        <time>2017-08-29T08:43:35Z</time>
      </trkpt>
      <trkpt lat="44.76405" lon="6.24739">
        <ele>2303</ele>
        <time>2017-08-29T08:43:46Z</time>
      </trkpt>
      <trkpt lat="44.76405" lon="6.24739">
        <ele>2303</ele>
        <time>2017-08-29T08:43:56Z</time>
      </trkpt>
      <trkpt lat="44.76405" lon="6.24739">
        <ele>2303</ele>
        <time>2017-08-29T08:44:05Z</time>
      </trkpt>
      <trkpt lat="44.76405" lon="6.24739">
        <ele>2303</ele>
        <time>2017-08-29T08:44:16Z</time>
      </trkpt>
      <trkpt lat="44.76435" lon="6.24756">
        <ele>2324</ele>
        <time>2017-08-29T08:44:26Z</time>
      </trkpt>
      <trkpt lat="44.76435" lon="6.24756">
        <ele>2324</ele>
        <time>2017-08-29T08:44:35Z</time>
      </trkpt>
      <trkpt lat="44.76435" lon="6.24756">
        <ele>2324</ele>
        <time>2017-08-29T08:44:46Z</time>
      </trkpt>
      <trkpt lat="44.76435" lon="6.24756">
        <ele>2324</ele>
        <time>2017-08-29T08:44:56Z</time>
      </trkpt>
      <trkpt lat="44.76435" lon="6.24756">
        <ele>2324</ele>
        <time>2017-08-29T08:45:05Z</time>
      </trkpt>
      <trkpt lat="44.76435" lon="6.24756">
        <ele>2324</ele>
        <time>2017-08-29T08:45:16Z</time>
      </trkpt>
      <trkpt lat="44.76435" lon="6.24756">
        <ele>2324</ele>
        <time>2017-08-29T08:45:26Z</time>
      </trkpt>
      <trkpt lat="44.76435" lon="6.24756">
        <ele>2324</ele>
        <time>2017-08-29T08:45:35Z</time>
      </trkpt>
      <trkpt lat="44.76452" lon="6.248">
        <ele>2334</ele>
        <time>2017-08-29T08:45:46Z</time>
      </trkpt>
      <trkpt lat="44.76452" lon="6.24801">
        <ele>2334</ele>
        <time>2017-08-29T08:45:56Z</time>
      </trkpt>
      <trkpt lat="44.76452" lon="6.24801">
        <ele>2334</ele>
        <time>2017-08-29T08:46:05Z</time>
      </trkpt>
      <trkpt lat="44.76452" lon="6.24801">
        <ele>2334</ele>
        <time>2017-08-29T08:46:16Z</time>
      </trkpt>
      <trkpt lat="44.76452" lon="6.24801">
        <ele>2334</ele>
        <time>2017-08-29T08:46:26Z</time>
      </trkpt>
      <trkpt lat="44.76452" lon="6.24801">
        <ele>2334</ele>
        <time>2017-08-29T08:46:35Z</time>
      </trkpt>
      <trkpt lat="44.76452" lon="6.24801">
        <ele>2334</ele>
        <time>2017-08-29T08:46:46Z</time>
      </trkpt>
      <trkpt lat="44.76452" lon="6.24801">
        <ele>2334</ele>
        <time>2017-08-29T08:46:56Z</time>
      </trkpt>
      <trkpt lat="44.76477" lon="6.24839">
        <ele>2341</ele>
        <time>2017-08-29T08:47:05Z</time>
      </trkpt>
      <trkpt lat="44.76477" lon="6.24839">
        <ele>2341</ele>
        <time>2017-08-29T08:47:16Z</time>
      </trkpt>
      <trkpt lat="44.76477" lon="6.24839">
        <ele>2341</ele>
        <time>2017-08-29T08:47:26Z</time>
      </trkpt>
      <trkpt lat="44.76477" lon="6.24839">
        <ele>2341</ele>
        <time>2017-08-29T08:47:35Z</time>
      </trkpt>
      <trkpt lat="44.76477" lon="6.24839">
        <ele>2341</ele>
        <time>2017-08-29T08:47:46Z</time>
      </trkpt>
      <trkpt lat="44.76477" lon="6.24839">
        <ele>2341</ele>
        <time>2017-08-29T08:47:56Z</time>
      </trkpt>
      <trkpt lat="44.76477" lon="6.24839">
        <ele>2341</ele>
        <time>2017-08-29T08:48:05Z</time>
      </trkpt>
      <trkpt lat="44.76477" lon="6.24839">
        <ele>2341</ele>
        <time>2017-08-29T08:48:16Z</time>
      </trkpt>
      <trkpt lat="44.76477" lon="6.24839">
        <ele>2341</ele>
        <time>2017-08-29T08:48:26Z</time>
      </trkpt>
      <trkpt lat="44.76472" lon="6.24888">
        <ele>2352</ele>
        <time>2017-08-29T08:48:35Z</time>
      </trkpt>
      <trkpt lat="44.76474" lon="6.24889">
        <ele>2352</ele>
        <time>2017-08-29T08:48:46Z</time>
      </trkpt>
      <trkpt lat="44.76474" lon="6.24889">
        <ele>2352</ele>
        <time>2017-08-29T08:48:56Z</time>
      </trkpt>
      <trkpt lat="44.76474" lon="6.24889">
        <ele>2352</ele>
        <time>2017-08-29T08:49:05Z</time>
      </trkpt>
      <trkpt lat="44.76474" lon="6.24889">
        <ele>2352</ele>
        <time>2017-08-29T08:49:16Z</time>
      </trkpt>
      <trkpt lat="44.76474" lon="6.24889">
        <ele>2352</ele>
        <time>2017-08-29T08:49:26Z</time>
      </trkpt>
      <trkpt lat="44.76474" lon="6.24889">
        <ele>2352</ele>
        <time>2017-08-29T08:49:35Z</time>
      </trkpt>
      <trkpt lat="44.76474" lon="6.24889">
        <ele>2352</ele>
        <time>2017-08-29T08:49:46Z</time>
      </trkpt>
      <trkpt lat="44.76442" lon="6.24912">
        <ele>2358</ele>
        <time>2017-08-29T08:49:56Z</time>
      </trkpt>
      <trkpt lat="44.76441" lon="6.24913">
        <ele>2359</ele>
        <time>2017-08-29T08:50:05Z</time>
      </trkpt>
      <trkpt lat="44.76441" lon="6.24913">
        <ele>2359</ele>
        <time>2017-08-29T08:50:16Z</time>
      </trkpt>
      <trkpt lat="44.76441" lon="6.24913">
        <ele>2359</ele>
        <time>2017-08-29T08:50:26Z</time>
      </trkpt>
      <trkpt lat="44.76441" lon="6.24913">
        <ele>2359</ele>
        <time>2017-08-29T08:50:35Z</time>
      </trkpt>
      <trkpt lat="44.76441" lon="6.24913">
        <ele>2359</ele>
        <time>2017-08-29T08:50:46Z</time>
      </trkpt>
      <trkpt lat="44.76441" lon="6.24913">
        <ele>2359</ele>
        <time>2017-08-29T08:50:56Z</time>
      </trkpt>
      <trkpt lat="44.76441" lon="6.24913">
        <ele>2359</ele>
        <time>2017-08-29T08:51:05Z</time>
      </trkpt>
      <trkpt lat="44.76408" lon="6.24938">
        <ele>2369</ele>
        <time>2017-08-29T08:51:16Z</time>
      </trkpt>
      <trkpt lat="44.76408" lon="6.24938">
        <ele>2369</ele>
        <time>2017-08-29T08:51:26Z</time>
      </trkpt>
      <trkpt lat="44.76408" lon="6.24938">
        <ele>2369</ele>
        <time>2017-08-29T08:51:35Z</time>
      </trkpt>
      <trkpt lat="44.76408" lon="6.24938">
        <ele>2369</ele>
        <time>2017-08-29T08:51:46Z</time>
      </trkpt>
      <trkpt lat="44.76408" lon="6.24938">
        <ele>2369</ele>
        <time>2017-08-29T08:51:56Z</time>
      </trkpt>
      <trkpt lat="44.76408" lon="6.24938">
        <ele>2369</ele>
        <time>2017-08-29T08:52:05Z</time>
      </trkpt>
      <trkpt lat="44.76408" lon="6.24938">
        <ele>2369</ele>
        <time>2017-08-29T08:52:16Z</time>
      </trkpt>
      <trkpt lat="44.76408" lon="6.24938">
        <ele>2369</ele>
        <time>2017-08-29T08:52:26Z</time>
      </trkpt>
      <trkpt lat="44.76408" lon="6.24938">
        <ele>2369</ele>
        <time>2017-08-29T08:52:35Z</time>
      </trkpt>
      <trkpt lat="44.76408" lon="6.24938">
        <ele>2369</ele>
        <time>2017-08-29T08:52:46Z</time>
      </trkpt>
      <trkpt lat="44.76408" lon="6.24938">
        <ele>2369</ele>
        <time>2017-08-29T08:52:56Z</time>
      </trkpt>
      <trkpt lat="44.76432" lon="6.24975">
        <ele>2380</ele>
        <time>2017-08-29T08:53:05Z</time>
      </trkpt>
      <trkpt lat="44.76432" lon="6.24975">
        <ele>2380</ele>
        <time>2017-08-29T08:53:16Z</time>
      </trkpt>
      <trkpt lat="44.76432" lon="6.24975">
        <ele>2380</ele>
        <time>2017-08-29T08:53:26Z</time>
      </trkpt>
      <trkpt lat="44.76432" lon="6.24975">
        <ele>2380</ele>
        <time>2017-08-29T08:53:35Z</time>
      </trkpt>
      <trkpt lat="44.76432" lon="6.24975">
        <ele>2380</ele>
        <time>2017-08-29T08:53:46Z</time>
      </trkpt>
      <trkpt lat="44.76432" lon="6.24975">
        <ele>2380</ele>
        <time>2017-08-29T08:53:56Z</time>
      </trkpt>
      <trkpt lat="44.76432" lon="6.24975">
        <ele>2380</ele>
        <time>2017-08-29T08:54:05Z</time>
      </trkpt>
      <trkpt lat="44.76432" lon="6.24975">
        <ele>2380</ele>
        <time>2017-08-29T08:54:16Z</time>
      </trkpt>
      <trkpt lat="44.76432" lon="6.24975">
        <ele>2380</ele>
        <time>2017-08-29T08:54:26Z</time>
      </trkpt>
      <trkpt lat="44.76432" lon="6.24975">
        <ele>2380</ele>
        <time>2017-08-29T08:54:35Z</time>
      </trkpt>
      <trkpt lat="44.76432" lon="6.24975">
        <ele>2380</ele>
        <time>2017-08-29T08:54:46Z</time>
      </trkpt>
      <trkpt lat="44.76432" lon="6.24975">
        <ele>2380</ele>
        <time>2017-08-29T08:54:56Z</time>
      </trkpt>
      <trkpt lat="44.76432" lon="6.24975">
        <ele>2380</ele>
        <time>2017-08-29T08:55:05Z</time>
      </trkpt>
      <trkpt lat="44.76432" lon="6.24975">
        <ele>2380</ele>
        <time>2017-08-29T08:55:16Z</time>
      </trkpt>
      <trkpt lat="44.76432" lon="6.25024">
        <ele>2389</ele>
        <time>2017-08-29T08:55:26Z</time>
      </trkpt>
      <trkpt lat="44.76432" lon="6.25024">
        <ele>2389</ele>
        <time>2017-08-29T08:55:35Z</time>
      </trkpt>
      <trkpt lat="44.76432" lon="6.25024">
        <ele>2389</ele>
        <time>2017-08-29T08:55:46Z</time>
      </trkpt>
      <trkpt lat="44.76432" lon="6.25024">
        <ele>2389</ele>
        <time>2017-08-29T08:55:56Z</time>
      </trkpt>
      <trkpt lat="44.76432" lon="6.25024">
        <ele>2389</ele>
        <time>2017-08-29T08:56:05Z</time>
      </trkpt>
      <trkpt lat="44.76432" lon="6.25024">
        <ele>2389</ele>
        <time>2017-08-29T08:56:16Z</time>
      </trkpt>
      <trkpt lat="44.76432" lon="6.25024">
        <ele>2389</ele>
        <time>2017-08-29T08:56:26Z</time>
      </trkpt>
      <trkpt lat="44.76432" lon="6.25024">
        <ele>2389</ele>
        <time>2017-08-29T08:56:35Z</time>
      </trkpt>
      <trkpt lat="44.76432" lon="6.25024">
        <ele>2389</ele>
        <time>2017-08-29T08:56:46Z</time>
      </trkpt>
      <trkpt lat="44.76432" lon="6.25024">
        <ele>2389</ele>
        <time>2017-08-29T08:56:56Z</time>
      </trkpt>
      <trkpt lat="44.76432" lon="6.25024">
        <ele>2389</ele>
        <time>2017-08-29T08:57:05Z</time>
      </trkpt>
      <trkpt lat="44.76432" lon="6.25024">
        <ele>2389</ele>
        <time>2017-08-29T08:57:16Z</time>
      </trkpt>
      <trkpt lat="44.76432" lon="6.25024">
        <ele>2389</ele>
        <time>2017-08-29T08:57:26Z</time>
      </trkpt>
      <trkpt lat="44.76432" lon="6.25024">
        <ele>2389</ele>
        <time>2017-08-29T08:57:35Z</time>
      </trkpt>
      <trkpt lat="44.76432" lon="6.25024">
        <ele>2389</ele>
        <time>2017-08-29T08:57:46Z</time>
      </trkpt>
      <trkpt lat="44.76432" lon="6.25024">
        <ele>2389</ele>
        <time>2017-08-29T08:57:56Z</time>
      </trkpt>
      <trkpt lat="44.76432" lon="6.25024">
        <ele>2389</ele>
        <time>2017-08-29T08:58:05Z</time>
      </trkpt>
      <trkpt lat="44.76432" lon="6.25024">
        <ele>2389</ele>
        <time>2017-08-29T08:58:16Z</time>
      </trkpt>
      <trkpt lat="44.76432" lon="6.25024">
        <ele>2389</ele>
        <time>2017-08-29T08:58:26Z</time>
      </trkpt>
      <trkpt lat="44.76432" lon="6.25024">
        <ele>2389</ele>
        <time>2017-08-29T08:58:35Z</time>
      </trkpt>
      <trkpt lat="44.76432" lon="6.25024">
        <ele>2389</ele>
        <time>2017-08-29T08:58:46Z</time>
      </trkpt>
      <trkpt lat="44.76432" lon="6.25024">
        <ele>2389</ele>
        <time>2017-08-29T08:58:56Z</time>
      </trkpt>
      <trkpt lat="44.76432" lon="6.25024">
        <ele>2389</ele>
        <time>2017-08-29T08:59:05Z</time>
      </trkpt>
      <trkpt lat="44.76408" lon="6.25061">
        <ele>2399</ele>
        <time>2017-08-29T08:59:16Z</time>
      </trkpt>
      <trkpt lat="44.76406" lon="6.25064">
        <ele>2399</ele>
        <time>2017-08-29T08:59:26Z</time>
      </trkpt>
      <trkpt lat="44.76406" lon="6.25064">
        <ele>2399</ele>
        <time>2017-08-29T08:59:35Z</time>
      </trkpt>
      <trkpt lat="44.76406" lon="6.25064">
        <ele>2399</ele>
        <time>2017-08-29T08:59:46Z</time>
      </trkpt>
      <trkpt lat="44.76406" lon="6.25064">
        <ele>2399</ele>
        <time>2017-08-29T08:59:56Z</time>
      </trkpt>
      <trkpt lat="44.76406" lon="6.25064">
        <ele>2399</ele>
        <time>2017-08-29T09:00:05Z</time>
      </trkpt>
      <trkpt lat="44.76406" lon="6.25064">
        <ele>2399</ele>
        <time>2017-08-29T09:00:16Z</time>
      </trkpt>
      <trkpt lat="44.76406" lon="6.25064">
        <ele>2399</ele>
        <time>2017-08-29T09:00:26Z</time>
      </trkpt>
      <trkpt lat="44.7641" lon="6.25112">
        <ele>2414</ele>
        <time>2017-08-29T09:00:35Z</time>
      </trkpt>
      <trkpt lat="44.76411" lon="6.25112">
        <ele>2415</ele>
        <time>2017-08-29T09:00:46Z</time>
      </trkpt>
      <trkpt lat="44.76411" lon="6.25112">
        <ele>2415</ele>
        <time>2017-08-29T09:00:56Z</time>
      </trkpt>
      <trkpt lat="44.76411" lon="6.25112">
        <ele>2415</ele>
        <time>2017-08-29T09:01:05Z</time>
      </trkpt>
      <trkpt lat="44.76411" lon="6.25112">
        <ele>2415</ele>
        <time>2017-08-29T09:01:16Z</time>
      </trkpt>
      <trkpt lat="44.76411" lon="6.25112">
        <ele>2415</ele>
        <time>2017-08-29T09:01:26Z</time>
      </trkpt>
      <trkpt lat="44.76411" lon="6.25112">
        <ele>2415</ele>
        <time>2017-08-29T09:01:35Z</time>
      </trkpt>
      <trkpt lat="44.76411" lon="6.25112">
        <ele>2415</ele>
        <time>2017-08-29T09:01:46Z</time>
      </trkpt>
      <trkpt lat="44.76411" lon="6.25112">
        <ele>2415</ele>
        <time>2017-08-29T09:01:56Z</time>
      </trkpt>
      <trkpt lat="44.76411" lon="6.25112">
        <ele>2415</ele>
        <time>2017-08-29T09:02:05Z</time>
      </trkpt>
      <trkpt lat="44.76411" lon="6.25112">
        <ele>2415</ele>
        <time>2017-08-29T09:02:16Z</time>
      </trkpt>
      <trkpt lat="44.76426" lon="6.25139">
        <ele>2444</ele>
        <time>2017-08-29T09:02:26Z</time>
      </trkpt>
      <trkpt lat="44.76427" lon="6.25141">
        <ele>2445</ele>
        <time>2017-08-29T09:02:35Z</time>
      </trkpt>
      <trkpt lat="44.76427" lon="6.25141">
        <ele>2445</ele>
        <time>2017-08-29T09:02:46Z</time>
      </trkpt>
      <trkpt lat="44.76427" lon="6.25141">
        <ele>2445</ele>
        <time>2017-08-29T09:02:56Z</time>
      </trkpt>
      <trkpt lat="44.76427" lon="6.25141">
        <ele>2445</ele>
        <time>2017-08-29T09:03:05Z</time>
      </trkpt>
      <trkpt lat="44.76427" lon="6.25141">
        <ele>2445</ele>
        <time>2017-08-29T09:03:16Z</time>
      </trkpt>
      <trkpt lat="44.76427" lon="6.25141">
        <ele>2445</ele>
        <time>2017-08-29T09:03:26Z</time>
      </trkpt>
      <trkpt lat="44.76427" lon="6.25141">
        <ele>2445</ele>
        <time>2017-08-29T09:03:35Z</time>
      </trkpt>
      <trkpt lat="44.76427" lon="6.25141">
        <ele>2445</ele>
        <time>2017-08-29T09:03:46Z</time>
      </trkpt>
      <trkpt lat="44.76427" lon="6.25141">
        <ele>2445</ele>
        <time>2017-08-29T09:03:56Z</time>
      </trkpt>
      <trkpt lat="44.76427" lon="6.25141">
        <ele>2445</ele>
        <time>2017-08-29T09:04:05Z</time>
      </trkpt>
      <trkpt lat="44.76427" lon="6.25141">
        <ele>2445</ele>
        <time>2017-08-29T09:04:16Z</time>
      </trkpt>
      <trkpt lat="44.76397" lon="6.25144">
        <ele>2470</ele>
        <time>2017-08-29T09:04:26Z</time>
      </trkpt>
      <trkpt lat="44.76397" lon="6.25144">
        <ele>2470</ele>
        <time>2017-08-29T09:04:35Z</time>
      </trkpt>
      <trkpt lat="44.76397" lon="6.25144">
        <ele>2470</ele>
        <time>2017-08-29T09:04:46Z</time>
      </trkpt>
      <trkpt lat="44.76397" lon="6.25144">
        <ele>2470</ele>
        <time>2017-08-29T09:04:56Z</time>
      </trkpt>
      <trkpt lat="44.76397" lon="6.25144">
        <ele>2470</ele>
        <time>2017-08-29T09:05:05Z</time>
      </trkpt>
      <trkpt lat="44.76397" lon="6.25144">
        <ele>2470</ele>
        <time>2017-08-29T09:05:16Z</time>
      </trkpt>
      <trkpt lat="44.76397" lon="6.25144">
        <ele>2470</ele>
        <time>2017-08-29T09:05:26Z</time>
      </trkpt>
      <trkpt lat="44.76373" lon="6.25177">
        <ele>2455</ele>
        <time>2017-08-29T09:05:35Z</time>
      </trkpt>
      <trkpt lat="44.76373" lon="6.25179">
        <ele>2455</ele>
        <time>2017-08-29T09:05:46Z</time>
      </trkpt>
      <trkpt lat="44.76373" lon="6.25179">
        <ele>2455</ele>
        <time>2017-08-29T09:05:56Z</time>
      </trkpt>
      <trkpt lat="44.76373" lon="6.25179">
        <ele>2455</ele>
        <time>2017-08-29T09:06:05Z</time>
      </trkpt>
      <trkpt lat="44.76373" lon="6.25179">
        <ele>2455</ele>
        <time>2017-08-29T09:06:16Z</time>
      </trkpt>
      <trkpt lat="44.76373" lon="6.25179">
        <ele>2455</ele>
        <time>2017-08-29T09:06:26Z</time>
      </trkpt>
      <trkpt lat="44.76373" lon="6.25179">
        <ele>2455</ele>
        <time>2017-08-29T09:06:35Z</time>
      </trkpt>
      <trkpt lat="44.76351" lon="6.25222">
        <ele>2461</ele>
        <time>2017-08-29T09:06:46Z</time>
      </trkpt>
      <trkpt lat="44.76351" lon="6.25222">
        <ele>2461</ele>
        <time>2017-08-29T09:06:56Z</time>
      </trkpt>
      <trkpt lat="44.76351" lon="6.25222">
        <ele>2461</ele>
        <time>2017-08-29T09:07:05Z</time>
      </trkpt>
      <trkpt lat="44.76351" lon="6.25222">
        <ele>2461</ele>
        <time>2017-08-29T09:07:16Z</time>
      </trkpt>
      <trkpt lat="44.76351" lon="6.25222">
        <ele>2461</ele>
        <time>2017-08-29T09:07:26Z</time>
      </trkpt>
      <trkpt lat="44.76351" lon="6.25222">
        <ele>2461</ele>
        <time>2017-08-29T09:07:35Z</time>
      </trkpt>
      <trkpt lat="44.76351" lon="6.25222">
        <ele>2461</ele>
        <time>2017-08-29T09:07:46Z</time>
      </trkpt>
      <trkpt lat="44.76351" lon="6.25222">
        <ele>2461</ele>
        <time>2017-08-29T09:07:56Z</time>
      </trkpt>
      <trkpt lat="44.76351" lon="6.25222">
        <ele>2461</ele>
        <time>2017-08-29T09:08:05Z</time>
      </trkpt>
      <trkpt lat="44.76351" lon="6.25222">
        <ele>2461</ele>
        <time>2017-08-29T09:08:16Z</time>
      </trkpt>
      <trkpt lat="44.76351" lon="6.25222">
        <ele>2461</ele>
        <time>2017-08-29T09:08:26Z</time>
      </trkpt>
      <trkpt lat="44.76351" lon="6.25222">
        <ele>2461</ele>
        <time>2017-08-29T09:08:35Z</time>
      </trkpt>
      <trkpt lat="44.76351" lon="6.25222">
        <ele>2461</ele>
        <time>2017-08-29T09:08:46Z</time>
      </trkpt>
      <trkpt lat="44.76351" lon="6.25222">
        <ele>2461</ele>
        <time>2017-08-29T09:08:56Z</time>
      </trkpt>
      <trkpt lat="44.76351" lon="6.25222">
        <ele>2461</ele>
        <time>2017-08-29T09:09:05Z</time>
      </trkpt>
      <trkpt lat="44.76351" lon="6.25222">
        <ele>2461</ele>
        <time>2017-08-29T09:09:16Z</time>
      </trkpt>
      <trkpt lat="44.76374" lon="6.25254">
        <ele>2481</ele>
        <time>2017-08-29T09:09:26Z</time>
      </trkpt>
      <trkpt lat="44.76374" lon="6.25254">
        <ele>2481</ele>
        <time>2017-08-29T09:09:35Z</time>
      </trkpt>
      <trkpt lat="44.76374" lon="6.25254">
        <ele>2481</ele>
        <time>2017-08-29T09:09:46Z</time>
      </trkpt>
      <trkpt lat="44.76374" lon="6.25254">
        <ele>2481</ele>
        <time>2017-08-29T09:09:56Z</time>
      </trkpt>
      <trkpt lat="44.76374" lon="6.25254">
        <ele>2481</ele>
        <time>2017-08-29T09:10:05Z</time>
      </trkpt>
      <trkpt lat="44.76374" lon="6.25254">
        <ele>2481</ele>
        <time>2017-08-29T09:10:16Z</time>
      </trkpt>
      <trkpt lat="44.76374" lon="6.25254">
        <ele>2481</ele>
        <time>2017-08-29T09:10:26Z</time>
      </trkpt>
      <trkpt lat="44.76374" lon="6.25254">
        <ele>2481</ele>
        <time>2017-08-29T09:10:35Z</time>
      </trkpt>
      <trkpt lat="44.7641" lon="6.25258">
        <ele>2492</ele>
        <time>2017-08-29T09:10:46Z</time>
      </trkpt>
      <trkpt lat="44.7641" lon="6.25258">
        <ele>2492</ele>
        <time>2017-08-29T09:10:56Z</time>
      </trkpt>
      <trkpt lat="44.7641" lon="6.25258">
        <ele>2492</ele>
        <time>2017-08-29T09:11:05Z</time>
      </trkpt>
      <trkpt lat="44.7641" lon="6.25258">
        <ele>2492</ele>
        <time>2017-08-29T09:11:16Z</time>
      </trkpt>
      <trkpt lat="44.7641" lon="6.25258">
        <ele>2492</ele>
        <time>2017-08-29T09:11:26Z</time>
      </trkpt>
      <trkpt lat="44.7641" lon="6.25258">
        <ele>2492</ele>
        <time>2017-08-29T09:11:35Z</time>
      </trkpt>
      <trkpt lat="44.76446" lon="6.25265">
        <ele>2494</ele>
        <time>2017-08-29T09:11:46Z</time>
      </trkpt>
      <trkpt lat="44.76447" lon="6.25266">
        <ele>2494</ele>
        <time>2017-08-29T09:11:56Z</time>
      </trkpt>
      <trkpt lat="44.76447" lon="6.25266">
        <ele>2494</ele>
        <time>2017-08-29T09:12:05Z</time>
      </trkpt>
      <trkpt lat="44.76447" lon="6.25266">
        <ele>2494</ele>
        <time>2017-08-29T09:12:16Z</time>
      </trkpt>
      <trkpt lat="44.76447" lon="6.25266">
        <ele>2494</ele>
        <time>2017-08-29T09:12:26Z</time>
      </trkpt>
      <trkpt lat="44.76447" lon="6.25266">
        <ele>2494</ele>
        <time>2017-08-29T09:12:35Z</time>
      </trkpt>
      <trkpt lat="44.76483" lon="6.25265">
        <ele>2502</ele>
        <time>2017-08-29T09:12:46Z</time>
      </trkpt>
      <trkpt lat="44.76484" lon="6.25266">
        <ele>2502</ele>
        <time>2017-08-29T09:12:56Z</time>
      </trkpt>
      <trkpt lat="44.76484" lon="6.25266">
        <ele>2502</ele>
        <time>2017-08-29T09:13:05Z</time>
      </trkpt>
      <trkpt lat="44.76484" lon="6.25266">
        <ele>2502</ele>
        <time>2017-08-29T09:13:16Z</time>
      </trkpt>
      <trkpt lat="44.76484" lon="6.25266">
        <ele>2502</ele>
        <time>2017-08-29T09:13:26Z</time>
      </trkpt>
      <trkpt lat="44.76484" lon="6.25266">
        <ele>2502</ele>
        <time>2017-08-29T09:13:35Z</time>
      </trkpt>
      <trkpt lat="44.76484" lon="6.25266">
        <ele>2502</ele>
        <time>2017-08-29T09:13:46Z</time>
      </trkpt>
      <trkpt lat="44.76484" lon="6.25266">
        <ele>2502</ele>
        <time>2017-08-29T09:13:56Z</time>
      </trkpt>
      <trkpt lat="44.76484" lon="6.25266">
        <ele>2502</ele>
        <time>2017-08-29T09:14:05Z</time>
      </trkpt>
      <trkpt lat="44.76484" lon="6.25266">
        <ele>2502</ele>
        <time>2017-08-29T09:14:16Z</time>
      </trkpt>
      <trkpt lat="44.76484" lon="6.25266">
        <ele>2502</ele>
        <time>2017-08-29T09:14:26Z</time>
      </trkpt>
      <trkpt lat="44.76484" lon="6.25266">
        <ele>2502</ele>
        <time>2017-08-29T09:14:35Z</time>
      </trkpt>
      <trkpt lat="44.76484" lon="6.25266">
        <ele>2502</ele>
        <time>2017-08-29T09:14:46Z</time>
      </trkpt>
      <trkpt lat="44.76505" lon="6.25302">
        <ele>2518</ele>
        <time>2017-08-29T09:14:56Z</time>
      </trkpt>
      <trkpt lat="44.76506" lon="6.25303">
        <ele>2519</ele>
        <time>2017-08-29T09:15:05Z</time>
      </trkpt>
      <trkpt lat="44.76506" lon="6.25303">
        <ele>2519</ele>
        <time>2017-08-29T09:15:16Z</time>
      </trkpt>
      <trkpt lat="44.76506" lon="6.25303">
        <ele>2519</ele>
        <time>2017-08-29T09:15:26Z</time>
      </trkpt>
      <trkpt lat="44.76506" lon="6.25303">
        <ele>2519</ele>
        <time>2017-08-29T09:15:35Z</time>
      </trkpt>
      <trkpt lat="44.76506" lon="6.25303">
        <ele>2519</ele>
        <time>2017-08-29T09:15:46Z</time>
      </trkpt>
      <trkpt lat="44.76506" lon="6.25303">
        <ele>2519</ele>
        <time>2017-08-29T09:15:56Z</time>
      </trkpt>
      <trkpt lat="44.76506" lon="6.25303">
        <ele>2519</ele>
        <time>2017-08-29T09:16:05Z</time>
      </trkpt>
      <trkpt lat="44.76506" lon="6.25303">
        <ele>2519</ele>
        <time>2017-08-29T09:16:16Z</time>
      </trkpt>
      <trkpt lat="44.76506" lon="6.25303">
        <ele>2519</ele>
        <time>2017-08-29T09:16:26Z</time>
      </trkpt>
      <trkpt lat="44.76506" lon="6.25303">
        <ele>2519</ele>
        <time>2017-08-29T09:16:35Z</time>
      </trkpt>
      <trkpt lat="44.76506" lon="6.25303">
        <ele>2519</ele>
        <time>2017-08-29T09:16:46Z</time>
      </trkpt>
      <trkpt lat="44.76506" lon="6.25303">
        <ele>2519</ele>
        <time>2017-08-29T09:16:56Z</time>
      </trkpt>
      <trkpt lat="44.76506" lon="6.25303">
        <ele>2519</ele>
        <time>2017-08-29T09:17:05Z</time>
      </trkpt>
      <trkpt lat="44.76506" lon="6.25303">
        <ele>2519</ele>
        <time>2017-08-29T09:17:16Z</time>
      </trkpt>
      <trkpt lat="44.76506" lon="6.25303">
        <ele>2519</ele>
        <time>2017-08-29T09:17:26Z</time>
      </trkpt>
      <trkpt lat="44.76506" lon="6.25303">
        <ele>2519</ele>
        <time>2017-08-29T09:17:35Z</time>
      </trkpt>
      <trkpt lat="44.76506" lon="6.25303">
        <ele>2519</ele>
        <time>2017-08-29T09:17:46Z</time>
      </trkpt>
      <trkpt lat="44.76506" lon="6.25303">
        <ele>2519</ele>
        <time>2017-08-29T09:17:56Z</time>
      </trkpt>
      <trkpt lat="44.76506" lon="6.25303">
        <ele>2519</ele>
        <time>2017-08-29T09:18:05Z</time>
      </trkpt>
      <trkpt lat="44.76539" lon="6.25323">
        <ele>2530</ele>
        <time>2017-08-29T09:18:16Z</time>
      </trkpt>
      <trkpt lat="44.76539" lon="6.25323">
        <ele>2530</ele>
        <time>2017-08-29T09:18:26Z</time>
      </trkpt>
      <trkpt lat="44.76539" lon="6.25323">
        <ele>2530</ele>
        <time>2017-08-29T09:18:35Z</time>
      </trkpt>
      <trkpt lat="44.76539" lon="6.25323">
        <ele>2530</ele>
        <time>2017-08-29T09:18:46Z</time>
      </trkpt>
      <trkpt lat="44.76539" lon="6.25323">
        <ele>2530</ele>
        <time>2017-08-29T09:18:56Z</time>
      </trkpt>
      <trkpt lat="44.76539" lon="6.25323">
        <ele>2530</ele>
        <time>2017-08-29T09:19:05Z</time>
      </trkpt>
      <trkpt lat="44.76539" lon="6.25323">
        <ele>2530</ele>
        <time>2017-08-29T09:19:16Z</time>
      </trkpt>
      <trkpt lat="44.76539" lon="6.25323">
        <ele>2530</ele>
        <time>2017-08-29T09:19:26Z</time>
      </trkpt>
      <trkpt lat="44.76539" lon="6.25323">
        <ele>2530</ele>
        <time>2017-08-29T09:19:35Z</time>
      </trkpt>
      <trkpt lat="44.76539" lon="6.25323">
        <ele>2530</ele>
        <time>2017-08-29T09:19:46Z</time>
      </trkpt>
      <trkpt lat="44.76569" lon="6.25352">
        <ele>2543</ele>
        <time>2017-08-29T09:19:56Z</time>
      </trkpt>
      <trkpt lat="44.76569" lon="6.25352">
        <ele>2543</ele>
        <time>2017-08-29T09:20:05Z</time>
      </trkpt>
      <trkpt lat="44.76569" lon="6.25352">
        <ele>2543</ele>
        <time>2017-08-29T09:20:16Z</time>
      </trkpt>
      <trkpt lat="44.76569" lon="6.25352">
        <ele>2543</ele>
        <time>2017-08-29T09:20:26Z</time>
      </trkpt>
      <trkpt lat="44.76569" lon="6.25352">
        <ele>2543</ele>
        <time>2017-08-29T09:20:35Z</time>
      </trkpt>
      <trkpt lat="44.76569" lon="6.25352">
        <ele>2543</ele>
        <time>2017-08-29T09:20:46Z</time>
      </trkpt>
      <trkpt lat="44.76569" lon="6.25352">
        <ele>2543</ele>
        <time>2017-08-29T09:20:56Z</time>
      </trkpt>
      <trkpt lat="44.76569" lon="6.25352">
        <ele>2543</ele>
        <time>2017-08-29T09:21:05Z</time>
      </trkpt>
      <trkpt lat="44.76569" lon="6.25352">
        <ele>2543</ele>
        <time>2017-08-29T09:21:16Z</time>
      </trkpt>
      <trkpt lat="44.76569" lon="6.25352">
        <ele>2543</ele>
        <time>2017-08-29T09:21:26Z</time>
      </trkpt>
      <trkpt lat="44.76569" lon="6.25352">
        <ele>2543</ele>
        <time>2017-08-29T09:21:35Z</time>
      </trkpt>
      <trkpt lat="44.76604" lon="6.25361">
        <ele>2556</ele>
        <time>2017-08-29T09:21:46Z</time>
      </trkpt>
      <trkpt lat="44.76604" lon="6.25361">
        <ele>2556</ele>
        <time>2017-08-29T09:21:56Z</time>
      </trkpt>
      <trkpt lat="44.76604" lon="6.25361">
        <ele>2556</ele>
        <time>2017-08-29T09:22:05Z</time>
      </trkpt>
      <trkpt lat="44.76604" lon="6.25361">
        <ele>2556</ele>
        <time>2017-08-29T09:22:16Z</time>
      </trkpt>
      <trkpt lat="44.76604" lon="6.25361">
        <ele>2556</ele>
        <time>2017-08-29T09:22:26Z</time>
      </trkpt>
      <trkpt lat="44.76604" lon="6.25361">
        <ele>2556</ele>
        <time>2017-08-29T09:22:35Z</time>
      </trkpt>
      <trkpt lat="44.76604" lon="6.25361">
        <ele>2556</ele>
        <time>2017-08-29T09:22:46Z</time>
      </trkpt>
      <trkpt lat="44.76634" lon="6.25333">
        <ele>2565</ele>
        <time>2017-08-29T09:22:56Z</time>
      </trkpt>
      <trkpt lat="44.76634" lon="6.25335">
        <ele>2565</ele>
        <time>2017-08-29T09:23:05Z</time>
      </trkpt>
      <trkpt lat="44.76634" lon="6.25335">
        <ele>2565</ele>
        <time>2017-08-29T09:23:16Z</time>
      </trkpt>
      <trkpt lat="44.76634" lon="6.25335">
        <ele>2565</ele>
        <time>2017-08-29T09:23:26Z</time>
      </trkpt>
      <trkpt lat="44.76634" lon="6.25335">
        <ele>2565</ele>
        <time>2017-08-29T09:23:35Z</time>
      </trkpt>
      <trkpt lat="44.76634" lon="6.25335">
        <ele>2565</ele>
        <time>2017-08-29T09:23:46Z</time>
      </trkpt>
      <trkpt lat="44.76634" lon="6.25335">
        <ele>2565</ele>
        <time>2017-08-29T09:23:56Z</time>
      </trkpt>
      <trkpt lat="44.76634" lon="6.25335">
        <ele>2565</ele>
        <time>2017-08-29T09:24:05Z</time>
      </trkpt>
      <trkpt lat="44.76634" lon="6.25335">
        <ele>2565</ele>
        <time>2017-08-29T09:24:16Z</time>
      </trkpt>
      <trkpt lat="44.76634" lon="6.25335">
        <ele>2565</ele>
        <time>2017-08-29T09:24:26Z</time>
      </trkpt>
      <trkpt lat="44.76634" lon="6.25335">
        <ele>2565</ele>
        <time>2017-08-29T09:24:35Z</time>
      </trkpt>
      <trkpt lat="44.76634" lon="6.25335">
        <ele>2565</ele>
        <time>2017-08-29T09:24:46Z</time>
      </trkpt>
      <trkpt lat="44.76634" lon="6.25335">
        <ele>2565</ele>
        <time>2017-08-29T09:24:56Z</time>
      </trkpt>
      <trkpt lat="44.76634" lon="6.25335">
        <ele>2565</ele>
        <time>2017-08-29T09:25:05Z</time>
      </trkpt>
      <trkpt lat="44.76634" lon="6.25335">
        <ele>2565</ele>
        <time>2017-08-29T09:25:16Z</time>
      </trkpt>
      <trkpt lat="44.76634" lon="6.25335">
        <ele>2565</ele>
        <time>2017-08-29T09:25:26Z</time>
      </trkpt>
      <trkpt lat="44.76634" lon="6.25335">
        <ele>2565</ele>
        <time>2017-08-29T09:25:35Z</time>
      </trkpt>
      <trkpt lat="44.76634" lon="6.25335">
        <ele>2565</ele>
        <time>2017-08-29T09:25:46Z</time>
      </trkpt>
      <trkpt lat="44.76634" lon="6.25335">
        <ele>2565</ele>
        <time>2017-08-29T09:25:56Z</time>
      </trkpt>
      <trkpt lat="44.76634" lon="6.25335">
        <ele>2565</ele>
        <time>2017-08-29T09:26:05Z</time>
      </trkpt>
      <trkpt lat="44.76634" lon="6.25335">
        <ele>2565</ele>
        <time>2017-08-29T09:26:16Z</time>
      </trkpt>
      <trkpt lat="44.76634" lon="6.25335">
        <ele>2565</ele>
        <time>2017-08-29T09:26:26Z</time>
      </trkpt>
      <trkpt lat="44.76634" lon="6.25335">
        <ele>2565</ele>
        <time>2017-08-29T09:26:35Z</time>
      </trkpt>
      <trkpt lat="44.76634" lon="6.25335">
        <ele>2565</ele>
        <time>2017-08-29T09:26:46Z</time>
      </trkpt>
      <trkpt lat="44.76634" lon="6.25335">
        <ele>2565</ele>
        <time>2017-08-29T09:26:56Z</time>
      </trkpt>
      <trkpt lat="44.76634" lon="6.25335">
        <ele>2565</ele>
        <time>2017-08-29T09:27:05Z</time>
      </trkpt>
      <trkpt lat="44.76634" lon="6.25335">
        <ele>2565</ele>
        <time>2017-08-29T09:27:16Z</time>
      </trkpt>
      <trkpt lat="44.76634" lon="6.25335">
        <ele>2565</ele>
        <time>2017-08-29T09:27:26Z</time>
      </trkpt>
      <trkpt lat="44.76634" lon="6.25335">
        <ele>2565</ele>
        <time>2017-08-29T09:27:35Z</time>
      </trkpt>
      <trkpt lat="44.76634" lon="6.25335">
        <ele>2565</ele>
        <time>2017-08-29T09:27:46Z</time>
      </trkpt>
      <trkpt lat="44.76634" lon="6.25335">
        <ele>2565</ele>
        <time>2017-08-29T09:27:56Z</time>
      </trkpt>
      <trkpt lat="44.76634" lon="6.25335">
        <ele>2565</ele>
        <time>2017-08-29T09:28:05Z</time>
      </trkpt>
      <trkpt lat="44.76634" lon="6.25335">
        <ele>2565</ele>
        <time>2017-08-29T09:28:16Z</time>
      </trkpt>
      <trkpt lat="44.76634" lon="6.25335">
        <ele>2565</ele>
        <time>2017-08-29T09:28:26Z</time>
      </trkpt>
      <trkpt lat="44.76634" lon="6.25335">
        <ele>2565</ele>
        <time>2017-08-29T09:28:35Z</time>
      </trkpt>
      <trkpt lat="44.76634" lon="6.25335">
        <ele>2565</ele>
        <time>2017-08-29T09:28:46Z</time>
      </trkpt>
      <trkpt lat="44.76634" lon="6.25335">
        <ele>2565</ele>
        <time>2017-08-29T09:28:56Z</time>
      </trkpt>
      <trkpt lat="44.76634" lon="6.25335">
        <ele>2565</ele>
        <time>2017-08-29T09:29:05Z</time>
      </trkpt>
      <trkpt lat="44.76634" lon="6.25335">
        <ele>2565</ele>
        <time>2017-08-29T09:29:16Z</time>
      </trkpt>
      <trkpt lat="44.76634" lon="6.25335">
        <ele>2565</ele>
        <time>2017-08-29T09:29:26Z</time>
      </trkpt>
      <trkpt lat="44.76634" lon="6.25335">
        <ele>2565</ele>
        <time>2017-08-29T09:29:35Z</time>
      </trkpt>
      <trkpt lat="44.76634" lon="6.25335">
        <ele>2565</ele>
        <time>2017-08-29T09:29:46Z</time>
      </trkpt>
      <trkpt lat="44.76634" lon="6.25335">
        <ele>2565</ele>
        <time>2017-08-29T09:29:56Z</time>
      </trkpt>
      <trkpt lat="44.76634" lon="6.25335">
        <ele>2565</ele>
        <time>2017-08-29T09:30:05Z</time>
      </trkpt>
      <trkpt lat="44.76665" lon="6.25347">
        <ele>2584</ele>
        <time>2017-08-29T09:30:16Z</time>
      </trkpt>
      <trkpt lat="44.76666" lon="6.25346">
        <ele>2584</ele>
        <time>2017-08-29T09:30:26Z</time>
      </trkpt>
      <trkpt lat="44.76666" lon="6.25346">
        <ele>2584</ele>
        <time>2017-08-29T09:30:35Z</time>
      </trkpt>
      <trkpt lat="44.76666" lon="6.25346">
        <ele>2584</ele>
        <time>2017-08-29T09:30:46Z</time>
      </trkpt>
      <trkpt lat="44.76666" lon="6.25346">
        <ele>2584</ele>
        <time>2017-08-29T09:30:56Z</time>
      </trkpt>
      <trkpt lat="44.76666" lon="6.25346">
        <ele>2584</ele>
        <time>2017-08-29T09:31:05Z</time>
      </trkpt>
      <trkpt lat="44.76666" lon="6.25346">
        <ele>2584</ele>
        <time>2017-08-29T09:31:16Z</time>
      </trkpt>
      <trkpt lat="44.76666" lon="6.25346">
        <ele>2584</ele>
        <time>2017-08-29T09:31:26Z</time>
      </trkpt>
      <trkpt lat="44.76666" lon="6.25346">
        <ele>2584</ele>
        <time>2017-08-29T09:31:35Z</time>
      </trkpt>
      <trkpt lat="44.76666" lon="6.25346">
        <ele>2584</ele>
        <time>2017-08-29T09:31:46Z</time>
      </trkpt>
      <trkpt lat="44.76666" lon="6.25346">
        <ele>2584</ele>
        <time>2017-08-29T09:31:56Z</time>
      </trkpt>
      <trkpt lat="44.76666" lon="6.25346">
        <ele>2584</ele>
        <time>2017-08-29T09:32:05Z</time>
      </trkpt>
      <trkpt lat="44.76666" lon="6.25346">
        <ele>2584</ele>
        <time>2017-08-29T09:32:16Z</time>
      </trkpt>
      <trkpt lat="44.76666" lon="6.25346">
        <ele>2584</ele>
        <time>2017-08-29T09:32:26Z</time>
      </trkpt>
      <trkpt lat="44.76666" lon="6.25346">
        <ele>2584</ele>
        <time>2017-08-29T09:32:35Z</time>
      </trkpt>
      <trkpt lat="44.76699" lon="6.25352">
        <ele>2600</ele>
        <time>2017-08-29T09:32:46Z</time>
      </trkpt>
      <trkpt lat="44.767" lon="6.25352">
        <ele>2601</ele>
        <time>2017-08-29T09:32:56Z</time>
      </trkpt>
      <trkpt lat="44.767" lon="6.25352">
        <ele>2601</ele>
        <time>2017-08-29T09:33:05Z</time>
      </trkpt>
      <trkpt lat="44.767" lon="6.25352">
        <ele>2601</ele>
        <time>2017-08-29T09:33:16Z</time>
      </trkpt>
      <trkpt lat="44.767" lon="6.25352">
        <ele>2601</ele>
        <time>2017-08-29T09:33:26Z</time>
      </trkpt>
      <trkpt lat="44.767" lon="6.25352">
        <ele>2601</ele>
        <time>2017-08-29T09:33:35Z</time>
      </trkpt>
      <trkpt lat="44.767" lon="6.25352">
        <ele>2601</ele>
        <time>2017-08-29T09:33:46Z</time>
      </trkpt>
      <trkpt lat="44.767" lon="6.25352">
        <ele>2601</ele>
        <time>2017-08-29T09:33:56Z</time>
      </trkpt>
      <trkpt lat="44.767" lon="6.25352">
        <ele>2601</ele>
        <time>2017-08-29T09:34:05Z</time>
      </trkpt>
      <trkpt lat="44.767" lon="6.25352">
        <ele>2601</ele>
        <time>2017-08-29T09:34:16Z</time>
      </trkpt>
      <trkpt lat="44.767" lon="6.25352">
        <ele>2601</ele>
        <time>2017-08-29T09:34:26Z</time>
      </trkpt>
      <trkpt lat="44.76733" lon="6.25378">
        <ele>2603</ele>
        <time>2017-08-29T09:34:35Z</time>
      </trkpt>
      <trkpt lat="44.76733" lon="6.25378">
        <ele>2603</ele>
        <time>2017-08-29T09:34:46Z</time>
      </trkpt>
      <trkpt lat="44.76733" lon="6.25378">
        <ele>2603</ele>
        <time>2017-08-29T09:34:56Z</time>
      </trkpt>
      <trkpt lat="44.76733" lon="6.25378">
        <ele>2603</ele>
        <time>2017-08-29T09:35:05Z</time>
      </trkpt>
      <trkpt lat="44.76733" lon="6.25378">
        <ele>2603</ele>
        <time>2017-08-29T09:35:16Z</time>
      </trkpt>
      <trkpt lat="44.76767" lon="6.25351">
        <ele>2603</ele>
        <time>2017-08-29T09:35:26Z</time>
      </trkpt>
      <trkpt lat="44.76767" lon="6.25351">
        <ele>2603</ele>
        <time>2017-08-29T09:35:35Z</time>
      </trkpt>
      <trkpt lat="44.76767" lon="6.25351">
        <ele>2603</ele>
        <time>2017-08-29T09:35:46Z</time>
      </trkpt>
      <trkpt lat="44.76767" lon="6.25351">
        <ele>2603</ele>
        <time>2017-08-29T09:35:56Z</time>
      </trkpt>
      <trkpt lat="44.76767" lon="6.25351">
        <ele>2603</ele>
        <time>2017-08-29T09:36:05Z</time>
      </trkpt>
      <trkpt lat="44.76767" lon="6.25351">
        <ele>2603</ele>
        <time>2017-08-29T09:36:16Z</time>
      </trkpt>
      <trkpt lat="44.76801" lon="6.25328">
        <ele>2610</ele>
        <time>2017-08-29T09:36:26Z</time>
      </trkpt>
      <trkpt lat="44.76801" lon="6.25328">
        <ele>2610</ele>
        <time>2017-08-29T09:36:35Z</time>
      </trkpt>
      <trkpt lat="44.76801" lon="6.25328">
        <ele>2610</ele>
        <time>2017-08-29T09:36:46Z</time>
      </trkpt>
      <trkpt lat="44.76801" lon="6.25328">
        <ele>2610</ele>
        <time>2017-08-29T09:36:56Z</time>
      </trkpt>
      <trkpt lat="44.76801" lon="6.25328">
        <ele>2610</ele>
        <time>2017-08-29T09:37:05Z</time>
      </trkpt>
      <trkpt lat="44.76833" lon="6.25297">
        <ele>2615</ele>
        <time>2017-08-29T09:37:16Z</time>
      </trkpt>
      <trkpt lat="44.76833" lon="6.25297">
        <ele>2615</ele>
        <time>2017-08-29T09:37:26Z</time>
      </trkpt>
      <trkpt lat="44.76833" lon="6.25297">
        <ele>2615</ele>
        <time>2017-08-29T09:37:35Z</time>
      </trkpt>
      <trkpt lat="44.76833" lon="6.25297">
        <ele>2615</ele>
        <time>2017-08-29T09:37:46Z</time>
      </trkpt>
      <trkpt lat="44.76833" lon="6.25297">
        <ele>2615</ele>
        <time>2017-08-29T09:37:56Z</time>
      </trkpt>
      <trkpt lat="44.76833" lon="6.25297">
        <ele>2615</ele>
        <time>2017-08-29T09:38:05Z</time>
      </trkpt>
      <trkpt lat="44.76854" lon="6.25253">
        <ele>2621</ele>
        <time>2017-08-29T09:38:16Z</time>
      </trkpt>
      <trkpt lat="44.76854" lon="6.25253">
        <ele>2621</ele>
        <time>2017-08-29T09:38:26Z</time>
      </trkpt>
      <trkpt lat="44.76854" lon="6.25253">
        <ele>2621</ele>
        <time>2017-08-29T09:38:35Z</time>
      </trkpt>
      <trkpt lat="44.76854" lon="6.25253">
        <ele>2621</ele>
        <time>2017-08-29T09:38:46Z</time>
      </trkpt>
      <trkpt lat="44.76854" lon="6.25253">
        <ele>2621</ele>
        <time>2017-08-29T09:38:56Z</time>
      </trkpt>
      <trkpt lat="44.76854" lon="6.25253">
        <ele>2621</ele>
        <time>2017-08-29T09:39:05Z</time>
      </trkpt>
      <trkpt lat="44.76878" lon="6.25212">
        <ele>2626</ele>
        <time>2017-08-29T09:39:16Z</time>
      </trkpt>
      <trkpt lat="44.76878" lon="6.25212">
        <ele>2626</ele>
        <time>2017-08-29T09:39:26Z</time>
      </trkpt>
      <trkpt lat="44.76878" lon="6.25212">
        <ele>2626</ele>
        <time>2017-08-29T09:39:35Z</time>
      </trkpt>
      <trkpt lat="44.76878" lon="6.25212">
        <ele>2626</ele>
        <time>2017-08-29T09:39:46Z</time>
      </trkpt>
      <trkpt lat="44.76878" lon="6.25212">
        <ele>2626</ele>
        <time>2017-08-29T09:39:56Z</time>
      </trkpt>
      <trkpt lat="44.76878" lon="6.25212">
        <ele>2626</ele>
        <time>2017-08-29T09:40:05Z</time>
      </trkpt>
      <trkpt lat="44.76878" lon="6.25212">
        <ele>2626</ele>
        <time>2017-08-29T09:40:16Z</time>
      </trkpt>
      <trkpt lat="44.76878" lon="6.25212">
        <ele>2626</ele>
        <time>2017-08-29T09:40:26Z</time>
      </trkpt>
      <trkpt lat="44.76878" lon="6.25212">
        <ele>2626</ele>
        <time>2017-08-29T09:40:35Z</time>
      </trkpt>
      <trkpt lat="44.76878" lon="6.25212">
        <ele>2626</ele>
        <time>2017-08-29T09:40:46Z</time>
      </trkpt>
      <trkpt lat="44.76878" lon="6.25212">
        <ele>2626</ele>
        <time>2017-08-29T09:40:56Z</time>
      </trkpt>
      <trkpt lat="44.76872" lon="6.25162">
        <ele>2637</ele>
        <time>2017-08-29T09:41:05Z</time>
      </trkpt>
      <trkpt lat="44.76872" lon="6.25162">
        <ele>2637</ele>
        <time>2017-08-29T09:41:16Z</time>
      </trkpt>
      <trkpt lat="44.76872" lon="6.25162">
        <ele>2637</ele>
        <time>2017-08-29T09:41:26Z</time>
      </trkpt>
      <trkpt lat="44.76872" lon="6.25162">
        <ele>2637</ele>
        <time>2017-08-29T09:41:35Z</time>
      </trkpt>
      <trkpt lat="44.76872" lon="6.25162">
        <ele>2637</ele>
        <time>2017-08-29T09:41:46Z</time>
      </trkpt>
      <trkpt lat="44.76872" lon="6.25162">
        <ele>2637</ele>
        <time>2017-08-29T09:41:56Z</time>
      </trkpt>
      <trkpt lat="44.76872" lon="6.25162">
        <ele>2637</ele>
        <time>2017-08-29T09:42:05Z</time>
      </trkpt>
      <trkpt lat="44.76872" lon="6.25162">
        <ele>2637</ele>
        <time>2017-08-29T09:42:16Z</time>
      </trkpt>
      <trkpt lat="44.76872" lon="6.25162">
        <ele>2637</ele>
        <time>2017-08-29T09:42:26Z</time>
      </trkpt>
      <trkpt lat="44.76872" lon="6.25162">
        <ele>2637</ele>
        <time>2017-08-29T09:42:35Z</time>
      </trkpt>
      <trkpt lat="44.76872" lon="6.25162">
        <ele>2637</ele>
        <time>2017-08-29T09:42:46Z</time>
      </trkpt>
      <trkpt lat="44.76872" lon="6.25162">
        <ele>2637</ele>
        <time>2017-08-29T09:42:56Z</time>
      </trkpt>
      <trkpt lat="44.76872" lon="6.25162">
        <ele>2637</ele>
        <time>2017-08-29T09:43:05Z</time>
      </trkpt>
      <trkpt lat="44.76872" lon="6.25162">
        <ele>2637</ele>
        <time>2017-08-29T09:43:16Z</time>
      </trkpt>
      <trkpt lat="44.76902" lon="6.2514">
        <ele>2656</ele>
        <time>2017-08-29T09:43:26Z</time>
      </trkpt>
      <trkpt lat="44.76902" lon="6.2514">
        <ele>2656</ele>
        <time>2017-08-29T09:43:35Z</time>
      </trkpt>
      <trkpt lat="44.76902" lon="6.2514">
        <ele>2656</ele>
        <time>2017-08-29T09:43:46Z</time>
      </trkpt>
      <trkpt lat="44.76902" lon="6.2514">
        <ele>2656</ele>
        <time>2017-08-29T09:43:56Z</time>
      </trkpt>
      <trkpt lat="44.76902" lon="6.2514">
        <ele>2656</ele>
        <time>2017-08-29T09:44:05Z</time>
      </trkpt>
      <trkpt lat="44.76902" lon="6.2514">
        <ele>2656</ele>
        <time>2017-08-29T09:44:16Z</time>
      </trkpt>
      <trkpt lat="44.76902" lon="6.2514">
        <ele>2656</ele>
        <time>2017-08-29T09:44:26Z</time>
      </trkpt>
      <trkpt lat="44.76902" lon="6.2514">
        <ele>2656</ele>
        <time>2017-08-29T09:44:35Z</time>
      </trkpt>
      <trkpt lat="44.76902" lon="6.2514">
        <ele>2656</ele>
        <time>2017-08-29T09:44:46Z</time>
      </trkpt>
      <trkpt lat="44.76902" lon="6.2514">
        <ele>2656</ele>
        <time>2017-08-29T09:44:56Z</time>
      </trkpt>
      <trkpt lat="44.76902" lon="6.2514">
        <ele>2656</ele>
        <time>2017-08-29T09:45:05Z</time>
      </trkpt>
      <trkpt lat="44.76902" lon="6.2514">
        <ele>2656</ele>
        <time>2017-08-29T09:45:16Z</time>
      </trkpt>
      <trkpt lat="44.76902" lon="6.2514">
        <ele>2656</ele>
        <time>2017-08-29T09:45:26Z</time>
      </trkpt>
      <trkpt lat="44.76902" lon="6.2514">
        <ele>2656</ele>
        <time>2017-08-29T09:45:35Z</time>
      </trkpt>
      <trkpt lat="44.76902" lon="6.2514">
        <ele>2656</ele>
        <time>2017-08-29T09:45:46Z</time>
      </trkpt>
      <trkpt lat="44.76902" lon="6.2514">
        <ele>2656</ele>
        <time>2017-08-29T09:45:56Z</time>
      </trkpt>
      <trkpt lat="44.76902" lon="6.2514">
        <ele>2656</ele>
        <time>2017-08-29T09:46:05Z</time>
      </trkpt>
      <trkpt lat="44.76902" lon="6.2514">
        <ele>2656</ele>
        <time>2017-08-29T09:46:16Z</time>
      </trkpt>
      <trkpt lat="44.76902" lon="6.2514">
        <ele>2656</ele>
        <time>2017-08-29T09:46:26Z</time>
      </trkpt>
      <trkpt lat="44.76902" lon="6.2514">
        <ele>2656</ele>
        <time>2017-08-29T09:46:35Z</time>
      </trkpt>
      <trkpt lat="44.76902" lon="6.2514">
        <ele>2656</ele>
        <time>2017-08-29T09:46:46Z</time>
      </trkpt>
      <trkpt lat="44.76902" lon="6.2514">
        <ele>2656</ele>
        <time>2017-08-29T09:46:56Z</time>
      </trkpt>
      <trkpt lat="44.76902" lon="6.2514">
        <ele>2656</ele>
        <time>2017-08-29T09:47:05Z</time>
      </trkpt>
      <trkpt lat="44.76902" lon="6.2514">
        <ele>2656</ele>
        <time>2017-08-29T09:47:16Z</time>
      </trkpt>
      <trkpt lat="44.76902" lon="6.2514">
        <ele>2656</ele>
        <time>2017-08-29T09:47:26Z</time>
      </trkpt>
      <trkpt lat="44.76902" lon="6.2514">
        <ele>2656</ele>
        <time>2017-08-29T09:47:35Z</time>
      </trkpt>
      <trkpt lat="44.76902" lon="6.2514">
        <ele>2656</ele>
        <time>2017-08-29T09:47:46Z</time>
      </trkpt>
      <trkpt lat="44.76902" lon="6.2514">
        <ele>2656</ele>
        <time>2017-08-29T09:47:56Z</time>
      </trkpt>
      <trkpt lat="44.76902" lon="6.2514">
        <ele>2656</ele>
        <time>2017-08-29T09:48:05Z</time>
      </trkpt>
      <trkpt lat="44.76902" lon="6.2514">
        <ele>2656</ele>
        <time>2017-08-29T09:48:16Z</time>
      </trkpt>
      <trkpt lat="44.76902" lon="6.2514">
        <ele>2656</ele>
        <time>2017-08-29T09:48:26Z</time>
      </trkpt>
      <trkpt lat="44.76902" lon="6.2514">
        <ele>2656</ele>
        <time>2017-08-29T09:48:35Z</time>
      </trkpt>
      <trkpt lat="44.76902" lon="6.2514">
        <ele>2656</ele>
        <time>2017-08-29T09:48:46Z</time>
      </trkpt>
      <trkpt lat="44.76902" lon="6.2514">
        <ele>2656</ele>
        <time>2017-08-29T09:48:56Z</time>
      </trkpt>
      <trkpt lat="44.76902" lon="6.2514">
        <ele>2656</ele>
        <time>2017-08-29T09:49:05Z</time>
      </trkpt>
      <trkpt lat="44.76902" lon="6.2514">
        <ele>2656</ele>
        <time>2017-08-29T09:49:16Z</time>
      </trkpt>
      <trkpt lat="44.76902" lon="6.2514">
        <ele>2656</ele>
        <time>2017-08-29T09:49:26Z</time>
      </trkpt>
      <trkpt lat="44.76902" lon="6.2514">
        <ele>2656</ele>
        <time>2017-08-29T09:49:35Z</time>
      </trkpt>
      <trkpt lat="44.76902" lon="6.2514">
        <ele>2656</ele>
        <time>2017-08-29T09:49:46Z</time>
      </trkpt>
      <trkpt lat="44.76902" lon="6.2514">
        <ele>2656</ele>
        <time>2017-08-29T09:49:56Z</time>
      </trkpt>
      <trkpt lat="44.76902" lon="6.2514">
        <ele>2656</ele>
        <time>2017-08-29T09:50:05Z</time>
      </trkpt>
      <trkpt lat="44.76902" lon="6.2514">
        <ele>2656</ele>
        <time>2017-08-29T09:50:16Z</time>
      </trkpt>
      <trkpt lat="44.76902" lon="6.2514">
        <ele>2656</ele>
        <time>2017-08-29T09:50:26Z</time>
      </trkpt>
      <trkpt lat="44.76902" lon="6.2514">
        <ele>2656</ele>
        <time>2017-08-29T09:50:35Z</time>
      </trkpt>
      <trkpt lat="44.76902" lon="6.2514">
        <ele>2656</ele>
        <time>2017-08-29T09:50:46Z</time>
      </trkpt>
      <trkpt lat="44.76902" lon="6.2514">
        <ele>2656</ele>
        <time>2017-08-29T09:50:56Z</time>
      </trkpt>
      <trkpt lat="44.76902" lon="6.2514">
        <ele>2656</ele>
        <time>2017-08-29T09:51:05Z</time>
      </trkpt>
      <trkpt lat="44.76902" lon="6.2514">
        <ele>2656</ele>
        <time>2017-08-29T09:51:16Z</time>
      </trkpt>
      <trkpt lat="44.76902" lon="6.2514">
        <ele>2656</ele>
        <time>2017-08-29T09:51:26Z</time>
      </trkpt>
      <trkpt lat="44.76902" lon="6.2514">
        <ele>2656</ele>
        <time>2017-08-29T09:51:35Z</time>
      </trkpt>
      <trkpt lat="44.76902" lon="6.2514">
        <ele>2656</ele>
        <time>2017-08-29T09:51:46Z</time>
      </trkpt>
      <trkpt lat="44.76902" lon="6.2514">
        <ele>2656</ele>
        <time>2017-08-29T09:51:56Z</time>
      </trkpt>
      <trkpt lat="44.76902" lon="6.2514">
        <ele>2656</ele>
        <time>2017-08-29T09:52:05Z</time>
      </trkpt>
      <trkpt lat="44.76902" lon="6.2514">
        <ele>2656</ele>
        <time>2017-08-29T09:52:16Z</time>
      </trkpt>
      <trkpt lat="44.76902" lon="6.2514">
        <ele>2656</ele>
        <time>2017-08-29T09:52:26Z</time>
      </trkpt>
      <trkpt lat="44.76902" lon="6.2514">
        <ele>2656</ele>
        <time>2017-08-29T09:52:35Z</time>
      </trkpt>
      <trkpt lat="44.76902" lon="6.2514">
        <ele>2656</ele>
        <time>2017-08-29T09:52:46Z</time>
      </trkpt>
      <trkpt lat="44.76923" lon="6.25095">
        <ele>2658</ele>
        <time>2017-08-29T09:52:56Z</time>
      </trkpt>
      <trkpt lat="44.76923" lon="6.25095">
        <ele>2658</ele>
        <time>2017-08-29T09:53:05Z</time>
      </trkpt>
      <trkpt lat="44.76923" lon="6.25095">
        <ele>2658</ele>
        <time>2017-08-29T09:53:16Z</time>
      </trkpt>
      <trkpt lat="44.76923" lon="6.25095">
        <ele>2658</ele>
        <time>2017-08-29T09:53:26Z</time>
      </trkpt>
      <trkpt lat="44.76923" lon="6.25095">
        <ele>2658</ele>
        <time>2017-08-29T09:53:35Z</time>
      </trkpt>
      <trkpt lat="44.7696" lon="6.25097">
        <ele>2652</ele>
        <time>2017-08-29T09:53:46Z</time>
      </trkpt>
      <trkpt lat="44.7696" lon="6.25097">
        <ele>2652</ele>
        <time>2017-08-29T09:53:56Z</time>
      </trkpt>
      <trkpt lat="44.7696" lon="6.25097">
        <ele>2652</ele>
        <time>2017-08-29T09:54:05Z</time>
      </trkpt>
      <trkpt lat="44.7696" lon="6.25097">
        <ele>2652</ele>
        <time>2017-08-29T09:54:16Z</time>
      </trkpt>
      <trkpt lat="44.7696" lon="6.25097">
        <ele>2652</ele>
        <time>2017-08-29T09:54:26Z</time>
      </trkpt>
      <trkpt lat="44.7696" lon="6.25097">
        <ele>2652</ele>
        <time>2017-08-29T09:54:35Z</time>
      </trkpt>
      <trkpt lat="44.7696" lon="6.25097">
        <ele>2652</ele>
        <time>2017-08-29T09:54:46Z</time>
      </trkpt>
      <trkpt lat="44.76935" lon="6.25056">
        <ele>2657</ele>
        <time>2017-08-29T09:54:56Z</time>
      </trkpt>
      <trkpt lat="44.76935" lon="6.25056">
        <ele>2657</ele>
        <time>2017-08-29T09:55:05Z</time>
      </trkpt>
      <trkpt lat="44.76935" lon="6.25056">
        <ele>2657</ele>
        <time>2017-08-29T09:55:16Z</time>
      </trkpt>
      <trkpt lat="44.76935" lon="6.25056">
        <ele>2657</ele>
        <time>2017-08-29T09:55:26Z</time>
      </trkpt>
      <trkpt lat="44.76935" lon="6.25056">
        <ele>2657</ele>
        <time>2017-08-29T09:55:35Z</time>
      </trkpt>
      <trkpt lat="44.76927" lon="6.25005">
        <ele>2662</ele>
        <time>2017-08-29T09:55:46Z</time>
      </trkpt>
      <trkpt lat="44.76927" lon="6.25005">
        <ele>2662</ele>
        <time>2017-08-29T09:55:56Z</time>
      </trkpt>
      <trkpt lat="44.76927" lon="6.25005">
        <ele>2662</ele>
        <time>2017-08-29T09:56:05Z</time>
      </trkpt>
      <trkpt lat="44.76927" lon="6.25005">
        <ele>2662</ele>
        <time>2017-08-29T09:56:16Z</time>
      </trkpt>
      <trkpt lat="44.76927" lon="6.25005">
        <ele>2662</ele>
        <time>2017-08-29T09:56:26Z</time>
      </trkpt>
      <trkpt lat="44.76927" lon="6.25005">
        <ele>2662</ele>
        <time>2017-08-29T09:56:35Z</time>
      </trkpt>
      <trkpt lat="44.76936" lon="6.24954">
        <ele>2665</ele>
        <time>2017-08-29T09:56:46Z</time>
      </trkpt>
      <trkpt lat="44.76936" lon="6.24954">
        <ele>2665</ele>
        <time>2017-08-29T09:56:56Z</time>
      </trkpt>
      <trkpt lat="44.76936" lon="6.24954">
        <ele>2665</ele>
        <time>2017-08-29T09:57:05Z</time>
      </trkpt>
      <trkpt lat="44.76936" lon="6.24954">
        <ele>2665</ele>
        <time>2017-08-29T09:57:16Z</time>
      </trkpt>
      <trkpt lat="44.76936" lon="6.24954">
        <ele>2665</ele>
        <time>2017-08-29T09:57:26Z</time>
      </trkpt>
      <trkpt lat="44.76936" lon="6.24954">
        <ele>2665</ele>
        <time>2017-08-29T09:57:35Z</time>
      </trkpt>
      <trkpt lat="44.76951" lon="6.24906">
        <ele>2661</ele>
        <time>2017-08-29T09:57:46Z</time>
      </trkpt>
      <trkpt lat="44.76951" lon="6.24906">
        <ele>2661</ele>
        <time>2017-08-29T09:57:56Z</time>
      </trkpt>
      <trkpt lat="44.76951" lon="6.24906">
        <ele>2661</ele>
        <time>2017-08-29T09:58:05Z</time>
      </trkpt>
      <trkpt lat="44.76951" lon="6.24906">
        <ele>2661</ele>
        <time>2017-08-29T09:58:16Z</time>
      </trkpt>
      <trkpt lat="44.76951" lon="6.24906">
        <ele>2661</ele>
        <time>2017-08-29T09:58:26Z</time>
      </trkpt>
      <trkpt lat="44.76951" lon="6.24906">
        <ele>2661</ele>
        <time>2017-08-29T09:58:35Z</time>
      </trkpt>
      <trkpt lat="44.76962" lon="6.24857">
        <ele>2667</ele>
        <time>2017-08-29T09:58:46Z</time>
      </trkpt>
      <trkpt lat="44.76963" lon="6.24856">
        <ele>2668</ele>
        <time>2017-08-29T09:58:56Z</time>
      </trkpt>
      <trkpt lat="44.76963" lon="6.24856">
        <ele>2668</ele>
        <time>2017-08-29T09:59:05Z</time>
      </trkpt>
      <trkpt lat="44.76963" lon="6.24856">
        <ele>2668</ele>
        <time>2017-08-29T09:59:16Z</time>
      </trkpt>
      <trkpt lat="44.76963" lon="6.24856">
        <ele>2668</ele>
        <time>2017-08-29T09:59:26Z</time>
      </trkpt>
      <trkpt lat="44.76963" lon="6.24856">
        <ele>2668</ele>
        <time>2017-08-29T09:59:35Z</time>
      </trkpt>
      <trkpt lat="44.76963" lon="6.24856">
        <ele>2668</ele>
        <time>2017-08-29T09:59:46Z</time>
      </trkpt>
      <trkpt lat="44.76963" lon="6.24856">
        <ele>2668</ele>
        <time>2017-08-29T09:59:56Z</time>
      </trkpt>
      <trkpt lat="44.76984" lon="6.24812">
        <ele>2665</ele>
        <time>2017-08-29T10:00:05Z</time>
      </trkpt>
      <trkpt lat="44.76984" lon="6.24812">
        <ele>2665</ele>
        <time>2017-08-29T10:00:16Z</time>
      </trkpt>
      <trkpt lat="44.76984" lon="6.24812">
        <ele>2665</ele>
        <time>2017-08-29T10:00:26Z</time>
      </trkpt>
      <trkpt lat="44.76984" lon="6.24812">
        <ele>2665</ele>
        <time>2017-08-29T10:00:35Z</time>
      </trkpt>
      <trkpt lat="44.76984" lon="6.24812">
        <ele>2665</ele>
        <time>2017-08-29T10:00:46Z</time>
      </trkpt>
      <trkpt lat="44.76984" lon="6.24812">
        <ele>2665</ele>
        <time>2017-08-29T10:00:56Z</time>
      </trkpt>
      <trkpt lat="44.77014" lon="6.24782">
        <ele>2666</ele>
        <time>2017-08-29T10:01:05Z</time>
      </trkpt>
      <trkpt lat="44.77014" lon="6.24782">
        <ele>2666</ele>
        <time>2017-08-29T10:01:16Z</time>
      </trkpt>
      <trkpt lat="44.77014" lon="6.24782">
        <ele>2666</ele>
        <time>2017-08-29T10:01:26Z</time>
      </trkpt>
      <trkpt lat="44.77014" lon="6.24782">
        <ele>2666</ele>
        <time>2017-08-29T10:01:35Z</time>
      </trkpt>
      <trkpt lat="44.77014" lon="6.24782">
        <ele>2666</ele>
        <time>2017-08-29T10:01:46Z</time>
      </trkpt>
      <trkpt lat="44.77014" lon="6.24782">
        <ele>2666</ele>
        <time>2017-08-29T10:01:56Z</time>
      </trkpt>
      <trkpt lat="44.77014" lon="6.24782">
        <ele>2666</ele>
        <time>2017-08-29T10:02:05Z</time>
      </trkpt>
      <trkpt lat="44.77014" lon="6.24782">
        <ele>2666</ele>
        <time>2017-08-29T10:02:16Z</time>
      </trkpt>
      <trkpt lat="44.77014" lon="6.24782">
        <ele>2666</ele>
        <time>2017-08-29T10:02:26Z</time>
      </trkpt>
      <trkpt lat="44.77014" lon="6.24782">
        <ele>2666</ele>
        <time>2017-08-29T10:02:35Z</time>
      </trkpt>
      <trkpt lat="44.77043" lon="6.24761">
        <ele>2682</ele>
        <time>2017-08-29T10:02:46Z</time>
      </trkpt>
      <trkpt lat="44.77043" lon="6.24761">
        <ele>2682</ele>
        <time>2017-08-29T10:02:56Z</time>
      </trkpt>
      <trkpt lat="44.77043" lon="6.24761">
        <ele>2682</ele>
        <time>2017-08-29T10:03:05Z</time>
      </trkpt>
      <trkpt lat="44.77043" lon="6.24761">
        <ele>2682</ele>
        <time>2017-08-29T10:03:16Z</time>
      </trkpt>
      <trkpt lat="44.77043" lon="6.24761">
        <ele>2682</ele>
        <time>2017-08-29T10:03:26Z</time>
      </trkpt>
      <trkpt lat="44.77043" lon="6.24761">
        <ele>2682</ele>
        <time>2017-08-29T10:03:35Z</time>
      </trkpt>
      <trkpt lat="44.77043" lon="6.24761">
        <ele>2682</ele>
        <time>2017-08-29T10:03:46Z</time>
      </trkpt>
      <trkpt lat="44.77043" lon="6.24761">
        <ele>2682</ele>
        <time>2017-08-29T10:03:56Z</time>
      </trkpt>
      <trkpt lat="44.77043" lon="6.24761">
        <ele>2682</ele>
        <time>2017-08-29T10:04:05Z</time>
      </trkpt>
      <trkpt lat="44.77043" lon="6.24761">
        <ele>2682</ele>
        <time>2017-08-29T10:04:16Z</time>
      </trkpt>
      <trkpt lat="44.77043" lon="6.24761">
        <ele>2682</ele>
        <time>2017-08-29T10:04:26Z</time>
      </trkpt>
      <trkpt lat="44.77043" lon="6.24761">
        <ele>2682</ele>
        <time>2017-08-29T10:04:35Z</time>
      </trkpt>
      <trkpt lat="44.77043" lon="6.24761">
        <ele>2682</ele>
        <time>2017-08-29T10:04:46Z</time>
      </trkpt>
      <trkpt lat="44.77081" lon="6.24761">
        <ele>2689</ele>
        <time>2017-08-29T10:04:56Z</time>
      </trkpt>
      <trkpt lat="44.77081" lon="6.24761">
        <ele>2689</ele>
        <time>2017-08-29T10:05:05Z</time>
      </trkpt>
      <trkpt lat="44.77081" lon="6.24761">
        <ele>2689</ele>
        <time>2017-08-29T10:05:16Z</time>
      </trkpt>
      <trkpt lat="44.77081" lon="6.24761">
        <ele>2689</ele>
        <time>2017-08-29T10:05:26Z</time>
      </trkpt>
      <trkpt lat="44.77081" lon="6.24761">
        <ele>2689</ele>
        <time>2017-08-29T10:05:35Z</time>
      </trkpt>
      <trkpt lat="44.77081" lon="6.24761">
        <ele>2689</ele>
        <time>2017-08-29T10:05:46Z</time>
      </trkpt>
      <trkpt lat="44.77117" lon="6.2477">
        <ele>2693</ele>
        <time>2017-08-29T10:05:56Z</time>
      </trkpt>
      <trkpt lat="44.77117" lon="6.2477">
        <ele>2693</ele>
        <time>2017-08-29T10:06:05Z</time>
      </trkpt>
      <trkpt lat="44.77117" lon="6.2477">
        <ele>2693</ele>
        <time>2017-08-29T10:06:16Z</time>
      </trkpt>
      <trkpt lat="44.77117" lon="6.2477">
        <ele>2693</ele>
        <time>2017-08-29T10:06:26Z</time>
      </trkpt>
      <trkpt lat="44.77117" lon="6.2477">
        <ele>2693</ele>
        <time>2017-08-29T10:06:35Z</time>
      </trkpt>
      <trkpt lat="44.77117" lon="6.2477">
        <ele>2693</ele>
        <time>2017-08-29T10:06:46Z</time>
      </trkpt>
      <trkpt lat="44.77117" lon="6.2477">
        <ele>2693</ele>
        <time>2017-08-29T10:06:56Z</time>
      </trkpt>
      <trkpt lat="44.77117" lon="6.2477">
        <ele>2693</ele>
        <time>2017-08-29T10:07:05Z</time>
      </trkpt>
      <trkpt lat="44.77117" lon="6.2477">
        <ele>2693</ele>
        <time>2017-08-29T10:07:16Z</time>
      </trkpt>
      <trkpt lat="44.77117" lon="6.2477">
        <ele>2693</ele>
        <time>2017-08-29T10:07:26Z</time>
      </trkpt>
      <trkpt lat="44.77117" lon="6.2477">
        <ele>2693</ele>
        <time>2017-08-29T10:07:35Z</time>
      </trkpt>
      <trkpt lat="44.77117" lon="6.2477">
        <ele>2693</ele>
        <time>2017-08-29T10:07:46Z</time>
      </trkpt>
      <trkpt lat="44.77153" lon="6.24763">
        <ele>2702</ele>
        <time>2017-08-29T10:07:56Z</time>
      </trkpt>
      <trkpt lat="44.77153" lon="6.24763">
        <ele>2702</ele>
        <time>2017-08-29T10:08:05Z</time>
      </trkpt>
      <trkpt lat="44.77153" lon="6.24763">
        <ele>2702</ele>
        <time>2017-08-29T10:08:16Z</time>
      </trkpt>
      <trkpt lat="44.77153" lon="6.24763">
        <ele>2702</ele>
        <time>2017-08-29T10:08:26Z</time>
      </trkpt>
      <trkpt lat="44.77153" lon="6.24763">
        <ele>2702</ele>
        <time>2017-08-29T10:08:35Z</time>
      </trkpt>
      <trkpt lat="44.77153" lon="6.24763">
        <ele>2702</ele>
        <time>2017-08-29T10:08:46Z</time>
      </trkpt>
      <trkpt lat="44.77153" lon="6.24763">
        <ele>2702</ele>
        <time>2017-08-29T10:08:56Z</time>
      </trkpt>
      <trkpt lat="44.77153" lon="6.24763">
        <ele>2702</ele>
        <time>2017-08-29T10:09:05Z</time>
      </trkpt>
      <trkpt lat="44.77153" lon="6.24763">
        <ele>2702</ele>
        <time>2017-08-29T10:09:16Z</time>
      </trkpt>
      <trkpt lat="44.77153" lon="6.24763">
        <ele>2702</ele>
        <time>2017-08-29T10:09:26Z</time>
      </trkpt>
      <trkpt lat="44.77153" lon="6.24763">
        <ele>2702</ele>
        <time>2017-08-29T10:09:35Z</time>
      </trkpt>
      <trkpt lat="44.77153" lon="6.24763">
        <ele>2702</ele>
        <time>2017-08-29T10:09:46Z</time>
      </trkpt>
      <trkpt lat="44.77153" lon="6.24763">
        <ele>2702</ele>
        <time>2017-08-29T10:09:56Z</time>
      </trkpt>
      <trkpt lat="44.77153" lon="6.24763">
        <ele>2702</ele>
        <time>2017-08-29T10:10:05Z</time>
      </trkpt>
      <trkpt lat="44.77153" lon="6.24763">
        <ele>2702</ele>
        <time>2017-08-29T10:10:16Z</time>
      </trkpt>
      <trkpt lat="44.77153" lon="6.24763">
        <ele>2702</ele>
        <time>2017-08-29T10:10:26Z</time>
      </trkpt>
      <trkpt lat="44.77153" lon="6.24763">
        <ele>2702</ele>
        <time>2017-08-29T10:10:35Z</time>
      </trkpt>
      <trkpt lat="44.77153" lon="6.24763">
        <ele>2702</ele>
        <time>2017-08-29T10:10:46Z</time>
      </trkpt>
      <trkpt lat="44.77153" lon="6.24763">
        <ele>2702</ele>
        <time>2017-08-29T10:10:56Z</time>
      </trkpt>
      <trkpt lat="44.77153" lon="6.24763">
        <ele>2702</ele>
        <time>2017-08-29T10:11:05Z</time>
      </trkpt>
      <trkpt lat="44.77153" lon="6.24763">
        <ele>2702</ele>
        <time>2017-08-29T10:11:16Z</time>
      </trkpt>
      <trkpt lat="44.77153" lon="6.24763">
        <ele>2702</ele>
        <time>2017-08-29T10:11:26Z</time>
      </trkpt>
      <trkpt lat="44.77153" lon="6.24763">
        <ele>2702</ele>
        <time>2017-08-29T10:11:35Z</time>
      </trkpt>
      <trkpt lat="44.77153" lon="6.24763">
        <ele>2702</ele>
        <time>2017-08-29T10:11:46Z</time>
      </trkpt>
      <trkpt lat="44.77153" lon="6.24763">
        <ele>2702</ele>
        <time>2017-08-29T10:11:56Z</time>
      </trkpt>
      <trkpt lat="44.77153" lon="6.24763">
        <ele>2702</ele>
        <time>2017-08-29T10:12:05Z</time>
      </trkpt>
      <trkpt lat="44.77153" lon="6.24763">
        <ele>2702</ele>
        <time>2017-08-29T10:12:16Z</time>
      </trkpt>
      <trkpt lat="44.77153" lon="6.24763">
        <ele>2702</ele>
        <time>2017-08-29T10:12:26Z</time>
      </trkpt>
      <trkpt lat="44.77153" lon="6.24763">
        <ele>2702</ele>
        <time>2017-08-29T10:12:35Z</time>
      </trkpt>
      <trkpt lat="44.77153" lon="6.24763">
        <ele>2702</ele>
        <time>2017-08-29T10:12:46Z</time>
      </trkpt>
      <trkpt lat="44.77153" lon="6.24763">
        <ele>2702</ele>
        <time>2017-08-29T10:12:56Z</time>
      </trkpt>
      <trkpt lat="44.77153" lon="6.24763">
        <ele>2702</ele>
        <time>2017-08-29T10:13:05Z</time>
      </trkpt>
      <trkpt lat="44.77153" lon="6.24763">
        <ele>2702</ele>
        <time>2017-08-29T10:13:16Z</time>
      </trkpt>
      <trkpt lat="44.77153" lon="6.24763">
        <ele>2702</ele>
        <time>2017-08-29T10:13:26Z</time>
      </trkpt>
      <trkpt lat="44.77153" lon="6.24763">
        <ele>2702</ele>
        <time>2017-08-29T10:13:35Z</time>
      </trkpt>
      <trkpt lat="44.77153" lon="6.24763">
        <ele>2702</ele>
        <time>2017-08-29T10:13:46Z</time>
      </trkpt>
      <trkpt lat="44.77153" lon="6.24763">
        <ele>2702</ele>
        <time>2017-08-29T10:13:56Z</time>
      </trkpt>
      <trkpt lat="44.77153" lon="6.24763">
        <ele>2702</ele>
        <time>2017-08-29T10:14:05Z</time>
      </trkpt>
      <trkpt lat="44.77153" lon="6.24763">
        <ele>2702</ele>
        <time>2017-08-29T10:14:16Z</time>
      </trkpt>
      <trkpt lat="44.77153" lon="6.24763">
        <ele>2702</ele>
        <time>2017-08-29T10:14:26Z</time>
      </trkpt>
      <trkpt lat="44.77153" lon="6.24763">
        <ele>2702</ele>
        <time>2017-08-29T10:14:35Z</time>
      </trkpt>
      <trkpt lat="44.77153" lon="6.24763">
        <ele>2702</ele>
        <time>2017-08-29T10:14:46Z</time>
      </trkpt>
      <trkpt lat="44.77153" lon="6.24763">
        <ele>2702</ele>
        <time>2017-08-29T10:14:56Z</time>
      </trkpt>
      <trkpt lat="44.77153" lon="6.24763">
        <ele>2702</ele>
        <time>2017-08-29T10:15:05Z</time>
      </trkpt>
      <trkpt lat="44.77153" lon="6.24763">
        <ele>2702</ele>
        <time>2017-08-29T10:15:16Z</time>
      </trkpt>
      <trkpt lat="44.77153" lon="6.24763">
        <ele>2702</ele>
        <time>2017-08-29T10:15:26Z</time>
      </trkpt>
      <trkpt lat="44.77153" lon="6.24763">
        <ele>2702</ele>
        <time>2017-08-29T10:15:35Z</time>
      </trkpt>
      <trkpt lat="44.77153" lon="6.24763">
        <ele>2702</ele>
        <time>2017-08-29T10:15:46Z</time>
      </trkpt>
      <trkpt lat="44.77153" lon="6.24763">
        <ele>2702</ele>
        <time>2017-08-29T10:15:56Z</time>
      </trkpt>
      <trkpt lat="44.77153" lon="6.24763">
        <ele>2702</ele>
        <time>2017-08-29T10:16:05Z</time>
      </trkpt>
      <trkpt lat="44.77153" lon="6.24763">
        <ele>2702</ele>
        <time>2017-08-29T10:16:16Z</time>
      </trkpt>
      <trkpt lat="44.77153" lon="6.24763">
        <ele>2702</ele>
        <time>2017-08-29T10:16:26Z</time>
      </trkpt>
      <trkpt lat="44.77153" lon="6.24763">
        <ele>2702</ele>
        <time>2017-08-29T10:16:35Z</time>
      </trkpt>
      <trkpt lat="44.77153" lon="6.24763">
        <ele>2702</ele>
        <time>2017-08-29T10:16:46Z</time>
      </trkpt>
      <trkpt lat="44.77153" lon="6.24763">
        <ele>2702</ele>
        <time>2017-08-29T10:16:56Z</time>
      </trkpt>
      <trkpt lat="44.77153" lon="6.24763">
        <ele>2702</ele>
        <time>2017-08-29T10:17:05Z</time>
      </trkpt>
      <trkpt lat="44.77153" lon="6.24763">
        <ele>2702</ele>
        <time>2017-08-29T10:17:16Z</time>
      </trkpt>
      <trkpt lat="44.77153" lon="6.24763">
        <ele>2702</ele>
        <time>2017-08-29T10:17:26Z</time>
      </trkpt>
      <trkpt lat="44.77153" lon="6.24763">
        <ele>2702</ele>
        <time>2017-08-29T10:17:35Z</time>
      </trkpt>
      <trkpt lat="44.77153" lon="6.24763">
        <ele>2702</ele>
        <time>2017-08-29T10:17:46Z</time>
      </trkpt>
      <trkpt lat="44.77153" lon="6.24763">
        <ele>2702</ele>
        <time>2017-08-29T10:17:56Z</time>
      </trkpt>
      <trkpt lat="44.77153" lon="6.24763">
        <ele>2702</ele>
        <time>2017-08-29T10:18:05Z</time>
      </trkpt>
      <trkpt lat="44.77153" lon="6.24763">
        <ele>2702</ele>
        <time>2017-08-29T10:18:16Z</time>
      </trkpt>
      <trkpt lat="44.77153" lon="6.24763">
        <ele>2702</ele>
        <time>2017-08-29T10:18:26Z</time>
      </trkpt>
      <trkpt lat="44.77153" lon="6.24763">
        <ele>2702</ele>
        <time>2017-08-29T10:18:35Z</time>
      </trkpt>
      <trkpt lat="44.77153" lon="6.24763">
        <ele>2702</ele>
        <time>2017-08-29T10:18:46Z</time>
      </trkpt>
      <trkpt lat="44.77153" lon="6.24763">
        <ele>2702</ele>
        <time>2017-08-29T10:18:56Z</time>
      </trkpt>
      <trkpt lat="44.77153" lon="6.24763">
        <ele>2702</ele>
        <time>2017-08-29T10:19:05Z</time>
      </trkpt>
      <trkpt lat="44.77153" lon="6.24763">
        <ele>2702</ele>
        <time>2017-08-29T10:19:16Z</time>
      </trkpt>
      <trkpt lat="44.77153" lon="6.24763">
        <ele>2702</ele>
        <time>2017-08-29T10:19:26Z</time>
      </trkpt>
      <trkpt lat="44.77153" lon="6.24763">
        <ele>2702</ele>
        <time>2017-08-29T10:19:35Z</time>
      </trkpt>
      <trkpt lat="44.77153" lon="6.24763">
        <ele>2702</ele>
        <time>2017-08-29T10:19:46Z</time>
      </trkpt>
      <trkpt lat="44.77153" lon="6.24763">
        <ele>2702</ele>
        <time>2017-08-29T10:19:56Z</time>
      </trkpt>
      <trkpt lat="44.77153" lon="6.24763">
        <ele>2702</ele>
        <time>2017-08-29T10:20:05Z</time>
      </trkpt>
      <trkpt lat="44.77153" lon="6.24763">
        <ele>2702</ele>
        <time>2017-08-29T10:20:16Z</time>
      </trkpt>
      <trkpt lat="44.77153" lon="6.24763">
        <ele>2702</ele>
        <time>2017-08-29T10:20:26Z</time>
      </trkpt>
      <trkpt lat="44.77117" lon="6.24771">
        <ele>2693</ele>
        <time>2017-08-29T10:20:35Z</time>
      </trkpt>
      <trkpt lat="44.77117" lon="6.24771">
        <ele>2693</ele>
        <time>2017-08-29T10:20:46Z</time>
      </trkpt>
      <trkpt lat="44.77117" lon="6.24771">
        <ele>2693</ele>
        <time>2017-08-29T10:20:56Z</time>
      </trkpt>
      <trkpt lat="44.77117" lon="6.24771">
        <ele>2693</ele>
        <time>2017-08-29T10:21:05Z</time>
      </trkpt>
      <trkpt lat="44.77079" lon="6.24753">
        <ele>2690</ele>
        <time>2017-08-29T10:21:16Z</time>
      </trkpt>
      <trkpt lat="44.77079" lon="6.24753">
        <ele>2690</ele>
        <time>2017-08-29T10:21:26Z</time>
      </trkpt>
      <trkpt lat="44.77079" lon="6.24753">
        <ele>2690</ele>
        <time>2017-08-29T10:21:35Z</time>
      </trkpt>
      <trkpt lat="44.77079" lon="6.24753">
        <ele>2690</ele>
        <time>2017-08-29T10:21:46Z</time>
      </trkpt>
      <trkpt lat="44.77079" lon="6.24753">
        <ele>2690</ele>
        <time>2017-08-29T10:21:56Z</time>
      </trkpt>
      <trkpt lat="44.77044" lon="6.24767">
        <ele>2689</ele>
        <time>2017-08-29T10:22:05Z</time>
      </trkpt>
      <trkpt lat="44.77044" lon="6.24767">
        <ele>2689</ele>
        <time>2017-08-29T10:22:16Z</time>
      </trkpt>
      <trkpt lat="44.77044" lon="6.24767">
        <ele>2689</ele>
        <time>2017-08-29T10:22:26Z</time>
      </trkpt>
      <trkpt lat="44.77044" lon="6.24767">
        <ele>2689</ele>
        <time>2017-08-29T10:22:35Z</time>
      </trkpt>
      <trkpt lat="44.77044" lon="6.24767">
        <ele>2689</ele>
        <time>2017-08-29T10:22:46Z</time>
      </trkpt>
      <trkpt lat="44.77044" lon="6.24767">
        <ele>2689</ele>
        <time>2017-08-29T10:22:56Z</time>
      </trkpt>
      <trkpt lat="44.77044" lon="6.24767">
        <ele>2689</ele>
        <time>2017-08-29T10:23:05Z</time>
      </trkpt>
      <trkpt lat="44.77044" lon="6.24767">
        <ele>2689</ele>
        <time>2017-08-29T10:23:16Z</time>
      </trkpt>
      <trkpt lat="44.77044" lon="6.24767">
        <ele>2689</ele>
        <time>2017-08-29T10:23:26Z</time>
      </trkpt>
      <trkpt lat="44.77011" lon="6.24781">
        <ele>2673</ele>
        <time>2017-08-29T10:23:35Z</time>
      </trkpt>
      <trkpt lat="44.7701" lon="6.24783">
        <ele>2673</ele>
        <time>2017-08-29T10:23:46Z</time>
      </trkpt>
      <trkpt lat="44.7701" lon="6.24783">
        <ele>2673</ele>
        <time>2017-08-29T10:23:56Z</time>
      </trkpt>
      <trkpt lat="44.7701" lon="6.24783">
        <ele>2673</ele>
        <time>2017-08-29T10:24:05Z</time>
      </trkpt>
      <trkpt lat="44.7701" lon="6.24783">
        <ele>2673</ele>
        <time>2017-08-29T10:24:16Z</time>
      </trkpt>
      <trkpt lat="44.7701" lon="6.24783">
        <ele>2673</ele>
        <time>2017-08-29T10:24:26Z</time>
      </trkpt>
      <trkpt lat="44.7701" lon="6.24783">
        <ele>2673</ele>
        <time>2017-08-29T10:24:35Z</time>
      </trkpt>
      <trkpt lat="44.77004" lon="6.24831">
        <ele>2662</ele>
        <time>2017-08-29T10:24:46Z</time>
      </trkpt>
      <trkpt lat="44.77004" lon="6.24831">
        <ele>2661</ele>
        <time>2017-08-29T10:24:56Z</time>
      </trkpt>
      <trkpt lat="44.77004" lon="6.24831">
        <ele>2661</ele>
        <time>2017-08-29T10:25:05Z</time>
      </trkpt>
      <trkpt lat="44.77004" lon="6.24831">
        <ele>2661</ele>
        <time>2017-08-29T10:25:16Z</time>
      </trkpt>
      <trkpt lat="44.77004" lon="6.24831">
        <ele>2661</ele>
        <time>2017-08-29T10:25:26Z</time>
      </trkpt>
      <trkpt lat="44.77004" lon="6.24831">
        <ele>2661</ele>
        <time>2017-08-29T10:25:35Z</time>
      </trkpt>
      <trkpt lat="44.76983" lon="6.24876">
        <ele>2657</ele>
        <time>2017-08-29T10:25:46Z</time>
      </trkpt>
      <trkpt lat="44.76983" lon="6.24876">
        <ele>2657</ele>
        <time>2017-08-29T10:25:56Z</time>
      </trkpt>
      <trkpt lat="44.76983" lon="6.24876">
        <ele>2657</ele>
        <time>2017-08-29T10:26:05Z</time>
      </trkpt>
      <trkpt lat="44.76983" lon="6.24876">
        <ele>2657</ele>
        <time>2017-08-29T10:26:16Z</time>
      </trkpt>
      <trkpt lat="44.76983" lon="6.24876">
        <ele>2657</ele>
        <time>2017-08-29T10:26:26Z</time>
      </trkpt>
      <trkpt lat="44.76975" lon="6.24926">
        <ele>2658</ele>
        <time>2017-08-29T10:26:35Z</time>
      </trkpt>
      <trkpt lat="44.76975" lon="6.24926">
        <ele>2658</ele>
        <time>2017-08-29T10:26:46Z</time>
      </trkpt>
      <trkpt lat="44.76975" lon="6.24926">
        <ele>2658</ele>
        <time>2017-08-29T10:26:56Z</time>
      </trkpt>
      <trkpt lat="44.76975" lon="6.24926">
        <ele>2658</ele>
        <time>2017-08-29T10:27:05Z</time>
      </trkpt>
      <trkpt lat="44.76975" lon="6.24926">
        <ele>2658</ele>
        <time>2017-08-29T10:27:16Z</time>
      </trkpt>
      <trkpt lat="44.76964" lon="6.24978">
        <ele>2657</ele>
        <time>2017-08-29T10:27:26Z</time>
      </trkpt>
      <trkpt lat="44.76964" lon="6.24978">
        <ele>2657</ele>
        <time>2017-08-29T10:27:35Z</time>
      </trkpt>
      <trkpt lat="44.76964" lon="6.24978">
        <ele>2657</ele>
        <time>2017-08-29T10:27:46Z</time>
      </trkpt>
      <trkpt lat="44.76964" lon="6.24978">
        <ele>2657</ele>
        <time>2017-08-29T10:27:56Z</time>
      </trkpt>
      <trkpt lat="44.76964" lon="6.24978">
        <ele>2657</ele>
        <time>2017-08-29T10:28:05Z</time>
      </trkpt>
      <trkpt lat="44.76953" lon="6.25029">
        <ele>2658</ele>
        <time>2017-08-29T10:28:16Z</time>
      </trkpt>
      <trkpt lat="44.76953" lon="6.25029">
        <ele>2658</ele>
        <time>2017-08-29T10:28:26Z</time>
      </trkpt>
      <trkpt lat="44.76953" lon="6.25029">
        <ele>2658</ele>
        <time>2017-08-29T10:28:35Z</time>
      </trkpt>
      <trkpt lat="44.76953" lon="6.25029">
        <ele>2658</ele>
        <time>2017-08-29T10:28:46Z</time>
      </trkpt>
      <trkpt lat="44.76953" lon="6.25029">
        <ele>2658</ele>
        <time>2017-08-29T10:28:56Z</time>
      </trkpt>
      <trkpt lat="44.76953" lon="6.25029">
        <ele>2658</ele>
        <time>2017-08-29T10:29:05Z</time>
      </trkpt>
      <trkpt lat="44.76966" lon="6.2508">
        <ele>2659</ele>
        <time>2017-08-29T10:29:16Z</time>
      </trkpt>
      <trkpt lat="44.76966" lon="6.2508">
        <ele>2659</ele>
        <time>2017-08-29T10:29:26Z</time>
      </trkpt>
      <trkpt lat="44.76966" lon="6.2508">
        <ele>2659</ele>
        <time>2017-08-29T10:29:35Z</time>
      </trkpt>
      <trkpt lat="44.76966" lon="6.2508">
        <ele>2659</ele>
        <time>2017-08-29T10:29:46Z</time>
      </trkpt>
      <trkpt lat="44.76966" lon="6.2508">
        <ele>2659</ele>
        <time>2017-08-29T10:29:56Z</time>
      </trkpt>
      <trkpt lat="44.76966" lon="6.2508">
        <ele>2659</ele>
        <time>2017-08-29T10:30:05Z</time>
      </trkpt>
      <trkpt lat="44.76966" lon="6.2508">
        <ele>2659</ele>
        <time>2017-08-29T10:30:16Z</time>
      </trkpt>
      <trkpt lat="44.76966" lon="6.2508">
        <ele>2659</ele>
        <time>2017-08-29T10:30:26Z</time>
      </trkpt>
      <trkpt lat="44.76966" lon="6.2508">
        <ele>2659</ele>
        <time>2017-08-29T10:30:35Z</time>
      </trkpt>
      <trkpt lat="44.76966" lon="6.2508">
        <ele>2659</ele>
        <time>2017-08-29T10:30:46Z</time>
      </trkpt>
      <trkpt lat="44.76966" lon="6.2508">
        <ele>2659</ele>
        <time>2017-08-29T10:30:56Z</time>
      </trkpt>
      <trkpt lat="44.76966" lon="6.2508">
        <ele>2659</ele>
        <time>2017-08-29T10:31:05Z</time>
      </trkpt>
      <trkpt lat="44.76966" lon="6.2508">
        <ele>2659</ele>
        <time>2017-08-29T10:31:16Z</time>
      </trkpt>
      <trkpt lat="44.76966" lon="6.2508">
        <ele>2659</ele>
        <time>2017-08-29T10:31:26Z</time>
      </trkpt>
      <trkpt lat="44.76966" lon="6.2508">
        <ele>2659</ele>
        <time>2017-08-29T10:31:35Z</time>
      </trkpt>
      <trkpt lat="44.76966" lon="6.2508">
        <ele>2659</ele>
        <time>2017-08-29T10:31:46Z</time>
      </trkpt>
      <trkpt lat="44.76966" lon="6.2508">
        <ele>2659</ele>
        <time>2017-08-29T10:31:56Z</time>
      </trkpt>
      <trkpt lat="44.76966" lon="6.2508">
        <ele>2659</ele>
        <time>2017-08-29T10:32:05Z</time>
      </trkpt>
      <trkpt lat="44.76966" lon="6.2508">
        <ele>2659</ele>
        <time>2017-08-29T10:32:16Z</time>
      </trkpt>
      <trkpt lat="44.76966" lon="6.2508">
        <ele>2659</ele>
        <time>2017-08-29T10:32:26Z</time>
      </trkpt>
      <trkpt lat="44.76966" lon="6.2508">
        <ele>2659</ele>
        <time>2017-08-29T10:32:35Z</time>
      </trkpt>
      <trkpt lat="44.76966" lon="6.2508">
        <ele>2659</ele>
        <time>2017-08-29T10:32:46Z</time>
      </trkpt>
      <trkpt lat="44.76966" lon="6.2508">
        <ele>2659</ele>
        <time>2017-08-29T10:32:56Z</time>
      </trkpt>
      <trkpt lat="44.76966" lon="6.2508">
        <ele>2659</ele>
        <time>2017-08-29T10:33:05Z</time>
      </trkpt>
      <trkpt lat="44.76966" lon="6.2508">
        <ele>2659</ele>
        <time>2017-08-29T10:33:16Z</time>
      </trkpt>
      <trkpt lat="44.76966" lon="6.2508">
        <ele>2659</ele>
        <time>2017-08-29T10:33:26Z</time>
      </trkpt>
      <trkpt lat="44.76966" lon="6.2508">
        <ele>2659</ele>
        <time>2017-08-29T10:33:35Z</time>
      </trkpt>
      <trkpt lat="44.76966" lon="6.2508">
        <ele>2659</ele>
        <time>2017-08-29T10:33:46Z</time>
      </trkpt>
      <trkpt lat="44.76966" lon="6.2508">
        <ele>2659</ele>
        <time>2017-08-29T10:33:56Z</time>
      </trkpt>
      <trkpt lat="44.76966" lon="6.2508">
        <ele>2659</ele>
        <time>2017-08-29T10:34:05Z</time>
      </trkpt>
      <trkpt lat="44.76966" lon="6.2508">
        <ele>2659</ele>
        <time>2017-08-29T10:34:16Z</time>
      </trkpt>
      <trkpt lat="44.76966" lon="6.2508">
        <ele>2659</ele>
        <time>2017-08-29T10:34:26Z</time>
      </trkpt>
      <trkpt lat="44.76966" lon="6.2508">
        <ele>2659</ele>
        <time>2017-08-29T10:34:35Z</time>
      </trkpt>
      <trkpt lat="44.76966" lon="6.2508">
        <ele>2659</ele>
        <time>2017-08-29T10:34:46Z</time>
      </trkpt>
      <trkpt lat="44.76966" lon="6.2508">
        <ele>2659</ele>
        <time>2017-08-29T10:34:56Z</time>
      </trkpt>
      <trkpt lat="44.76966" lon="6.2508">
        <ele>2659</ele>
        <time>2017-08-29T10:35:05Z</time>
      </trkpt>
      <trkpt lat="44.76966" lon="6.2508">
        <ele>2659</ele>
        <time>2017-08-29T10:35:16Z</time>
      </trkpt>
      <trkpt lat="44.76966" lon="6.2508">
        <ele>2659</ele>
        <time>2017-08-29T10:35:26Z</time>
      </trkpt>
      <trkpt lat="44.76966" lon="6.2508">
        <ele>2659</ele>
        <time>2017-08-29T10:35:35Z</time>
      </trkpt>
      <trkpt lat="44.76966" lon="6.2508">
        <ele>2659</ele>
        <time>2017-08-29T10:35:46Z</time>
      </trkpt>
      <trkpt lat="44.76966" lon="6.2508">
        <ele>2659</ele>
        <time>2017-08-29T10:35:56Z</time>
      </trkpt>
      <trkpt lat="44.76966" lon="6.2508">
        <ele>2659</ele>
        <time>2017-08-29T10:36:05Z</time>
      </trkpt>
      <trkpt lat="44.76966" lon="6.2508">
        <ele>2659</ele>
        <time>2017-08-29T10:36:16Z</time>
      </trkpt>
      <trkpt lat="44.76966" lon="6.2508">
        <ele>2659</ele>
        <time>2017-08-29T10:36:26Z</time>
      </trkpt>
      <trkpt lat="44.76966" lon="6.2508">
        <ele>2659</ele>
        <time>2017-08-29T10:36:35Z</time>
      </trkpt>
      <trkpt lat="44.76966" lon="6.2508">
        <ele>2659</ele>
        <time>2017-08-29T10:36:46Z</time>
      </trkpt>
      <trkpt lat="44.76966" lon="6.2508">
        <ele>2659</ele>
        <time>2017-08-29T10:36:56Z</time>
      </trkpt>
      <trkpt lat="44.76966" lon="6.2508">
        <ele>2659</ele>
        <time>2017-08-29T10:37:05Z</time>
      </trkpt>
      <trkpt lat="44.76966" lon="6.2508">
        <ele>2659</ele>
        <time>2017-08-29T10:37:16Z</time>
      </trkpt>
      <trkpt lat="44.76966" lon="6.2508">
        <ele>2659</ele>
        <time>2017-08-29T10:37:26Z</time>
      </trkpt>
      <trkpt lat="44.76966" lon="6.2508">
        <ele>2659</ele>
        <time>2017-08-29T10:37:35Z</time>
      </trkpt>
      <trkpt lat="44.76966" lon="6.2508">
        <ele>2659</ele>
        <time>2017-08-29T10:37:46Z</time>
      </trkpt>
      <trkpt lat="44.76966" lon="6.2508">
        <ele>2659</ele>
        <time>2017-08-29T10:37:56Z</time>
      </trkpt>
      <trkpt lat="44.76966" lon="6.2508">
        <ele>2659</ele>
        <time>2017-08-29T10:38:05Z</time>
      </trkpt>
      <trkpt lat="44.76966" lon="6.2508">
        <ele>2659</ele>
        <time>2017-08-29T10:38:16Z</time>
      </trkpt>
      <trkpt lat="44.76966" lon="6.2508">
        <ele>2659</ele>
        <time>2017-08-29T10:38:26Z</time>
      </trkpt>
      <trkpt lat="44.76966" lon="6.2508">
        <ele>2659</ele>
        <time>2017-08-29T10:38:35Z</time>
      </trkpt>
      <trkpt lat="44.76966" lon="6.2508">
        <ele>2659</ele>
        <time>2017-08-29T10:38:46Z</time>
      </trkpt>
      <trkpt lat="44.76966" lon="6.2508">
        <ele>2659</ele>
        <time>2017-08-29T10:38:56Z</time>
      </trkpt>
      <trkpt lat="44.76966" lon="6.2508">
        <ele>2659</ele>
        <time>2017-08-29T10:39:05Z</time>
      </trkpt>
      <trkpt lat="44.76966" lon="6.2508">
        <ele>2659</ele>
        <time>2017-08-29T10:39:16Z</time>
      </trkpt>
      <trkpt lat="44.76966" lon="6.2508">
        <ele>2659</ele>
        <time>2017-08-29T10:39:26Z</time>
      </trkpt>
      <trkpt lat="44.76966" lon="6.2508">
        <ele>2659</ele>
        <time>2017-08-29T10:39:35Z</time>
      </trkpt>
      <trkpt lat="44.76966" lon="6.2508">
        <ele>2659</ele>
        <time>2017-08-29T10:39:46Z</time>
      </trkpt>
      <trkpt lat="44.76966" lon="6.2508">
        <ele>2659</ele>
        <time>2017-08-29T10:39:56Z</time>
      </trkpt>
      <trkpt lat="44.76966" lon="6.2508">
        <ele>2659</ele>
        <time>2017-08-29T10:40:05Z</time>
      </trkpt>
      <trkpt lat="44.76966" lon="6.2508">
        <ele>2659</ele>
        <time>2017-08-29T10:40:16Z</time>
      </trkpt>
      <trkpt lat="44.76966" lon="6.2508">
        <ele>2659</ele>
        <time>2017-08-29T10:40:26Z</time>
      </trkpt>
      <trkpt lat="44.76966" lon="6.2508">
        <ele>2659</ele>
        <time>2017-08-29T10:40:35Z</time>
      </trkpt>
      <trkpt lat="44.76966" lon="6.2508">
        <ele>2659</ele>
        <time>2017-08-29T10:40:46Z</time>
      </trkpt>
      <trkpt lat="44.76966" lon="6.2508">
        <ele>2659</ele>
        <time>2017-08-29T10:40:56Z</time>
      </trkpt>
      <trkpt lat="44.76966" lon="6.2508">
        <ele>2659</ele>
        <time>2017-08-29T10:41:05Z</time>
      </trkpt>
      <trkpt lat="44.76966" lon="6.2508">
        <ele>2659</ele>
        <time>2017-08-29T10:41:16Z</time>
      </trkpt>
      <trkpt lat="44.76966" lon="6.2508">
        <ele>2659</ele>
        <time>2017-08-29T10:41:26Z</time>
      </trkpt>
      <trkpt lat="44.76966" lon="6.2508">
        <ele>2659</ele>
        <time>2017-08-29T10:41:35Z</time>
      </trkpt>
      <trkpt lat="44.76966" lon="6.2508">
        <ele>2659</ele>
        <time>2017-08-29T10:41:46Z</time>
      </trkpt>
      <trkpt lat="44.76966" lon="6.2508">
        <ele>2659</ele>
        <time>2017-08-29T10:41:56Z</time>
      </trkpt>
      <trkpt lat="44.76966" lon="6.2508">
        <ele>2659</ele>
        <time>2017-08-29T10:42:05Z</time>
      </trkpt>
      <trkpt lat="44.76966" lon="6.2508">
        <ele>2659</ele>
        <time>2017-08-29T10:42:16Z</time>
      </trkpt>
      <trkpt lat="44.76966" lon="6.2508">
        <ele>2659</ele>
        <time>2017-08-29T10:42:26Z</time>
      </trkpt>
      <trkpt lat="44.76966" lon="6.2508">
        <ele>2659</ele>
        <time>2017-08-29T10:42:35Z</time>
      </trkpt>
      <trkpt lat="44.76966" lon="6.2508">
        <ele>2659</ele>
        <time>2017-08-29T10:42:46Z</time>
      </trkpt>
      <trkpt lat="44.76966" lon="6.2508">
        <ele>2659</ele>
        <time>2017-08-29T10:42:56Z</time>
      </trkpt>
      <trkpt lat="44.76966" lon="6.2508">
        <ele>2659</ele>
        <time>2017-08-29T10:43:05Z</time>
      </trkpt>
      <trkpt lat="44.76966" lon="6.2508">
        <ele>2659</ele>
        <time>2017-08-29T10:43:16Z</time>
      </trkpt>
      <trkpt lat="44.76966" lon="6.2508">
        <ele>2659</ele>
        <time>2017-08-29T10:43:26Z</time>
      </trkpt>
      <trkpt lat="44.76966" lon="6.2508">
        <ele>2659</ele>
        <time>2017-08-29T10:43:35Z</time>
      </trkpt>
      <trkpt lat="44.76966" lon="6.2508">
        <ele>2659</ele>
        <time>2017-08-29T10:43:46Z</time>
      </trkpt>
      <trkpt lat="44.76966" lon="6.2508">
        <ele>2659</ele>
        <time>2017-08-29T10:43:56Z</time>
      </trkpt>
      <trkpt lat="44.76966" lon="6.2508">
        <ele>2659</ele>
        <time>2017-08-29T10:44:05Z</time>
      </trkpt>
      <trkpt lat="44.76966" lon="6.2508">
        <ele>2659</ele>
        <time>2017-08-29T10:44:16Z</time>
      </trkpt>
      <trkpt lat="44.76966" lon="6.2508">
        <ele>2659</ele>
        <time>2017-08-29T10:44:26Z</time>
      </trkpt>
      <trkpt lat="44.76966" lon="6.2508">
        <ele>2659</ele>
        <time>2017-08-29T10:44:35Z</time>
      </trkpt>
      <trkpt lat="44.76966" lon="6.2508">
        <ele>2659</ele>
        <time>2017-08-29T10:44:46Z</time>
      </trkpt>
      <trkpt lat="44.76966" lon="6.2508">
        <ele>2659</ele>
        <time>2017-08-29T10:44:56Z</time>
      </trkpt>
      <trkpt lat="44.76966" lon="6.2508">
        <ele>2659</ele>
        <time>2017-08-29T10:45:05Z</time>
      </trkpt>
      <trkpt lat="44.76966" lon="6.2508">
        <ele>2659</ele>
        <time>2017-08-29T10:45:16Z</time>
      </trkpt>
      <trkpt lat="44.76966" lon="6.2508">
        <ele>2659</ele>
        <time>2017-08-29T10:45:26Z</time>
      </trkpt>
      <trkpt lat="44.76966" lon="6.2508">
        <ele>2659</ele>
        <time>2017-08-29T10:45:35Z</time>
      </trkpt>
      <trkpt lat="44.76966" lon="6.2508">
        <ele>2659</ele>
        <time>2017-08-29T10:45:46Z</time>
      </trkpt>
      <trkpt lat="44.76966" lon="6.2508">
        <ele>2659</ele>
        <time>2017-08-29T10:45:56Z</time>
      </trkpt>
      <trkpt lat="44.76966" lon="6.2508">
        <ele>2659</ele>
        <time>2017-08-29T10:46:05Z</time>
      </trkpt>
      <trkpt lat="44.76966" lon="6.2508">
        <ele>2659</ele>
        <time>2017-08-29T10:46:16Z</time>
      </trkpt>
      <trkpt lat="44.76966" lon="6.2508">
        <ele>2659</ele>
        <time>2017-08-29T10:46:26Z</time>
      </trkpt>
      <trkpt lat="44.76966" lon="6.2508">
        <ele>2659</ele>
        <time>2017-08-29T10:46:35Z</time>
      </trkpt>
      <trkpt lat="44.76966" lon="6.2508">
        <ele>2659</ele>
        <time>2017-08-29T10:46:46Z</time>
      </trkpt>
      <trkpt lat="44.76966" lon="6.2508">
        <ele>2659</ele>
        <time>2017-08-29T10:46:56Z</time>
      </trkpt>
      <trkpt lat="44.76966" lon="6.2508">
        <ele>2659</ele>
        <time>2017-08-29T10:47:05Z</time>
      </trkpt>
      <trkpt lat="44.76966" lon="6.2508">
        <ele>2659</ele>
        <time>2017-08-29T10:47:16Z</time>
      </trkpt>
      <trkpt lat="44.76966" lon="6.2508">
        <ele>2659</ele>
        <time>2017-08-29T10:47:26Z</time>
      </trkpt>
      <trkpt lat="44.76966" lon="6.2508">
        <ele>2659</ele>
        <time>2017-08-29T10:47:35Z</time>
      </trkpt>
      <trkpt lat="44.76966" lon="6.2508">
        <ele>2659</ele>
        <time>2017-08-29T10:47:46Z</time>
      </trkpt>
      <trkpt lat="44.76966" lon="6.2508">
        <ele>2659</ele>
        <time>2017-08-29T10:47:56Z</time>
      </trkpt>
      <trkpt lat="44.76966" lon="6.2508">
        <ele>2659</ele>
        <time>2017-08-29T10:48:05Z</time>
      </trkpt>
      <trkpt lat="44.76966" lon="6.2508">
        <ele>2659</ele>
        <time>2017-08-29T10:48:16Z</time>
      </trkpt>
      <trkpt lat="44.76966" lon="6.2508">
        <ele>2659</ele>
        <time>2017-08-29T10:48:26Z</time>
      </trkpt>
      <trkpt lat="44.76966" lon="6.2508">
        <ele>2659</ele>
        <time>2017-08-29T10:48:35Z</time>
      </trkpt>
      <trkpt lat="44.76966" lon="6.2508">
        <ele>2659</ele>
        <time>2017-08-29T10:48:46Z</time>
      </trkpt>
      <trkpt lat="44.76966" lon="6.2508">
        <ele>2659</ele>
        <time>2017-08-29T10:48:56Z</time>
      </trkpt>
      <trkpt lat="44.76966" lon="6.2508">
        <ele>2659</ele>
        <time>2017-08-29T10:49:05Z</time>
      </trkpt>
      <trkpt lat="44.76966" lon="6.2508">
        <ele>2659</ele>
        <time>2017-08-29T10:49:16Z</time>
      </trkpt>
      <trkpt lat="44.76966" lon="6.2508">
        <ele>2659</ele>
        <time>2017-08-29T10:49:26Z</time>
      </trkpt>
      <trkpt lat="44.76966" lon="6.2508">
        <ele>2659</ele>
        <time>2017-08-29T10:49:35Z</time>
      </trkpt>
      <trkpt lat="44.76966" lon="6.2508">
        <ele>2659</ele>
        <time>2017-08-29T10:49:46Z</time>
      </trkpt>
      <trkpt lat="44.76966" lon="6.2508">
        <ele>2659</ele>
        <time>2017-08-29T10:49:56Z</time>
      </trkpt>
      <trkpt lat="44.76966" lon="6.2508">
        <ele>2659</ele>
        <time>2017-08-29T10:50:05Z</time>
      </trkpt>
      <trkpt lat="44.76966" lon="6.2508">
        <ele>2659</ele>
        <time>2017-08-29T10:50:16Z</time>
      </trkpt>
      <trkpt lat="44.76966" lon="6.2508">
        <ele>2659</ele>
        <time>2017-08-29T10:50:26Z</time>
      </trkpt>
      <trkpt lat="44.76966" lon="6.2508">
        <ele>2659</ele>
        <time>2017-08-29T10:50:35Z</time>
      </trkpt>
      <trkpt lat="44.76966" lon="6.2508">
        <ele>2659</ele>
        <time>2017-08-29T10:50:46Z</time>
      </trkpt>
      <trkpt lat="44.76966" lon="6.2508">
        <ele>2659</ele>
        <time>2017-08-29T10:50:56Z</time>
      </trkpt>
      <trkpt lat="44.76966" lon="6.2508">
        <ele>2659</ele>
        <time>2017-08-29T10:51:05Z</time>
      </trkpt>
      <trkpt lat="44.76966" lon="6.2508">
        <ele>2659</ele>
        <time>2017-08-29T10:51:16Z</time>
      </trkpt>
      <trkpt lat="44.76966" lon="6.2508">
        <ele>2659</ele>
        <time>2017-08-29T10:51:26Z</time>
      </trkpt>
      <trkpt lat="44.76966" lon="6.2508">
        <ele>2659</ele>
        <time>2017-08-29T10:51:35Z</time>
      </trkpt>
      <trkpt lat="44.76966" lon="6.2508">
        <ele>2659</ele>
        <time>2017-08-29T10:51:46Z</time>
      </trkpt>
      <trkpt lat="44.76966" lon="6.2508">
        <ele>2659</ele>
        <time>2017-08-29T10:51:56Z</time>
      </trkpt>
      <trkpt lat="44.76966" lon="6.2508">
        <ele>2659</ele>
        <time>2017-08-29T10:52:05Z</time>
      </trkpt>
      <trkpt lat="44.76966" lon="6.2508">
        <ele>2659</ele>
        <time>2017-08-29T10:52:16Z</time>
      </trkpt>
      <trkpt lat="44.76966" lon="6.2508">
        <ele>2659</ele>
        <time>2017-08-29T10:52:26Z</time>
      </trkpt>
      <trkpt lat="44.76966" lon="6.2508">
        <ele>2659</ele>
        <time>2017-08-29T10:52:35Z</time>
      </trkpt>
      <trkpt lat="44.76966" lon="6.2508">
        <ele>2659</ele>
        <time>2017-08-29T10:52:46Z</time>
      </trkpt>
      <trkpt lat="44.76966" lon="6.2508">
        <ele>2659</ele>
        <time>2017-08-29T10:52:56Z</time>
      </trkpt>
      <trkpt lat="44.76966" lon="6.2508">
        <ele>2659</ele>
        <time>2017-08-29T10:53:05Z</time>
      </trkpt>
      <trkpt lat="44.76966" lon="6.2508">
        <ele>2659</ele>
        <time>2017-08-29T10:53:16Z</time>
      </trkpt>
      <trkpt lat="44.76966" lon="6.2508">
        <ele>2659</ele>
        <time>2017-08-29T10:53:26Z</time>
      </trkpt>
      <trkpt lat="44.76966" lon="6.2508">
        <ele>2659</ele>
        <time>2017-08-29T10:53:35Z</time>
      </trkpt>
      <trkpt lat="44.76966" lon="6.2508">
        <ele>2659</ele>
        <time>2017-08-29T10:53:46Z</time>
      </trkpt>
      <trkpt lat="44.76966" lon="6.2508">
        <ele>2659</ele>
        <time>2017-08-29T10:53:56Z</time>
      </trkpt>
      <trkpt lat="44.76966" lon="6.2508">
        <ele>2659</ele>
        <time>2017-08-29T10:54:05Z</time>
      </trkpt>
      <trkpt lat="44.76966" lon="6.2508">
        <ele>2659</ele>
        <time>2017-08-29T10:54:16Z</time>
      </trkpt>
      <trkpt lat="44.76966" lon="6.2508">
        <ele>2659</ele>
        <time>2017-08-29T10:54:26Z</time>
      </trkpt>
      <trkpt lat="44.76966" lon="6.2508">
        <ele>2659</ele>
        <time>2017-08-29T10:54:35Z</time>
      </trkpt>
      <trkpt lat="44.76966" lon="6.2508">
        <ele>2659</ele>
        <time>2017-08-29T10:54:46Z</time>
      </trkpt>
      <trkpt lat="44.76966" lon="6.2508">
        <ele>2659</ele>
        <time>2017-08-29T10:54:56Z</time>
      </trkpt>
      <trkpt lat="44.76966" lon="6.2508">
        <ele>2659</ele>
        <time>2017-08-29T10:55:05Z</time>
      </trkpt>
      <trkpt lat="44.76966" lon="6.2508">
        <ele>2659</ele>
        <time>2017-08-29T10:55:16Z</time>
      </trkpt>
      <trkpt lat="44.76966" lon="6.2508">
        <ele>2659</ele>
        <time>2017-08-29T10:55:26Z</time>
      </trkpt>
      <trkpt lat="44.76966" lon="6.2508">
        <ele>2659</ele>
        <time>2017-08-29T10:55:35Z</time>
      </trkpt>
      <trkpt lat="44.76966" lon="6.2508">
        <ele>2659</ele>
        <time>2017-08-29T10:55:46Z</time>
      </trkpt>
      <trkpt lat="44.76966" lon="6.2508">
        <ele>2659</ele>
        <time>2017-08-29T10:55:56Z</time>
      </trkpt>
      <trkpt lat="44.76966" lon="6.2508">
        <ele>2659</ele>
        <time>2017-08-29T10:56:05Z</time>
      </trkpt>
      <trkpt lat="44.76966" lon="6.2508">
        <ele>2659</ele>
        <time>2017-08-29T10:56:16Z</time>
      </trkpt>
      <trkpt lat="44.76966" lon="6.2508">
        <ele>2659</ele>
        <time>2017-08-29T10:56:26Z</time>
      </trkpt>
      <trkpt lat="44.76966" lon="6.2508">
        <ele>2659</ele>
        <time>2017-08-29T10:56:35Z</time>
      </trkpt>
      <trkpt lat="44.76966" lon="6.2508">
        <ele>2659</ele>
        <time>2017-08-29T10:56:46Z</time>
      </trkpt>
      <trkpt lat="44.76966" lon="6.2508">
        <ele>2659</ele>
        <time>2017-08-29T10:56:56Z</time>
      </trkpt>
      <trkpt lat="44.76966" lon="6.2508">
        <ele>2659</ele>
        <time>2017-08-29T10:57:05Z</time>
      </trkpt>
      <trkpt lat="44.76966" lon="6.2508">
        <ele>2659</ele>
        <time>2017-08-29T10:57:16Z</time>
      </trkpt>
      <trkpt lat="44.76966" lon="6.2508">
        <ele>2659</ele>
        <time>2017-08-29T10:57:26Z</time>
      </trkpt>
      <trkpt lat="44.76966" lon="6.2508">
        <ele>2659</ele>
        <time>2017-08-29T10:57:35Z</time>
      </trkpt>
      <trkpt lat="44.76966" lon="6.2508">
        <ele>2659</ele>
        <time>2017-08-29T10:57:46Z</time>
      </trkpt>
      <trkpt lat="44.76966" lon="6.2508">
        <ele>2659</ele>
        <time>2017-08-29T10:57:56Z</time>
      </trkpt>
      <trkpt lat="44.76966" lon="6.2508">
        <ele>2659</ele>
        <time>2017-08-29T10:58:05Z</time>
      </trkpt>
      <trkpt lat="44.76966" lon="6.2508">
        <ele>2659</ele>
        <time>2017-08-29T10:58:16Z</time>
      </trkpt>
      <trkpt lat="44.76966" lon="6.2508">
        <ele>2659</ele>
        <time>2017-08-29T10:58:26Z</time>
      </trkpt>
      <trkpt lat="44.76966" lon="6.2508">
        <ele>2659</ele>
        <time>2017-08-29T10:58:35Z</time>
      </trkpt>
      <trkpt lat="44.76966" lon="6.2508">
        <ele>2659</ele>
        <time>2017-08-29T10:58:46Z</time>
      </trkpt>
      <trkpt lat="44.76966" lon="6.2508">
        <ele>2659</ele>
        <time>2017-08-29T10:58:56Z</time>
      </trkpt>
      <trkpt lat="44.76966" lon="6.2508">
        <ele>2659</ele>
        <time>2017-08-29T10:59:05Z</time>
      </trkpt>
      <trkpt lat="44.76966" lon="6.2508">
        <ele>2659</ele>
        <time>2017-08-29T10:59:16Z</time>
      </trkpt>
      <trkpt lat="44.76966" lon="6.2508">
        <ele>2659</ele>
        <time>2017-08-29T10:59:26Z</time>
      </trkpt>
      <trkpt lat="44.76966" lon="6.2508">
        <ele>2659</ele>
        <time>2017-08-29T10:59:35Z</time>
      </trkpt>
      <trkpt lat="44.76966" lon="6.2508">
        <ele>2659</ele>
        <time>2017-08-29T10:59:46Z</time>
      </trkpt>
      <trkpt lat="44.76966" lon="6.2508">
        <ele>2659</ele>
        <time>2017-08-29T10:59:56Z</time>
      </trkpt>
      <trkpt lat="44.76966" lon="6.2508">
        <ele>2659</ele>
        <time>2017-08-29T11:00:05Z</time>
      </trkpt>
      <trkpt lat="44.76966" lon="6.2508">
        <ele>2659</ele>
        <time>2017-08-29T11:00:16Z</time>
      </trkpt>
      <trkpt lat="44.76966" lon="6.2508">
        <ele>2659</ele>
        <time>2017-08-29T11:00:26Z</time>
      </trkpt>
      <trkpt lat="44.76966" lon="6.2508">
        <ele>2659</ele>
        <time>2017-08-29T11:00:35Z</time>
      </trkpt>
      <trkpt lat="44.76966" lon="6.2508">
        <ele>2659</ele>
        <time>2017-08-29T11:00:46Z</time>
      </trkpt>
      <trkpt lat="44.76966" lon="6.2508">
        <ele>2659</ele>
        <time>2017-08-29T11:00:56Z</time>
      </trkpt>
      <trkpt lat="44.76966" lon="6.2508">
        <ele>2659</ele>
        <time>2017-08-29T11:01:05Z</time>
      </trkpt>
      <trkpt lat="44.76966" lon="6.2508">
        <ele>2659</ele>
        <time>2017-08-29T11:01:16Z</time>
      </trkpt>
      <trkpt lat="44.76966" lon="6.2508">
        <ele>2659</ele>
        <time>2017-08-29T11:01:26Z</time>
      </trkpt>
      <trkpt lat="44.76966" lon="6.2508">
        <ele>2659</ele>
        <time>2017-08-29T11:01:35Z</time>
      </trkpt>
      <trkpt lat="44.76966" lon="6.2508">
        <ele>2659</ele>
        <time>2017-08-29T11:01:46Z</time>
      </trkpt>
      <trkpt lat="44.76966" lon="6.2508">
        <ele>2659</ele>
        <time>2017-08-29T11:01:56Z</time>
      </trkpt>
      <trkpt lat="44.76966" lon="6.2508">
        <ele>2659</ele>
        <time>2017-08-29T11:02:05Z</time>
      </trkpt>
      <trkpt lat="44.76966" lon="6.2508">
        <ele>2659</ele>
        <time>2017-08-29T11:02:16Z</time>
      </trkpt>
      <trkpt lat="44.76966" lon="6.2508">
        <ele>2659</ele>
        <time>2017-08-29T11:02:26Z</time>
      </trkpt>
      <trkpt lat="44.76966" lon="6.2508">
        <ele>2659</ele>
        <time>2017-08-29T11:02:35Z</time>
      </trkpt>
      <trkpt lat="44.76966" lon="6.2508">
        <ele>2659</ele>
        <time>2017-08-29T11:02:46Z</time>
      </trkpt>
      <trkpt lat="44.76966" lon="6.2508">
        <ele>2659</ele>
        <time>2017-08-29T11:02:56Z</time>
      </trkpt>
      <trkpt lat="44.76966" lon="6.2508">
        <ele>2659</ele>
        <time>2017-08-29T11:03:05Z</time>
      </trkpt>
      <trkpt lat="44.76966" lon="6.2508">
        <ele>2659</ele>
        <time>2017-08-29T11:03:16Z</time>
      </trkpt>
      <trkpt lat="44.76966" lon="6.2508">
        <ele>2659</ele>
        <time>2017-08-29T11:03:26Z</time>
      </trkpt>
      <trkpt lat="44.76966" lon="6.2508">
        <ele>2659</ele>
        <time>2017-08-29T11:03:35Z</time>
      </trkpt>
      <trkpt lat="44.76966" lon="6.2508">
        <ele>2659</ele>
        <time>2017-08-29T11:03:46Z</time>
      </trkpt>
      <trkpt lat="44.76966" lon="6.2508">
        <ele>2659</ele>
        <time>2017-08-29T11:03:56Z</time>
      </trkpt>
      <trkpt lat="44.76966" lon="6.2508">
        <ele>2659</ele>
        <time>2017-08-29T11:04:05Z</time>
      </trkpt>
      <trkpt lat="44.76966" lon="6.2508">
        <ele>2659</ele>
        <time>2017-08-29T11:04:16Z</time>
      </trkpt>
      <trkpt lat="44.76966" lon="6.2508">
        <ele>2659</ele>
        <time>2017-08-29T11:04:26Z</time>
      </trkpt>
      <trkpt lat="44.76966" lon="6.2508">
        <ele>2659</ele>
        <time>2017-08-29T11:04:35Z</time>
      </trkpt>
      <trkpt lat="44.76966" lon="6.2508">
        <ele>2659</ele>
        <time>2017-08-29T11:04:46Z</time>
      </trkpt>
      <trkpt lat="44.76966" lon="6.2508">
        <ele>2659</ele>
        <time>2017-08-29T11:04:56Z</time>
      </trkpt>
      <trkpt lat="44.76966" lon="6.2508">
        <ele>2659</ele>
        <time>2017-08-29T11:05:05Z</time>
      </trkpt>
      <trkpt lat="44.76966" lon="6.2508">
        <ele>2659</ele>
        <time>2017-08-29T11:05:16Z</time>
      </trkpt>
      <trkpt lat="44.76966" lon="6.2508">
        <ele>2659</ele>
        <time>2017-08-29T11:05:26Z</time>
      </trkpt>
      <trkpt lat="44.76966" lon="6.2508">
        <ele>2659</ele>
        <time>2017-08-29T11:05:35Z</time>
      </trkpt>
      <trkpt lat="44.76966" lon="6.2508">
        <ele>2659</ele>
        <time>2017-08-29T11:05:46Z</time>
      </trkpt>
      <trkpt lat="44.76966" lon="6.2508">
        <ele>2659</ele>
        <time>2017-08-29T11:05:56Z</time>
      </trkpt>
      <trkpt lat="44.76966" lon="6.2508">
        <ele>2659</ele>
        <time>2017-08-29T11:06:05Z</time>
      </trkpt>
      <trkpt lat="44.76966" lon="6.2508">
        <ele>2659</ele>
        <time>2017-08-29T11:06:16Z</time>
      </trkpt>
      <trkpt lat="44.76966" lon="6.2508">
        <ele>2659</ele>
        <time>2017-08-29T11:06:26Z</time>
      </trkpt>
      <trkpt lat="44.76966" lon="6.2508">
        <ele>2659</ele>
        <time>2017-08-29T11:06:35Z</time>
      </trkpt>
      <trkpt lat="44.76966" lon="6.2508">
        <ele>2659</ele>
        <time>2017-08-29T11:06:46Z</time>
      </trkpt>
      <trkpt lat="44.76966" lon="6.2508">
        <ele>2659</ele>
        <time>2017-08-29T11:06:56Z</time>
      </trkpt>
      <trkpt lat="44.76966" lon="6.2508">
        <ele>2659</ele>
        <time>2017-08-29T11:07:05Z</time>
      </trkpt>
      <trkpt lat="44.76966" lon="6.2508">
        <ele>2659</ele>
        <time>2017-08-29T11:07:16Z</time>
      </trkpt>
      <trkpt lat="44.76966" lon="6.2508">
        <ele>2659</ele>
        <time>2017-08-29T11:07:26Z</time>
      </trkpt>
      <trkpt lat="44.76966" lon="6.2508">
        <ele>2659</ele>
        <time>2017-08-29T11:07:35Z</time>
      </trkpt>
      <trkpt lat="44.76966" lon="6.2508">
        <ele>2659</ele>
        <time>2017-08-29T11:07:46Z</time>
      </trkpt>
      <trkpt lat="44.76966" lon="6.2508">
        <ele>2659</ele>
        <time>2017-08-29T11:07:56Z</time>
      </trkpt>
      <trkpt lat="44.76966" lon="6.2508">
        <ele>2659</ele>
        <time>2017-08-29T11:08:05Z</time>
      </trkpt>
      <trkpt lat="44.76966" lon="6.2508">
        <ele>2659</ele>
        <time>2017-08-29T11:08:16Z</time>
      </trkpt>
      <trkpt lat="44.76966" lon="6.2508">
        <ele>2659</ele>
        <time>2017-08-29T11:08:26Z</time>
      </trkpt>
      <trkpt lat="44.76966" lon="6.2508">
        <ele>2659</ele>
        <time>2017-08-29T11:08:35Z</time>
      </trkpt>
      <trkpt lat="44.76966" lon="6.2508">
        <ele>2659</ele>
        <time>2017-08-29T11:08:46Z</time>
      </trkpt>
      <trkpt lat="44.76966" lon="6.2508">
        <ele>2659</ele>
        <time>2017-08-29T11:08:56Z</time>
      </trkpt>
      <trkpt lat="44.76966" lon="6.2508">
        <ele>2659</ele>
        <time>2017-08-29T11:09:05Z</time>
      </trkpt>
      <trkpt lat="44.76966" lon="6.2508">
        <ele>2659</ele>
        <time>2017-08-29T11:09:16Z</time>
      </trkpt>
      <trkpt lat="44.76966" lon="6.2508">
        <ele>2659</ele>
        <time>2017-08-29T11:09:26Z</time>
      </trkpt>
      <trkpt lat="44.76966" lon="6.2508">
        <ele>2659</ele>
        <time>2017-08-29T11:09:35Z</time>
      </trkpt>
      <trkpt lat="44.76966" lon="6.2508">
        <ele>2659</ele>
        <time>2017-08-29T11:09:46Z</time>
      </trkpt>
      <trkpt lat="44.76966" lon="6.2508">
        <ele>2659</ele>
        <time>2017-08-29T11:09:56Z</time>
      </trkpt>
      <trkpt lat="44.76966" lon="6.2508">
        <ele>2659</ele>
        <time>2017-08-29T11:10:05Z</time>
      </trkpt>
      <trkpt lat="44.76966" lon="6.2508">
        <ele>2659</ele>
        <time>2017-08-29T11:10:16Z</time>
      </trkpt>
      <trkpt lat="44.76966" lon="6.2508">
        <ele>2659</ele>
        <time>2017-08-29T11:10:26Z</time>
      </trkpt>
      <trkpt lat="44.76966" lon="6.2508">
        <ele>2659</ele>
        <time>2017-08-29T11:10:35Z</time>
      </trkpt>
      <trkpt lat="44.76966" lon="6.2508">
        <ele>2659</ele>
        <time>2017-08-29T11:10:46Z</time>
      </trkpt>
      <trkpt lat="44.76966" lon="6.2508">
        <ele>2659</ele>
        <time>2017-08-29T11:10:56Z</time>
      </trkpt>
      <trkpt lat="44.76966" lon="6.2508">
        <ele>2659</ele>
        <time>2017-08-29T11:11:05Z</time>
      </trkpt>
      <trkpt lat="44.76966" lon="6.2508">
        <ele>2659</ele>
        <time>2017-08-29T11:11:16Z</time>
      </trkpt>
      <trkpt lat="44.76966" lon="6.2508">
        <ele>2659</ele>
        <time>2017-08-29T11:11:26Z</time>
      </trkpt>
      <trkpt lat="44.76966" lon="6.2508">
        <ele>2659</ele>
        <time>2017-08-29T11:11:35Z</time>
      </trkpt>
      <trkpt lat="44.76966" lon="6.2508">
        <ele>2659</ele>
        <time>2017-08-29T11:11:46Z</time>
      </trkpt>
      <trkpt lat="44.76966" lon="6.2508">
        <ele>2659</ele>
        <time>2017-08-29T11:11:56Z</time>
      </trkpt>
      <trkpt lat="44.76966" lon="6.2508">
        <ele>2659</ele>
        <time>2017-08-29T11:12:05Z</time>
      </trkpt>
      <trkpt lat="44.76966" lon="6.2508">
        <ele>2659</ele>
        <time>2017-08-29T11:12:16Z</time>
      </trkpt>
      <trkpt lat="44.76966" lon="6.2508">
        <ele>2659</ele>
        <time>2017-08-29T11:12:26Z</time>
      </trkpt>
      <trkpt lat="44.76966" lon="6.2508">
        <ele>2659</ele>
        <time>2017-08-29T11:12:35Z</time>
      </trkpt>
      <trkpt lat="44.76966" lon="6.2508">
        <ele>2659</ele>
        <time>2017-08-29T11:12:46Z</time>
      </trkpt>
      <trkpt lat="44.76966" lon="6.2508">
        <ele>2659</ele>
        <time>2017-08-29T11:12:56Z</time>
      </trkpt>
      <trkpt lat="44.76966" lon="6.2508">
        <ele>2659</ele>
        <time>2017-08-29T11:13:05Z</time>
      </trkpt>
      <trkpt lat="44.76966" lon="6.2508">
        <ele>2659</ele>
        <time>2017-08-29T11:13:16Z</time>
      </trkpt>
      <trkpt lat="44.76966" lon="6.2508">
        <ele>2659</ele>
        <time>2017-08-29T11:13:26Z</time>
      </trkpt>
      <trkpt lat="44.76966" lon="6.2508">
        <ele>2659</ele>
        <time>2017-08-29T11:13:35Z</time>
      </trkpt>
      <trkpt lat="44.76966" lon="6.2508">
        <ele>2659</ele>
        <time>2017-08-29T11:13:46Z</time>
      </trkpt>
      <trkpt lat="44.76966" lon="6.2508">
        <ele>2659</ele>
        <time>2017-08-29T11:13:56Z</time>
      </trkpt>
      <trkpt lat="44.76966" lon="6.2508">
        <ele>2659</ele>
        <time>2017-08-29T11:14:05Z</time>
      </trkpt>
      <trkpt lat="44.76966" lon="6.2508">
        <ele>2659</ele>
        <time>2017-08-29T11:14:16Z</time>
      </trkpt>
      <trkpt lat="44.76966" lon="6.2508">
        <ele>2659</ele>
        <time>2017-08-29T11:14:26Z</time>
      </trkpt>
      <trkpt lat="44.76966" lon="6.2508">
        <ele>2659</ele>
        <time>2017-08-29T11:14:35Z</time>
      </trkpt>
      <trkpt lat="44.76966" lon="6.2508">
        <ele>2659</ele>
        <time>2017-08-29T11:14:46Z</time>
      </trkpt>
      <trkpt lat="44.76966" lon="6.2508">
        <ele>2659</ele>
        <time>2017-08-29T11:14:56Z</time>
      </trkpt>
      <trkpt lat="44.76966" lon="6.2508">
        <ele>2659</ele>
        <time>2017-08-29T11:15:05Z</time>
      </trkpt>
      <trkpt lat="44.76966" lon="6.2508">
        <ele>2659</ele>
        <time>2017-08-29T11:15:16Z</time>
      </trkpt>
      <trkpt lat="44.76966" lon="6.2508">
        <ele>2659</ele>
        <time>2017-08-29T11:15:26Z</time>
      </trkpt>
      <trkpt lat="44.76966" lon="6.2508">
        <ele>2659</ele>
        <time>2017-08-29T11:15:35Z</time>
      </trkpt>
      <trkpt lat="44.76966" lon="6.2508">
        <ele>2659</ele>
        <time>2017-08-29T11:15:46Z</time>
      </trkpt>
      <trkpt lat="44.76966" lon="6.2508">
        <ele>2659</ele>
        <time>2017-08-29T11:15:56Z</time>
      </trkpt>
      <trkpt lat="44.76966" lon="6.2508">
        <ele>2659</ele>
        <time>2017-08-29T11:16:05Z</time>
      </trkpt>
      <trkpt lat="44.76966" lon="6.2508">
        <ele>2659</ele>
        <time>2017-08-29T11:16:16Z</time>
      </trkpt>
      <trkpt lat="44.76966" lon="6.2508">
        <ele>2659</ele>
        <time>2017-08-29T11:16:26Z</time>
      </trkpt>
      <trkpt lat="44.76966" lon="6.2508">
        <ele>2659</ele>
        <time>2017-08-29T11:16:35Z</time>
      </trkpt>
      <trkpt lat="44.76966" lon="6.2508">
        <ele>2659</ele>
        <time>2017-08-29T11:16:46Z</time>
      </trkpt>
      <trkpt lat="44.76966" lon="6.2508">
        <ele>2659</ele>
        <time>2017-08-29T11:16:56Z</time>
      </trkpt>
      <trkpt lat="44.76966" lon="6.2508">
        <ele>2659</ele>
        <time>2017-08-29T11:17:05Z</time>
      </trkpt>
      <trkpt lat="44.76966" lon="6.2508">
        <ele>2659</ele>
        <time>2017-08-29T11:17:16Z</time>
      </trkpt>
      <trkpt lat="44.76966" lon="6.2508">
        <ele>2659</ele>
        <time>2017-08-29T11:17:26Z</time>
      </trkpt>
      <trkpt lat="44.76966" lon="6.2508">
        <ele>2659</ele>
        <time>2017-08-29T11:17:35Z</time>
      </trkpt>
      <trkpt lat="44.76966" lon="6.2508">
        <ele>2659</ele>
        <time>2017-08-29T11:17:46Z</time>
      </trkpt>
      <trkpt lat="44.76966" lon="6.2508">
        <ele>2659</ele>
        <time>2017-08-29T11:17:56Z</time>
      </trkpt>
      <trkpt lat="44.76966" lon="6.2508">
        <ele>2659</ele>
        <time>2017-08-29T11:18:05Z</time>
      </trkpt>
      <trkpt lat="44.76966" lon="6.2508">
        <ele>2659</ele>
        <time>2017-08-29T11:18:16Z</time>
      </trkpt>
      <trkpt lat="44.76966" lon="6.2508">
        <ele>2659</ele>
        <time>2017-08-29T11:18:26Z</time>
      </trkpt>
      <trkpt lat="44.76966" lon="6.2508">
        <ele>2659</ele>
        <time>2017-08-29T11:18:35Z</time>
      </trkpt>
      <trkpt lat="44.76966" lon="6.2508">
        <ele>2659</ele>
        <time>2017-08-29T11:18:46Z</time>
      </trkpt>
      <trkpt lat="44.76966" lon="6.2508">
        <ele>2659</ele>
        <time>2017-08-29T11:18:56Z</time>
      </trkpt>
      <trkpt lat="44.76966" lon="6.2508">
        <ele>2659</ele>
        <time>2017-08-29T11:19:05Z</time>
      </trkpt>
      <trkpt lat="44.76966" lon="6.2508">
        <ele>2659</ele>
        <time>2017-08-29T11:19:16Z</time>
      </trkpt>
      <trkpt lat="44.76966" lon="6.2508">
        <ele>2659</ele>
        <time>2017-08-29T11:19:26Z</time>
      </trkpt>
      <trkpt lat="44.76966" lon="6.2508">
        <ele>2659</ele>
        <time>2017-08-29T11:19:35Z</time>
      </trkpt>
      <trkpt lat="44.76966" lon="6.2508">
        <ele>2659</ele>
        <time>2017-08-29T11:19:46Z</time>
      </trkpt>
      <trkpt lat="44.76966" lon="6.2508">
        <ele>2659</ele>
        <time>2017-08-29T11:19:56Z</time>
      </trkpt>
      <trkpt lat="44.76966" lon="6.2508">
        <ele>2659</ele>
        <time>2017-08-29T11:20:05Z</time>
      </trkpt>
      <trkpt lat="44.76966" lon="6.2508">
        <ele>2659</ele>
        <time>2017-08-29T11:20:16Z</time>
      </trkpt>
      <trkpt lat="44.76966" lon="6.2508">
        <ele>2659</ele>
        <time>2017-08-29T11:20:26Z</time>
      </trkpt>
      <trkpt lat="44.76966" lon="6.2508">
        <ele>2659</ele>
        <time>2017-08-29T11:20:35Z</time>
      </trkpt>
      <trkpt lat="44.76966" lon="6.2508">
        <ele>2659</ele>
        <time>2017-08-29T11:20:46Z</time>
      </trkpt>
      <trkpt lat="44.76966" lon="6.2508">
        <ele>2659</ele>
        <time>2017-08-29T11:20:56Z</time>
      </trkpt>
      <trkpt lat="44.76966" lon="6.2508">
        <ele>2659</ele>
        <time>2017-08-29T11:21:05Z</time>
      </trkpt>
      <trkpt lat="44.76966" lon="6.2508">
        <ele>2659</ele>
        <time>2017-08-29T11:21:16Z</time>
      </trkpt>
      <trkpt lat="44.76966" lon="6.2508">
        <ele>2659</ele>
        <time>2017-08-29T11:21:26Z</time>
      </trkpt>
      <trkpt lat="44.76966" lon="6.2508">
        <ele>2659</ele>
        <time>2017-08-29T11:21:35Z</time>
      </trkpt>
      <trkpt lat="44.76966" lon="6.2508">
        <ele>2659</ele>
        <time>2017-08-29T11:21:46Z</time>
      </trkpt>
      <trkpt lat="44.76966" lon="6.2508">
        <ele>2659</ele>
        <time>2017-08-29T11:21:56Z</time>
      </trkpt>
      <trkpt lat="44.76966" lon="6.2508">
        <ele>2659</ele>
        <time>2017-08-29T11:22:05Z</time>
      </trkpt>
      <trkpt lat="44.76966" lon="6.2508">
        <ele>2659</ele>
        <time>2017-08-29T11:22:16Z</time>
      </trkpt>
      <trkpt lat="44.76966" lon="6.2508">
        <ele>2659</ele>
        <time>2017-08-29T11:22:26Z</time>
      </trkpt>
      <trkpt lat="44.76966" lon="6.2508">
        <ele>2659</ele>
        <time>2017-08-29T11:22:35Z</time>
      </trkpt>
      <trkpt lat="44.76966" lon="6.2508">
        <ele>2659</ele>
        <time>2017-08-29T11:22:46Z</time>
      </trkpt>
      <trkpt lat="44.76966" lon="6.2508">
        <ele>2659</ele>
        <time>2017-08-29T11:22:56Z</time>
      </trkpt>
      <trkpt lat="44.76966" lon="6.2508">
        <ele>2659</ele>
        <time>2017-08-29T11:23:05Z</time>
      </trkpt>
      <trkpt lat="44.76966" lon="6.2508">
        <ele>2659</ele>
        <time>2017-08-29T11:23:16Z</time>
      </trkpt>
      <trkpt lat="44.76966" lon="6.2508">
        <ele>2659</ele>
        <time>2017-08-29T11:23:26Z</time>
      </trkpt>
      <trkpt lat="44.76966" lon="6.2508">
        <ele>2659</ele>
        <time>2017-08-29T11:23:35Z</time>
      </trkpt>
      <trkpt lat="44.76966" lon="6.2508">
        <ele>2659</ele>
        <time>2017-08-29T11:23:46Z</time>
      </trkpt>
      <trkpt lat="44.76966" lon="6.2508">
        <ele>2659</ele>
        <time>2017-08-29T11:23:56Z</time>
      </trkpt>
      <trkpt lat="44.76966" lon="6.2508">
        <ele>2659</ele>
        <time>2017-08-29T11:24:05Z</time>
      </trkpt>
      <trkpt lat="44.76966" lon="6.2508">
        <ele>2659</ele>
        <time>2017-08-29T11:24:16Z</time>
      </trkpt>
      <trkpt lat="44.76966" lon="6.2508">
        <ele>2659</ele>
        <time>2017-08-29T11:24:26Z</time>
      </trkpt>
      <trkpt lat="44.76966" lon="6.2508">
        <ele>2659</ele>
        <time>2017-08-29T11:24:35Z</time>
      </trkpt>
      <trkpt lat="44.76966" lon="6.2508">
        <ele>2659</ele>
        <time>2017-08-29T11:24:46Z</time>
      </trkpt>
      <trkpt lat="44.76966" lon="6.2508">
        <ele>2659</ele>
        <time>2017-08-29T11:24:56Z</time>
      </trkpt>
      <trkpt lat="44.76966" lon="6.2508">
        <ele>2659</ele>
        <time>2017-08-29T11:25:05Z</time>
      </trkpt>
      <trkpt lat="44.76966" lon="6.2508">
        <ele>2659</ele>
        <time>2017-08-29T11:25:16Z</time>
      </trkpt>
      <trkpt lat="44.76966" lon="6.2508">
        <ele>2659</ele>
        <time>2017-08-29T11:25:26Z</time>
      </trkpt>
      <trkpt lat="44.76966" lon="6.2508">
        <ele>2659</ele>
        <time>2017-08-29T11:25:35Z</time>
      </trkpt>
      <trkpt lat="44.76966" lon="6.2508">
        <ele>2659</ele>
        <time>2017-08-29T11:25:46Z</time>
      </trkpt>
      <trkpt lat="44.76966" lon="6.2508">
        <ele>2659</ele>
        <time>2017-08-29T11:25:56Z</time>
      </trkpt>
      <trkpt lat="44.76966" lon="6.2508">
        <ele>2659</ele>
        <time>2017-08-29T11:26:05Z</time>
      </trkpt>
      <trkpt lat="44.76966" lon="6.2508">
        <ele>2659</ele>
        <time>2017-08-29T11:26:16Z</time>
      </trkpt>
      <trkpt lat="44.76966" lon="6.2508">
        <ele>2659</ele>
        <time>2017-08-29T11:26:26Z</time>
      </trkpt>
      <trkpt lat="44.76966" lon="6.2508">
        <ele>2659</ele>
        <time>2017-08-29T11:26:35Z</time>
      </trkpt>
      <trkpt lat="44.76966" lon="6.2508">
        <ele>2659</ele>
        <time>2017-08-29T11:26:46Z</time>
      </trkpt>
      <trkpt lat="44.76966" lon="6.2508">
        <ele>2659</ele>
        <time>2017-08-29T11:26:56Z</time>
      </trkpt>
      <trkpt lat="44.76966" lon="6.2508">
        <ele>2659</ele>
        <time>2017-08-29T11:27:05Z</time>
      </trkpt>
      <trkpt lat="44.76966" lon="6.2508">
        <ele>2659</ele>
        <time>2017-08-29T11:27:16Z</time>
      </trkpt>
      <trkpt lat="44.76966" lon="6.2508">
        <ele>2659</ele>
        <time>2017-08-29T11:27:26Z</time>
      </trkpt>
      <trkpt lat="44.76966" lon="6.2508">
        <ele>2659</ele>
        <time>2017-08-29T11:27:35Z</time>
      </trkpt>
      <trkpt lat="44.76966" lon="6.2508">
        <ele>2659</ele>
        <time>2017-08-29T11:27:46Z</time>
      </trkpt>
      <trkpt lat="44.76966" lon="6.2508">
        <ele>2659</ele>
        <time>2017-08-29T11:27:56Z</time>
      </trkpt>
      <trkpt lat="44.76966" lon="6.2508">
        <ele>2659</ele>
        <time>2017-08-29T11:28:05Z</time>
      </trkpt>
      <trkpt lat="44.76966" lon="6.2508">
        <ele>2659</ele>
        <time>2017-08-29T11:28:16Z</time>
      </trkpt>
      <trkpt lat="44.76966" lon="6.2508">
        <ele>2659</ele>
        <time>2017-08-29T11:28:26Z</time>
      </trkpt>
      <trkpt lat="44.76966" lon="6.2508">
        <ele>2659</ele>
        <time>2017-08-29T11:28:35Z</time>
      </trkpt>
      <trkpt lat="44.76966" lon="6.2508">
        <ele>2659</ele>
        <time>2017-08-29T11:28:46Z</time>
      </trkpt>
      <trkpt lat="44.76966" lon="6.2508">
        <ele>2659</ele>
        <time>2017-08-29T11:28:56Z</time>
      </trkpt>
      <trkpt lat="44.76966" lon="6.2508">
        <ele>2659</ele>
        <time>2017-08-29T11:29:05Z</time>
      </trkpt>
      <trkpt lat="44.76966" lon="6.2508">
        <ele>2659</ele>
        <time>2017-08-29T11:29:16Z</time>
      </trkpt>
      <trkpt lat="44.76966" lon="6.2508">
        <ele>2659</ele>
        <time>2017-08-29T11:29:26Z</time>
      </trkpt>
      <trkpt lat="44.76966" lon="6.2508">
        <ele>2659</ele>
        <time>2017-08-29T11:29:35Z</time>
      </trkpt>
      <trkpt lat="44.76966" lon="6.2508">
        <ele>2659</ele>
        <time>2017-08-29T11:29:46Z</time>
      </trkpt>
      <trkpt lat="44.76966" lon="6.2508">
        <ele>2659</ele>
        <time>2017-08-29T11:29:56Z</time>
      </trkpt>
      <trkpt lat="44.76966" lon="6.2508">
        <ele>2659</ele>
        <time>2017-08-29T11:30:05Z</time>
      </trkpt>
      <trkpt lat="44.76966" lon="6.2508">
        <ele>2659</ele>
        <time>2017-08-29T11:30:16Z</time>
      </trkpt>
      <trkpt lat="44.76966" lon="6.2508">
        <ele>2659</ele>
        <time>2017-08-29T11:30:26Z</time>
      </trkpt>
      <trkpt lat="44.76966" lon="6.2508">
        <ele>2659</ele>
        <time>2017-08-29T11:30:35Z</time>
      </trkpt>
      <trkpt lat="44.76966" lon="6.2508">
        <ele>2659</ele>
        <time>2017-08-29T11:30:46Z</time>
      </trkpt>
      <trkpt lat="44.76966" lon="6.2508">
        <ele>2659</ele>
        <time>2017-08-29T11:30:56Z</time>
      </trkpt>
      <trkpt lat="44.76966" lon="6.2508">
        <ele>2659</ele>
        <time>2017-08-29T11:31:05Z</time>
      </trkpt>
      <trkpt lat="44.76966" lon="6.2508">
        <ele>2659</ele>
        <time>2017-08-29T11:31:16Z</time>
      </trkpt>
      <trkpt lat="44.76966" lon="6.2508">
        <ele>2659</ele>
        <time>2017-08-29T11:31:26Z</time>
      </trkpt>
      <trkpt lat="44.76966" lon="6.2508">
        <ele>2659</ele>
        <time>2017-08-29T11:31:35Z</time>
      </trkpt>
      <trkpt lat="44.76966" lon="6.2508">
        <ele>2659</ele>
        <time>2017-08-29T11:31:46Z</time>
      </trkpt>
      <trkpt lat="44.76966" lon="6.2508">
        <ele>2659</ele>
        <time>2017-08-29T11:31:56Z</time>
      </trkpt>
      <trkpt lat="44.76966" lon="6.2508">
        <ele>2659</ele>
        <time>2017-08-29T11:32:05Z</time>
      </trkpt>
      <trkpt lat="44.76966" lon="6.2508">
        <ele>2659</ele>
        <time>2017-08-29T11:32:16Z</time>
      </trkpt>
      <trkpt lat="44.76966" lon="6.2508">
        <ele>2659</ele>
        <time>2017-08-29T11:32:26Z</time>
      </trkpt>
      <trkpt lat="44.76966" lon="6.2508">
        <ele>2659</ele>
        <time>2017-08-29T11:32:35Z</time>
      </trkpt>
      <trkpt lat="44.76966" lon="6.2508">
        <ele>2659</ele>
        <time>2017-08-29T11:32:46Z</time>
      </trkpt>
      <trkpt lat="44.76966" lon="6.2508">
        <ele>2659</ele>
        <time>2017-08-29T11:32:56Z</time>
      </trkpt>
      <trkpt lat="44.76966" lon="6.2508">
        <ele>2659</ele>
        <time>2017-08-29T11:33:05Z</time>
      </trkpt>
      <trkpt lat="44.76966" lon="6.2508">
        <ele>2659</ele>
        <time>2017-08-29T11:33:16Z</time>
      </trkpt>
      <trkpt lat="44.76966" lon="6.2508">
        <ele>2659</ele>
        <time>2017-08-29T11:33:26Z</time>
      </trkpt>
      <trkpt lat="44.76966" lon="6.2508">
        <ele>2659</ele>
        <time>2017-08-29T11:33:35Z</time>
      </trkpt>
      <trkpt lat="44.76966" lon="6.2508">
        <ele>2659</ele>
        <time>2017-08-29T11:33:46Z</time>
      </trkpt>
      <trkpt lat="44.76966" lon="6.2508">
        <ele>2659</ele>
        <time>2017-08-29T11:33:56Z</time>
      </trkpt>
      <trkpt lat="44.76966" lon="6.2508">
        <ele>2659</ele>
        <time>2017-08-29T11:34:05Z</time>
      </trkpt>
      <trkpt lat="44.76966" lon="6.2508">
        <ele>2659</ele>
        <time>2017-08-29T11:34:16Z</time>
      </trkpt>
      <trkpt lat="44.76966" lon="6.2508">
        <ele>2659</ele>
        <time>2017-08-29T11:34:26Z</time>
      </trkpt>
      <trkpt lat="44.76966" lon="6.2508">
        <ele>2659</ele>
        <time>2017-08-29T11:34:35Z</time>
      </trkpt>
      <trkpt lat="44.76966" lon="6.2508">
        <ele>2659</ele>
        <time>2017-08-29T11:34:46Z</time>
      </trkpt>
      <trkpt lat="44.76966" lon="6.2508">
        <ele>2659</ele>
        <time>2017-08-29T11:34:56Z</time>
      </trkpt>
      <trkpt lat="44.76966" lon="6.2508">
        <ele>2659</ele>
        <time>2017-08-29T11:35:05Z</time>
      </trkpt>
      <trkpt lat="44.76966" lon="6.2508">
        <ele>2659</ele>
        <time>2017-08-29T11:35:16Z</time>
      </trkpt>
      <trkpt lat="44.76966" lon="6.2508">
        <ele>2659</ele>
        <time>2017-08-29T11:35:26Z</time>
      </trkpt>
      <trkpt lat="44.76966" lon="6.2508">
        <ele>2659</ele>
        <time>2017-08-29T11:35:35Z</time>
      </trkpt>
      <trkpt lat="44.76966" lon="6.2508">
        <ele>2659</ele>
        <time>2017-08-29T11:35:46Z</time>
      </trkpt>
      <trkpt lat="44.76966" lon="6.2508">
        <ele>2659</ele>
        <time>2017-08-29T11:35:56Z</time>
      </trkpt>
      <trkpt lat="44.76966" lon="6.2508">
        <ele>2659</ele>
        <time>2017-08-29T11:36:05Z</time>
      </trkpt>
      <trkpt lat="44.76966" lon="6.2508">
        <ele>2659</ele>
        <time>2017-08-29T11:36:16Z</time>
      </trkpt>
      <trkpt lat="44.76966" lon="6.2508">
        <ele>2659</ele>
        <time>2017-08-29T11:36:26Z</time>
      </trkpt>
      <trkpt lat="44.76966" lon="6.2508">
        <ele>2659</ele>
        <time>2017-08-29T11:36:35Z</time>
      </trkpt>
      <trkpt lat="44.76966" lon="6.2508">
        <ele>2659</ele>
        <time>2017-08-29T11:36:46Z</time>
      </trkpt>
      <trkpt lat="44.76966" lon="6.2508">
        <ele>2659</ele>
        <time>2017-08-29T11:36:56Z</time>
      </trkpt>
      <trkpt lat="44.76966" lon="6.2508">
        <ele>2659</ele>
        <time>2017-08-29T11:37:05Z</time>
      </trkpt>
      <trkpt lat="44.76966" lon="6.2508">
        <ele>2659</ele>
        <time>2017-08-29T11:37:16Z</time>
      </trkpt>
      <trkpt lat="44.76966" lon="6.2508">
        <ele>2659</ele>
        <time>2017-08-29T11:37:26Z</time>
      </trkpt>
      <trkpt lat="44.76966" lon="6.2508">
        <ele>2659</ele>
        <time>2017-08-29T11:37:35Z</time>
      </trkpt>
      <trkpt lat="44.76966" lon="6.2508">
        <ele>2659</ele>
        <time>2017-08-29T11:37:46Z</time>
      </trkpt>
      <trkpt lat="44.76966" lon="6.2508">
        <ele>2659</ele>
        <time>2017-08-29T11:37:56Z</time>
      </trkpt>
      <trkpt lat="44.76966" lon="6.2508">
        <ele>2659</ele>
        <time>2017-08-29T11:38:05Z</time>
      </trkpt>
      <trkpt lat="44.76966" lon="6.2508">
        <ele>2659</ele>
        <time>2017-08-29T11:38:16Z</time>
      </trkpt>
      <trkpt lat="44.76966" lon="6.2508">
        <ele>2659</ele>
        <time>2017-08-29T11:38:26Z</time>
      </trkpt>
      <trkpt lat="44.76966" lon="6.2508">
        <ele>2659</ele>
        <time>2017-08-29T11:38:35Z</time>
      </trkpt>
      <trkpt lat="44.76966" lon="6.2508">
        <ele>2659</ele>
        <time>2017-08-29T11:38:46Z</time>
      </trkpt>
      <trkpt lat="44.76966" lon="6.2508">
        <ele>2659</ele>
        <time>2017-08-29T11:38:56Z</time>
      </trkpt>
      <trkpt lat="44.76966" lon="6.2508">
        <ele>2659</ele>
        <time>2017-08-29T11:39:05Z</time>
      </trkpt>
      <trkpt lat="44.76966" lon="6.2508">
        <ele>2659</ele>
        <time>2017-08-29T11:39:16Z</time>
      </trkpt>
      <trkpt lat="44.76966" lon="6.2508">
        <ele>2659</ele>
        <time>2017-08-29T11:39:26Z</time>
      </trkpt>
      <trkpt lat="44.76966" lon="6.2508">
        <ele>2659</ele>
        <time>2017-08-29T11:39:35Z</time>
      </trkpt>
      <trkpt lat="44.76966" lon="6.2508">
        <ele>2659</ele>
        <time>2017-08-29T11:39:46Z</time>
      </trkpt>
      <trkpt lat="44.76966" lon="6.2508">
        <ele>2659</ele>
        <time>2017-08-29T11:39:56Z</time>
      </trkpt>
      <trkpt lat="44.76966" lon="6.2508">
        <ele>2659</ele>
        <time>2017-08-29T11:40:05Z</time>
      </trkpt>
      <trkpt lat="44.76966" lon="6.2508">
        <ele>2659</ele>
        <time>2017-08-29T11:40:16Z</time>
      </trkpt>
      <trkpt lat="44.76966" lon="6.2508">
        <ele>2659</ele>
        <time>2017-08-29T11:40:26Z</time>
      </trkpt>
      <trkpt lat="44.76966" lon="6.2508">
        <ele>2659</ele>
        <time>2017-08-29T11:40:35Z</time>
      </trkpt>
      <trkpt lat="44.76966" lon="6.2508">
        <ele>2659</ele>
        <time>2017-08-29T11:40:46Z</time>
      </trkpt>
      <trkpt lat="44.76966" lon="6.2508">
        <ele>2659</ele>
        <time>2017-08-29T11:40:56Z</time>
      </trkpt>
      <trkpt lat="44.76966" lon="6.2508">
        <ele>2659</ele>
        <time>2017-08-29T11:41:05Z</time>
      </trkpt>
      <trkpt lat="44.76966" lon="6.2508">
        <ele>2659</ele>
        <time>2017-08-29T11:41:16Z</time>
      </trkpt>
      <trkpt lat="44.76966" lon="6.2508">
        <ele>2659</ele>
        <time>2017-08-29T11:41:26Z</time>
      </trkpt>
      <trkpt lat="44.76966" lon="6.2508">
        <ele>2659</ele>
        <time>2017-08-29T11:41:35Z</time>
      </trkpt>
      <trkpt lat="44.76966" lon="6.2508">
        <ele>2659</ele>
        <time>2017-08-29T11:41:46Z</time>
      </trkpt>
      <trkpt lat="44.76966" lon="6.2508">
        <ele>2659</ele>
        <time>2017-08-29T11:41:56Z</time>
      </trkpt>
      <trkpt lat="44.76966" lon="6.2508">
        <ele>2659</ele>
        <time>2017-08-29T11:42:05Z</time>
      </trkpt>
      <trkpt lat="44.76966" lon="6.2508">
        <ele>2659</ele>
        <time>2017-08-29T11:42:16Z</time>
      </trkpt>
      <trkpt lat="44.76966" lon="6.2508">
        <ele>2659</ele>
        <time>2017-08-29T11:42:26Z</time>
      </trkpt>
      <trkpt lat="44.76966" lon="6.2508">
        <ele>2659</ele>
        <time>2017-08-29T11:42:35Z</time>
      </trkpt>
      <trkpt lat="44.76966" lon="6.2508">
        <ele>2659</ele>
        <time>2017-08-29T11:42:46Z</time>
      </trkpt>
      <trkpt lat="44.76966" lon="6.2508">
        <ele>2659</ele>
        <time>2017-08-29T11:42:56Z</time>
      </trkpt>
      <trkpt lat="44.76966" lon="6.2508">
        <ele>2659</ele>
        <time>2017-08-29T11:43:05Z</time>
      </trkpt>
      <trkpt lat="44.76966" lon="6.2508">
        <ele>2659</ele>
        <time>2017-08-29T11:43:16Z</time>
      </trkpt>
      <trkpt lat="44.76966" lon="6.2508">
        <ele>2659</ele>
        <time>2017-08-29T11:43:26Z</time>
      </trkpt>
      <trkpt lat="44.76966" lon="6.2508">
        <ele>2659</ele>
        <time>2017-08-29T11:43:35Z</time>
      </trkpt>
      <trkpt lat="44.76966" lon="6.2508">
        <ele>2659</ele>
        <time>2017-08-29T11:43:46Z</time>
      </trkpt>
      <trkpt lat="44.76966" lon="6.2508">
        <ele>2659</ele>
        <time>2017-08-29T11:43:56Z</time>
      </trkpt>
      <trkpt lat="44.76966" lon="6.2508">
        <ele>2659</ele>
        <time>2017-08-29T11:44:05Z</time>
      </trkpt>
      <trkpt lat="44.76966" lon="6.2508">
        <ele>2659</ele>
        <time>2017-08-29T11:44:16Z</time>
      </trkpt>
      <trkpt lat="44.76966" lon="6.2508">
        <ele>2659</ele>
        <time>2017-08-29T11:44:26Z</time>
      </trkpt>
      <trkpt lat="44.76966" lon="6.2508">
        <ele>2659</ele>
        <time>2017-08-29T11:44:35Z</time>
      </trkpt>
      <trkpt lat="44.76966" lon="6.2508">
        <ele>2659</ele>
        <time>2017-08-29T11:44:46Z</time>
      </trkpt>
      <trkpt lat="44.76966" lon="6.2508">
        <ele>2659</ele>
        <time>2017-08-29T11:44:56Z</time>
      </trkpt>
      <trkpt lat="44.76966" lon="6.2508">
        <ele>2659</ele>
        <time>2017-08-29T11:45:05Z</time>
      </trkpt>
      <trkpt lat="44.76966" lon="6.2508">
        <ele>2659</ele>
        <time>2017-08-29T11:45:16Z</time>
      </trkpt>
      <trkpt lat="44.76966" lon="6.2508">
        <ele>2659</ele>
        <time>2017-08-29T11:45:26Z</time>
      </trkpt>
      <trkpt lat="44.76966" lon="6.2508">
        <ele>2659</ele>
        <time>2017-08-29T11:45:35Z</time>
      </trkpt>
      <trkpt lat="44.76966" lon="6.2508">
        <ele>2659</ele>
        <time>2017-08-29T11:45:46Z</time>
      </trkpt>
      <trkpt lat="44.76966" lon="6.2508">
        <ele>2659</ele>
        <time>2017-08-29T11:45:56Z</time>
      </trkpt>
      <trkpt lat="44.76966" lon="6.2508">
        <ele>2659</ele>
        <time>2017-08-29T11:46:05Z</time>
      </trkpt>
      <trkpt lat="44.76966" lon="6.2508">
        <ele>2659</ele>
        <time>2017-08-29T11:46:16Z</time>
      </trkpt>
      <trkpt lat="44.76966" lon="6.2508">
        <ele>2659</ele>
        <time>2017-08-29T11:46:26Z</time>
      </trkpt>
      <trkpt lat="44.76966" lon="6.2508">
        <ele>2659</ele>
        <time>2017-08-29T11:46:35Z</time>
      </trkpt>
      <trkpt lat="44.76966" lon="6.2508">
        <ele>2659</ele>
        <time>2017-08-29T11:46:46Z</time>
      </trkpt>
      <trkpt lat="44.76966" lon="6.2508">
        <ele>2659</ele>
        <time>2017-08-29T11:46:56Z</time>
      </trkpt>
      <trkpt lat="44.76966" lon="6.2508">
        <ele>2659</ele>
        <time>2017-08-29T11:47:05Z</time>
      </trkpt>
      <trkpt lat="44.76966" lon="6.2508">
        <ele>2659</ele>
        <time>2017-08-29T11:47:16Z</time>
      </trkpt>
      <trkpt lat="44.76966" lon="6.2508">
        <ele>2659</ele>
        <time>2017-08-29T11:47:26Z</time>
      </trkpt>
      <trkpt lat="44.76966" lon="6.2508">
        <ele>2659</ele>
        <time>2017-08-29T11:47:35Z</time>
      </trkpt>
      <trkpt lat="44.76966" lon="6.2508">
        <ele>2659</ele>
        <time>2017-08-29T11:47:46Z</time>
      </trkpt>
      <trkpt lat="44.76966" lon="6.2508">
        <ele>2659</ele>
        <time>2017-08-29T11:47:56Z</time>
      </trkpt>
      <trkpt lat="44.76966" lon="6.2508">
        <ele>2659</ele>
        <time>2017-08-29T11:48:05Z</time>
      </trkpt>
      <trkpt lat="44.76966" lon="6.2508">
        <ele>2659</ele>
        <time>2017-08-29T11:48:16Z</time>
      </trkpt>
      <trkpt lat="44.76966" lon="6.2508">
        <ele>2659</ele>
        <time>2017-08-29T11:48:26Z</time>
      </trkpt>
      <trkpt lat="44.76966" lon="6.2508">
        <ele>2659</ele>
        <time>2017-08-29T11:48:35Z</time>
      </trkpt>
      <trkpt lat="44.76966" lon="6.2508">
        <ele>2659</ele>
        <time>2017-08-29T11:48:46Z</time>
      </trkpt>
      <trkpt lat="44.76966" lon="6.2508">
        <ele>2659</ele>
        <time>2017-08-29T11:48:56Z</time>
      </trkpt>
      <trkpt lat="44.76966" lon="6.2508">
        <ele>2659</ele>
        <time>2017-08-29T11:49:05Z</time>
      </trkpt>
      <trkpt lat="44.76966" lon="6.2508">
        <ele>2659</ele>
        <time>2017-08-29T11:49:16Z</time>
      </trkpt>
      <trkpt lat="44.76966" lon="6.2508">
        <ele>2659</ele>
        <time>2017-08-29T11:49:26Z</time>
      </trkpt>
      <trkpt lat="44.76966" lon="6.2508">
        <ele>2659</ele>
        <time>2017-08-29T11:49:35Z</time>
      </trkpt>
      <trkpt lat="44.76966" lon="6.2508">
        <ele>2659</ele>
        <time>2017-08-29T11:49:46Z</time>
      </trkpt>
      <trkpt lat="44.76966" lon="6.2508">
        <ele>2659</ele>
        <time>2017-08-29T11:49:56Z</time>
      </trkpt>
      <trkpt lat="44.76966" lon="6.2508">
        <ele>2659</ele>
        <time>2017-08-29T11:50:05Z</time>
      </trkpt>
      <trkpt lat="44.76966" lon="6.2508">
        <ele>2659</ele>
        <time>2017-08-29T11:50:16Z</time>
      </trkpt>
      <trkpt lat="44.76966" lon="6.2508">
        <ele>2659</ele>
        <time>2017-08-29T11:50:26Z</time>
      </trkpt>
      <trkpt lat="44.76966" lon="6.2508">
        <ele>2659</ele>
        <time>2017-08-29T11:50:35Z</time>
      </trkpt>
      <trkpt lat="44.76966" lon="6.2508">
        <ele>2659</ele>
        <time>2017-08-29T11:50:46Z</time>
      </trkpt>
      <trkpt lat="44.76966" lon="6.2508">
        <ele>2659</ele>
        <time>2017-08-29T11:50:56Z</time>
      </trkpt>
      <trkpt lat="44.76966" lon="6.2508">
        <ele>2659</ele>
        <time>2017-08-29T11:51:05Z</time>
      </trkpt>
      <trkpt lat="44.76966" lon="6.2508">
        <ele>2659</ele>
        <time>2017-08-29T11:51:16Z</time>
      </trkpt>
      <trkpt lat="44.76966" lon="6.2508">
        <ele>2659</ele>
        <time>2017-08-29T11:51:26Z</time>
      </trkpt>
      <trkpt lat="44.76966" lon="6.2508">
        <ele>2659</ele>
        <time>2017-08-29T11:51:35Z</time>
      </trkpt>
      <trkpt lat="44.76966" lon="6.2508">
        <ele>2659</ele>
        <time>2017-08-29T11:51:46Z</time>
      </trkpt>
      <trkpt lat="44.76966" lon="6.2508">
        <ele>2659</ele>
        <time>2017-08-29T11:51:56Z</time>
      </trkpt>
      <trkpt lat="44.76966" lon="6.2508">
        <ele>2659</ele>
        <time>2017-08-29T11:52:05Z</time>
      </trkpt>
      <trkpt lat="44.76966" lon="6.2508">
        <ele>2659</ele>
        <time>2017-08-29T11:52:16Z</time>
      </trkpt>
      <trkpt lat="44.76966" lon="6.2508">
        <ele>2659</ele>
        <time>2017-08-29T11:52:26Z</time>
      </trkpt>
      <trkpt lat="44.76966" lon="6.2508">
        <ele>2659</ele>
        <time>2017-08-29T11:52:35Z</time>
      </trkpt>
      <trkpt lat="44.76966" lon="6.2508">
        <ele>2659</ele>
        <time>2017-08-29T11:52:46Z</time>
      </trkpt>
      <trkpt lat="44.76966" lon="6.2508">
        <ele>2659</ele>
        <time>2017-08-29T11:52:56Z</time>
      </trkpt>
      <trkpt lat="44.76966" lon="6.2508">
        <ele>2659</ele>
        <time>2017-08-29T11:53:05Z</time>
      </trkpt>
      <trkpt lat="44.76966" lon="6.2508">
        <ele>2659</ele>
        <time>2017-08-29T11:53:16Z</time>
      </trkpt>
      <trkpt lat="44.76966" lon="6.2508">
        <ele>2659</ele>
        <time>2017-08-29T11:53:26Z</time>
      </trkpt>
      <trkpt lat="44.76966" lon="6.2508">
        <ele>2659</ele>
        <time>2017-08-29T11:53:35Z</time>
      </trkpt>
      <trkpt lat="44.76966" lon="6.2508">
        <ele>2659</ele>
        <time>2017-08-29T11:53:46Z</time>
      </trkpt>
      <trkpt lat="44.76966" lon="6.2508">
        <ele>2659</ele>
        <time>2017-08-29T11:53:56Z</time>
      </trkpt>
      <trkpt lat="44.76966" lon="6.2508">
        <ele>2659</ele>
        <time>2017-08-29T11:54:05Z</time>
      </trkpt>
      <trkpt lat="44.76966" lon="6.2508">
        <ele>2659</ele>
        <time>2017-08-29T11:54:16Z</time>
      </trkpt>
      <trkpt lat="44.76966" lon="6.2508">
        <ele>2659</ele>
        <time>2017-08-29T11:54:26Z</time>
      </trkpt>
      <trkpt lat="44.76966" lon="6.2508">
        <ele>2659</ele>
        <time>2017-08-29T11:54:35Z</time>
      </trkpt>
      <trkpt lat="44.76966" lon="6.2508">
        <ele>2659</ele>
        <time>2017-08-29T11:54:46Z</time>
      </trkpt>
      <trkpt lat="44.76966" lon="6.2508">
        <ele>2659</ele>
        <time>2017-08-29T11:54:56Z</time>
      </trkpt>
      <trkpt lat="44.76966" lon="6.2508">
        <ele>2659</ele>
        <time>2017-08-29T11:55:05Z</time>
      </trkpt>
      <trkpt lat="44.76966" lon="6.2508">
        <ele>2659</ele>
        <time>2017-08-29T11:55:16Z</time>
      </trkpt>
      <trkpt lat="44.76966" lon="6.2508">
        <ele>2659</ele>
        <time>2017-08-29T11:55:26Z</time>
      </trkpt>
      <trkpt lat="44.76966" lon="6.2508">
        <ele>2659</ele>
        <time>2017-08-29T11:55:35Z</time>
      </trkpt>
      <trkpt lat="44.76966" lon="6.2508">
        <ele>2659</ele>
        <time>2017-08-29T11:55:46Z</time>
      </trkpt>
      <trkpt lat="44.76966" lon="6.2508">
        <ele>2659</ele>
        <time>2017-08-29T11:55:56Z</time>
      </trkpt>
      <trkpt lat="44.76966" lon="6.2508">
        <ele>2659</ele>
        <time>2017-08-29T11:56:05Z</time>
      </trkpt>
      <trkpt lat="44.76966" lon="6.2508">
        <ele>2659</ele>
        <time>2017-08-29T11:56:16Z</time>
      </trkpt>
      <trkpt lat="44.76966" lon="6.2508">
        <ele>2659</ele>
        <time>2017-08-29T11:56:26Z</time>
      </trkpt>
      <trkpt lat="44.76966" lon="6.2508">
        <ele>2659</ele>
        <time>2017-08-29T11:56:35Z</time>
      </trkpt>
      <trkpt lat="44.76966" lon="6.2508">
        <ele>2659</ele>
        <time>2017-08-29T11:56:46Z</time>
      </trkpt>
      <trkpt lat="44.76966" lon="6.2508">
        <ele>2659</ele>
        <time>2017-08-29T11:56:56Z</time>
      </trkpt>
      <trkpt lat="44.76966" lon="6.2508">
        <ele>2659</ele>
        <time>2017-08-29T11:57:05Z</time>
      </trkpt>
      <trkpt lat="44.76966" lon="6.2508">
        <ele>2659</ele>
        <time>2017-08-29T11:57:16Z</time>
      </trkpt>
      <trkpt lat="44.76966" lon="6.2508">
        <ele>2659</ele>
        <time>2017-08-29T11:57:26Z</time>
      </trkpt>
      <trkpt lat="44.76966" lon="6.2508">
        <ele>2659</ele>
        <time>2017-08-29T11:57:35Z</time>
      </trkpt>
      <trkpt lat="44.76966" lon="6.2508">
        <ele>2659</ele>
        <time>2017-08-29T11:57:46Z</time>
      </trkpt>
      <trkpt lat="44.76966" lon="6.2508">
        <ele>2659</ele>
        <time>2017-08-29T11:57:56Z</time>
      </trkpt>
      <trkpt lat="44.76966" lon="6.2508">
        <ele>2659</ele>
        <time>2017-08-29T11:58:05Z</time>
      </trkpt>
      <trkpt lat="44.76966" lon="6.2508">
        <ele>2659</ele>
        <time>2017-08-29T11:58:16Z</time>
      </trkpt>
      <trkpt lat="44.76966" lon="6.2508">
        <ele>2659</ele>
        <time>2017-08-29T11:58:26Z</time>
      </trkpt>
      <trkpt lat="44.76966" lon="6.2508">
        <ele>2659</ele>
        <time>2017-08-29T11:58:35Z</time>
      </trkpt>
      <trkpt lat="44.76966" lon="6.2508">
        <ele>2659</ele>
        <time>2017-08-29T11:58:46Z</time>
      </trkpt>
      <trkpt lat="44.76966" lon="6.2508">
        <ele>2659</ele>
        <time>2017-08-29T11:58:56Z</time>
      </trkpt>
      <trkpt lat="44.76966" lon="6.2508">
        <ele>2659</ele>
        <time>2017-08-29T11:59:05Z</time>
      </trkpt>
      <trkpt lat="44.76966" lon="6.2508">
        <ele>2659</ele>
        <time>2017-08-29T11:59:16Z</time>
      </trkpt>
      <trkpt lat="44.76966" lon="6.2508">
        <ele>2659</ele>
        <time>2017-08-29T11:59:26Z</time>
      </trkpt>
      <trkpt lat="44.76966" lon="6.2508">
        <ele>2659</ele>
        <time>2017-08-29T11:59:35Z</time>
      </trkpt>
      <trkpt lat="44.76966" lon="6.2508">
        <ele>2659</ele>
        <time>2017-08-29T11:59:46Z</time>
      </trkpt>
      <trkpt lat="44.76966" lon="6.2508">
        <ele>2659</ele>
        <time>2017-08-29T11:59:56Z</time>
      </trkpt>
      <trkpt lat="44.76966" lon="6.2508">
        <ele>2659</ele>
        <time>2017-08-29T12:00:05Z</time>
      </trkpt>
      <trkpt lat="44.76966" lon="6.2508">
        <ele>2659</ele>
        <time>2017-08-29T12:00:16Z</time>
      </trkpt>
      <trkpt lat="44.76966" lon="6.2508">
        <ele>2659</ele>
        <time>2017-08-29T12:00:26Z</time>
      </trkpt>
      <trkpt lat="44.76966" lon="6.2508">
        <ele>2659</ele>
        <time>2017-08-29T12:00:35Z</time>
      </trkpt>
      <trkpt lat="44.76966" lon="6.2508">
        <ele>2659</ele>
        <time>2017-08-29T12:00:46Z</time>
      </trkpt>
      <trkpt lat="44.76966" lon="6.2508">
        <ele>2659</ele>
        <time>2017-08-29T12:00:56Z</time>
      </trkpt>
      <trkpt lat="44.76966" lon="6.2508">
        <ele>2659</ele>
        <time>2017-08-29T12:01:05Z</time>
      </trkpt>
      <trkpt lat="44.76966" lon="6.2508">
        <ele>2659</ele>
        <time>2017-08-29T12:01:16Z</time>
      </trkpt>
      <trkpt lat="44.76966" lon="6.2508">
        <ele>2659</ele>
        <time>2017-08-29T12:01:26Z</time>
      </trkpt>
      <trkpt lat="44.76966" lon="6.2508">
        <ele>2659</ele>
        <time>2017-08-29T12:01:35Z</time>
      </trkpt>
      <trkpt lat="44.76966" lon="6.2508">
        <ele>2659</ele>
        <time>2017-08-29T12:01:46Z</time>
      </trkpt>
      <trkpt lat="44.76966" lon="6.2508">
        <ele>2659</ele>
        <time>2017-08-29T12:01:56Z</time>
      </trkpt>
      <trkpt lat="44.76966" lon="6.2508">
        <ele>2659</ele>
        <time>2017-08-29T12:02:05Z</time>
      </trkpt>
      <trkpt lat="44.76966" lon="6.2508">
        <ele>2659</ele>
        <time>2017-08-29T12:02:16Z</time>
      </trkpt>
      <trkpt lat="44.76966" lon="6.2508">
        <ele>2659</ele>
        <time>2017-08-29T12:02:26Z</time>
      </trkpt>
      <trkpt lat="44.76966" lon="6.2508">
        <ele>2659</ele>
        <time>2017-08-29T12:02:35Z</time>
      </trkpt>
      <trkpt lat="44.76966" lon="6.2508">
        <ele>2659</ele>
        <time>2017-08-29T12:02:46Z</time>
      </trkpt>
      <trkpt lat="44.76966" lon="6.2508">
        <ele>2659</ele>
        <time>2017-08-29T12:02:56Z</time>
      </trkpt>
      <trkpt lat="44.76966" lon="6.2508">
        <ele>2659</ele>
        <time>2017-08-29T12:03:05Z</time>
      </trkpt>
      <trkpt lat="44.76966" lon="6.2508">
        <ele>2659</ele>
        <time>2017-08-29T12:03:16Z</time>
      </trkpt>
      <trkpt lat="44.7693" lon="6.25098">
        <ele>2655</ele>
        <time>2017-08-29T12:03:26Z</time>
      </trkpt>
      <trkpt lat="44.7693" lon="6.25098">
        <ele>2655</ele>
        <time>2017-08-29T12:03:35Z</time>
      </trkpt>
      <trkpt lat="44.7693" lon="6.25098">
        <ele>2655</ele>
        <time>2017-08-29T12:03:46Z</time>
      </trkpt>
      <trkpt lat="44.7693" lon="6.25098">
        <ele>2655</ele>
        <time>2017-08-29T12:03:56Z</time>
      </trkpt>
      <trkpt lat="44.7693" lon="6.25098">
        <ele>2655</ele>
        <time>2017-08-29T12:04:05Z</time>
      </trkpt>
      <trkpt lat="44.7693" lon="6.25098">
        <ele>2655</ele>
        <time>2017-08-29T12:04:16Z</time>
      </trkpt>
      <trkpt lat="44.7693" lon="6.25098">
        <ele>2655</ele>
        <time>2017-08-29T12:04:26Z</time>
      </trkpt>
      <trkpt lat="44.7693" lon="6.25098">
        <ele>2655</ele>
        <time>2017-08-29T12:04:35Z</time>
      </trkpt>
      <trkpt lat="44.7693" lon="6.25098">
        <ele>2655</ele>
        <time>2017-08-29T12:04:46Z</time>
      </trkpt>
      <trkpt lat="44.7693" lon="6.25098">
        <ele>2655</ele>
        <time>2017-08-29T12:04:56Z</time>
      </trkpt>
      <trkpt lat="44.7693" lon="6.25098">
        <ele>2655</ele>
        <time>2017-08-29T12:05:05Z</time>
      </trkpt>
      <trkpt lat="44.7693" lon="6.25098">
        <ele>2655</ele>
        <time>2017-08-29T12:05:16Z</time>
      </trkpt>
      <trkpt lat="44.7693" lon="6.25098">
        <ele>2655</ele>
        <time>2017-08-29T12:05:26Z</time>
      </trkpt>
      <trkpt lat="44.7693" lon="6.25098">
        <ele>2655</ele>
        <time>2017-08-29T12:05:35Z</time>
      </trkpt>
      <trkpt lat="44.7693" lon="6.25098">
        <ele>2655</ele>
        <time>2017-08-29T12:05:46Z</time>
      </trkpt>
      <trkpt lat="44.7693" lon="6.25098">
        <ele>2655</ele>
        <time>2017-08-29T12:05:56Z</time>
      </trkpt>
      <trkpt lat="44.7693" lon="6.25098">
        <ele>2655</ele>
        <time>2017-08-29T12:06:05Z</time>
      </trkpt>
      <trkpt lat="44.7693" lon="6.25098">
        <ele>2655</ele>
        <time>2017-08-29T12:06:16Z</time>
      </trkpt>
      <trkpt lat="44.7693" lon="6.25098">
        <ele>2655</ele>
        <time>2017-08-29T12:06:26Z</time>
      </trkpt>
      <trkpt lat="44.76903" lon="6.25135">
        <ele>2657</ele>
        <time>2017-08-29T12:06:35Z</time>
      </trkpt>
      <trkpt lat="44.76903" lon="6.25135">
        <ele>2657</ele>
        <time>2017-08-29T12:06:46Z</time>
      </trkpt>
      <trkpt lat="44.76903" lon="6.25135">
        <ele>2657</ele>
        <time>2017-08-29T12:06:56Z</time>
      </trkpt>
      <trkpt lat="44.76903" lon="6.25135">
        <ele>2657</ele>
        <time>2017-08-29T12:07:05Z</time>
      </trkpt>
      <trkpt lat="44.76903" lon="6.25135">
        <ele>2657</ele>
        <time>2017-08-29T12:07:16Z</time>
      </trkpt>
      <trkpt lat="44.76903" lon="6.25135">
        <ele>2657</ele>
        <time>2017-08-29T12:07:26Z</time>
      </trkpt>
      <trkpt lat="44.76903" lon="6.25135">
        <ele>2657</ele>
        <time>2017-08-29T12:07:35Z</time>
      </trkpt>
      <trkpt lat="44.76903" lon="6.25135">
        <ele>2657</ele>
        <time>2017-08-29T12:07:46Z</time>
      </trkpt>
      <trkpt lat="44.76903" lon="6.25135">
        <ele>2657</ele>
        <time>2017-08-29T12:07:56Z</time>
      </trkpt>
      <trkpt lat="44.76903" lon="6.25135">
        <ele>2657</ele>
        <time>2017-08-29T12:08:05Z</time>
      </trkpt>
      <trkpt lat="44.76903" lon="6.25135">
        <ele>2657</ele>
        <time>2017-08-29T12:08:16Z</time>
      </trkpt>
      <trkpt lat="44.76903" lon="6.25135">
        <ele>2657</ele>
        <time>2017-08-29T12:08:26Z</time>
      </trkpt>
      <trkpt lat="44.76903" lon="6.25135">
        <ele>2657</ele>
        <time>2017-08-29T12:08:35Z</time>
      </trkpt>
      <trkpt lat="44.7687" lon="6.25145">
        <ele>2639</ele>
        <time>2017-08-29T12:08:46Z</time>
      </trkpt>
      <trkpt lat="44.7687" lon="6.25146">
        <ele>2639</ele>
        <time>2017-08-29T12:08:56Z</time>
      </trkpt>
      <trkpt lat="44.7687" lon="6.25146">
        <ele>2639</ele>
        <time>2017-08-29T12:09:05Z</time>
      </trkpt>
      <trkpt lat="44.7687" lon="6.25146">
        <ele>2639</ele>
        <time>2017-08-29T12:09:16Z</time>
      </trkpt>
      <trkpt lat="44.7687" lon="6.25146">
        <ele>2639</ele>
        <time>2017-08-29T12:09:26Z</time>
      </trkpt>
      <trkpt lat="44.7687" lon="6.25146">
        <ele>2639</ele>
        <time>2017-08-29T12:09:35Z</time>
      </trkpt>
      <trkpt lat="44.7687" lon="6.25146">
        <ele>2639</ele>
        <time>2017-08-29T12:09:46Z</time>
      </trkpt>
      <trkpt lat="44.76875" lon="6.252">
        <ele>2631</ele>
        <time>2017-08-29T12:09:56Z</time>
      </trkpt>
      <trkpt lat="44.76875" lon="6.252">
        <ele>2631</ele>
        <time>2017-08-29T12:10:05Z</time>
      </trkpt>
      <trkpt lat="44.76875" lon="6.252">
        <ele>2631</ele>
        <time>2017-08-29T12:10:16Z</time>
      </trkpt>
      <trkpt lat="44.76875" lon="6.252">
        <ele>2631</ele>
        <time>2017-08-29T12:10:26Z</time>
      </trkpt>
      <trkpt lat="44.76875" lon="6.252">
        <ele>2631</ele>
        <time>2017-08-29T12:10:35Z</time>
      </trkpt>
      <trkpt lat="44.76875" lon="6.252">
        <ele>2631</ele>
        <time>2017-08-29T12:10:46Z</time>
      </trkpt>
      <trkpt lat="44.76875" lon="6.252">
        <ele>2631</ele>
        <time>2017-08-29T12:10:56Z</time>
      </trkpt>
      <trkpt lat="44.76859" lon="6.25247">
        <ele>2618</ele>
        <time>2017-08-29T12:11:05Z</time>
      </trkpt>
      <trkpt lat="44.76859" lon="6.25247">
        <ele>2618</ele>
        <time>2017-08-29T12:11:16Z</time>
      </trkpt>
      <trkpt lat="44.76859" lon="6.25247">
        <ele>2618</ele>
        <time>2017-08-29T12:11:26Z</time>
      </trkpt>
      <trkpt lat="44.76859" lon="6.25247">
        <ele>2618</ele>
        <time>2017-08-29T12:11:35Z</time>
      </trkpt>
      <trkpt lat="44.76839" lon="6.25291">
        <ele>2611</ele>
        <time>2017-08-29T12:11:46Z</time>
      </trkpt>
      <trkpt lat="44.76838" lon="6.25292">
        <ele>2611</ele>
        <time>2017-08-29T12:11:56Z</time>
      </trkpt>
      <trkpt lat="44.76838" lon="6.25292">
        <ele>2611</ele>
        <time>2017-08-29T12:12:05Z</time>
      </trkpt>
      <trkpt lat="44.76838" lon="6.25292">
        <ele>2611</ele>
        <time>2017-08-29T12:12:16Z</time>
      </trkpt>
      <trkpt lat="44.76838" lon="6.25292">
        <ele>2611</ele>
        <time>2017-08-29T12:12:26Z</time>
      </trkpt>
      <trkpt lat="44.76805" lon="6.25324">
        <ele>2610</ele>
        <time>2017-08-29T12:12:35Z</time>
      </trkpt>
      <trkpt lat="44.76805" lon="6.25324">
        <ele>2610</ele>
        <time>2017-08-29T12:12:46Z</time>
      </trkpt>
      <trkpt lat="44.76805" lon="6.25324">
        <ele>2610</ele>
        <time>2017-08-29T12:12:56Z</time>
      </trkpt>
      <trkpt lat="44.76805" lon="6.25324">
        <ele>2610</ele>
        <time>2017-08-29T12:13:05Z</time>
      </trkpt>
      <trkpt lat="44.76771" lon="6.25347">
        <ele>2604</ele>
        <time>2017-08-29T12:13:16Z</time>
      </trkpt>
      <trkpt lat="44.76771" lon="6.25347">
        <ele>2604</ele>
        <time>2017-08-29T12:13:26Z</time>
      </trkpt>
      <trkpt lat="44.76771" lon="6.25347">
        <ele>2604</ele>
        <time>2017-08-29T12:13:35Z</time>
      </trkpt>
      <trkpt lat="44.76771" lon="6.25347">
        <ele>2604</ele>
        <time>2017-08-29T12:13:46Z</time>
      </trkpt>
      <trkpt lat="44.76737" lon="6.25377">
        <ele>2605</ele>
        <time>2017-08-29T12:13:56Z</time>
      </trkpt>
      <trkpt lat="44.76737" lon="6.25377">
        <ele>2605</ele>
        <time>2017-08-29T12:14:05Z</time>
      </trkpt>
      <trkpt lat="44.76737" lon="6.25377">
        <ele>2605</ele>
        <time>2017-08-29T12:14:16Z</time>
      </trkpt>
      <trkpt lat="44.76737" lon="6.25377">
        <ele>2605</ele>
        <time>2017-08-29T12:14:26Z</time>
      </trkpt>
      <trkpt lat="44.76737" lon="6.25377">
        <ele>2605</ele>
        <time>2017-08-29T12:14:35Z</time>
      </trkpt>
      <trkpt lat="44.76702" lon="6.25363">
        <ele>2605</ele>
        <time>2017-08-29T12:14:46Z</time>
      </trkpt>
      <trkpt lat="44.76702" lon="6.25363">
        <ele>2605</ele>
        <time>2017-08-29T12:14:56Z</time>
      </trkpt>
      <trkpt lat="44.76702" lon="6.25363">
        <ele>2605</ele>
        <time>2017-08-29T12:15:05Z</time>
      </trkpt>
      <trkpt lat="44.76702" lon="6.25363">
        <ele>2605</ele>
        <time>2017-08-29T12:15:16Z</time>
      </trkpt>
      <trkpt lat="44.76702" lon="6.25363">
        <ele>2605</ele>
        <time>2017-08-29T12:15:26Z</time>
      </trkpt>
      <trkpt lat="44.76702" lon="6.25363">
        <ele>2605</ele>
        <time>2017-08-29T12:15:35Z</time>
      </trkpt>
      <trkpt lat="44.76702" lon="6.25363">
        <ele>2605</ele>
        <time>2017-08-29T12:15:46Z</time>
      </trkpt>
      <trkpt lat="44.76702" lon="6.25363">
        <ele>2605</ele>
        <time>2017-08-29T12:15:56Z</time>
      </trkpt>
      <trkpt lat="44.76668" lon="6.25372">
        <ele>2594</ele>
        <time>2017-08-29T12:16:05Z</time>
      </trkpt>
      <trkpt lat="44.76666" lon="6.25373">
        <ele>2594</ele>
        <time>2017-08-29T12:16:16Z</time>
      </trkpt>
      <trkpt lat="44.76666" lon="6.25373">
        <ele>2594</ele>
        <time>2017-08-29T12:16:26Z</time>
      </trkpt>
      <trkpt lat="44.76666" lon="6.25373">
        <ele>2594</ele>
        <time>2017-08-29T12:16:35Z</time>
      </trkpt>
      <trkpt lat="44.76666" lon="6.25373">
        <ele>2594</ele>
        <time>2017-08-29T12:16:46Z</time>
      </trkpt>
      <trkpt lat="44.76666" lon="6.25373">
        <ele>2594</ele>
        <time>2017-08-29T12:16:56Z</time>
      </trkpt>
      <trkpt lat="44.76666" lon="6.25373">
        <ele>2594</ele>
        <time>2017-08-29T12:17:05Z</time>
      </trkpt>
      <trkpt lat="44.76666" lon="6.25373">
        <ele>2594</ele>
        <time>2017-08-29T12:17:16Z</time>
      </trkpt>
      <trkpt lat="44.76666" lon="6.25373">
        <ele>2594</ele>
        <time>2017-08-29T12:17:26Z</time>
      </trkpt>
      <trkpt lat="44.76666" lon="6.25373">
        <ele>2594</ele>
        <time>2017-08-29T12:17:35Z</time>
      </trkpt>
      <trkpt lat="44.76666" lon="6.25373">
        <ele>2594</ele>
        <time>2017-08-29T12:17:46Z</time>
      </trkpt>
      <trkpt lat="44.76666" lon="6.25373">
        <ele>2594</ele>
        <time>2017-08-29T12:17:56Z</time>
      </trkpt>
      <trkpt lat="44.76642" lon="6.25346">
        <ele>2570</ele>
        <time>2017-08-29T12:18:05Z</time>
      </trkpt>
      <trkpt lat="44.76642" lon="6.25346">
        <ele>2569</ele>
        <time>2017-08-29T12:18:16Z</time>
      </trkpt>
      <trkpt lat="44.76642" lon="6.25346">
        <ele>2569</ele>
        <time>2017-08-29T12:18:26Z</time>
      </trkpt>
      <trkpt lat="44.76642" lon="6.25346">
        <ele>2569</ele>
        <time>2017-08-29T12:18:35Z</time>
      </trkpt>
      <trkpt lat="44.76642" lon="6.25346">
        <ele>2569</ele>
        <time>2017-08-29T12:18:46Z</time>
      </trkpt>
      <trkpt lat="44.76642" lon="6.25346">
        <ele>2569</ele>
        <time>2017-08-29T12:18:56Z</time>
      </trkpt>
      <trkpt lat="44.76642" lon="6.25346">
        <ele>2569</ele>
        <time>2017-08-29T12:19:05Z</time>
      </trkpt>
      <trkpt lat="44.76607" lon="6.25361">
        <ele>2557</ele>
        <time>2017-08-29T12:19:16Z</time>
      </trkpt>
      <trkpt lat="44.76606" lon="6.25361">
        <ele>2557</ele>
        <time>2017-08-29T12:19:26Z</time>
      </trkpt>
      <trkpt lat="44.76606" lon="6.25361">
        <ele>2557</ele>
        <time>2017-08-29T12:19:35Z</time>
      </trkpt>
      <trkpt lat="44.76606" lon="6.25361">
        <ele>2557</ele>
        <time>2017-08-29T12:19:46Z</time>
      </trkpt>
      <trkpt lat="44.76606" lon="6.25361">
        <ele>2557</ele>
        <time>2017-08-29T12:19:56Z</time>
      </trkpt>
      <trkpt lat="44.76606" lon="6.25361">
        <ele>2557</ele>
        <time>2017-08-29T12:20:05Z</time>
      </trkpt>
      <trkpt lat="44.76606" lon="6.25361">
        <ele>2557</ele>
        <time>2017-08-29T12:20:16Z</time>
      </trkpt>
      <trkpt lat="44.76606" lon="6.25361">
        <ele>2557</ele>
        <time>2017-08-29T12:20:26Z</time>
      </trkpt>
      <trkpt lat="44.7657" lon="6.25353">
        <ele>2543</ele>
        <time>2017-08-29T12:20:35Z</time>
      </trkpt>
      <trkpt lat="44.7657" lon="6.25353">
        <ele>2543</ele>
        <time>2017-08-29T12:20:46Z</time>
      </trkpt>
      <trkpt lat="44.7657" lon="6.25353">
        <ele>2543</ele>
        <time>2017-08-29T12:20:56Z</time>
      </trkpt>
      <trkpt lat="44.7657" lon="6.25353">
        <ele>2543</ele>
        <time>2017-08-29T12:21:05Z</time>
      </trkpt>
      <trkpt lat="44.7657" lon="6.25353">
        <ele>2543</ele>
        <time>2017-08-29T12:21:16Z</time>
      </trkpt>
      <trkpt lat="44.7657" lon="6.25353">
        <ele>2543</ele>
        <time>2017-08-29T12:21:26Z</time>
      </trkpt>
      <trkpt lat="44.7655" lon="6.25323">
        <ele>2532</ele>
        <time>2017-08-29T12:21:35Z</time>
      </trkpt>
      <trkpt lat="44.7655" lon="6.25323">
        <ele>2532</ele>
        <time>2017-08-29T12:21:46Z</time>
      </trkpt>
      <trkpt lat="44.7655" lon="6.25323">
        <ele>2532</ele>
        <time>2017-08-29T12:21:56Z</time>
      </trkpt>
      <trkpt lat="44.7655" lon="6.25323">
        <ele>2532</ele>
        <time>2017-08-29T12:22:05Z</time>
      </trkpt>
      <trkpt lat="44.7655" lon="6.25323">
        <ele>2532</ele>
        <time>2017-08-29T12:22:16Z</time>
      </trkpt>
      <trkpt lat="44.7655" lon="6.25323">
        <ele>2532</ele>
        <time>2017-08-29T12:22:26Z</time>
      </trkpt>
      <trkpt lat="44.7655" lon="6.25323">
        <ele>2532</ele>
        <time>2017-08-29T12:22:35Z</time>
      </trkpt>
      <trkpt lat="44.7655" lon="6.25323">
        <ele>2532</ele>
        <time>2017-08-29T12:22:46Z</time>
      </trkpt>
      <trkpt lat="44.7655" lon="6.25323">
        <ele>2532</ele>
        <time>2017-08-29T12:22:56Z</time>
      </trkpt>
      <trkpt lat="44.7655" lon="6.25323">
        <ele>2532</ele>
        <time>2017-08-29T12:23:05Z</time>
      </trkpt>
      <trkpt lat="44.7652" lon="6.25296">
        <ele>2516</ele>
        <time>2017-08-29T12:23:16Z</time>
      </trkpt>
      <trkpt lat="44.7652" lon="6.25296">
        <ele>2516</ele>
        <time>2017-08-29T12:23:26Z</time>
      </trkpt>
      <trkpt lat="44.7652" lon="6.25296">
        <ele>2516</ele>
        <time>2017-08-29T12:23:35Z</time>
      </trkpt>
      <trkpt lat="44.7652" lon="6.25296">
        <ele>2516</ele>
        <time>2017-08-29T12:23:46Z</time>
      </trkpt>
      <trkpt lat="44.7652" lon="6.25296">
        <ele>2516</ele>
        <time>2017-08-29T12:23:56Z</time>
      </trkpt>
      <trkpt lat="44.7652" lon="6.25296">
        <ele>2516</ele>
        <time>2017-08-29T12:24:05Z</time>
      </trkpt>
      <trkpt lat="44.76482" lon="6.25294">
        <ele>2505</ele>
        <time>2017-08-29T12:24:16Z</time>
      </trkpt>
      <trkpt lat="44.76482" lon="6.25294">
        <ele>2505</ele>
        <time>2017-08-29T12:24:26Z</time>
      </trkpt>
      <trkpt lat="44.76482" lon="6.25294">
        <ele>2505</ele>
        <time>2017-08-29T12:24:35Z</time>
      </trkpt>
      <trkpt lat="44.76482" lon="6.25294">
        <ele>2505</ele>
        <time>2017-08-29T12:24:46Z</time>
      </trkpt>
      <trkpt lat="44.76482" lon="6.25294">
        <ele>2505</ele>
        <time>2017-08-29T12:24:56Z</time>
      </trkpt>
      <trkpt lat="44.76482" lon="6.25294">
        <ele>2505</ele>
        <time>2017-08-29T12:25:05Z</time>
      </trkpt>
      <trkpt lat="44.76482" lon="6.25294">
        <ele>2505</ele>
        <time>2017-08-29T12:25:16Z</time>
      </trkpt>
      <trkpt lat="44.76482" lon="6.25294">
        <ele>2505</ele>
        <time>2017-08-29T12:25:26Z</time>
      </trkpt>
      <trkpt lat="44.76482" lon="6.25294">
        <ele>2505</ele>
        <time>2017-08-29T12:25:35Z</time>
      </trkpt>
      <trkpt lat="44.76452" lon="6.25268">
        <ele>2490</ele>
        <time>2017-08-29T12:25:46Z</time>
      </trkpt>
      <trkpt lat="44.76452" lon="6.25268">
        <ele>2490</ele>
        <time>2017-08-29T12:25:56Z</time>
      </trkpt>
      <trkpt lat="44.76452" lon="6.25268">
        <ele>2490</ele>
        <time>2017-08-29T12:26:05Z</time>
      </trkpt>
      <trkpt lat="44.76452" lon="6.25268">
        <ele>2490</ele>
        <time>2017-08-29T12:26:16Z</time>
      </trkpt>
      <trkpt lat="44.76452" lon="6.25268">
        <ele>2490</ele>
        <time>2017-08-29T12:26:26Z</time>
      </trkpt>
      <trkpt lat="44.76414" lon="6.25264">
        <ele>2484</ele>
        <time>2017-08-29T12:26:36Z</time>
      </trkpt>
      <trkpt lat="44.76414" lon="6.25264">
        <ele>2484</ele>
        <time>2017-08-29T12:26:46Z</time>
      </trkpt>
      <trkpt lat="44.76414" lon="6.25264">
        <ele>2484</ele>
        <time>2017-08-29T12:26:56Z</time>
      </trkpt>
      <trkpt lat="44.76414" lon="6.25264">
        <ele>2484</ele>
        <time>2017-08-29T12:27:05Z</time>
      </trkpt>
      <trkpt lat="44.76414" lon="6.25264">
        <ele>2484</ele>
        <time>2017-08-29T12:27:16Z</time>
      </trkpt>
      <trkpt lat="44.76379" lon="6.25259">
        <ele>2473</ele>
        <time>2017-08-29T12:27:26Z</time>
      </trkpt>
      <trkpt lat="44.76377" lon="6.2526">
        <ele>2471</ele>
        <time>2017-08-29T12:27:35Z</time>
      </trkpt>
      <trkpt lat="44.76377" lon="6.2526">
        <ele>2471</ele>
        <time>2017-08-29T12:27:46Z</time>
      </trkpt>
      <trkpt lat="44.76377" lon="6.2526">
        <ele>2471</ele>
        <time>2017-08-29T12:27:56Z</time>
      </trkpt>
      <trkpt lat="44.76377" lon="6.2526">
        <ele>2471</ele>
        <time>2017-08-29T12:28:06Z</time>
      </trkpt>
      <trkpt lat="44.76377" lon="6.2526">
        <ele>2471</ele>
        <time>2017-08-29T12:28:16Z</time>
      </trkpt>
      <trkpt lat="44.76339" lon="6.25257">
        <ele>2467</ele>
        <time>2017-08-29T12:28:26Z</time>
      </trkpt>
      <trkpt lat="44.76339" lon="6.25257">
        <ele>2467</ele>
        <time>2017-08-29T12:28:35Z</time>
      </trkpt>
      <trkpt lat="44.76339" lon="6.25257">
        <ele>2467</ele>
        <time>2017-08-29T12:28:46Z</time>
      </trkpt>
      <trkpt lat="44.76339" lon="6.25257">
        <ele>2467</ele>
        <time>2017-08-29T12:28:56Z</time>
      </trkpt>
      <trkpt lat="44.76339" lon="6.25257">
        <ele>2467</ele>
        <time>2017-08-29T12:29:05Z</time>
      </trkpt>
      <trkpt lat="44.76361" lon="6.25231">
        <ele>2440</ele>
        <time>2017-08-29T12:29:16Z</time>
      </trkpt>
      <trkpt lat="44.76362" lon="6.2523">
        <ele>2439</ele>
        <time>2017-08-29T12:29:26Z</time>
      </trkpt>
      <trkpt lat="44.76362" lon="6.2523">
        <ele>2439</ele>
        <time>2017-08-29T12:29:35Z</time>
      </trkpt>
      <trkpt lat="44.76362" lon="6.2523">
        <ele>2439</ele>
        <time>2017-08-29T12:29:46Z</time>
      </trkpt>
      <trkpt lat="44.76362" lon="6.2523">
        <ele>2439</ele>
        <time>2017-08-29T12:29:56Z</time>
      </trkpt>
      <trkpt lat="44.76379" lon="6.25181">
        <ele>2439</ele>
        <time>2017-08-29T12:30:05Z</time>
      </trkpt>
      <trkpt lat="44.76379" lon="6.25181">
        <ele>2439</ele>
        <time>2017-08-29T12:30:16Z</time>
      </trkpt>
      <trkpt lat="44.76379" lon="6.25181">
        <ele>2439</ele>
        <time>2017-08-29T12:30:26Z</time>
      </trkpt>
      <trkpt lat="44.76379" lon="6.25181">
        <ele>2439</ele>
        <time>2017-08-29T12:30:36Z</time>
      </trkpt>
      <trkpt lat="44.76379" lon="6.25181">
        <ele>2439</ele>
        <time>2017-08-29T12:30:46Z</time>
      </trkpt>
      <trkpt lat="44.76379" lon="6.25181">
        <ele>2439</ele>
        <time>2017-08-29T12:30:56Z</time>
      </trkpt>
      <trkpt lat="44.76416" lon="6.25172">
        <ele>2429</ele>
        <time>2017-08-29T12:31:05Z</time>
      </trkpt>
      <trkpt lat="44.76416" lon="6.25172">
        <ele>2429</ele>
        <time>2017-08-29T12:31:16Z</time>
      </trkpt>
      <trkpt lat="44.76416" lon="6.25172">
        <ele>2429</ele>
        <time>2017-08-29T12:31:26Z</time>
      </trkpt>
      <trkpt lat="44.76416" lon="6.25172">
        <ele>2429</ele>
        <time>2017-08-29T12:31:35Z</time>
      </trkpt>
      <trkpt lat="44.76416" lon="6.25172">
        <ele>2429</ele>
        <time>2017-08-29T12:31:46Z</time>
      </trkpt>
      <trkpt lat="44.76416" lon="6.25172">
        <ele>2429</ele>
        <time>2017-08-29T12:31:56Z</time>
      </trkpt>
      <trkpt lat="44.76416" lon="6.25172">
        <ele>2429</ele>
        <time>2017-08-29T12:32:05Z</time>
      </trkpt>
      <trkpt lat="44.76416" lon="6.25172">
        <ele>2429</ele>
        <time>2017-08-29T12:32:16Z</time>
      </trkpt>
      <trkpt lat="44.76416" lon="6.25172">
        <ele>2429</ele>
        <time>2017-08-29T12:32:26Z</time>
      </trkpt>
      <trkpt lat="44.76416" lon="6.25172">
        <ele>2429</ele>
        <time>2017-08-29T12:32:35Z</time>
      </trkpt>
      <trkpt lat="44.76416" lon="6.25172">
        <ele>2429</ele>
        <time>2017-08-29T12:32:46Z</time>
      </trkpt>
      <trkpt lat="44.76416" lon="6.25172">
        <ele>2429</ele>
        <time>2017-08-29T12:32:56Z</time>
      </trkpt>
      <trkpt lat="44.76408" lon="6.25129">
        <ele>2406</ele>
        <time>2017-08-29T12:33:05Z</time>
      </trkpt>
      <trkpt lat="44.76408" lon="6.25129">
        <ele>2406</ele>
        <time>2017-08-29T12:33:16Z</time>
      </trkpt>
      <trkpt lat="44.76408" lon="6.25129">
        <ele>2406</ele>
        <time>2017-08-29T12:33:26Z</time>
      </trkpt>
      <trkpt lat="44.76408" lon="6.25129">
        <ele>2406</ele>
        <time>2017-08-29T12:33:35Z</time>
      </trkpt>
      <trkpt lat="44.76408" lon="6.25129">
        <ele>2406</ele>
        <time>2017-08-29T12:33:46Z</time>
      </trkpt>
      <trkpt lat="44.76408" lon="6.25129">
        <ele>2406</ele>
        <time>2017-08-29T12:33:56Z</time>
      </trkpt>
      <trkpt lat="44.76408" lon="6.25129">
        <ele>2406</ele>
        <time>2017-08-29T12:34:05Z</time>
      </trkpt>
      <trkpt lat="44.76408" lon="6.25129">
        <ele>2406</ele>
        <time>2017-08-29T12:34:16Z</time>
      </trkpt>
      <trkpt lat="44.76406" lon="6.25079">
        <ele>2391</ele>
        <time>2017-08-29T12:34:26Z</time>
      </trkpt>
      <trkpt lat="44.76406" lon="6.25079">
        <ele>2391</ele>
        <time>2017-08-29T12:34:35Z</time>
      </trkpt>
      <trkpt lat="44.76406" lon="6.25079">
        <ele>2391</ele>
        <time>2017-08-29T12:34:46Z</time>
      </trkpt>
      <trkpt lat="44.76406" lon="6.25079">
        <ele>2391</ele>
        <time>2017-08-29T12:34:56Z</time>
      </trkpt>
      <trkpt lat="44.76406" lon="6.25079">
        <ele>2391</ele>
        <time>2017-08-29T12:35:05Z</time>
      </trkpt>
      <trkpt lat="44.76406" lon="6.25079">
        <ele>2391</ele>
        <time>2017-08-29T12:35:16Z</time>
      </trkpt>
      <trkpt lat="44.76406" lon="6.25079">
        <ele>2391</ele>
        <time>2017-08-29T12:35:26Z</time>
      </trkpt>
      <trkpt lat="44.76408" lon="6.25028">
        <ele>2381</ele>
        <time>2017-08-29T12:35:35Z</time>
      </trkpt>
      <trkpt lat="44.76408" lon="6.25028">
        <ele>2381</ele>
        <time>2017-08-29T12:35:46Z</time>
      </trkpt>
      <trkpt lat="44.76408" lon="6.25028">
        <ele>2381</ele>
        <time>2017-08-29T12:35:56Z</time>
      </trkpt>
      <trkpt lat="44.76408" lon="6.25028">
        <ele>2381</ele>
        <time>2017-08-29T12:36:05Z</time>
      </trkpt>
      <trkpt lat="44.76408" lon="6.25028">
        <ele>2381</ele>
        <time>2017-08-29T12:36:16Z</time>
      </trkpt>
      <trkpt lat="44.76439" lon="6.25002">
        <ele>2372</ele>
        <time>2017-08-29T12:36:26Z</time>
      </trkpt>
      <trkpt lat="44.76439" lon="6.25002">
        <ele>2372</ele>
        <time>2017-08-29T12:36:35Z</time>
      </trkpt>
      <trkpt lat="44.76439" lon="6.25002">
        <ele>2372</ele>
        <time>2017-08-29T12:36:46Z</time>
      </trkpt>
      <trkpt lat="44.76439" lon="6.25002">
        <ele>2372</ele>
        <time>2017-08-29T12:36:56Z</time>
      </trkpt>
      <trkpt lat="44.76439" lon="6.25002">
        <ele>2372</ele>
        <time>2017-08-29T12:37:05Z</time>
      </trkpt>
      <trkpt lat="44.76408" lon="6.2497">
        <ele>2366</ele>
        <time>2017-08-29T12:37:16Z</time>
      </trkpt>
      <trkpt lat="44.76408" lon="6.2497">
        <ele>2366</ele>
        <time>2017-08-29T12:37:26Z</time>
      </trkpt>
      <trkpt lat="44.76408" lon="6.2497">
        <ele>2366</ele>
        <time>2017-08-29T12:37:36Z</time>
      </trkpt>
      <trkpt lat="44.76408" lon="6.2497">
        <ele>2366</ele>
        <time>2017-08-29T12:37:46Z</time>
      </trkpt>
      <trkpt lat="44.76408" lon="6.2497">
        <ele>2366</ele>
        <time>2017-08-29T12:37:56Z</time>
      </trkpt>
      <trkpt lat="44.76408" lon="6.2497">
        <ele>2366</ele>
        <time>2017-08-29T12:38:05Z</time>
      </trkpt>
      <trkpt lat="44.76408" lon="6.2497">
        <ele>2366</ele>
        <time>2017-08-29T12:38:16Z</time>
      </trkpt>
      <trkpt lat="44.76408" lon="6.2497">
        <ele>2366</ele>
        <time>2017-08-29T12:38:26Z</time>
      </trkpt>
      <trkpt lat="44.76408" lon="6.2497">
        <ele>2366</ele>
        <time>2017-08-29T12:38:35Z</time>
      </trkpt>
      <trkpt lat="44.76437" lon="6.24939">
        <ele>2352</ele>
        <time>2017-08-29T12:38:46Z</time>
      </trkpt>
      <trkpt lat="44.76451" lon="6.24934">
        <ele>2351</ele>
        <time>2017-08-29T12:38:56Z</time>
      </trkpt>
      <trkpt lat="44.76451" lon="6.24934">
        <ele>2351</ele>
        <time>2017-08-29T12:39:05Z</time>
      </trkpt>
      <trkpt lat="44.76451" lon="6.24934">
        <ele>2351</ele>
        <time>2017-08-29T12:39:16Z</time>
      </trkpt>
      <trkpt lat="44.76451" lon="6.24934">
        <ele>2351</ele>
        <time>2017-08-29T12:39:26Z</time>
      </trkpt>
      <trkpt lat="44.76451" lon="6.24934">
        <ele>2351</ele>
        <time>2017-08-29T12:39:35Z</time>
      </trkpt>
      <trkpt lat="44.76451" lon="6.24934">
        <ele>2351</ele>
        <time>2017-08-29T12:39:46Z</time>
      </trkpt>
      <trkpt lat="44.76451" lon="6.24934">
        <ele>2351</ele>
        <time>2017-08-29T12:39:56Z</time>
      </trkpt>
      <trkpt lat="44.76471" lon="6.24889">
        <ele>2342</ele>
        <time>2017-08-29T12:40:05Z</time>
      </trkpt>
      <trkpt lat="44.76471" lon="6.24889">
        <ele>2342</ele>
        <time>2017-08-29T12:40:16Z</time>
      </trkpt>
      <trkpt lat="44.76471" lon="6.24889">
        <ele>2342</ele>
        <time>2017-08-29T12:40:26Z</time>
      </trkpt>
      <trkpt lat="44.76471" lon="6.24889">
        <ele>2342</ele>
        <time>2017-08-29T12:40:35Z</time>
      </trkpt>
      <trkpt lat="44.76471" lon="6.24889">
        <ele>2342</ele>
        <time>2017-08-29T12:40:46Z</time>
      </trkpt>
      <trkpt lat="44.76471" lon="6.24889">
        <ele>2342</ele>
        <time>2017-08-29T12:40:56Z</time>
      </trkpt>
      <trkpt lat="44.76471" lon="6.24889">
        <ele>2342</ele>
        <time>2017-08-29T12:41:05Z</time>
      </trkpt>
      <trkpt lat="44.76469" lon="6.24838">
        <ele>2340</ele>
        <time>2017-08-29T12:41:16Z</time>
      </trkpt>
      <trkpt lat="44.76468" lon="6.24835">
        <ele>2339</ele>
        <time>2017-08-29T12:41:26Z</time>
      </trkpt>
      <trkpt lat="44.76468" lon="6.24835">
        <ele>2339</ele>
        <time>2017-08-29T12:41:35Z</time>
      </trkpt>
      <trkpt lat="44.76468" lon="6.24835">
        <ele>2339</ele>
        <time>2017-08-29T12:41:46Z</time>
      </trkpt>
      <trkpt lat="44.76468" lon="6.24835">
        <ele>2339</ele>
        <time>2017-08-29T12:41:56Z</time>
      </trkpt>
      <trkpt lat="44.76468" lon="6.24835">
        <ele>2339</ele>
        <time>2017-08-29T12:42:05Z</time>
      </trkpt>
      <trkpt lat="44.76447" lon="6.24792">
        <ele>2332</ele>
        <time>2017-08-29T12:42:16Z</time>
      </trkpt>
      <trkpt lat="44.76447" lon="6.24792">
        <ele>2332</ele>
        <time>2017-08-29T12:42:26Z</time>
      </trkpt>
      <trkpt lat="44.76447" lon="6.24792">
        <ele>2332</ele>
        <time>2017-08-29T12:42:35Z</time>
      </trkpt>
      <trkpt lat="44.76447" lon="6.24792">
        <ele>2332</ele>
        <time>2017-08-29T12:42:46Z</time>
      </trkpt>
      <trkpt lat="44.76447" lon="6.24792">
        <ele>2332</ele>
        <time>2017-08-29T12:42:56Z</time>
      </trkpt>
      <trkpt lat="44.76447" lon="6.24792">
        <ele>2332</ele>
        <time>2017-08-29T12:43:05Z</time>
      </trkpt>
      <trkpt lat="44.76447" lon="6.24792">
        <ele>2332</ele>
        <time>2017-08-29T12:43:16Z</time>
      </trkpt>
      <trkpt lat="44.76425" lon="6.24753">
        <ele>2317</ele>
        <time>2017-08-29T12:43:26Z</time>
      </trkpt>
      <trkpt lat="44.76425" lon="6.24753">
        <ele>2317</ele>
        <time>2017-08-29T12:43:36Z</time>
      </trkpt>
      <trkpt lat="44.76425" lon="6.24753">
        <ele>2317</ele>
        <time>2017-08-29T12:43:46Z</time>
      </trkpt>
      <trkpt lat="44.76425" lon="6.24753">
        <ele>2317</ele>
        <time>2017-08-29T12:43:56Z</time>
      </trkpt>
      <trkpt lat="44.76425" lon="6.24753">
        <ele>2317</ele>
        <time>2017-08-29T12:44:05Z</time>
      </trkpt>
      <trkpt lat="44.76425" lon="6.24753">
        <ele>2317</ele>
        <time>2017-08-29T12:44:16Z</time>
      </trkpt>
      <trkpt lat="44.76425" lon="6.24753">
        <ele>2317</ele>
        <time>2017-08-29T12:44:26Z</time>
      </trkpt>
      <trkpt lat="44.76425" lon="6.24753">
        <ele>2317</ele>
        <time>2017-08-29T12:44:35Z</time>
      </trkpt>
      <trkpt lat="44.76425" lon="6.24753">
        <ele>2317</ele>
        <time>2017-08-29T12:44:46Z</time>
      </trkpt>
      <trkpt lat="44.76425" lon="6.24753">
        <ele>2317</ele>
        <time>2017-08-29T12:44:56Z</time>
      </trkpt>
      <trkpt lat="44.76425" lon="6.24753">
        <ele>2317</ele>
        <time>2017-08-29T12:45:05Z</time>
      </trkpt>
      <trkpt lat="44.76393" lon="6.24743">
        <ele>2298</ele>
        <time>2017-08-29T12:45:16Z</time>
      </trkpt>
      <trkpt lat="44.76393" lon="6.24743">
        <ele>2298</ele>
        <time>2017-08-29T12:45:26Z</time>
      </trkpt>
      <trkpt lat="44.76393" lon="6.24743">
        <ele>2298</ele>
        <time>2017-08-29T12:45:36Z</time>
      </trkpt>
      <trkpt lat="44.76393" lon="6.24743">
        <ele>2298</ele>
        <time>2017-08-29T12:45:46Z</time>
      </trkpt>
      <trkpt lat="44.76393" lon="6.24743">
        <ele>2298</ele>
        <time>2017-08-29T12:45:56Z</time>
      </trkpt>
      <trkpt lat="44.76393" lon="6.24743">
        <ele>2298</ele>
        <time>2017-08-29T12:46:05Z</time>
      </trkpt>
      <trkpt lat="44.76393" lon="6.24743">
        <ele>2298</ele>
        <time>2017-08-29T12:46:16Z</time>
      </trkpt>
      <trkpt lat="44.76393" lon="6.24743">
        <ele>2298</ele>
        <time>2017-08-29T12:46:26Z</time>
      </trkpt>
      <trkpt lat="44.76393" lon="6.24743">
        <ele>2298</ele>
        <time>2017-08-29T12:46:36Z</time>
      </trkpt>
      <trkpt lat="44.76393" lon="6.24743">
        <ele>2298</ele>
        <time>2017-08-29T12:46:46Z</time>
      </trkpt>
      <trkpt lat="44.76393" lon="6.24743">
        <ele>2298</ele>
        <time>2017-08-29T12:46:56Z</time>
      </trkpt>
      <trkpt lat="44.76361" lon="6.2472">
        <ele>2290</ele>
        <time>2017-08-29T12:47:05Z</time>
      </trkpt>
      <trkpt lat="44.7636" lon="6.24718">
        <ele>2292</ele>
        <time>2017-08-29T12:47:16Z</time>
      </trkpt>
      <trkpt lat="44.7636" lon="6.24718">
        <ele>2292</ele>
        <time>2017-08-29T12:47:26Z</time>
      </trkpt>
      <trkpt lat="44.7636" lon="6.24718">
        <ele>2292</ele>
        <time>2017-08-29T12:47:35Z</time>
      </trkpt>
      <trkpt lat="44.7636" lon="6.24718">
        <ele>2292</ele>
        <time>2017-08-29T12:47:46Z</time>
      </trkpt>
      <trkpt lat="44.7636" lon="6.24718">
        <ele>2292</ele>
        <time>2017-08-29T12:47:56Z</time>
      </trkpt>
      <trkpt lat="44.76345" lon="6.2471">
        <ele>2327</ele>
        <time>2017-08-29T12:48:06Z</time>
      </trkpt>
      <trkpt lat="44.76345" lon="6.2471">
        <ele>2327</ele>
        <time>2017-08-29T12:48:16Z</time>
      </trkpt>
      <trkpt lat="44.76345" lon="6.2471">
        <ele>2327</ele>
        <time>2017-08-29T12:48:26Z</time>
      </trkpt>
      <trkpt lat="44.76345" lon="6.2471">
        <ele>2327</ele>
        <time>2017-08-29T12:48:35Z</time>
      </trkpt>
      <trkpt lat="44.76345" lon="6.2471">
        <ele>2327</ele>
        <time>2017-08-29T12:48:46Z</time>
      </trkpt>
      <trkpt lat="44.76345" lon="6.2471">
        <ele>2327</ele>
        <time>2017-08-29T12:48:56Z</time>
      </trkpt>
      <trkpt lat="44.76345" lon="6.2471">
        <ele>2327</ele>
        <time>2017-08-29T12:49:05Z</time>
      </trkpt>
      <trkpt lat="44.76345" lon="6.2471">
        <ele>2327</ele>
        <time>2017-08-29T12:49:16Z</time>
      </trkpt>
      <trkpt lat="44.76345" lon="6.2471">
        <ele>2327</ele>
        <time>2017-08-29T12:49:26Z</time>
      </trkpt>
      <trkpt lat="44.76345" lon="6.2471">
        <ele>2327</ele>
        <time>2017-08-29T12:49:35Z</time>
      </trkpt>
      <trkpt lat="44.76345" lon="6.2471">
        <ele>2327</ele>
        <time>2017-08-29T12:49:46Z</time>
      </trkpt>
      <trkpt lat="44.76345" lon="6.2471">
        <ele>2327</ele>
        <time>2017-08-29T12:49:56Z</time>
      </trkpt>
      <trkpt lat="44.76345" lon="6.2471">
        <ele>2327</ele>
        <time>2017-08-29T12:50:05Z</time>
      </trkpt>
      <trkpt lat="44.76364" lon="6.24713">
        <ele>2292</ele>
        <time>2017-08-29T12:50:16Z</time>
      </trkpt>
      <trkpt lat="44.76364" lon="6.24713">
        <ele>2292</ele>
        <time>2017-08-29T12:50:26Z</time>
      </trkpt>
      <trkpt lat="44.76364" lon="6.24713">
        <ele>2292</ele>
        <time>2017-08-29T12:50:35Z</time>
      </trkpt>
      <trkpt lat="44.76364" lon="6.24713">
        <ele>2292</ele>
        <time>2017-08-29T12:50:46Z</time>
      </trkpt>
      <trkpt lat="44.76364" lon="6.24713">
        <ele>2292</ele>
        <time>2017-08-29T12:50:56Z</time>
      </trkpt>
      <trkpt lat="44.76364" lon="6.24713">
        <ele>2292</ele>
        <time>2017-08-29T12:51:05Z</time>
      </trkpt>
      <trkpt lat="44.76364" lon="6.24713">
        <ele>2292</ele>
        <time>2017-08-29T12:51:16Z</time>
      </trkpt>
      <trkpt lat="44.76364" lon="6.24713">
        <ele>2292</ele>
        <time>2017-08-29T12:51:26Z</time>
      </trkpt>
      <trkpt lat="44.76364" lon="6.24713">
        <ele>2292</ele>
        <time>2017-08-29T12:51:35Z</time>
      </trkpt>
      <trkpt lat="44.76332" lon="6.24685">
        <ele>2281</ele>
        <time>2017-08-29T12:51:46Z</time>
      </trkpt>
      <trkpt lat="44.76332" lon="6.24685">
        <ele>2281</ele>
        <time>2017-08-29T12:51:56Z</time>
      </trkpt>
      <trkpt lat="44.76332" lon="6.24685">
        <ele>2281</ele>
        <time>2017-08-29T12:52:05Z</time>
      </trkpt>
      <trkpt lat="44.76332" lon="6.24685">
        <ele>2281</ele>
        <time>2017-08-29T12:52:16Z</time>
      </trkpt>
      <trkpt lat="44.76332" lon="6.24685">
        <ele>2281</ele>
        <time>2017-08-29T12:52:26Z</time>
      </trkpt>
      <trkpt lat="44.76296" lon="6.24662">
        <ele>2276</ele>
        <time>2017-08-29T12:52:35Z</time>
      </trkpt>
      <trkpt lat="44.76296" lon="6.24662">
        <ele>2276</ele>
        <time>2017-08-29T12:52:46Z</time>
      </trkpt>
      <trkpt lat="44.76296" lon="6.24662">
        <ele>2276</ele>
        <time>2017-08-29T12:52:56Z</time>
      </trkpt>
      <trkpt lat="44.76296" lon="6.24662">
        <ele>2276</ele>
        <time>2017-08-29T12:53:05Z</time>
      </trkpt>
      <trkpt lat="44.76296" lon="6.24662">
        <ele>2276</ele>
        <time>2017-08-29T12:53:16Z</time>
      </trkpt>
      <trkpt lat="44.76267" lon="6.24629">
        <ele>2265</ele>
        <time>2017-08-29T12:53:26Z</time>
      </trkpt>
      <trkpt lat="44.76267" lon="6.24629">
        <ele>2265</ele>
        <time>2017-08-29T12:53:35Z</time>
      </trkpt>
      <trkpt lat="44.76267" lon="6.24629">
        <ele>2265</ele>
        <time>2017-08-29T12:53:46Z</time>
      </trkpt>
      <trkpt lat="44.76267" lon="6.24629">
        <ele>2265</ele>
        <time>2017-08-29T12:53:56Z</time>
      </trkpt>
      <trkpt lat="44.76267" lon="6.24629">
        <ele>2265</ele>
        <time>2017-08-29T12:54:05Z</time>
      </trkpt>
      <trkpt lat="44.76233" lon="6.24606">
        <ele>2258</ele>
        <time>2017-08-29T12:54:16Z</time>
      </trkpt>
      <trkpt lat="44.76233" lon="6.24606">
        <ele>2258</ele>
        <time>2017-08-29T12:54:26Z</time>
      </trkpt>
      <trkpt lat="44.76233" lon="6.24606">
        <ele>2258</ele>
        <time>2017-08-29T12:54:35Z</time>
      </trkpt>
      <trkpt lat="44.76233" lon="6.24606">
        <ele>2258</ele>
        <time>2017-08-29T12:54:46Z</time>
      </trkpt>
      <trkpt lat="44.76233" lon="6.24606">
        <ele>2258</ele>
        <time>2017-08-29T12:54:56Z</time>
      </trkpt>
      <trkpt lat="44.76202" lon="6.24574">
        <ele>2253</ele>
        <time>2017-08-29T12:55:05Z</time>
      </trkpt>
      <trkpt lat="44.76202" lon="6.24574">
        <ele>2253</ele>
        <time>2017-08-29T12:55:16Z</time>
      </trkpt>
      <trkpt lat="44.76202" lon="6.24574">
        <ele>2253</ele>
        <time>2017-08-29T12:55:26Z</time>
      </trkpt>
      <trkpt lat="44.76202" lon="6.24574">
        <ele>2253</ele>
        <time>2017-08-29T12:55:35Z</time>
      </trkpt>
      <trkpt lat="44.76168" lon="6.24548">
        <ele>2241</ele>
        <time>2017-08-29T12:55:46Z</time>
      </trkpt>
      <trkpt lat="44.76168" lon="6.24548">
        <ele>2241</ele>
        <time>2017-08-29T12:55:56Z</time>
      </trkpt>
      <trkpt lat="44.76168" lon="6.24548">
        <ele>2241</ele>
        <time>2017-08-29T12:56:05Z</time>
      </trkpt>
      <trkpt lat="44.76168" lon="6.24548">
        <ele>2241</ele>
        <time>2017-08-29T12:56:16Z</time>
      </trkpt>
      <trkpt lat="44.76131" lon="6.24529">
        <ele>2231</ele>
        <time>2017-08-29T12:56:26Z</time>
      </trkpt>
      <trkpt lat="44.76131" lon="6.24529">
        <ele>2231</ele>
        <time>2017-08-29T12:56:35Z</time>
      </trkpt>
      <trkpt lat="44.76131" lon="6.24529">
        <ele>2231</ele>
        <time>2017-08-29T12:56:46Z</time>
      </trkpt>
      <trkpt lat="44.76131" lon="6.24529">
        <ele>2231</ele>
        <time>2017-08-29T12:56:56Z</time>
      </trkpt>
      <trkpt lat="44.76094" lon="6.24515">
        <ele>2225</ele>
        <time>2017-08-29T12:57:05Z</time>
      </trkpt>
      <trkpt lat="44.76094" lon="6.24515">
        <ele>2225</ele>
        <time>2017-08-29T12:57:16Z</time>
      </trkpt>
      <trkpt lat="44.76094" lon="6.24515">
        <ele>2225</ele>
        <time>2017-08-29T12:57:26Z</time>
      </trkpt>
      <trkpt lat="44.76094" lon="6.24515">
        <ele>2225</ele>
        <time>2017-08-29T12:57:35Z</time>
      </trkpt>
      <trkpt lat="44.76094" lon="6.24515">
        <ele>2225</ele>
        <time>2017-08-29T12:57:46Z</time>
      </trkpt>
      <trkpt lat="44.76094" lon="6.24515">
        <ele>2225</ele>
        <time>2017-08-29T12:57:56Z</time>
      </trkpt>
      <trkpt lat="44.76094" lon="6.24515">
        <ele>2225</ele>
        <time>2017-08-29T12:58:05Z</time>
      </trkpt>
      <trkpt lat="44.76094" lon="6.24515">
        <ele>2225</ele>
        <time>2017-08-29T12:58:16Z</time>
      </trkpt>
      <trkpt lat="44.76094" lon="6.24515">
        <ele>2225</ele>
        <time>2017-08-29T12:58:26Z</time>
      </trkpt>
      <trkpt lat="44.76094" lon="6.24515">
        <ele>2225</ele>
        <time>2017-08-29T12:58:35Z</time>
      </trkpt>
      <trkpt lat="44.76094" lon="6.24515">
        <ele>2225</ele>
        <time>2017-08-29T12:58:46Z</time>
      </trkpt>
      <trkpt lat="44.7607" lon="6.24475">
        <ele>2224</ele>
        <time>2017-08-29T12:58:56Z</time>
      </trkpt>
      <trkpt lat="44.76069" lon="6.24475">
        <ele>2225</ele>
        <time>2017-08-29T12:59:05Z</time>
      </trkpt>
      <trkpt lat="44.76069" lon="6.24475">
        <ele>2225</ele>
        <time>2017-08-29T12:59:16Z</time>
      </trkpt>
      <trkpt lat="44.76069" lon="6.24475">
        <ele>2225</ele>
        <time>2017-08-29T12:59:26Z</time>
      </trkpt>
      <trkpt lat="44.76069" lon="6.24475">
        <ele>2225</ele>
        <time>2017-08-29T12:59:35Z</time>
      </trkpt>
      <trkpt lat="44.76038" lon="6.24448">
        <ele>2221</ele>
        <time>2017-08-29T12:59:46Z</time>
      </trkpt>
      <trkpt lat="44.76035" lon="6.24448">
        <ele>2221</ele>
        <time>2017-08-29T12:59:56Z</time>
      </trkpt>
      <trkpt lat="44.76035" lon="6.24448">
        <ele>2221</ele>
        <time>2017-08-29T13:00:05Z</time>
      </trkpt>
      <trkpt lat="44.76035" lon="6.24448">
        <ele>2221</ele>
        <time>2017-08-29T13:00:16Z</time>
      </trkpt>
      <trkpt lat="44.76035" lon="6.24448">
        <ele>2221</ele>
        <time>2017-08-29T13:00:26Z</time>
      </trkpt>
      <trkpt lat="44.76035" lon="6.24448">
        <ele>2221</ele>
        <time>2017-08-29T13:00:35Z</time>
      </trkpt>
      <trkpt lat="44.76001" lon="6.24473">
        <ele>2227</ele>
        <time>2017-08-29T13:00:46Z</time>
      </trkpt>
      <trkpt lat="44.76001" lon="6.24473">
        <ele>2227</ele>
        <time>2017-08-29T13:00:56Z</time>
      </trkpt>
      <trkpt lat="44.76001" lon="6.24473">
        <ele>2227</ele>
        <time>2017-08-29T13:01:05Z</time>
      </trkpt>
      <trkpt lat="44.76001" lon="6.24473">
        <ele>2227</ele>
        <time>2017-08-29T13:01:16Z</time>
      </trkpt>
      <trkpt lat="44.76001" lon="6.24473">
        <ele>2227</ele>
        <time>2017-08-29T13:01:26Z</time>
      </trkpt>
      <trkpt lat="44.75977" lon="6.24436">
        <ele>2208</ele>
        <time>2017-08-29T13:01:35Z</time>
      </trkpt>
      <trkpt lat="44.75977" lon="6.24436">
        <ele>2208</ele>
        <time>2017-08-29T13:01:46Z</time>
      </trkpt>
      <trkpt lat="44.75977" lon="6.24436">
        <ele>2208</ele>
        <time>2017-08-29T13:01:56Z</time>
      </trkpt>
      <trkpt lat="44.75977" lon="6.24436">
        <ele>2208</ele>
        <time>2017-08-29T13:02:05Z</time>
      </trkpt>
      <trkpt lat="44.75977" lon="6.24436">
        <ele>2208</ele>
        <time>2017-08-29T13:02:16Z</time>
      </trkpt>
      <trkpt lat="44.75977" lon="6.24436">
        <ele>2208</ele>
        <time>2017-08-29T13:02:26Z</time>
      </trkpt>
      <trkpt lat="44.75977" lon="6.24436">
        <ele>2208</ele>
        <time>2017-08-29T13:02:35Z</time>
      </trkpt>
      <trkpt lat="44.75977" lon="6.24436">
        <ele>2208</ele>
        <time>2017-08-29T13:02:46Z</time>
      </trkpt>
      <trkpt lat="44.75977" lon="6.24436">
        <ele>2208</ele>
        <time>2017-08-29T13:02:56Z</time>
      </trkpt>
      <trkpt lat="44.75977" lon="6.24436">
        <ele>2208</ele>
        <time>2017-08-29T13:03:05Z</time>
      </trkpt>
      <trkpt lat="44.75948" lon="6.24419">
        <ele>2184</ele>
        <time>2017-08-29T13:03:16Z</time>
      </trkpt>
      <trkpt lat="44.75948" lon="6.24419">
        <ele>2184</ele>
        <time>2017-08-29T13:03:26Z</time>
      </trkpt>
      <trkpt lat="44.75948" lon="6.24419">
        <ele>2184</ele>
        <time>2017-08-29T13:03:35Z</time>
      </trkpt>
      <trkpt lat="44.75948" lon="6.24419">
        <ele>2184</ele>
        <time>2017-08-29T13:03:46Z</time>
      </trkpt>
      <trkpt lat="44.75948" lon="6.24419">
        <ele>2184</ele>
        <time>2017-08-29T13:03:56Z</time>
      </trkpt>
      <trkpt lat="44.75948" lon="6.24419">
        <ele>2184</ele>
        <time>2017-08-29T13:04:05Z</time>
      </trkpt>
      <trkpt lat="44.75948" lon="6.24419">
        <ele>2184</ele>
        <time>2017-08-29T13:04:16Z</time>
      </trkpt>
      <trkpt lat="44.75948" lon="6.24419">
        <ele>2184</ele>
        <time>2017-08-29T13:04:26Z</time>
      </trkpt>
      <trkpt lat="44.75948" lon="6.24419">
        <ele>2184</ele>
        <time>2017-08-29T13:04:35Z</time>
      </trkpt>
      <trkpt lat="44.75948" lon="6.24419">
        <ele>2184</ele>
        <time>2017-08-29T13:04:46Z</time>
      </trkpt>
      <trkpt lat="44.75914" lon="6.24394">
        <ele>2177</ele>
        <time>2017-08-29T13:04:56Z</time>
      </trkpt>
      <trkpt lat="44.75914" lon="6.24394">
        <ele>2177</ele>
        <time>2017-08-29T13:05:05Z</time>
      </trkpt>
      <trkpt lat="44.75914" lon="6.24394">
        <ele>2177</ele>
        <time>2017-08-29T13:05:16Z</time>
      </trkpt>
      <trkpt lat="44.75914" lon="6.24394">
        <ele>2177</ele>
        <time>2017-08-29T13:05:26Z</time>
      </trkpt>
      <trkpt lat="44.75914" lon="6.24394">
        <ele>2177</ele>
        <time>2017-08-29T13:05:35Z</time>
      </trkpt>
      <trkpt lat="44.75892" lon="6.2435">
        <ele>2171</ele>
        <time>2017-08-29T13:05:46Z</time>
      </trkpt>
      <trkpt lat="44.75892" lon="6.2435">
        <ele>2171</ele>
        <time>2017-08-29T13:05:56Z</time>
      </trkpt>
      <trkpt lat="44.75892" lon="6.2435">
        <ele>2171</ele>
        <time>2017-08-29T13:06:05Z</time>
      </trkpt>
      <trkpt lat="44.75892" lon="6.2435">
        <ele>2171</ele>
        <time>2017-08-29T13:06:16Z</time>
      </trkpt>
      <trkpt lat="44.75892" lon="6.2435">
        <ele>2171</ele>
        <time>2017-08-29T13:06:26Z</time>
      </trkpt>
      <trkpt lat="44.75892" lon="6.2435">
        <ele>2171</ele>
        <time>2017-08-29T13:06:35Z</time>
      </trkpt>
      <trkpt lat="44.75892" lon="6.2435">
        <ele>2171</ele>
        <time>2017-08-29T13:06:46Z</time>
      </trkpt>
      <trkpt lat="44.75892" lon="6.2435">
        <ele>2171</ele>
        <time>2017-08-29T13:06:56Z</time>
      </trkpt>
      <trkpt lat="44.75892" lon="6.2435">
        <ele>2171</ele>
        <time>2017-08-29T13:07:05Z</time>
      </trkpt>
      <trkpt lat="44.75892" lon="6.2435">
        <ele>2171</ele>
        <time>2017-08-29T13:07:16Z</time>
      </trkpt>
      <trkpt lat="44.75862" lon="6.24379">
        <ele>2161</ele>
        <time>2017-08-29T13:07:26Z</time>
      </trkpt>
      <trkpt lat="44.75862" lon="6.24379">
        <ele>2161</ele>
        <time>2017-08-29T13:07:35Z</time>
      </trkpt>
      <trkpt lat="44.75862" lon="6.24379">
        <ele>2161</ele>
        <time>2017-08-29T13:07:46Z</time>
      </trkpt>
      <trkpt lat="44.75862" lon="6.24379">
        <ele>2161</ele>
        <time>2017-08-29T13:07:56Z</time>
      </trkpt>
      <trkpt lat="44.75856" lon="6.2438">
        <ele>2150</ele>
        <time>2017-08-29T13:08:05Z</time>
      </trkpt>
      <trkpt lat="44.75854" lon="6.24376">
        <ele>2150</ele>
        <time>2017-08-29T13:08:16Z</time>
      </trkpt>
      <trkpt lat="44.75854" lon="6.24376">
        <ele>2150</ele>
        <time>2017-08-29T13:08:26Z</time>
      </trkpt>
      <trkpt lat="44.75854" lon="6.24376">
        <ele>2150</ele>
        <time>2017-08-29T13:08:35Z</time>
      </trkpt>
      <trkpt lat="44.75854" lon="6.24376">
        <ele>2150</ele>
        <time>2017-08-29T13:08:46Z</time>
      </trkpt>
      <trkpt lat="44.75854" lon="6.24376">
        <ele>2150</ele>
        <time>2017-08-29T13:08:56Z</time>
      </trkpt>
      <trkpt lat="44.75854" lon="6.24376">
        <ele>2150</ele>
        <time>2017-08-29T13:09:05Z</time>
      </trkpt>
      <trkpt lat="44.75854" lon="6.24376">
        <ele>2150</ele>
        <time>2017-08-29T13:09:16Z</time>
      </trkpt>
      <trkpt lat="44.75854" lon="6.24376">
        <ele>2150</ele>
        <time>2017-08-29T13:09:26Z</time>
      </trkpt>
      <trkpt lat="44.75854" lon="6.24376">
        <ele>2150</ele>
        <time>2017-08-29T13:09:35Z</time>
      </trkpt>
      <trkpt lat="44.75854" lon="6.24376">
        <ele>2150</ele>
        <time>2017-08-29T13:09:46Z</time>
      </trkpt>
      <trkpt lat="44.75829" lon="6.24388">
        <ele>2120</ele>
        <time>2017-08-29T13:09:56Z</time>
      </trkpt>
      <trkpt lat="44.75829" lon="6.24388">
        <ele>2120</ele>
        <time>2017-08-29T13:10:05Z</time>
      </trkpt>
      <trkpt lat="44.75829" lon="6.24388">
        <ele>2120</ele>
        <time>2017-08-29T13:10:16Z</time>
      </trkpt>
      <trkpt lat="44.75829" lon="6.24388">
        <ele>2120</ele>
        <time>2017-08-29T13:10:26Z</time>
      </trkpt>
      <trkpt lat="44.75829" lon="6.24388">
        <ele>2120</ele>
        <time>2017-08-29T13:10:35Z</time>
      </trkpt>
      <trkpt lat="44.75829" lon="6.24388">
        <ele>2120</ele>
        <time>2017-08-29T13:10:46Z</time>
      </trkpt>
      <trkpt lat="44.75829" lon="6.24388">
        <ele>2120</ele>
        <time>2017-08-29T13:10:56Z</time>
      </trkpt>
      <trkpt lat="44.75829" lon="6.24388">
        <ele>2120</ele>
        <time>2017-08-29T13:11:05Z</time>
      </trkpt>
      <trkpt lat="44.75808" lon="6.24406">
        <ele>2108</ele>
        <time>2017-08-29T13:11:16Z</time>
      </trkpt>
      <trkpt lat="44.75808" lon="6.24406">
        <ele>2108</ele>
        <time>2017-08-29T13:11:26Z</time>
      </trkpt>
      <trkpt lat="44.75808" lon="6.24406">
        <ele>2108</ele>
        <time>2017-08-29T13:11:35Z</time>
      </trkpt>
      <trkpt lat="44.75808" lon="6.24406">
        <ele>2108</ele>
        <time>2017-08-29T13:11:46Z</time>
      </trkpt>
      <trkpt lat="44.75808" lon="6.24406">
        <ele>2108</ele>
        <time>2017-08-29T13:11:56Z</time>
      </trkpt>
      <trkpt lat="44.75808" lon="6.24406">
        <ele>2108</ele>
        <time>2017-08-29T13:12:05Z</time>
      </trkpt>
      <trkpt lat="44.75808" lon="6.24406">
        <ele>2108</ele>
        <time>2017-08-29T13:12:16Z</time>
      </trkpt>
      <trkpt lat="44.75808" lon="6.24406">
        <ele>2108</ele>
        <time>2017-08-29T13:12:26Z</time>
      </trkpt>
      <trkpt lat="44.75808" lon="6.24406">
        <ele>2108</ele>
        <time>2017-08-29T13:12:35Z</time>
      </trkpt>
      <trkpt lat="44.75808" lon="6.24406">
        <ele>2108</ele>
        <time>2017-08-29T13:12:46Z</time>
      </trkpt>
      <trkpt lat="44.75808" lon="6.24406">
        <ele>2108</ele>
        <time>2017-08-29T13:12:56Z</time>
      </trkpt>
      <trkpt lat="44.75808" lon="6.24406">
        <ele>2108</ele>
        <time>2017-08-29T13:13:05Z</time>
      </trkpt>
      <trkpt lat="44.75808" lon="6.24406">
        <ele>2108</ele>
        <time>2017-08-29T13:13:16Z</time>
      </trkpt>
      <trkpt lat="44.75808" lon="6.24406">
        <ele>2108</ele>
        <time>2017-08-29T13:13:26Z</time>
      </trkpt>
      <trkpt lat="44.75782" lon="6.24368">
        <ele>2100</ele>
        <time>2017-08-29T13:13:35Z</time>
      </trkpt>
      <trkpt lat="44.75782" lon="6.24368">
        <ele>2100</ele>
        <time>2017-08-29T13:13:46Z</time>
      </trkpt>
      <trkpt lat="44.75782" lon="6.24368">
        <ele>2100</ele>
        <time>2017-08-29T13:13:56Z</time>
      </trkpt>
      <trkpt lat="44.75782" lon="6.24368">
        <ele>2100</ele>
        <time>2017-08-29T13:14:05Z</time>
      </trkpt>
      <trkpt lat="44.75782" lon="6.24368">
        <ele>2100</ele>
        <time>2017-08-29T13:14:16Z</time>
      </trkpt>
      <trkpt lat="44.75782" lon="6.24368">
        <ele>2100</ele>
        <time>2017-08-29T13:14:26Z</time>
      </trkpt>
      <trkpt lat="44.75745" lon="6.24362">
        <ele>2117</ele>
        <time>2017-08-29T13:14:35Z</time>
      </trkpt>
      <trkpt lat="44.75745" lon="6.24362">
        <ele>2117</ele>
        <time>2017-08-29T13:14:46Z</time>
      </trkpt>
      <trkpt lat="44.75745" lon="6.24362">
        <ele>2117</ele>
        <time>2017-08-29T13:14:56Z</time>
      </trkpt>
      <trkpt lat="44.75745" lon="6.24362">
        <ele>2117</ele>
        <time>2017-08-29T13:15:05Z</time>
      </trkpt>
      <trkpt lat="44.75745" lon="6.24362">
        <ele>2117</ele>
        <time>2017-08-29T13:15:16Z</time>
      </trkpt>
      <trkpt lat="44.75745" lon="6.24362">
        <ele>2117</ele>
        <time>2017-08-29T13:15:26Z</time>
      </trkpt>
      <trkpt lat="44.75745" lon="6.24362">
        <ele>2117</ele>
        <time>2017-08-29T13:15:35Z</time>
      </trkpt>
      <trkpt lat="44.75745" lon="6.24362">
        <ele>2117</ele>
        <time>2017-08-29T13:15:46Z</time>
      </trkpt>
      <trkpt lat="44.75745" lon="6.24362">
        <ele>2117</ele>
        <time>2017-08-29T13:15:56Z</time>
      </trkpt>
      <trkpt lat="44.75745" lon="6.24362">
        <ele>2117</ele>
        <time>2017-08-29T13:16:05Z</time>
      </trkpt>
      <trkpt lat="44.75745" lon="6.24362">
        <ele>2117</ele>
        <time>2017-08-29T13:16:16Z</time>
      </trkpt>
      <trkpt lat="44.75745" lon="6.24362">
        <ele>2117</ele>
        <time>2017-08-29T13:16:26Z</time>
      </trkpt>
      <trkpt lat="44.75712" lon="6.24384">
        <ele>2110</ele>
        <time>2017-08-29T13:16:35Z</time>
      </trkpt>
      <trkpt lat="44.75712" lon="6.24384">
        <ele>2110</ele>
        <time>2017-08-29T13:16:46Z</time>
      </trkpt>
      <trkpt lat="44.75712" lon="6.24384">
        <ele>2110</ele>
        <time>2017-08-29T13:16:56Z</time>
      </trkpt>
      <trkpt lat="44.75712" lon="6.24384">
        <ele>2110</ele>
        <time>2017-08-29T13:17:05Z</time>
      </trkpt>
      <trkpt lat="44.75712" lon="6.24384">
        <ele>2110</ele>
        <time>2017-08-29T13:17:16Z</time>
      </trkpt>
      <trkpt lat="44.75712" lon="6.24384">
        <ele>2110</ele>
        <time>2017-08-29T13:17:26Z</time>
      </trkpt>
      <trkpt lat="44.75674" lon="6.24378">
        <ele>2110</ele>
        <time>2017-08-29T13:17:35Z</time>
      </trkpt>
      <trkpt lat="44.75674" lon="6.24378">
        <ele>2110</ele>
        <time>2017-08-29T13:17:46Z</time>
      </trkpt>
      <trkpt lat="44.75674" lon="6.24378">
        <ele>2110</ele>
        <time>2017-08-29T13:17:56Z</time>
      </trkpt>
      <trkpt lat="44.75674" lon="6.24378">
        <ele>2110</ele>
        <time>2017-08-29T13:18:05Z</time>
      </trkpt>
      <trkpt lat="44.75639" lon="6.24364">
        <ele>2096</ele>
        <time>2017-08-29T13:18:16Z</time>
      </trkpt>
      <trkpt lat="44.75639" lon="6.24364">
        <ele>2096</ele>
        <time>2017-08-29T13:18:26Z</time>
      </trkpt>
      <trkpt lat="44.75639" lon="6.24364">
        <ele>2096</ele>
        <time>2017-08-29T13:18:35Z</time>
      </trkpt>
      <trkpt lat="44.75639" lon="6.24364">
        <ele>2096</ele>
        <time>2017-08-29T13:18:46Z</time>
      </trkpt>
      <trkpt lat="44.75639" lon="6.24364">
        <ele>2096</ele>
        <time>2017-08-29T13:18:56Z</time>
      </trkpt>
      <trkpt lat="44.75639" lon="6.24364">
        <ele>2096</ele>
        <time>2017-08-29T13:19:05Z</time>
      </trkpt>
      <trkpt lat="44.75639" lon="6.24364">
        <ele>2096</ele>
        <time>2017-08-29T13:19:16Z</time>
      </trkpt>
      <trkpt lat="44.75639" lon="6.24364">
        <ele>2096</ele>
        <time>2017-08-29T13:19:26Z</time>
      </trkpt>
      <trkpt lat="44.75639" lon="6.24364">
        <ele>2096</ele>
        <time>2017-08-29T13:19:35Z</time>
      </trkpt>
      <trkpt lat="44.75639" lon="6.24364">
        <ele>2096</ele>
        <time>2017-08-29T13:19:46Z</time>
      </trkpt>
      <trkpt lat="44.75639" lon="6.24364">
        <ele>2096</ele>
        <time>2017-08-29T13:19:56Z</time>
      </trkpt>
      <trkpt lat="44.75635" lon="6.24399">
        <ele>2066</ele>
        <time>2017-08-29T13:20:05Z</time>
      </trkpt>
      <trkpt lat="44.75635" lon="6.24399">
        <ele>2066</ele>
        <time>2017-08-29T13:20:16Z</time>
      </trkpt>
      <trkpt lat="44.75635" lon="6.24399">
        <ele>2066</ele>
        <time>2017-08-29T13:20:26Z</time>
      </trkpt>
      <trkpt lat="44.75635" lon="6.24399">
        <ele>2066</ele>
        <time>2017-08-29T13:20:35Z</time>
      </trkpt>
      <trkpt lat="44.75635" lon="6.24399">
        <ele>2066</ele>
        <time>2017-08-29T13:20:46Z</time>
      </trkpt>
      <trkpt lat="44.75635" lon="6.24399">
        <ele>2066</ele>
        <time>2017-08-29T13:20:56Z</time>
      </trkpt>
      <trkpt lat="44.75635" lon="6.24399">
        <ele>2066</ele>
        <time>2017-08-29T13:21:05Z</time>
      </trkpt>
      <trkpt lat="44.75635" lon="6.24399">
        <ele>2066</ele>
        <time>2017-08-29T13:21:16Z</time>
      </trkpt>
      <trkpt lat="44.75635" lon="6.24399">
        <ele>2066</ele>
        <time>2017-08-29T13:21:26Z</time>
      </trkpt>
      <trkpt lat="44.75635" lon="6.24399">
        <ele>2066</ele>
        <time>2017-08-29T13:21:35Z</time>
      </trkpt>
      <trkpt lat="44.75635" lon="6.24399">
        <ele>2066</ele>
        <time>2017-08-29T13:21:46Z</time>
      </trkpt>
      <trkpt lat="44.75651" lon="6.24432">
        <ele>2039</ele>
        <time>2017-08-29T13:21:56Z</time>
      </trkpt>
      <trkpt lat="44.75652" lon="6.24432">
        <ele>2037</ele>
        <time>2017-08-29T13:22:05Z</time>
      </trkpt>
      <trkpt lat="44.75652" lon="6.24432">
        <ele>2037</ele>
        <time>2017-08-29T13:22:16Z</time>
      </trkpt>
      <trkpt lat="44.75652" lon="6.24432">
        <ele>2037</ele>
        <time>2017-08-29T13:22:26Z</time>
      </trkpt>
      <trkpt lat="44.75652" lon="6.24432">
        <ele>2037</ele>
        <time>2017-08-29T13:22:35Z</time>
      </trkpt>
      <trkpt lat="44.75652" lon="6.24432">
        <ele>2037</ele>
        <time>2017-08-29T13:22:46Z</time>
      </trkpt>
      <trkpt lat="44.75652" lon="6.24432">
        <ele>2037</ele>
        <time>2017-08-29T13:22:56Z</time>
      </trkpt>
      <trkpt lat="44.75618" lon="6.24428">
        <ele>2024</ele>
        <time>2017-08-29T13:23:05Z</time>
      </trkpt>
      <trkpt lat="44.75615" lon="6.24428">
        <ele>2025</ele>
        <time>2017-08-29T13:23:16Z</time>
      </trkpt>
      <trkpt lat="44.75615" lon="6.24428">
        <ele>2025</ele>
        <time>2017-08-29T13:23:26Z</time>
      </trkpt>
      <trkpt lat="44.75615" lon="6.24428">
        <ele>2025</ele>
        <time>2017-08-29T13:23:35Z</time>
      </trkpt>
      <trkpt lat="44.75615" lon="6.24428">
        <ele>2025</ele>
        <time>2017-08-29T13:23:46Z</time>
      </trkpt>
      <trkpt lat="44.75615" lon="6.24428">
        <ele>2025</ele>
        <time>2017-08-29T13:23:56Z</time>
      </trkpt>
      <trkpt lat="44.75615" lon="6.24428">
        <ele>2025</ele>
        <time>2017-08-29T13:24:05Z</time>
      </trkpt>
      <trkpt lat="44.75615" lon="6.24428">
        <ele>2025</ele>
        <time>2017-08-29T13:24:16Z</time>
      </trkpt>
      <trkpt lat="44.75615" lon="6.24428">
        <ele>2025</ele>
        <time>2017-08-29T13:24:26Z</time>
      </trkpt>
      <trkpt lat="44.75615" lon="6.24428">
        <ele>2025</ele>
        <time>2017-08-29T13:24:35Z</time>
      </trkpt>
      <trkpt lat="44.75627" lon="6.24479">
        <ele>2019</ele>
        <time>2017-08-29T13:24:46Z</time>
      </trkpt>
      <trkpt lat="44.75627" lon="6.24479">
        <ele>2019</ele>
        <time>2017-08-29T13:24:56Z</time>
      </trkpt>
      <trkpt lat="44.75627" lon="6.24479">
        <ele>2019</ele>
        <time>2017-08-29T13:25:05Z</time>
      </trkpt>
      <trkpt lat="44.75627" lon="6.24479">
        <ele>2019</ele>
        <time>2017-08-29T13:25:16Z</time>
      </trkpt>
      <trkpt lat="44.75627" lon="6.24479">
        <ele>2019</ele>
        <time>2017-08-29T13:25:26Z</time>
      </trkpt>
      <trkpt lat="44.75627" lon="6.24479">
        <ele>2019</ele>
        <time>2017-08-29T13:25:35Z</time>
      </trkpt>
      <trkpt lat="44.75627" lon="6.24479">
        <ele>2019</ele>
        <time>2017-08-29T13:25:46Z</time>
      </trkpt>
      <trkpt lat="44.75627" lon="6.24479">
        <ele>2019</ele>
        <time>2017-08-29T13:25:56Z</time>
      </trkpt>
      <trkpt lat="44.75627" lon="6.24479">
        <ele>2019</ele>
        <time>2017-08-29T13:26:05Z</time>
      </trkpt>
      <trkpt lat="44.75627" lon="6.24479">
        <ele>2019</ele>
        <time>2017-08-29T13:26:16Z</time>
      </trkpt>
      <trkpt lat="44.75627" lon="6.24479">
        <ele>2019</ele>
        <time>2017-08-29T13:26:26Z</time>
      </trkpt>
      <trkpt lat="44.75627" lon="6.24479">
        <ele>2019</ele>
        <time>2017-08-29T13:26:35Z</time>
      </trkpt>
      <trkpt lat="44.75627" lon="6.24479">
        <ele>2019</ele>
        <time>2017-08-29T13:26:46Z</time>
      </trkpt>
      <trkpt lat="44.75627" lon="6.24479">
        <ele>2019</ele>
        <time>2017-08-29T13:26:56Z</time>
      </trkpt>
      <trkpt lat="44.75627" lon="6.24479">
        <ele>2019</ele>
        <time>2017-08-29T13:27:05Z</time>
      </trkpt>
      <trkpt lat="44.75627" lon="6.24479">
        <ele>2019</ele>
        <time>2017-08-29T13:27:16Z</time>
      </trkpt>
      <trkpt lat="44.75627" lon="6.24479">
        <ele>2019</ele>
        <time>2017-08-29T13:27:26Z</time>
      </trkpt>
      <trkpt lat="44.75627" lon="6.24479">
        <ele>2019</ele>
        <time>2017-08-29T13:27:35Z</time>
      </trkpt>
      <trkpt lat="44.75627" lon="6.24479">
        <ele>2019</ele>
        <time>2017-08-29T13:27:46Z</time>
      </trkpt>
      <trkpt lat="44.75608" lon="6.24514">
        <ele>2000</ele>
        <time>2017-08-29T13:27:56Z</time>
      </trkpt>
      <trkpt lat="44.75605" lon="6.24518">
        <ele>2005</ele>
        <time>2017-08-29T13:28:05Z</time>
      </trkpt>
      <trkpt lat="44.75605" lon="6.24518">
        <ele>2005</ele>
        <time>2017-08-29T13:28:16Z</time>
      </trkpt>
      <trkpt lat="44.75619" lon="6.24507">
        <ele>1964</ele>
        <time>2017-08-29T13:28:26Z</time>
      </trkpt>
      <trkpt lat="44.75619" lon="6.24507">
        <ele>1964</ele>
        <time>2017-08-29T13:28:35Z</time>
      </trkpt>
      <trkpt lat="44.75619" lon="6.24507">
        <ele>1964</ele>
        <time>2017-08-29T13:28:46Z</time>
      </trkpt>
      <trkpt lat="44.75619" lon="6.24507">
        <ele>1964</ele>
        <time>2017-08-29T13:28:56Z</time>
      </trkpt>
      <trkpt lat="44.75619" lon="6.24507">
        <ele>1964</ele>
        <time>2017-08-29T13:29:05Z</time>
      </trkpt>
      <trkpt lat="44.75619" lon="6.24507">
        <ele>1964</ele>
        <time>2017-08-29T13:29:16Z</time>
      </trkpt>
      <trkpt lat="44.75584" lon="6.2451">
        <ele>1957</ele>
        <time>2017-08-29T13:29:26Z</time>
      </trkpt>
      <trkpt lat="44.75582" lon="6.24512">
        <ele>1959</ele>
        <time>2017-08-29T13:29:35Z</time>
      </trkpt>
      <trkpt lat="44.75582" lon="6.24512">
        <ele>1959</ele>
        <time>2017-08-29T13:29:46Z</time>
      </trkpt>
      <trkpt lat="44.75582" lon="6.24512">
        <ele>1959</ele>
        <time>2017-08-29T13:29:56Z</time>
      </trkpt>
      <trkpt lat="44.75566" lon="6.24492">
        <ele>1956</ele>
        <time>2017-08-29T13:30:05Z</time>
      </trkpt>
      <trkpt lat="44.75566" lon="6.24492">
        <ele>1956</ele>
        <time>2017-08-29T13:30:16Z</time>
      </trkpt>
      <trkpt lat="44.75566" lon="6.24492">
        <ele>1956</ele>
        <time>2017-08-29T13:30:26Z</time>
      </trkpt>
      <trkpt lat="44.75566" lon="6.24492">
        <ele>1956</ele>
        <time>2017-08-29T13:30:35Z</time>
      </trkpt>
      <trkpt lat="44.75532" lon="6.24499">
        <ele>1977</ele>
        <time>2017-08-29T13:30:46Z</time>
      </trkpt>
      <trkpt lat="44.75532" lon="6.24499">
        <ele>1977</ele>
        <time>2017-08-29T13:30:56Z</time>
      </trkpt>
      <trkpt lat="44.75532" lon="6.24499">
        <ele>1977</ele>
        <time>2017-08-29T13:31:05Z</time>
      </trkpt>
      <trkpt lat="44.75499" lon="6.24513">
        <ele>2002</ele>
        <time>2017-08-29T13:31:16Z</time>
      </trkpt>
      <trkpt lat="44.75499" lon="6.24513">
        <ele>2002</ele>
        <time>2017-08-29T13:31:26Z</time>
      </trkpt>
      <trkpt lat="44.75499" lon="6.24513">
        <ele>2002</ele>
        <time>2017-08-29T13:31:35Z</time>
      </trkpt>
      <trkpt lat="44.75499" lon="6.24513">
        <ele>2002</ele>
        <time>2017-08-29T13:31:46Z</time>
      </trkpt>
      <trkpt lat="44.75499" lon="6.24513">
        <ele>2002</ele>
        <time>2017-08-29T13:31:56Z</time>
      </trkpt>
      <trkpt lat="44.75462" lon="6.24506">
        <ele>1990</ele>
        <time>2017-08-29T13:32:05Z</time>
      </trkpt>
      <trkpt lat="44.75462" lon="6.24506">
        <ele>1990</ele>
        <time>2017-08-29T13:32:16Z</time>
      </trkpt>
      <trkpt lat="44.75462" lon="6.24506">
        <ele>1990</ele>
        <time>2017-08-29T13:32:26Z</time>
      </trkpt>
      <trkpt lat="44.75462" lon="6.24506">
        <ele>1990</ele>
        <time>2017-08-29T13:32:35Z</time>
      </trkpt>
      <trkpt lat="44.75462" lon="6.24506">
        <ele>1990</ele>
        <time>2017-08-29T13:32:46Z</time>
      </trkpt>
      <trkpt lat="44.75427" lon="6.24499">
        <ele>1976</ele>
        <time>2017-08-29T13:32:56Z</time>
      </trkpt>
      <trkpt lat="44.75427" lon="6.24499">
        <ele>1976</ele>
        <time>2017-08-29T13:33:05Z</time>
      </trkpt>
      <trkpt lat="44.75427" lon="6.24499">
        <ele>1976</ele>
        <time>2017-08-29T13:33:16Z</time>
      </trkpt>
      <trkpt lat="44.75427" lon="6.24499">
        <ele>1976</ele>
        <time>2017-08-29T13:33:26Z</time>
      </trkpt>
      <trkpt lat="44.75427" lon="6.24499">
        <ele>1976</ele>
        <time>2017-08-29T13:33:35Z</time>
      </trkpt>
      <trkpt lat="44.75427" lon="6.24499">
        <ele>1976</ele>
        <time>2017-08-29T13:33:46Z</time>
      </trkpt>
      <trkpt lat="44.75395" lon="6.24519">
        <ele>1958</ele>
        <time>2017-08-29T13:33:56Z</time>
      </trkpt>
      <trkpt lat="44.75395" lon="6.24519">
        <ele>1958</ele>
        <time>2017-08-29T13:34:05Z</time>
      </trkpt>
      <trkpt lat="44.75395" lon="6.24519">
        <ele>1958</ele>
        <time>2017-08-29T13:34:16Z</time>
      </trkpt>
      <trkpt lat="44.75395" lon="6.24519">
        <ele>1958</ele>
        <time>2017-08-29T13:34:26Z</time>
      </trkpt>
      <trkpt lat="44.75364" lon="6.24542">
        <ele>1973</ele>
        <time>2017-08-29T13:34:35Z</time>
      </trkpt>
      <trkpt lat="44.75364" lon="6.24542">
        <ele>1973</ele>
        <time>2017-08-29T13:34:46Z</time>
      </trkpt>
      <trkpt lat="44.75364" lon="6.24542">
        <ele>1973</ele>
        <time>2017-08-29T13:34:56Z</time>
      </trkpt>
      <trkpt lat="44.75352" lon="6.24517">
        <ele>1935</ele>
        <time>2017-08-29T13:35:05Z</time>
      </trkpt>
      <trkpt lat="44.75352" lon="6.24517">
        <ele>1935</ele>
        <time>2017-08-29T13:35:16Z</time>
      </trkpt>
      <trkpt lat="44.75352" lon="6.24517">
        <ele>1935</ele>
        <time>2017-08-29T13:35:26Z</time>
      </trkpt>
      <trkpt lat="44.75352" lon="6.24517">
        <ele>1935</ele>
        <time>2017-08-29T13:35:35Z</time>
      </trkpt>
      <trkpt lat="44.75352" lon="6.24517">
        <ele>1935</ele>
        <time>2017-08-29T13:35:46Z</time>
      </trkpt>
      <trkpt lat="44.75352" lon="6.24517">
        <ele>1935</ele>
        <time>2017-08-29T13:35:56Z</time>
      </trkpt>
      <trkpt lat="44.75317" lon="6.2453">
        <ele>1917</ele>
        <time>2017-08-29T13:36:05Z</time>
      </trkpt>
      <trkpt lat="44.75317" lon="6.2453">
        <ele>1917</ele>
        <time>2017-08-29T13:36:16Z</time>
      </trkpt>
      <trkpt lat="44.75317" lon="6.2453">
        <ele>1917</ele>
        <time>2017-08-29T13:36:26Z</time>
      </trkpt>
      <trkpt lat="44.75283" lon="6.24555">
        <ele>1919</ele>
        <time>2017-08-29T13:36:35Z</time>
      </trkpt>
      <trkpt lat="44.75282" lon="6.24556">
        <ele>1919</ele>
        <time>2017-08-29T13:36:46Z</time>
      </trkpt>
      <trkpt lat="44.75282" lon="6.24556">
        <ele>1919</ele>
        <time>2017-08-29T13:36:56Z</time>
      </trkpt>
      <trkpt lat="44.75282" lon="6.24556">
        <ele>1919</ele>
        <time>2017-08-29T13:37:05Z</time>
      </trkpt>
      <trkpt lat="44.75282" lon="6.24556">
        <ele>1919</ele>
        <time>2017-08-29T13:37:16Z</time>
      </trkpt>
      <trkpt lat="44.75247" lon="6.24581">
        <ele>1912</ele>
        <time>2017-08-29T13:37:26Z</time>
      </trkpt>
      <trkpt lat="44.75247" lon="6.24581">
        <ele>1912</ele>
        <time>2017-08-29T13:37:35Z</time>
      </trkpt>
      <trkpt lat="44.75247" lon="6.24581">
        <ele>1912</ele>
        <time>2017-08-29T13:37:46Z</time>
      </trkpt>
      <trkpt lat="44.75247" lon="6.24581">
        <ele>1912</ele>
        <time>2017-08-29T13:37:56Z</time>
      </trkpt>
      <trkpt lat="44.75212" lon="6.24561">
        <ele>1901</ele>
        <time>2017-08-29T13:38:05Z</time>
      </trkpt>
      <trkpt lat="44.75212" lon="6.24561">
        <ele>1901</ele>
        <time>2017-08-29T13:38:16Z</time>
      </trkpt>
      <trkpt lat="44.75212" lon="6.24561">
        <ele>1901</ele>
        <time>2017-08-29T13:38:26Z</time>
      </trkpt>
      <trkpt lat="44.75212" lon="6.24561">
        <ele>1901</ele>
        <time>2017-08-29T13:38:35Z</time>
      </trkpt>
      <trkpt lat="44.75212" lon="6.24561">
        <ele>1901</ele>
        <time>2017-08-29T13:38:46Z</time>
      </trkpt>
      <trkpt lat="44.75212" lon="6.24561">
        <ele>1901</ele>
        <time>2017-08-29T13:38:56Z</time>
      </trkpt>
      <trkpt lat="44.75212" lon="6.24561">
        <ele>1901</ele>
        <time>2017-08-29T13:39:05Z</time>
      </trkpt>
      <trkpt lat="44.75212" lon="6.24561">
        <ele>1901</ele>
        <time>2017-08-29T13:39:16Z</time>
      </trkpt>
      <trkpt lat="44.75212" lon="6.24561">
        <ele>1901</ele>
        <time>2017-08-29T13:39:26Z</time>
      </trkpt>
      <trkpt lat="44.75219" lon="6.24609">
        <ele>1888</ele>
        <time>2017-08-29T13:39:35Z</time>
      </trkpt>
      <trkpt lat="44.75221" lon="6.2461">
        <ele>1888</ele>
        <time>2017-08-29T13:39:46Z</time>
      </trkpt>
      <trkpt lat="44.75221" lon="6.2461">
        <ele>1888</ele>
        <time>2017-08-29T13:39:56Z</time>
      </trkpt>
      <trkpt lat="44.75221" lon="6.2461">
        <ele>1888</ele>
        <time>2017-08-29T13:40:05Z</time>
      </trkpt>
      <trkpt lat="44.75221" lon="6.2461">
        <ele>1888</ele>
        <time>2017-08-29T13:40:16Z</time>
      </trkpt>
      <trkpt lat="44.75221" lon="6.2461">
        <ele>1888</ele>
        <time>2017-08-29T13:40:26Z</time>
      </trkpt>
      <trkpt lat="44.75221" lon="6.2461">
        <ele>1888</ele>
        <time>2017-08-29T13:40:35Z</time>
      </trkpt>
      <trkpt lat="44.75221" lon="6.2461">
        <ele>1888</ele>
        <time>2017-08-29T13:40:46Z</time>
      </trkpt>
      <trkpt lat="44.75221" lon="6.2461">
        <ele>1888</ele>
        <time>2017-08-29T13:40:56Z</time>
      </trkpt>
      <trkpt lat="44.75221" lon="6.2461">
        <ele>1888</ele>
        <time>2017-08-29T13:41:05Z</time>
      </trkpt>
      <trkpt lat="44.75221" lon="6.2461">
        <ele>1888</ele>
        <time>2017-08-29T13:41:16Z</time>
      </trkpt>
      <trkpt lat="44.75221" lon="6.2461">
        <ele>1888</ele>
        <time>2017-08-29T13:41:26Z</time>
      </trkpt>
      <trkpt lat="44.75221" lon="6.2461">
        <ele>1888</ele>
        <time>2017-08-29T13:41:35Z</time>
      </trkpt>
      <trkpt lat="44.75221" lon="6.2461">
        <ele>1888</ele>
        <time>2017-08-29T13:41:46Z</time>
      </trkpt>
      <trkpt lat="44.75221" lon="6.2461">
        <ele>1888</ele>
        <time>2017-08-29T13:41:56Z</time>
      </trkpt>
      <trkpt lat="44.75221" lon="6.2461">
        <ele>1888</ele>
        <time>2017-08-29T13:42:05Z</time>
      </trkpt>
      <trkpt lat="44.75221" lon="6.2461">
        <ele>1888</ele>
        <time>2017-08-29T13:42:16Z</time>
      </trkpt>
      <trkpt lat="44.75221" lon="6.2461">
        <ele>1888</ele>
        <time>2017-08-29T13:42:26Z</time>
      </trkpt>
      <trkpt lat="44.75221" lon="6.2461">
        <ele>1888</ele>
        <time>2017-08-29T13:42:35Z</time>
      </trkpt>
      <trkpt lat="44.75221" lon="6.2461">
        <ele>1888</ele>
        <time>2017-08-29T13:42:46Z</time>
      </trkpt>
      <trkpt lat="44.75221" lon="6.2461">
        <ele>1888</ele>
        <time>2017-08-29T13:42:56Z</time>
      </trkpt>
      <trkpt lat="44.75221" lon="6.2461">
        <ele>1888</ele>
        <time>2017-08-29T13:43:05Z</time>
      </trkpt>
      <trkpt lat="44.75221" lon="6.2461">
        <ele>1888</ele>
        <time>2017-08-29T13:43:16Z</time>
      </trkpt>
      <trkpt lat="44.75221" lon="6.2461">
        <ele>1888</ele>
        <time>2017-08-29T13:43:26Z</time>
      </trkpt>
      <trkpt lat="44.75221" lon="6.2461">
        <ele>1888</ele>
        <time>2017-08-29T13:43:35Z</time>
      </trkpt>
      <trkpt lat="44.75221" lon="6.2461">
        <ele>1888</ele>
        <time>2017-08-29T13:43:46Z</time>
      </trkpt>
      <trkpt lat="44.75221" lon="6.2461">
        <ele>1888</ele>
        <time>2017-08-29T13:43:56Z</time>
      </trkpt>
      <trkpt lat="44.75221" lon="6.2461">
        <ele>1888</ele>
        <time>2017-08-29T13:44:05Z</time>
      </trkpt>
      <trkpt lat="44.75221" lon="6.2461">
        <ele>1888</ele>
        <time>2017-08-29T13:44:16Z</time>
      </trkpt>
      <trkpt lat="44.75221" lon="6.2461">
        <ele>1888</ele>
        <time>2017-08-29T13:44:26Z</time>
      </trkpt>
      <trkpt lat="44.75221" lon="6.2461">
        <ele>1888</ele>
        <time>2017-08-29T13:44:35Z</time>
      </trkpt>
      <trkpt lat="44.75221" lon="6.2461">
        <ele>1888</ele>
        <time>2017-08-29T13:44:46Z</time>
      </trkpt>
      <trkpt lat="44.75221" lon="6.2461">
        <ele>1888</ele>
        <time>2017-08-29T13:44:56Z</time>
      </trkpt>
      <trkpt lat="44.75221" lon="6.2461">
        <ele>1888</ele>
        <time>2017-08-29T13:45:05Z</time>
      </trkpt>
      <trkpt lat="44.75221" lon="6.2461">
        <ele>1888</ele>
        <time>2017-08-29T13:45:16Z</time>
      </trkpt>
      <trkpt lat="44.75221" lon="6.2461">
        <ele>1888</ele>
        <time>2017-08-29T13:45:26Z</time>
      </trkpt>
      <trkpt lat="44.75221" lon="6.2461">
        <ele>1888</ele>
        <time>2017-08-29T13:45:35Z</time>
      </trkpt>
      <trkpt lat="44.75221" lon="6.2461">
        <ele>1888</ele>
        <time>2017-08-29T13:45:46Z</time>
      </trkpt>
      <trkpt lat="44.75221" lon="6.2461">
        <ele>1888</ele>
        <time>2017-08-29T13:45:56Z</time>
      </trkpt>
      <trkpt lat="44.75221" lon="6.2461">
        <ele>1888</ele>
        <time>2017-08-29T13:46:05Z</time>
      </trkpt>
      <trkpt lat="44.75221" lon="6.2461">
        <ele>1888</ele>
        <time>2017-08-29T13:46:16Z</time>
      </trkpt>
      <trkpt lat="44.75221" lon="6.2461">
        <ele>1888</ele>
        <time>2017-08-29T13:46:26Z</time>
      </trkpt>
      <trkpt lat="44.75221" lon="6.2461">
        <ele>1888</ele>
        <time>2017-08-29T13:46:35Z</time>
      </trkpt>
      <trkpt lat="44.75221" lon="6.2461">
        <ele>1888</ele>
        <time>2017-08-29T13:46:46Z</time>
      </trkpt>
      <trkpt lat="44.75221" lon="6.2461">
        <ele>1888</ele>
        <time>2017-08-29T13:46:56Z</time>
      </trkpt>
      <trkpt lat="44.75221" lon="6.2461">
        <ele>1888</ele>
        <time>2017-08-29T13:47:05Z</time>
      </trkpt>
      <trkpt lat="44.75221" lon="6.2461">
        <ele>1888</ele>
        <time>2017-08-29T13:47:16Z</time>
      </trkpt>
      <trkpt lat="44.75221" lon="6.2461">
        <ele>1888</ele>
        <time>2017-08-29T13:47:26Z</time>
      </trkpt>
      <trkpt lat="44.75221" lon="6.2461">
        <ele>1888</ele>
        <time>2017-08-29T13:47:35Z</time>
      </trkpt>
      <trkpt lat="44.75221" lon="6.2461">
        <ele>1888</ele>
        <time>2017-08-29T13:47:46Z</time>
      </trkpt>
      <trkpt lat="44.75221" lon="6.2461">
        <ele>1888</ele>
        <time>2017-08-29T13:47:56Z</time>
      </trkpt>
      <trkpt lat="44.75221" lon="6.2461">
        <ele>1888</ele>
        <time>2017-08-29T13:48:05Z</time>
      </trkpt>
      <trkpt lat="44.75221" lon="6.2461">
        <ele>1888</ele>
        <time>2017-08-29T13:48:16Z</time>
      </trkpt>
      <trkpt lat="44.75221" lon="6.2461">
        <ele>1888</ele>
        <time>2017-08-29T13:48:26Z</time>
      </trkpt>
      <trkpt lat="44.75221" lon="6.2461">
        <ele>1888</ele>
        <time>2017-08-29T13:48:35Z</time>
      </trkpt>
      <trkpt lat="44.75221" lon="6.2461">
        <ele>1888</ele>
        <time>2017-08-29T13:48:46Z</time>
      </trkpt>
      <trkpt lat="44.75221" lon="6.2461">
        <ele>1888</ele>
        <time>2017-08-29T13:48:56Z</time>
      </trkpt>
      <trkpt lat="44.75221" lon="6.2461">
        <ele>1888</ele>
        <time>2017-08-29T13:49:05Z</time>
      </trkpt>
      <trkpt lat="44.75221" lon="6.2461">
        <ele>1888</ele>
        <time>2017-08-29T13:49:16Z</time>
      </trkpt>
      <trkpt lat="44.75221" lon="6.2461">
        <ele>1888</ele>
        <time>2017-08-29T13:49:26Z</time>
      </trkpt>
      <trkpt lat="44.75221" lon="6.2461">
        <ele>1888</ele>
        <time>2017-08-29T13:49:35Z</time>
      </trkpt>
      <trkpt lat="44.75221" lon="6.2461">
        <ele>1888</ele>
        <time>2017-08-29T13:49:46Z</time>
      </trkpt>
      <trkpt lat="44.75233" lon="6.2464">
        <ele>1857</ele>
        <time>2017-08-29T13:49:56Z</time>
      </trkpt>
      <trkpt lat="44.75233" lon="6.2464">
        <ele>1857</ele>
        <time>2017-08-29T13:50:05Z</time>
      </trkpt>
      <trkpt lat="44.75233" lon="6.2464">
        <ele>1857</ele>
        <time>2017-08-29T13:50:16Z</time>
      </trkpt>
      <trkpt lat="44.75233" lon="6.2464">
        <ele>1857</ele>
        <time>2017-08-29T13:50:26Z</time>
      </trkpt>
      <trkpt lat="44.75233" lon="6.2464">
        <ele>1857</ele>
        <time>2017-08-29T13:50:35Z</time>
      </trkpt>
      <trkpt lat="44.75233" lon="6.2464">
        <ele>1857</ele>
        <time>2017-08-29T13:50:46Z</time>
      </trkpt>
      <trkpt lat="44.75233" lon="6.2464">
        <ele>1857</ele>
        <time>2017-08-29T13:50:56Z</time>
      </trkpt>
      <trkpt lat="44.75233" lon="6.2464">
        <ele>1857</ele>
        <time>2017-08-29T13:51:05Z</time>
      </trkpt>
      <trkpt lat="44.75233" lon="6.2464">
        <ele>1857</ele>
        <time>2017-08-29T13:51:16Z</time>
      </trkpt>
      <trkpt lat="44.75233" lon="6.2464">
        <ele>1857</ele>
        <time>2017-08-29T13:51:26Z</time>
      </trkpt>
      <trkpt lat="44.75272" lon="6.24636">
        <ele>1851</ele>
        <time>2017-08-29T13:51:35Z</time>
      </trkpt>
      <trkpt lat="44.75272" lon="6.24636">
        <ele>1851</ele>
        <time>2017-08-29T13:51:46Z</time>
      </trkpt>
      <trkpt lat="44.75272" lon="6.24636">
        <ele>1851</ele>
        <time>2017-08-29T13:51:56Z</time>
      </trkpt>
      <trkpt lat="44.75272" lon="6.24636">
        <ele>1851</ele>
        <time>2017-08-29T13:52:05Z</time>
      </trkpt>
      <trkpt lat="44.75305" lon="6.24613">
        <ele>1839</ele>
        <time>2017-08-29T13:52:16Z</time>
      </trkpt>
      <trkpt lat="44.75306" lon="6.24613">
        <ele>1839</ele>
        <time>2017-08-29T13:52:26Z</time>
      </trkpt>
      <trkpt lat="44.75306" lon="6.24613">
        <ele>1839</ele>
        <time>2017-08-29T13:52:35Z</time>
      </trkpt>
      <trkpt lat="44.75306" lon="6.24613">
        <ele>1839</ele>
        <time>2017-08-29T13:52:46Z</time>
      </trkpt>
      <trkpt lat="44.75306" lon="6.24613">
        <ele>1839</ele>
        <time>2017-08-29T13:52:56Z</time>
      </trkpt>
      <trkpt lat="44.75342" lon="6.24597">
        <ele>1831</ele>
        <time>2017-08-29T13:53:05Z</time>
      </trkpt>
      <trkpt lat="44.75342" lon="6.24597">
        <ele>1831</ele>
        <time>2017-08-29T13:53:16Z</time>
      </trkpt>
      <trkpt lat="44.75342" lon="6.24597">
        <ele>1831</ele>
        <time>2017-08-29T13:53:26Z</time>
      </trkpt>
      <trkpt lat="44.75342" lon="6.24597">
        <ele>1831</ele>
        <time>2017-08-29T13:53:35Z</time>
      </trkpt>
      <trkpt lat="44.75342" lon="6.24597">
        <ele>1831</ele>
        <time>2017-08-29T13:53:46Z</time>
      </trkpt>
      <trkpt lat="44.75342" lon="6.24597">
        <ele>1831</ele>
        <time>2017-08-29T13:53:56Z</time>
      </trkpt>
      <trkpt lat="44.75342" lon="6.24597">
        <ele>1831</ele>
        <time>2017-08-29T13:54:05Z</time>
      </trkpt>
      <trkpt lat="44.75342" lon="6.24597">
        <ele>1831</ele>
        <time>2017-08-29T13:54:16Z</time>
      </trkpt>
      <trkpt lat="44.75342" lon="6.24597">
        <ele>1831</ele>
        <time>2017-08-29T13:54:26Z</time>
      </trkpt>
      <trkpt lat="44.75342" lon="6.24597">
        <ele>1831</ele>
        <time>2017-08-29T13:54:35Z</time>
      </trkpt>
      <trkpt lat="44.75342" lon="6.24597">
        <ele>1831</ele>
        <time>2017-08-29T13:54:46Z</time>
      </trkpt>
      <trkpt lat="44.75342" lon="6.24597">
        <ele>1831</ele>
        <time>2017-08-29T13:54:56Z</time>
      </trkpt>
      <trkpt lat="44.75342" lon="6.24597">
        <ele>1831</ele>
        <time>2017-08-29T13:55:05Z</time>
      </trkpt>
      <trkpt lat="44.75342" lon="6.24597">
        <ele>1831</ele>
        <time>2017-08-29T13:55:16Z</time>
      </trkpt>
      <trkpt lat="44.75342" lon="6.24597">
        <ele>1831</ele>
        <time>2017-08-29T13:55:26Z</time>
      </trkpt>
      <trkpt lat="44.75344" lon="6.24649">
        <ele>1821</ele>
        <time>2017-08-29T13:55:35Z</time>
      </trkpt>
      <trkpt lat="44.75344" lon="6.24649">
        <ele>1821</ele>
        <time>2017-08-29T13:55:46Z</time>
      </trkpt>
      <trkpt lat="44.75344" lon="6.24649">
        <ele>1821</ele>
        <time>2017-08-29T13:55:56Z</time>
      </trkpt>
      <trkpt lat="44.75344" lon="6.24649">
        <ele>1821</ele>
        <time>2017-08-29T13:56:05Z</time>
      </trkpt>
      <trkpt lat="44.75344" lon="6.24649">
        <ele>1821</ele>
        <time>2017-08-29T13:56:16Z</time>
      </trkpt>
      <trkpt lat="44.75344" lon="6.24649">
        <ele>1821</ele>
        <time>2017-08-29T13:56:26Z</time>
      </trkpt>
      <trkpt lat="44.75344" lon="6.24649">
        <ele>1821</ele>
        <time>2017-08-29T13:56:35Z</time>
      </trkpt>
      <trkpt lat="44.75344" lon="6.24649">
        <ele>1821</ele>
        <time>2017-08-29T13:56:46Z</time>
      </trkpt>
      <trkpt lat="44.75344" lon="6.24649">
        <ele>1821</ele>
        <time>2017-08-29T13:56:56Z</time>
      </trkpt>
      <trkpt lat="44.75344" lon="6.24649">
        <ele>1821</ele>
        <time>2017-08-29T13:57:05Z</time>
      </trkpt>
      <trkpt lat="44.75344" lon="6.24649">
        <ele>1821</ele>
        <time>2017-08-29T13:57:16Z</time>
      </trkpt>
      <trkpt lat="44.75344" lon="6.24649">
        <ele>1821</ele>
        <time>2017-08-29T13:57:26Z</time>
      </trkpt>
      <trkpt lat="44.75373" lon="6.2466">
        <ele>1796</ele>
        <time>2017-08-29T13:57:35Z</time>
      </trkpt>
      <trkpt lat="44.75373" lon="6.2466">
        <ele>1796</ele>
        <time>2017-08-29T13:57:46Z</time>
      </trkpt>
      <trkpt lat="44.75373" lon="6.2466">
        <ele>1796</ele>
        <time>2017-08-29T13:57:56Z</time>
      </trkpt>
      <trkpt lat="44.75373" lon="6.2466">
        <ele>1796</ele>
        <time>2017-08-29T13:58:05Z</time>
      </trkpt>
      <trkpt lat="44.75373" lon="6.2466">
        <ele>1796</ele>
        <time>2017-08-29T13:58:16Z</time>
      </trkpt>
      <trkpt lat="44.75373" lon="6.2466">
        <ele>1796</ele>
        <time>2017-08-29T13:58:26Z</time>
      </trkpt>
      <trkpt lat="44.75373" lon="6.2466">
        <ele>1796</ele>
        <time>2017-08-29T13:58:35Z</time>
      </trkpt>
      <trkpt lat="44.75373" lon="6.2466">
        <ele>1796</ele>
        <time>2017-08-29T13:58:46Z</time>
      </trkpt>
      <trkpt lat="44.75373" lon="6.2466">
        <ele>1796</ele>
        <time>2017-08-29T13:58:56Z</time>
      </trkpt>
      <trkpt lat="44.75373" lon="6.2466">
        <ele>1796</ele>
        <time>2017-08-29T13:59:05Z</time>
      </trkpt>
      <trkpt lat="44.75373" lon="6.2466">
        <ele>1796</ele>
        <time>2017-08-29T13:59:16Z</time>
      </trkpt>
      <trkpt lat="44.75373" lon="6.2466">
        <ele>1796</ele>
        <time>2017-08-29T13:59:26Z</time>
      </trkpt>
      <trkpt lat="44.75373" lon="6.2466">
        <ele>1796</ele>
        <time>2017-08-29T13:59:35Z</time>
      </trkpt>
      <trkpt lat="44.75373" lon="6.2466">
        <ele>1796</ele>
        <time>2017-08-29T13:59:46Z</time>
      </trkpt>
      <trkpt lat="44.75391" lon="6.24701">
        <ele>1781</ele>
        <time>2017-08-29T13:59:56Z</time>
      </trkpt>
      <trkpt lat="44.75391" lon="6.24701">
        <ele>1781</ele>
        <time>2017-08-29T14:00:05Z</time>
      </trkpt>
      <trkpt lat="44.75391" lon="6.24701">
        <ele>1781</ele>
        <time>2017-08-29T14:00:16Z</time>
      </trkpt>
      <trkpt lat="44.75391" lon="6.24701">
        <ele>1781</ele>
        <time>2017-08-29T14:00:26Z</time>
      </trkpt>
      <trkpt lat="44.75359" lon="6.24715">
        <ele>1766</ele>
        <time>2017-08-29T14:00:35Z</time>
      </trkpt>
      <trkpt lat="44.75357" lon="6.24715">
        <ele>1765</ele>
        <time>2017-08-29T14:00:46Z</time>
      </trkpt>
      <trkpt lat="44.75357" lon="6.24715">
        <ele>1765</ele>
        <time>2017-08-29T14:00:56Z</time>
      </trkpt>
      <trkpt lat="44.75357" lon="6.24715">
        <ele>1765</ele>
        <time>2017-08-29T14:01:05Z</time>
      </trkpt>
      <trkpt lat="44.75357" lon="6.24715">
        <ele>1765</ele>
        <time>2017-08-29T14:01:16Z</time>
      </trkpt>
      <trkpt lat="44.75357" lon="6.24715">
        <ele>1765</ele>
        <time>2017-08-29T14:01:26Z</time>
      </trkpt>
      <trkpt lat="44.75357" lon="6.24715">
        <ele>1765</ele>
        <time>2017-08-29T14:01:35Z</time>
      </trkpt>
      <trkpt lat="44.75357" lon="6.24715">
        <ele>1765</ele>
        <time>2017-08-29T14:01:46Z</time>
      </trkpt>
      <trkpt lat="44.75357" lon="6.24715">
        <ele>1765</ele>
        <time>2017-08-29T14:01:56Z</time>
      </trkpt>
      <trkpt lat="44.75357" lon="6.24715">
        <ele>1765</ele>
        <time>2017-08-29T14:02:05Z</time>
      </trkpt>
      <trkpt lat="44.75328" lon="6.24739">
        <ele>1749</ele>
        <time>2017-08-29T14:02:16Z</time>
      </trkpt>
      <trkpt lat="44.75326" lon="6.24741">
        <ele>1749</ele>
        <time>2017-08-29T14:02:26Z</time>
      </trkpt>
      <trkpt lat="44.75326" lon="6.24741">
        <ele>1749</ele>
        <time>2017-08-29T14:02:35Z</time>
      </trkpt>
      <trkpt lat="44.75326" lon="6.24741">
        <ele>1749</ele>
        <time>2017-08-29T14:02:46Z</time>
      </trkpt>
      <trkpt lat="44.75326" lon="6.24741">
        <ele>1749</ele>
        <time>2017-08-29T14:02:56Z</time>
      </trkpt>
      <trkpt lat="44.75326" lon="6.24741">
        <ele>1749</ele>
        <time>2017-08-29T14:03:05Z</time>
      </trkpt>
      <trkpt lat="44.75326" lon="6.24741">
        <ele>1749</ele>
        <time>2017-08-29T14:03:16Z</time>
      </trkpt>
      <trkpt lat="44.75356" lon="6.24766">
        <ele>1740</ele>
        <time>2017-08-29T14:03:26Z</time>
      </trkpt>
      <trkpt lat="44.75356" lon="6.24766">
        <ele>1740</ele>
        <time>2017-08-29T14:03:35Z</time>
      </trkpt>
      <trkpt lat="44.75356" lon="6.24766">
        <ele>1740</ele>
        <time>2017-08-29T14:03:46Z</time>
      </trkpt>
      <trkpt lat="44.75356" lon="6.24766">
        <ele>1740</ele>
        <time>2017-08-29T14:03:56Z</time>
      </trkpt>
      <trkpt lat="44.75356" lon="6.24766">
        <ele>1740</ele>
        <time>2017-08-29T14:04:05Z</time>
      </trkpt>
      <trkpt lat="44.75356" lon="6.24766">
        <ele>1740</ele>
        <time>2017-08-29T14:04:16Z</time>
      </trkpt>
      <trkpt lat="44.75356" lon="6.24766">
        <ele>1740</ele>
        <time>2017-08-29T14:04:26Z</time>
      </trkpt>
      <trkpt lat="44.75356" lon="6.24766">
        <ele>1740</ele>
        <time>2017-08-29T14:04:35Z</time>
      </trkpt>
      <trkpt lat="44.75323" lon="6.24784">
        <ele>1723</ele>
        <time>2017-08-29T14:04:46Z</time>
      </trkpt>
      <trkpt lat="44.75323" lon="6.24784">
        <ele>1723</ele>
        <time>2017-08-29T14:04:56Z</time>
      </trkpt>
      <trkpt lat="44.75323" lon="6.24784">
        <ele>1723</ele>
        <time>2017-08-29T14:05:05Z</time>
      </trkpt>
      <trkpt lat="44.75323" lon="6.24784">
        <ele>1723</ele>
        <time>2017-08-29T14:05:16Z</time>
      </trkpt>
      <trkpt lat="44.75323" lon="6.24784">
        <ele>1723</ele>
        <time>2017-08-29T14:05:26Z</time>
      </trkpt>
      <trkpt lat="44.75323" lon="6.24784">
        <ele>1723</ele>
        <time>2017-08-29T14:05:35Z</time>
      </trkpt>
      <trkpt lat="44.75323" lon="6.24784">
        <ele>1723</ele>
        <time>2017-08-29T14:05:46Z</time>
      </trkpt>
      <trkpt lat="44.75323" lon="6.24784">
        <ele>1723</ele>
        <time>2017-08-29T14:05:56Z</time>
      </trkpt>
      <trkpt lat="44.75323" lon="6.24784">
        <ele>1723</ele>
        <time>2017-08-29T14:06:05Z</time>
      </trkpt>
      <trkpt lat="44.75323" lon="6.24784">
        <ele>1723</ele>
        <time>2017-08-29T14:06:16Z</time>
      </trkpt>
      <trkpt lat="44.75323" lon="6.24784">
        <ele>1723</ele>
        <time>2017-08-29T14:06:26Z</time>
      </trkpt>
      <trkpt lat="44.75323" lon="6.24784">
        <ele>1723</ele>
        <time>2017-08-29T14:06:35Z</time>
      </trkpt>
      <trkpt lat="44.75323" lon="6.24784">
        <ele>1723</ele>
        <time>2017-08-29T14:06:46Z</time>
      </trkpt>
      <trkpt lat="44.75323" lon="6.24784">
        <ele>1723</ele>
        <time>2017-08-29T14:06:56Z</time>
      </trkpt>
      <trkpt lat="44.75322" lon="6.24833">
        <ele>1707</ele>
        <time>2017-08-29T14:07:05Z</time>
      </trkpt>
      <trkpt lat="44.75322" lon="6.24833">
        <ele>1707</ele>
        <time>2017-08-29T14:07:16Z</time>
      </trkpt>
      <trkpt lat="44.75322" lon="6.24833">
        <ele>1707</ele>
        <time>2017-08-29T14:07:26Z</time>
      </trkpt>
      <trkpt lat="44.75322" lon="6.24833">
        <ele>1707</ele>
        <time>2017-08-29T14:07:35Z</time>
      </trkpt>
      <trkpt lat="44.75322" lon="6.24833">
        <ele>1707</ele>
        <time>2017-08-29T14:07:46Z</time>
      </trkpt>
      <trkpt lat="44.75283" lon="6.24829">
        <ele>1703</ele>
        <time>2017-08-29T14:07:56Z</time>
      </trkpt>
      <trkpt lat="44.75283" lon="6.24829">
        <ele>1703</ele>
        <time>2017-08-29T14:08:05Z</time>
      </trkpt>
      <trkpt lat="44.75283" lon="6.24829">
        <ele>1703</ele>
        <time>2017-08-29T14:08:16Z</time>
      </trkpt>
      <trkpt lat="44.75283" lon="6.24829">
        <ele>1703</ele>
        <time>2017-08-29T14:08:26Z</time>
      </trkpt>
      <trkpt lat="44.75283" lon="6.24829">
        <ele>1703</ele>
        <time>2017-08-29T14:08:35Z</time>
      </trkpt>
      <trkpt lat="44.75283" lon="6.24829">
        <ele>1703</ele>
        <time>2017-08-29T14:08:46Z</time>
      </trkpt>
      <trkpt lat="44.75283" lon="6.24829">
        <ele>1703</ele>
        <time>2017-08-29T14:08:56Z</time>
      </trkpt>
      <trkpt lat="44.75283" lon="6.24829">
        <ele>1703</ele>
        <time>2017-08-29T14:09:05Z</time>
      </trkpt>
      <trkpt lat="44.75283" lon="6.24829">
        <ele>1703</ele>
        <time>2017-08-29T14:09:16Z</time>
      </trkpt>
      <trkpt lat="44.75283" lon="6.24829">
        <ele>1703</ele>
        <time>2017-08-29T14:09:26Z</time>
      </trkpt>
      <trkpt lat="44.75283" lon="6.24829">
        <ele>1703</ele>
        <time>2017-08-29T14:09:35Z</time>
      </trkpt>
      <trkpt lat="44.75284" lon="6.24876">
        <ele>1682</ele>
        <time>2017-08-29T14:09:46Z</time>
      </trkpt>
      <trkpt lat="44.75284" lon="6.24876">
        <ele>1682</ele>
        <time>2017-08-29T14:09:56Z</time>
      </trkpt>
      <trkpt lat="44.75284" lon="6.24876">
        <ele>1682</ele>
        <time>2017-08-29T14:10:05Z</time>
      </trkpt>
      <trkpt lat="44.75284" lon="6.24876">
        <ele>1682</ele>
        <time>2017-08-29T14:10:16Z</time>
      </trkpt>
      <trkpt lat="44.75284" lon="6.24876">
        <ele>1682</ele>
        <time>2017-08-29T14:10:26Z</time>
      </trkpt>
      <trkpt lat="44.75284" lon="6.24876">
        <ele>1682</ele>
        <time>2017-08-29T14:10:35Z</time>
      </trkpt>
      <trkpt lat="44.75284" lon="6.24876">
        <ele>1682</ele>
        <time>2017-08-29T14:10:46Z</time>
      </trkpt>
      <trkpt lat="44.75251" lon="6.2489">
        <ele>1670</ele>
        <time>2017-08-29T14:10:56Z</time>
      </trkpt>
      <trkpt lat="44.75249" lon="6.24889">
        <ele>1669</ele>
        <time>2017-08-29T14:11:05Z</time>
      </trkpt>
      <trkpt lat="44.75249" lon="6.24889">
        <ele>1669</ele>
        <time>2017-08-29T14:11:16Z</time>
      </trkpt>
      <trkpt lat="44.75249" lon="6.24889">
        <ele>1669</ele>
        <time>2017-08-29T14:11:26Z</time>
      </trkpt>
      <trkpt lat="44.75249" lon="6.24889">
        <ele>1669</ele>
        <time>2017-08-29T14:11:35Z</time>
      </trkpt>
      <trkpt lat="44.75249" lon="6.24889">
        <ele>1669</ele>
        <time>2017-08-29T14:11:46Z</time>
      </trkpt>
      <trkpt lat="44.75249" lon="6.24889">
        <ele>1669</ele>
        <time>2017-08-29T14:11:56Z</time>
      </trkpt>
      <trkpt lat="44.75249" lon="6.24889">
        <ele>1669</ele>
        <time>2017-08-29T14:12:05Z</time>
      </trkpt>
      <trkpt lat="44.75249" lon="6.24889">
        <ele>1669</ele>
        <time>2017-08-29T14:12:16Z</time>
      </trkpt>
      <trkpt lat="44.75226" lon="6.24927">
        <ele>1653</ele>
        <time>2017-08-29T14:12:26Z</time>
      </trkpt>
      <trkpt lat="44.75226" lon="6.24927">
        <ele>1653</ele>
        <time>2017-08-29T14:12:35Z</time>
      </trkpt>
      <trkpt lat="44.75226" lon="6.24927">
        <ele>1653</ele>
        <time>2017-08-29T14:12:46Z</time>
      </trkpt>
      <trkpt lat="44.75226" lon="6.24927">
        <ele>1653</ele>
        <time>2017-08-29T14:12:56Z</time>
      </trkpt>
      <trkpt lat="44.75226" lon="6.24927">
        <ele>1653</ele>
        <time>2017-08-29T14:13:05Z</time>
      </trkpt>
      <trkpt lat="44.75187" lon="6.24932">
        <ele>1647</ele>
        <time>2017-08-29T14:13:16Z</time>
      </trkpt>
      <trkpt lat="44.75187" lon="6.24932">
        <ele>1647</ele>
        <time>2017-08-29T14:13:26Z</time>
      </trkpt>
      <trkpt lat="44.75187" lon="6.24932">
        <ele>1647</ele>
        <time>2017-08-29T14:13:35Z</time>
      </trkpt>
      <trkpt lat="44.75187" lon="6.24932">
        <ele>1647</ele>
        <time>2017-08-29T14:13:46Z</time>
      </trkpt>
      <trkpt lat="44.75148" lon="6.24935">
        <ele>1645</ele>
        <time>2017-08-29T14:13:56Z</time>
      </trkpt>
      <trkpt lat="44.75148" lon="6.24935">
        <ele>1645</ele>
        <time>2017-08-29T14:14:05Z</time>
      </trkpt>
      <trkpt lat="44.75148" lon="6.24935">
        <ele>1645</ele>
        <time>2017-08-29T14:14:16Z</time>
      </trkpt>
      <trkpt lat="44.75148" lon="6.24935">
        <ele>1645</ele>
        <time>2017-08-29T14:14:26Z</time>
      </trkpt>
      <trkpt lat="44.75148" lon="6.24935">
        <ele>1645</ele>
        <time>2017-08-29T14:14:35Z</time>
      </trkpt>
      <trkpt lat="44.7511" lon="6.24935">
        <ele>1636</ele>
        <time>2017-08-29T14:14:46Z</time>
      </trkpt>
      <trkpt lat="44.7511" lon="6.24935">
        <ele>1636</ele>
        <time>2017-08-29T14:14:56Z</time>
      </trkpt>
      <trkpt lat="44.7511" lon="6.24935">
        <ele>1636</ele>
        <time>2017-08-29T14:15:05Z</time>
      </trkpt>
      <trkpt lat="44.7511" lon="6.24935">
        <ele>1636</ele>
        <time>2017-08-29T14:15:16Z</time>
      </trkpt>
      <trkpt lat="44.7511" lon="6.24935">
        <ele>1636</ele>
        <time>2017-08-29T14:15:26Z</time>
      </trkpt>
      <trkpt lat="44.75072" lon="6.24924">
        <ele>1629</ele>
        <time>2017-08-29T14:15:35Z</time>
      </trkpt>
      <trkpt lat="44.75072" lon="6.24924">
        <ele>1629</ele>
        <time>2017-08-29T14:15:46Z</time>
      </trkpt>
      <trkpt lat="44.75072" lon="6.24924">
        <ele>1629</ele>
        <time>2017-08-29T14:15:56Z</time>
      </trkpt>
      <trkpt lat="44.75072" lon="6.24924">
        <ele>1629</ele>
        <time>2017-08-29T14:16:05Z</time>
      </trkpt>
      <trkpt lat="44.75038" lon="6.24899">
        <ele>1627</ele>
        <time>2017-08-29T14:16:16Z</time>
      </trkpt>
      <trkpt lat="44.75038" lon="6.24899">
        <ele>1627</ele>
        <time>2017-08-29T14:16:26Z</time>
      </trkpt>
      <trkpt lat="44.75038" lon="6.24899">
        <ele>1627</ele>
        <time>2017-08-29T14:16:35Z</time>
      </trkpt>
      <trkpt lat="44.75038" lon="6.24899">
        <ele>1627</ele>
        <time>2017-08-29T14:16:46Z</time>
      </trkpt>
      <trkpt lat="44.75038" lon="6.24899">
        <ele>1627</ele>
        <time>2017-08-29T14:16:56Z</time>
      </trkpt>
      <trkpt lat="44.75038" lon="6.24899">
        <ele>1627</ele>
        <time>2017-08-29T14:17:05Z</time>
      </trkpt>
      <trkpt lat="44.75038" lon="6.24899">
        <ele>1627</ele>
        <time>2017-08-29T14:17:16Z</time>
      </trkpt>
      <trkpt lat="44.75038" lon="6.24899">
        <ele>1627</ele>
        <time>2017-08-29T14:17:26Z</time>
      </trkpt>
      <trkpt lat="44.75038" lon="6.24899">
        <ele>1627</ele>
        <time>2017-08-29T14:17:35Z</time>
      </trkpt>
      <trkpt lat="44.75038" lon="6.24899">
        <ele>1627</ele>
        <time>2017-08-29T14:17:46Z</time>
      </trkpt>
      <trkpt lat="44.75004" lon="6.24904">
        <ele>1607</ele>
        <time>2017-08-29T14:17:56Z</time>
      </trkpt>
      <trkpt lat="44.75004" lon="6.24904">
        <ele>1607</ele>
        <time>2017-08-29T14:18:05Z</time>
      </trkpt>
      <trkpt lat="44.75004" lon="6.24904">
        <ele>1607</ele>
        <time>2017-08-29T14:18:16Z</time>
      </trkpt>
      <trkpt lat="44.75004" lon="6.24904">
        <ele>1607</ele>
        <time>2017-08-29T14:18:26Z</time>
      </trkpt>
      <trkpt lat="44.75004" lon="6.24904">
        <ele>1607</ele>
        <time>2017-08-29T14:18:35Z</time>
      </trkpt>
      <trkpt lat="44.75004" lon="6.24904">
        <ele>1607</ele>
        <time>2017-08-29T14:18:46Z</time>
      </trkpt>
      <trkpt lat="44.75004" lon="6.24904">
        <ele>1607</ele>
        <time>2017-08-29T14:18:56Z</time>
      </trkpt>
      <trkpt lat="44.75004" lon="6.24904">
        <ele>1607</ele>
        <time>2017-08-29T14:19:05Z</time>
      </trkpt>
      <trkpt lat="44.74969" lon="6.24903">
        <ele>1593</ele>
        <time>2017-08-29T14:19:16Z</time>
      </trkpt>
      <trkpt lat="44.74968" lon="6.24901">
        <ele>1593</ele>
        <time>2017-08-29T14:19:26Z</time>
      </trkpt>
      <trkpt lat="44.74968" lon="6.24901">
        <ele>1593</ele>
        <time>2017-08-29T14:19:35Z</time>
      </trkpt>
      <trkpt lat="44.74968" lon="6.24901">
        <ele>1593</ele>
        <time>2017-08-29T14:19:46Z</time>
      </trkpt>
      <trkpt lat="44.74968" lon="6.24901">
        <ele>1593</ele>
        <time>2017-08-29T14:19:56Z</time>
      </trkpt>
      <trkpt lat="44.74968" lon="6.24901">
        <ele>1593</ele>
        <time>2017-08-29T14:20:05Z</time>
      </trkpt>
      <trkpt lat="44.74968" lon="6.24901">
        <ele>1593</ele>
        <time>2017-08-29T14:20:16Z</time>
      </trkpt>
      <trkpt lat="44.74935" lon="6.24882">
        <ele>1578</ele>
        <time>2017-08-29T14:20:26Z</time>
      </trkpt>
      <trkpt lat="44.74935" lon="6.24882">
        <ele>1578</ele>
        <time>2017-08-29T14:20:35Z</time>
      </trkpt>
      <trkpt lat="44.74935" lon="6.24882">
        <ele>1578</ele>
        <time>2017-08-29T14:20:46Z</time>
      </trkpt>
      <trkpt lat="44.74935" lon="6.24882">
        <ele>1578</ele>
        <time>2017-08-29T14:20:56Z</time>
      </trkpt>
      <trkpt lat="44.74935" lon="6.24882">
        <ele>1578</ele>
        <time>2017-08-29T14:21:05Z</time>
      </trkpt>
      <trkpt lat="44.749" lon="6.24864">
        <ele>1579</ele>
        <time>2017-08-29T14:21:16Z</time>
      </trkpt>
      <trkpt lat="44.749" lon="6.24864">
        <ele>1579</ele>
        <time>2017-08-29T14:21:26Z</time>
      </trkpt>
      <trkpt lat="44.749" lon="6.24864">
        <ele>1579</ele>
        <time>2017-08-29T14:21:35Z</time>
      </trkpt>
      <trkpt lat="44.749" lon="6.24864">
        <ele>1579</ele>
        <time>2017-08-29T14:21:46Z</time>
      </trkpt>
      <trkpt lat="44.749" lon="6.24864">
        <ele>1579</ele>
        <time>2017-08-29T14:21:56Z</time>
      </trkpt>
      <trkpt lat="44.749" lon="6.24864">
        <ele>1579</ele>
        <time>2017-08-29T14:22:05Z</time>
      </trkpt>
      <trkpt lat="44.749" lon="6.24864">
        <ele>1579</ele>
        <time>2017-08-29T14:22:16Z</time>
      </trkpt>
      <trkpt lat="44.749" lon="6.24864">
        <ele>1579</ele>
        <time>2017-08-29T14:22:26Z</time>
      </trkpt>
      <trkpt lat="44.749" lon="6.24864">
        <ele>1579</ele>
        <time>2017-08-29T14:22:35Z</time>
      </trkpt>
      <trkpt lat="44.74869" lon="6.24857">
        <ele>1559</ele>
        <time>2017-08-29T14:22:46Z</time>
      </trkpt>
      <trkpt lat="44.74867" lon="6.24857">
        <ele>1560</ele>
        <time>2017-08-29T14:22:56Z</time>
      </trkpt>
      <trkpt lat="44.74867" lon="6.24857">
        <ele>1560</ele>
        <time>2017-08-29T14:23:05Z</time>
      </trkpt>
      <trkpt lat="44.74867" lon="6.24857">
        <ele>1560</ele>
        <time>2017-08-29T14:23:16Z</time>
      </trkpt>
      <trkpt lat="44.74867" lon="6.24857">
        <ele>1560</ele>
        <time>2017-08-29T14:23:26Z</time>
      </trkpt>
      <trkpt lat="44.74867" lon="6.24857">
        <ele>1560</ele>
        <time>2017-08-29T14:23:35Z</time>
      </trkpt>
      <trkpt lat="44.74867" lon="6.24857">
        <ele>1560</ele>
        <time>2017-08-29T14:23:46Z</time>
      </trkpt>
      <trkpt lat="44.74867" lon="6.24857">
        <ele>1560</ele>
        <time>2017-08-29T14:23:56Z</time>
      </trkpt>
      <trkpt lat="44.74867" lon="6.24857">
        <ele>1560</ele>
        <time>2017-08-29T14:24:05Z</time>
      </trkpt>
      <trkpt lat="44.74835" lon="6.24859">
        <ele>1541</ele>
        <time>2017-08-29T14:24:16Z</time>
      </trkpt>
      <trkpt lat="44.74835" lon="6.24859">
        <ele>1541</ele>
        <time>2017-08-29T14:24:26Z</time>
      </trkpt>
      <trkpt lat="44.74835" lon="6.24859">
        <ele>1541</ele>
        <time>2017-08-29T14:24:35Z</time>
      </trkpt>
      <trkpt lat="44.74835" lon="6.24859">
        <ele>1541</ele>
        <time>2017-08-29T14:24:46Z</time>
      </trkpt>
      <trkpt lat="44.74835" lon="6.24859">
        <ele>1541</ele>
        <time>2017-08-29T14:24:56Z</time>
      </trkpt>
      <trkpt lat="44.74799" lon="6.24841">
        <ele>1533</ele>
        <time>2017-08-29T14:25:05Z</time>
      </trkpt>
      <trkpt lat="44.74799" lon="6.24841">
        <ele>1533</ele>
        <time>2017-08-29T14:25:16Z</time>
      </trkpt>
      <trkpt lat="44.74799" lon="6.24841">
        <ele>1533</ele>
        <time>2017-08-29T14:25:26Z</time>
      </trkpt>
      <trkpt lat="44.74799" lon="6.24841">
        <ele>1533</ele>
        <time>2017-08-29T14:25:35Z</time>
      </trkpt>
      <trkpt lat="44.74799" lon="6.24841">
        <ele>1533</ele>
        <time>2017-08-29T14:25:46Z</time>
      </trkpt>
      <trkpt lat="44.74799" lon="6.24841">
        <ele>1533</ele>
        <time>2017-08-29T14:25:56Z</time>
      </trkpt>
      <trkpt lat="44.74799" lon="6.24841">
        <ele>1533</ele>
        <time>2017-08-29T14:26:05Z</time>
      </trkpt>
      <trkpt lat="44.74766" lon="6.24828">
        <ele>1519</ele>
        <time>2017-08-29T14:26:16Z</time>
      </trkpt>
      <trkpt lat="44.74763" lon="6.24827">
        <ele>1518</ele>
        <time>2017-08-29T14:26:26Z</time>
      </trkpt>
      <trkpt lat="44.74763" lon="6.24827">
        <ele>1518</ele>
        <time>2017-08-29T14:26:35Z</time>
      </trkpt>
      <trkpt lat="44.74763" lon="6.24827">
        <ele>1518</ele>
        <time>2017-08-29T14:26:46Z</time>
      </trkpt>
      <trkpt lat="44.74725" lon="6.24829">
        <ele>1517</ele>
        <time>2017-08-29T14:26:56Z</time>
      </trkpt>
      <trkpt lat="44.74723" lon="6.24829">
        <ele>1517</ele>
        <time>2017-08-29T14:27:05Z</time>
      </trkpt>
      <trkpt lat="44.74723" lon="6.24829">
        <ele>1517</ele>
        <time>2017-08-29T14:27:16Z</time>
      </trkpt>
      <trkpt lat="44.74723" lon="6.24829">
        <ele>1517</ele>
        <time>2017-08-29T14:27:26Z</time>
      </trkpt>
      <trkpt lat="44.74684" lon="6.24839">
        <ele>1514</ele>
        <time>2017-08-29T14:27:35Z</time>
      </trkpt>
      <trkpt lat="44.74684" lon="6.24839">
        <ele>1514</ele>
        <time>2017-08-29T14:27:46Z</time>
      </trkpt>
      <trkpt lat="44.74684" lon="6.24839">
        <ele>1514</ele>
        <time>2017-08-29T14:27:56Z</time>
      </trkpt>
      <trkpt lat="44.74684" lon="6.24839">
        <ele>1514</ele>
        <time>2017-08-29T14:28:05Z</time>
      </trkpt>
      <trkpt lat="44.74645" lon="6.2484">
        <ele>1512</ele>
        <time>2017-08-29T14:28:16Z</time>
      </trkpt>
      <trkpt lat="44.74645" lon="6.2484">
        <ele>1512</ele>
        <time>2017-08-29T14:28:26Z</time>
      </trkpt>
      <trkpt lat="44.74645" lon="6.2484">
        <ele>1512</ele>
        <time>2017-08-29T14:28:35Z</time>
      </trkpt>
      <trkpt lat="44.74608" lon="6.24839">
        <ele>1509</ele>
        <time>2017-08-29T14:28:46Z</time>
      </trkpt>
      <trkpt lat="44.74606" lon="6.24839">
        <ele>1509</ele>
        <time>2017-08-29T14:28:56Z</time>
      </trkpt>
      <trkpt lat="44.74606" lon="6.24839">
        <ele>1509</ele>
        <time>2017-08-29T14:29:05Z</time>
      </trkpt>
      <trkpt lat="44.74606" lon="6.24839">
        <ele>1509</ele>
        <time>2017-08-29T14:29:16Z</time>
      </trkpt>
      <trkpt lat="44.74572" lon="6.24821">
        <ele>1510</ele>
        <time>2017-08-29T14:29:26Z</time>
      </trkpt>
      <trkpt lat="44.74569" lon="6.2482">
        <ele>1510</ele>
        <time>2017-08-29T14:29:35Z</time>
      </trkpt>
      <trkpt lat="44.74569" lon="6.2482">
        <ele>1510</ele>
        <time>2017-08-29T14:29:46Z</time>
      </trkpt>
      <trkpt lat="44.74569" lon="6.2482">
        <ele>1510</ele>
        <time>2017-08-29T14:29:56Z</time>
      </trkpt>
      <trkpt lat="44.74529" lon="6.24815">
        <ele>1505</ele>
        <time>2017-08-29T14:30:05Z</time>
      </trkpt>
      <trkpt lat="44.74529" lon="6.24815">
        <ele>1505</ele>
        <time>2017-08-29T14:30:16Z</time>
      </trkpt>
      <trkpt lat="44.74529" lon="6.24815">
        <ele>1505</ele>
        <time>2017-08-29T14:30:26Z</time>
      </trkpt>
      <trkpt lat="44.74529" lon="6.24815">
        <ele>1505</ele>
        <time>2017-08-29T14:30:35Z</time>
      </trkpt>
      <trkpt lat="44.74529" lon="6.24815">
        <ele>1505</ele>
        <time>2017-08-29T14:30:46Z</time>
      </trkpt>
      <trkpt lat="44.74495" lon="6.2479">
        <ele>1501</ele>
        <time>2017-08-29T14:30:56Z</time>
      </trkpt>
      <trkpt lat="44.74495" lon="6.2479">
        <ele>1501</ele>
        <time>2017-08-29T14:31:05Z</time>
      </trkpt>
      <trkpt lat="44.74495" lon="6.2479">
        <ele>1501</ele>
        <time>2017-08-29T14:31:16Z</time>
      </trkpt>
      <trkpt lat="44.74458" lon="6.2477">
        <ele>1497</ele>
        <time>2017-08-29T14:31:26Z</time>
      </trkpt>
      <trkpt lat="44.74458" lon="6.2477">
        <ele>1497</ele>
        <time>2017-08-29T14:31:35Z</time>
      </trkpt>
      <trkpt lat="44.74458" lon="6.2477">
        <ele>1497</ele>
        <time>2017-08-29T14:31:46Z</time>
      </trkpt>
      <trkpt lat="44.74458" lon="6.2477">
        <ele>1497</ele>
        <time>2017-08-29T14:31:56Z</time>
      </trkpt>
      <trkpt lat="44.74419" lon="6.24755">
        <ele>1496</ele>
        <time>2017-08-29T14:32:05Z</time>
      </trkpt>
      <trkpt lat="44.74419" lon="6.24755">
        <ele>1496</ele>
        <time>2017-08-29T14:32:16Z</time>
      </trkpt>
      <trkpt lat="44.74419" lon="6.24755">
        <ele>1496</ele>
        <time>2017-08-29T14:32:26Z</time>
      </trkpt>
      <trkpt lat="44.74419" lon="6.24755">
        <ele>1496</ele>
        <time>2017-08-29T14:32:35Z</time>
      </trkpt>
      <trkpt lat="44.74382" lon="6.24738">
        <ele>1500</ele>
        <time>2017-08-29T14:32:46Z</time>
      </trkpt>
      <trkpt lat="44.74382" lon="6.24738">
        <ele>1500</ele>
        <time>2017-08-29T14:32:56Z</time>
      </trkpt>
      <trkpt lat="44.74382" lon="6.24738">
        <ele>1500</ele>
        <time>2017-08-29T14:33:06Z</time>
      </trkpt>
      <trkpt lat="44.74382" lon="6.24738">
        <ele>1500</ele>
        <time>2017-08-29T14:33:16Z</time>
      </trkpt>
      <trkpt lat="44.74343" lon="6.24725">
        <ele>1504</ele>
        <time>2017-08-29T14:33:26Z</time>
      </trkpt>
      <trkpt lat="44.74343" lon="6.24725">
        <ele>1504</ele>
        <time>2017-08-29T14:33:35Z</time>
      </trkpt>
      <trkpt lat="44.74343" lon="6.24725">
        <ele>1504</ele>
        <time>2017-08-29T14:33:46Z</time>
      </trkpt>
      <trkpt lat="44.74311" lon="6.24738">
        <ele>1491</ele>
        <time>2017-08-29T14:33:56Z</time>
      </trkpt>
      <trkpt lat="44.74308" lon="6.24738">
        <ele>1490</ele>
        <time>2017-08-29T14:34:05Z</time>
      </trkpt>
      <trkpt lat="44.74308" lon="6.24738">
        <ele>1490</ele>
        <time>2017-08-29T14:34:16Z</time>
      </trkpt>
      <trkpt lat="44.74308" lon="6.24738">
        <ele>1490</ele>
        <time>2017-08-29T14:34:26Z</time>
      </trkpt>
      <trkpt lat="44.74308" lon="6.24738">
        <ele>1490</ele>
        <time>2017-08-29T14:34:35Z</time>
      </trkpt>
      <trkpt lat="44.7427" lon="6.24753">
        <ele>1481</ele>
        <time>2017-08-29T14:34:46Z</time>
      </trkpt>
      <trkpt lat="44.7427" lon="6.24753">
        <ele>1481</ele>
        <time>2017-08-29T14:34:56Z</time>
      </trkpt>
      <trkpt lat="44.7427" lon="6.24753">
        <ele>1481</ele>
        <time>2017-08-29T14:35:05Z</time>
      </trkpt>
      <trkpt lat="44.7427" lon="6.24753">
        <ele>1481</ele>
        <time>2017-08-29T14:35:16Z</time>
      </trkpt>
      <trkpt lat="44.74236" lon="6.24768">
        <ele>1471</ele>
        <time>2017-08-29T14:35:26Z</time>
      </trkpt>
      <trkpt lat="44.74235" lon="6.24768">
        <ele>1471</ele>
        <time>2017-08-29T14:35:35Z</time>
      </trkpt>
      <trkpt lat="44.74235" lon="6.24768">
        <ele>1471</ele>
        <time>2017-08-29T14:35:46Z</time>
      </trkpt>
      <trkpt lat="44.74235" lon="6.24768">
        <ele>1471</ele>
        <time>2017-08-29T14:35:56Z</time>
      </trkpt>
      <trkpt lat="44.74196" lon="6.24765">
        <ele>1467</ele>
        <time>2017-08-29T14:36:05Z</time>
      </trkpt>
      <trkpt lat="44.74196" lon="6.24765">
        <ele>1467</ele>
        <time>2017-08-29T14:36:16Z</time>
      </trkpt>
      <trkpt lat="44.74196" lon="6.24765">
        <ele>1467</ele>
        <time>2017-08-29T14:36:26Z</time>
      </trkpt>
      <trkpt lat="44.74196" lon="6.24765">
        <ele>1467</ele>
        <time>2017-08-29T14:36:35Z</time>
      </trkpt>
      <trkpt lat="44.74159" lon="6.24764">
        <ele>1467</ele>
        <time>2017-08-29T14:36:46Z</time>
      </trkpt>
      <trkpt lat="44.74157" lon="6.24763">
        <ele>1468</ele>
        <time>2017-08-29T14:36:56Z</time>
      </trkpt>
      <trkpt lat="44.74157" lon="6.24763">
        <ele>1468</ele>
        <time>2017-08-29T14:37:05Z</time>
      </trkpt>
      <trkpt lat="44.74157" lon="6.24763">
        <ele>1468</ele>
        <time>2017-08-29T14:37:16Z</time>
      </trkpt>
      <trkpt lat="44.74119" lon="6.2475">
        <ele>1468</ele>
        <time>2017-08-29T14:37:26Z</time>
      </trkpt>
      <trkpt lat="44.74118" lon="6.24749">
        <ele>1468</ele>
        <time>2017-08-29T14:37:35Z</time>
      </trkpt>
      <trkpt lat="44.74118" lon="6.24749">
        <ele>1468</ele>
        <time>2017-08-29T14:37:46Z</time>
      </trkpt>
      <trkpt lat="44.74118" lon="6.24749">
        <ele>1468</ele>
        <time>2017-08-29T14:37:56Z</time>
      </trkpt>
      <trkpt lat="44.74082" lon="6.24736">
        <ele>1457</ele>
        <time>2017-08-29T14:38:05Z</time>
      </trkpt>
      <trkpt lat="44.74081" lon="6.24736">
        <ele>1457</ele>
        <time>2017-08-29T14:38:16Z</time>
      </trkpt>
      <trkpt lat="44.74081" lon="6.24736">
        <ele>1457</ele>
        <time>2017-08-29T14:38:26Z</time>
      </trkpt>
      <trkpt lat="44.74081" lon="6.24736">
        <ele>1457</ele>
        <time>2017-08-29T14:38:35Z</time>
      </trkpt>
      <trkpt lat="44.74081" lon="6.24736">
        <ele>1457</ele>
        <time>2017-08-29T14:38:46Z</time>
      </trkpt>
      <trkpt lat="44.74044" lon="6.24717">
        <ele>1461</ele>
        <time>2017-08-29T14:38:56Z</time>
      </trkpt>
      <trkpt lat="44.74044" lon="6.24717">
        <ele>1461</ele>
        <time>2017-08-29T14:39:05Z</time>
      </trkpt>
      <trkpt lat="44.74044" lon="6.24717">
        <ele>1461</ele>
        <time>2017-08-29T14:39:16Z</time>
      </trkpt>
      <trkpt lat="44.74044" lon="6.24717">
        <ele>1461</ele>
        <time>2017-08-29T14:39:26Z</time>
      </trkpt>
      <trkpt lat="44.7401" lon="6.24689">
        <ele>1454</ele>
        <time>2017-08-29T14:39:35Z</time>
      </trkpt>
      <trkpt lat="44.7401" lon="6.24689">
        <ele>1454</ele>
        <time>2017-08-29T14:39:46Z</time>
      </trkpt>
      <trkpt lat="44.7401" lon="6.24689">
        <ele>1454</ele>
        <time>2017-08-29T14:39:56Z</time>
      </trkpt>
      <trkpt lat="44.7401" lon="6.24689">
        <ele>1454</ele>
        <time>2017-08-29T14:40:05Z</time>
      </trkpt>
      <trkpt lat="44.7401" lon="6.24689">
        <ele>1454</ele>
        <time>2017-08-29T14:40:16Z</time>
      </trkpt>
      <trkpt lat="44.7401" lon="6.24689">
        <ele>1454</ele>
        <time>2017-08-29T14:40:26Z</time>
      </trkpt>
      <trkpt lat="44.7401" lon="6.24689">
        <ele>1454</ele>
        <time>2017-08-29T14:40:35Z</time>
      </trkpt>
      <trkpt lat="44.7401" lon="6.24689">
        <ele>1454</ele>
        <time>2017-08-29T14:40:46Z</time>
      </trkpt>
      <trkpt lat="44.73976" lon="6.24694">
        <ele>1433</ele>
        <time>2017-08-29T14:40:56Z</time>
      </trkpt>
      <trkpt lat="44.73976" lon="6.24694">
        <ele>1433</ele>
        <time>2017-08-29T14:41:05Z</time>
      </trkpt>
      <trkpt lat="44.73976" lon="6.24694">
        <ele>1433</ele>
        <time>2017-08-29T14:41:16Z</time>
      </trkpt>
      <trkpt lat="44.73976" lon="6.24694">
        <ele>1433</ele>
        <time>2017-08-29T14:41:26Z</time>
      </trkpt>
      <trkpt lat="44.73939" lon="6.24687">
        <ele>1432</ele>
        <time>2017-08-29T14:41:35Z</time>
      </trkpt>
      <trkpt lat="44.73937" lon="6.24686">
        <ele>1434</ele>
        <time>2017-08-29T14:41:46Z</time>
      </trkpt>
      <trkpt lat="44.73937" lon="6.24686">
        <ele>1434</ele>
        <time>2017-08-29T14:41:56Z</time>
      </trkpt>
      <trkpt lat="44.73937" lon="6.24686">
        <ele>1434</ele>
        <time>2017-08-29T14:42:06Z</time>
      </trkpt>
      <trkpt lat="44.73898" lon="6.24677">
        <ele>1438</ele>
        <time>2017-08-29T14:42:16Z</time>
      </trkpt>
      <trkpt lat="44.73898" lon="6.24677">
        <ele>1438</ele>
        <time>2017-08-29T14:42:26Z</time>
      </trkpt>
      <trkpt lat="44.73898" lon="6.24677">
        <ele>1438</ele>
        <time>2017-08-29T14:42:35Z</time>
      </trkpt>
      <trkpt lat="44.73898" lon="6.24677">
        <ele>1438</ele>
        <time>2017-08-29T14:42:46Z</time>
      </trkpt>
      <trkpt lat="44.73898" lon="6.24677">
        <ele>1438</ele>
        <time>2017-08-29T14:42:56Z</time>
      </trkpt>
      <trkpt lat="44.73916" lon="6.24699">
        <ele>1403</ele>
        <time>2017-08-29T14:43:05Z</time>
      </trkpt>
      <trkpt lat="44.73916" lon="6.24699">
        <ele>1403</ele>
        <time>2017-08-29T14:43:16Z</time>
      </trkpt>
      <trkpt lat="44.73916" lon="6.24699">
        <ele>1403</ele>
        <time>2017-08-29T14:43:26Z</time>
      </trkpt>
      <trkpt lat="44.73916" lon="6.24699">
        <ele>1403</ele>
        <time>2017-08-29T14:43:35Z</time>
      </trkpt>
      <trkpt lat="44.73916" lon="6.24699">
        <ele>1403</ele>
        <time>2017-08-29T14:43:46Z</time>
      </trkpt>
      <trkpt lat="44.73879" lon="6.24683">
        <ele>1392</ele>
        <time>2017-08-29T14:43:56Z</time>
      </trkpt>
      <trkpt lat="44.73879" lon="6.24683">
        <ele>1392</ele>
        <time>2017-08-29T14:44:05Z</time>
      </trkpt>
      <trkpt lat="44.73879" lon="6.24683">
        <ele>1392</ele>
        <time>2017-08-29T14:44:16Z</time>
      </trkpt>
      <trkpt lat="44.73879" lon="6.24683">
        <ele>1392</ele>
        <time>2017-08-29T14:44:26Z</time>
      </trkpt>
      <trkpt lat="44.73879" lon="6.24683">
        <ele>1392</ele>
        <time>2017-08-29T14:44:35Z</time>
      </trkpt>
      <trkpt lat="44.73879" lon="6.24683">
        <ele>1392</ele>
        <time>2017-08-29T14:44:46Z</time>
      </trkpt>
      <trkpt lat="44.73879" lon="6.24683">
        <ele>1392</ele>
        <time>2017-08-29T14:44:56Z</time>
      </trkpt>
      <trkpt lat="44.73879" lon="6.24683">
        <ele>1392</ele>
        <time>2017-08-29T14:45:05Z</time>
      </trkpt>
      <trkpt lat="44.73878" lon="6.24727">
        <ele>1369</ele>
        <time>2017-08-29T14:45:16Z</time>
      </trkpt>
      <trkpt lat="44.73879" lon="6.24728">
        <ele>1369</ele>
        <time>2017-08-29T14:45:26Z</time>
      </trkpt>
      <trkpt lat="44.73879" lon="6.24728">
        <ele>1369</ele>
        <time>2017-08-29T14:45:35Z</time>
      </trkpt>
      <trkpt lat="44.73879" lon="6.24728">
        <ele>1369</ele>
        <time>2017-08-29T14:45:46Z</time>
      </trkpt>
      <trkpt lat="44.73904" lon="6.24769">
        <ele>1362</ele>
        <time>2017-08-29T14:45:56Z</time>
      </trkpt>
      <trkpt lat="44.73904" lon="6.24769">
        <ele>1362</ele>
        <time>2017-08-29T14:46:05Z</time>
      </trkpt>
      <trkpt lat="44.73904" lon="6.24769">
        <ele>1362</ele>
        <time>2017-08-29T14:46:16Z</time>
      </trkpt>
      <trkpt lat="44.73904" lon="6.24769">
        <ele>1362</ele>
        <time>2017-08-29T14:46:26Z</time>
      </trkpt>
      <trkpt lat="44.73867" lon="6.24789">
        <ele>1360</ele>
        <time>2017-08-29T14:46:35Z</time>
      </trkpt>
      <trkpt lat="44.73867" lon="6.24789">
        <ele>1360</ele>
        <time>2017-08-29T14:46:46Z</time>
      </trkpt>
      <trkpt lat="44.73867" lon="6.24789">
        <ele>1360</ele>
        <time>2017-08-29T14:46:56Z</time>
      </trkpt>
      <trkpt lat="44.73867" lon="6.24789">
        <ele>1360</ele>
        <time>2017-08-29T14:47:05Z</time>
      </trkpt>
      <trkpt lat="44.73867" lon="6.24789">
        <ele>1360</ele>
        <time>2017-08-29T14:47:16Z</time>
      </trkpt>
      <trkpt lat="44.73867" lon="6.24789">
        <ele>1360</ele>
        <time>2017-08-29T14:47:26Z</time>
      </trkpt>
      <trkpt lat="44.73882" lon="6.24834">
        <ele>1347</ele>
        <time>2017-08-29T14:47:35Z</time>
      </trkpt>
      <trkpt lat="44.73884" lon="6.24835">
        <ele>1346</ele>
        <time>2017-08-29T14:47:46Z</time>
      </trkpt>
      <trkpt lat="44.73884" lon="6.24835">
        <ele>1346</ele>
        <time>2017-08-29T14:47:56Z</time>
      </trkpt>
      <trkpt lat="44.73884" lon="6.24835">
        <ele>1346</ele>
        <time>2017-08-29T14:48:05Z</time>
      </trkpt>
      <trkpt lat="44.73925" lon="6.24837">
        <ele>1345</ele>
        <time>2017-08-29T14:48:16Z</time>
      </trkpt>
      <trkpt lat="44.73925" lon="6.24837">
        <ele>1345</ele>
        <time>2017-08-29T14:48:26Z</time>
      </trkpt>
      <trkpt lat="44.73925" lon="6.24837">
        <ele>1345</ele>
        <time>2017-08-29T14:48:36Z</time>
      </trkpt>
      <trkpt lat="44.73925" lon="6.24837">
        <ele>1345</ele>
        <time>2017-08-29T14:48:46Z</time>
      </trkpt>
      <trkpt lat="44.73925" lon="6.24837">
        <ele>1345</ele>
        <time>2017-08-29T14:48:56Z</time>
      </trkpt>
      <trkpt lat="44.73925" lon="6.24837">
        <ele>1345</ele>
        <time>2017-08-29T14:49:06Z</time>
      </trkpt>
      <trkpt lat="44.73925" lon="6.24837">
        <ele>1345</ele>
        <time>2017-08-29T14:49:16Z</time>
      </trkpt>
      <trkpt lat="44.73925" lon="6.24837">
        <ele>1345</ele>
        <time>2017-08-29T14:49:26Z</time>
      </trkpt>
      <trkpt lat="44.73925" lon="6.24837">
        <ele>1345</ele>
        <time>2017-08-29T14:49:35Z</time>
      </trkpt>
      <trkpt lat="44.73925" lon="6.24837">
        <ele>1345</ele>
        <time>2017-08-29T14:49:46Z</time>
      </trkpt>
      <trkpt lat="44.73925" lon="6.24837">
        <ele>1345</ele>
        <time>2017-08-29T14:49:56Z</time>
      </trkpt>
      <trkpt lat="44.73925" lon="6.24837">
        <ele>1345</ele>
        <time>2017-08-29T14:50:05Z</time>
      </trkpt>
      <trkpt lat="44.73925" lon="6.24837">
        <ele>1345</ele>
        <time>2017-08-29T14:50:16Z</time>
      </trkpt>
      <trkpt lat="44.73925" lon="6.24837">
        <ele>1345</ele>
        <time>2017-08-29T14:50:26Z</time>
      </trkpt>
      <trkpt lat="44.73925" lon="6.24837">
        <ele>1345</ele>
        <time>2017-08-29T14:50:35Z</time>
      </trkpt>
      <trkpt lat="44.73925" lon="6.24837">
        <ele>1345</ele>
        <time>2017-08-29T14:50:46Z</time>
      </trkpt>
      <trkpt lat="44.73925" lon="6.24837">
        <ele>1345</ele>
        <time>2017-08-29T14:50:56Z</time>
      </trkpt>
      <trkpt lat="44.73925" lon="6.24837">
        <ele>1345</ele>
        <time>2017-08-29T14:51:05Z</time>
      </trkpt>
      <trkpt lat="44.73925" lon="6.24837">
        <ele>1345</ele>
        <time>2017-08-29T14:51:16Z</time>
      </trkpt>
      <trkpt lat="44.73925" lon="6.24837">
        <ele>1345</ele>
        <time>2017-08-29T14:51:26Z</time>
      </trkpt>
      <trkpt lat="44.73925" lon="6.24837">
        <ele>1345</ele>
        <time>2017-08-29T14:51:35Z</time>
      </trkpt>
      <trkpt lat="44.73925" lon="6.24837">
        <ele>1345</ele>
        <time>2017-08-29T14:51:46Z</time>
      </trkpt>
      <trkpt lat="44.73925" lon="6.24837">
        <ele>1345</ele>
        <time>2017-08-29T14:51:56Z</time>
      </trkpt>
      <trkpt lat="44.73925" lon="6.24837">
        <ele>1345</ele>
        <time>2017-08-29T14:52:05Z</time>
      </trkpt>
      <trkpt lat="44.73925" lon="6.24837">
        <ele>1345</ele>
        <time>2017-08-29T14:52:16Z</time>
      </trkpt>
      <trkpt lat="44.73925" lon="6.24837">
        <ele>1345</ele>
        <time>2017-08-29T14:52:26Z</time>
      </trkpt>
      <trkpt lat="44.73925" lon="6.24837">
        <ele>1345</ele>
        <time>2017-08-29T14:52:35Z</time>
      </trkpt>
      <trkpt lat="44.73925" lon="6.24837">
        <ele>1345</ele>
        <time>2017-08-29T14:52:46Z</time>
      </trkpt>
      <trkpt lat="44.73925" lon="6.24837">
        <ele>1345</ele>
        <time>2017-08-29T14:52:56Z</time>
      </trkpt>
      <trkpt lat="44.73925" lon="6.24837">
        <ele>1345</ele>
        <time>2017-08-29T14:53:06Z</time>
      </trkpt>
    </trkseg>
  </trk>
</gpx>